You are on page 1of 612

COM1\dvc1 COM1\dvc1 COM1\dvc1 COM1\dvc1 COM1\dvc1 COM1\dvc1

Engine Speed (absolute) Oil Pressure (absolute) Temperature (absolute)


Date Time (rpm) (mmHg) (gauge) (kPa) (kPa) (degC) (kPa)

03,07,2014 13:10.8 0 771.92 01,01,1940 104.28 -17.78 174.85

03,07,2014 13:15.8 0 771.92 01,01,1940 104.28 -17.78 174.85

03,07,2014 13:20.9 0 771.52 01,01,1940 104.28 -17.78 174.2

03,07,2014 13:28.6 0 771.92 01,01,1940 104.28 -17.78 174.2

03,07,2014 13:30.8 0 771.92 01,01,1940 104.28 -17.78 174.2

03,07,2014 13:38.4 0 771.92 01,01,1940 104.28 -17.78 174.2

03,07,2014 13:40.9 0 771.92 01,01,1940 104.28 -17.78 174.2

03,07,2014 13:45.9 0 772.32 01,01,1940 104.28 -17.78 174.2

03,07,2014 13:50.9 0 771.92 01,01,1940 104.28 -17.78 174.2

03,07,2014 13:56.2 0 771.52 01,01,1940 104.18 -17.78 174.2

03,07,2014 14:01.2 0 771.52 01,01,1940 104.18 -17.78 174.2

03,07,2014 14:06.1 0 771.52 01,01,1940 104.18 -17.78 173.55

03,07,2014 14:11.1 0 771.52 01,01,1940 104.18 -17.78 173.55

03,07,2014 14:16.4 754.9 771.92 01,04,1974 107.62 -17.78 204.47

03,07,2014 14:21.4 1800.6 771.92 521.52 624.41 -17.78 392.14

03,07,2014 14:26.3 1800.6 771.92 513.87 616.76 -17.78 394.08

03,07,2014 14:31.3 1800 772.32 518.08 620.96 -17.78 393.43

03,07,2014 14:36.6 1799.4 772.32 514.74 617.62 -17.78 394.08


03,07,2014 14:41.6 1799.8 771.92 517.32 620.2 -17.78 395.91

03,07,2014 14:46.6 1799.1 772.32 508.81 611.69 -17.78 396.56

03,07,2014 14:51.6 1799.3 772.32 513.12 616 -17.78 393.43

03,07,2014 14:56.6 1800.4 772.32 513.12 616 -17.78 392.78

03,07,2014 15:01.6 1800.1 772.32 510.53 613.42 -17.78 394.62

03,07,2014 15:06.9 1800 772.32 514.74 617.62 -17.78 389.66

03,07,2014 15:11.9 1799.8 771.92 511.4 614.28 -17.78 393.43

03,07,2014 15:16.9 1800.4 772.32 508.81 611.69 -17.78 397.85

03,07,2014 15:21.9 1800.4 772.32 505.47 608.35 -17.78 397.2

03,07,2014 15:26.9 1772 771.92 504.61 607.49 -17.78 391.49

03,07,2014 15:32.1 1799.1 772.32 508.81 611.69 -17.78 394.08

03,07,2014 15:37.1 1797.5 771.92 508.81 611.69 -17.78 390.85

03,07,2014 15:42.1 1800.9 772.32 497.93 600.81 -17.78 392.78

03,07,2014 15:47.1 1800.1 771.92 504.61 607.49 -17.78 395.26

03,07,2014 15:52.1 1800.3 771.92 506.33 609.22 -17.78 397.2

03,07,2014 15:57.0 1806.9 771.92 492 594.89 -17.78 395.91

03,07,2014 16:02.3 1799.6 771.92 492 594.89 -17.78 391.49

03,07,2014 16:07.3 1799.8 771.92 486.94 589.82 -17.78 397.85

03,07,2014 16:12.3 1800.6 771.92 500.41 603.29 -17.78 389.66


03,07,2014 16:17.2 1798.1 772.32 492.87 595.75 -17.78 386.43

03,07,2014 16:22.2 1799.9 772.32 482.74 585.62 -17.78 381.37

03,07,2014 16:27.5 1798.8 771.92 486.19 589.07 -17.78 394.08

03,07,2014 16:32.5 1800.1 772.32 491.14 594.03 -17.78 389.01

03,07,2014 16:37.5 1800.4 771.92 501.27 604.15 -17.78 390.85

03,07,2014 16:42.5 1800.1 771.92 494.59 597.47 -17.78 390.85

03,07,2014 16:47.8 1800.4 771.92 485.33 588.21 -17.78 389.66

03,07,2014 16:52.8 1800 771.92 497.07 599.95 -17.78 390.85

03,07,2014 16:57.7 1799.9 772.32 486.94 589.82 -17.78 385.78

03,07,2014 17:02.7 1800.1 772.32 481.12 584.01 -17.78 389.66

03,07,2014 17:07.7 1800.1 771.92 492.87 595.75 -17.78 394.08

03,07,2014 17:12.7 1800 771.92 492 594.89 -17.78 390.2

03,07,2014 17:18.0 1799.3 771.92 479.4 582.28 -17.78 392.78

03,07,2014 17:23.0 1800 772.32 483.6 586.48 -17.78 389.01

03,07,2014 17:28.0 1799.8 771.92 491.14 594.03 -17.78 391.49

03,07,2014 17:33.0 1800.4 771.92 480.26 583.14 -17.78 390.85

03,07,2014 17:38.0 1800 772.32 486.19 589.07 -17.78 389.66

03,07,2014 17:43.0 1799.5 772.32 495.34 598.23 -17.78 388.37

03,07,2014 17:48.0 1799.1 772.32 482.74 585.62 -17.78 392.78


03,07,2014 17:53.3 1799.1 772.32 483.6 586.48 -17.78 387.08

03,07,2014 17:58.2 1800 772.32 475.2 578.08 -17.78 390.2

03,07,2014 18:03.2 1799.8 772.32 486.19 589.07 -17.78 393.43

03,07,2014 18:08.2 1800 772.32 486.94 589.82 -17.78 394.62

03,07,2014 18:13.5 1800.4 772.32 474.34 577.22 -17.78 387.08

03,07,2014 18:18.5 1799 772.32 486.19 589.07 -17.78 390.85

03,07,2014 18:23.5 1799.8 772.32 490.39 593.27 -17.78 394.08

03,07,2014 18:28.5 1799.1 772.32 478.54 581.53 -17.78 392.78

03,07,2014 18:33.5 1799.8 772.32 483.6 586.48 -17.78 391.49

03,07,2014 18:38.5 1800 772.32 473.48 576.36 -17.78 387.72

03,07,2014 18:43.8 1799.8 772.32 478.54 581.42 -17.78 391.49

03,07,2014 18:48.8 1800.3 772.32 481.88 584.76 -17.78 389.66

03,07,2014 18:53.8 1800.1 772.32 490.39 593.27 -17.78 389.01

03,07,2014 18:58.8 1799.8 772.32 480.26 583.14 -17.78 392.78

03,07,2014 19:03.8 1800 772.32 489.53 592.41 -17.78 395.26

03,07,2014 19:09.1 1800.5 772.32 490.39 593.27 -17.78 391.49

03,07,2014 19:14.1 1800.4 772.32 480.26 583.14 -17.78 392.14

03,07,2014 19:19.0 1800 772.72 471.86 574.85 -17.78 394.08

03,07,2014 19:24.0 1798.8 772.32 486.19 589.07 -17.78 390.85


03,07,2014 19:29.3 1799.3 772.32 480.26 583.14 -17.78 387.08

03,07,2014 19:34.3 1800.5 771.92 487.8 590.69 -17.78 395.26

03,07,2014 19:39.2 1800.1 772.72 476.92 579.91 -17.78 395.26

03,07,2014 19:44.2 1799.5 772.72 471.86 574.85 -17.78 396.56

03,07,2014 19:49.5 1799.3 772.32 468.41 571.29 -17.78 393.43

03,07,2014 19:54.5 1799.4 772.72 482.74 585.73 -17.78 395.91

03,07,2014 19:59.5 1799.4 772.32 486.94 589.82 -17.78 399.68

03,07,2014 20:04.5 1799.5 772.32 474.34 577.22 -17.78 394.62

03,07,2014 20:09.5 1799.6 772.32 476.06 578.94 -17.78 392.78

03,07,2014 20:14.5 1800.3 772.32 470.14 573.02 -17.78 389.66

03,07,2014 20:19.8 1799.8 772.32 476.92 579.8 -17.78 395.91

03,07,2014 20:24.8 1800 772.72 477.68 580.67 -17.78 391.49

03,07,2014 20:29.8 1800.1 772.32 486.94 589.82 -17.78 392.14

03,07,2014 20:34.8 1800 772.32 479.4 582.28 -17.78 393.43

03,07,2014 20:39.8 1800.3 772.32 469.27 572.16 -17.78 397.2

03,07,2014 20:44.8 1799.9 772.32 483.6 586.48 -17.78 397.85

03,07,2014 20:49.7 1800 772.32 473.48 576.36 -17.78 393.43

03,07,2014 20:55.0 1800.3 772.32 471.86 574.74 -17.78 395.26

03,07,2014 21:00.0 1799 772.32 483.6 586.48 -17.78 394.62


03,07,2014 21:05.0 1800.1 772.32 481.88 584.76 -17.78 398.49

03,07,2014 21:10.0 1799.9 772.32 467.66 570.54 -17.78 392.14

03,07,2014 21:15.3 1799.8 772.32 472.72 575.6 -17.78 394.08

03,07,2014 21:20.3 1800.4 772.32 473.48 576.36 -17.78 395.91

03,07,2014 21:25.2 1799 772.32 481.12 584.01 -17.78 396.56

03,07,2014 21:30.2 1800.5 772.32 481.12 584.01 -17.78 395.91

03,07,2014 21:35.2 1800.4 772.32 466.8 569.68 -17.78 392.14

03,07,2014 21:40.5 1799.9 772.32 471 573.88 -17.78 395.26

03,07,2014 21:45.4 1800.8 772.32 473.48 576.36 -17.78 393.43

03,07,2014 21:50.4 1800.8 772.32 481.12 584.01 -17.78 389.01

03,07,2014 21:55.4 1799.8 772.32 476.92 579.8 -17.78 391.49

03,07,2014 22:00.4 1800.1 772.32 476.92 579.8 -17.78 399.14

03,07,2014 22:05.4 1799.3 772.32 483.6 586.59 -17.78 393.43

03,07,2014 22:10.7 1800.5 772.32 477.68 580.56 -17.78 394.08

03,07,2014 22:15.7 1800.6 772.32 474.34 577.22 -17.78 396.56

03,07,2014 22:20.7 1799.6 772.72 484.46 587.45 -17.78 397.2

03,07,2014 22:25.7 1799.9 772.32 484.46 587.35 -17.78 393.43

03,07,2014 22:30.7 1799.4 772.32 471 573.88 -17.78 399.14

03,07,2014 22:36.0 1800 772.32 480.26 583.14 -17.78 397.2


03,07,2014 22:41.0 1800.4 772.72 476.06 579.05 -17.78 397.2

03,07,2014 22:46.0 1801.1 772.32 465.07 567.95 -17.78 393.43

03,07,2014 22:51.0 1800.3 771.92 474.34 577.22 -17.78 391.49

03,07,2014 22:56.0 1801.3 772.32 485.33 588.21 -17.78 399.68

03,07,2014 23:01.3 1799.9 772.32 480.26 583.14 -17.78 393.43

03,07,2014 23:06.3 1800 772.32 481.88 584.76 -17.78 392.14

03,07,2014 23:11.2 1800.3 772.32 471 573.88 -17.78 395.91

03,07,2014 23:16.2 1800.8 772.72 481.88 584.87 -17.78 396.56

03,07,2014 23:21.5 1800.3 771.92 471 573.88 -17.78 392.78

03,07,2014 23:26.5 1800.1 772.32 486.19 589.07 -17.78 394.08

03,07,2014 23:31.5 1799.5 772.32 471.86 574.74 -17.78 395.26

03,07,2014 23:36.5 1800.6 771.92 476.06 578.94 -17.78 399.14

03,07,2014 23:41.4 1799.4 772.32 468.41 571.29 -17.78 396.56

03,07,2014 23:46.8 1799.6 771.92 474.34 577.22 -17.78 398.49

03,07,2014 23:51.8 1799.5 772.32 466.8 569.68 -17.78 397.2

03,07,2014 23:56.7 1800.1 772.32 485.33 588.21 -17.78 396.56

03,07,2014 24:01.7 1799.3 772.32 489.53 592.41 -17.78 392.14

03,07,2014 24:06.7 1799.1 771.92 473.48 576.36 -17.78 395.91

03,07,2014 24:12.0 1800.3 772.32 481.12 584.01 -17.78 397.85


03,07,2014 24:17.0 1800 772.32 475.2 578.08 -17.78 398.49

03,07,2014 24:22.0 1800.4 772.32 464.21 567.09 -17.78 395.26

03,07,2014 24:27.0 1799.9 772.32 474.34 577.22 -17.78 391.49

03,07,2014 24:32.3 1799.8 772.32 466.8 569.68 -17.78 397.85

03,07,2014 24:37.2 1800.4 772.32 476.92 579.8 -17.78 397.85

03,07,2014 24:42.2 1799.4 772.32 479.4 582.28 -17.78 392.14

03,07,2014 24:47.2 1800 772.32 466.8 569.68 -17.78 394.62

03,07,2014 24:52.5 1799.8 771.92 462.59 565.48 -17.78 394.08

03,07,2014 24:57.5 1800.1 772.32 480.26 583.14 -17.78 397.2

03,07,2014 25:02.5 1800.1 772.32 471.86 574.74 -17.78 394.62

03,07,2014 25:07.5 1799.9 772.32 471.86 574.74 -17.78 394.08

03,07,2014 25:12.5 1799.5 772.32 476.06 578.94 -17.78 397.85

03,07,2014 25:17.5 1800 772.32 465.07 567.95 -17.78 397.85

03,07,2014 25:22.8 1800 772.32 471.86 574.74 -17.78 397.2

03,07,2014 25:27.8 1800 771.92 466.8 569.68 -17.78 399.14

03,07,2014 25:32.7 1800 772.72 483.6 586.48 -17.78 395.91

03,07,2014 25:37.7 1800.4 772.32 471.86 574.74 -17.78 390.85

03,07,2014 25:42.7 1800.1 772.32 476.06 578.94 -17.78 395.91

03,07,2014 25:48.0 1799.5 772.32 486.94 589.82 -17.78 397.85


03,07,2014 25:53.0 1800 772.32 478.54 581.42 -17.78 400.33

03,07,2014 25:58.0 1799.9 772.72 456.67 559.66 -17.78 394.08

03,07,2014 26:03.0 1799.9 772.32 467.66 570.54 -17.78 394.08

03,07,2014 26:08.3 1800.3 772.72 462.59 565.58 -17.78 398.49

03,07,2014 26:13.2 1800.5 772.32 477.68 580.56 -17.78 394.62

03,07,2014 26:18.2 1800.3 772.72 476.06 579.05 -17.78 395.91

03,07,2014 26:23.2 1800.3 772.72 465.07 568.06 -17.78 395.91

03,07,2014 26:28.5 1799.8 772.32 460.87 563.75 -17.78 392.78

03,07,2014 26:33.5 1800.1 772.32 466.8 569.68 -17.78 390.85

03,07,2014 26:38.5 1800.4 772.32 482.74 585.62 -17.78 394.62

03,07,2014 26:43.5 1799.6 772.32 471 573.88 -17.78 396.56

03,07,2014 26:48.4 1800.6 772.32 471 573.88 -17.78 400.97

03,07,2014 26:53.7 1799.6 772.72 476.06 579.05 -17.78 393.43

03,07,2014 26:58.7 1799.5 772.32 471 573.88 -17.78 395.91

03,07,2014 27:03.7 1800.1 772.32 463.46 566.34 -17.78 398.49

03,07,2014 27:08.7 1799.6 772.72 481.12 584.11 -17.78 394.62

03,07,2014 27:13.7 1799.5 772.32 473.48 576.36 -17.78 397.2

03,07,2014 27:19.0 1800.8 772.72 466.8 569.79 -17.78 398.49

03,07,2014 27:24.0 1798.9 772.72 489.53 592.52 -17.78 398.49


03,07,2014 27:29.0 1800.1 772.32 488.67 591.55 -17.78 397.2

03,07,2014 27:34.0 1799.4 772.32 470.14 573.02 -17.78 390.85

03,07,2014 27:39.3 1799.6 772.72 469.27 572.26 -17.78 395.91

03,07,2014 27:44.3 1800 772.32 465.07 567.95 -17.78 397.85

03,07,2014 27:49.2 1801.1 772.72 476.92 579.8 -17.78 395.26

03,07,2014 27:54.2 1799.4 772.32 473.48 576.47 -17.78 390.85

03,07,2014 27:59.2 1799.9 772.32 464.21 567.09 -17.78 397.85

03,07,2014 28:04.2 1800.4 772.72 477.68 580.67 -17.78 396.56

03,07,2014 28:09.5 1799.9 772.32 471.86 574.74 -17.78 392.14

03,07,2014 28:14.5 1799.8 772.72 475.2 578.19 -17.78 395.91

03,07,2014 28:19.5 1799.9 772.72 481.88 584.87 -17.78 394.62

03,07,2014 28:24.5 1799.9 772.72 481.88 584.87 -17.78 395.91

03,07,2014 28:29.4 1800.4 772.72 462.59 565.58 -17.78 397.2

03,07,2014 28:34.4 1799.6 772.72 472.72 575.71 -17.78 390.2

03,07,2014 28:39.7 1800.1 772.72 462.59 565.58 -17.78 398.49

03,07,2014 28:44.7 1800.8 772.72 478.54 581.42 -17.78 395.26

03,07,2014 28:49.7 1799.8 772.72 477.68 580.67 -17.78 395.26

03,07,2014 28:54.7 1799.4 772.32 465.07 567.95 -17.78 397.2

03,07,2014 28:59.7 1799.6 772.72 471 573.99 -17.78 396.56


03,07,2014 29:05.0 1800.1 772.72 486.94 589.93 -17.78 395.91

03,07,2014 29:10.0 1800.1 772.72 470.14 573.13 -17.78 392.78

03,07,2014 29:15.0 1800.3 772.72 479.4 582.39 -17.78 400.33

03,07,2014 29:20.0 1800.8 772.72 481.12 584.11 -17.78 394.08

03,07,2014 29:25.0 1800.1 772.72 470.14 573.13 -17.78 397.85

03,07,2014 29:30.3 1799.4 772.72 473.48 576.47 -17.78 396.56

03,07,2014 29:35.2 1800 772.72 472.72 575.71 -17.78 398.49

03,07,2014 29:40.2 1800 772.72 472.72 575.71 -17.78 395.91

03,07,2014 29:45.2 1800.4 772.72 483.6 586.59 -17.78 394.62

03,07,2014 29:50.5 1800.5 772.72 483.6 572.26 -17.78 397.85

03,07,2014 29:55.5 1800 772.72 481.12 584.11 -17.78 392.78

03,07,2014 30:00.4 1800.4 772.72 482.74 585.73 -17.78 393.43

03,07,2014 30:05.4 1800 772.32 467.66 570.54 -17.78 394.08

03,07,2014 30:10.4 1799.5 772.72 473.48 576.47 -17.78 392.78

03,07,2014 30:15.4 1802.1 772.72 477.68 580.67 -17.78 399.68

03,07,2014 30:20.7 1799.3 772.72 477.68 580.67 -17.78 394.08

03,07,2014 30:25.7 1799.6 772.72 469.27 572.26 -17.78 389.66

03,07,2014 30:30.7 1800 772.72 473.48 576.47 -17.78 394.62

03,07,2014 30:35.7 1799.9 772.72 467.66 570.65 -17.78 398.49


03,07,2014 30:40.7 1800.3 772.72 460.01 563 -17.78 397.85

03,07,2014 30:46.0 1799.3 772.32 465.93 568.82 -17.78 396.56

03,07,2014 30:51.0 1800.5 772.72 479.4 582.39 -17.78 397.2

03,07,2014 30:56.0 1800 772.72 471 573.99 -17.78 395.26

03,07,2014 31:01.0 1798.6 772.32 483.6 586.48 -17.78 395.91

03,07,2014 31:06.0 1800 772.32 481.12 584.01 -17.78 392.78

03,07,2014 31:11.0 1799.9 772.72 466.8 569.79 -17.78 393.43

03,07,2014 31:16.3 1799.3 772.32 461.73 564.72 -17.78 397.2

03,07,2014 31:21.2 1800.1 772.72 462.59 565.58 -17.78 392.78

03,07,2014 31:26.2 1799.5 772.32 476.92 579.8 -17.78 395.91

03,07,2014 31:31.2 1800.1 772.72 471.86 574.85 -17.78 395.91

03,07,2014 31:36.5 1800.1 772.72 480.26 583.25 -17.78 395.26

03,07,2014 31:41.5 1800.9 772.72 470.14 573.13 -17.78 397.2

03,07,2014 31:46.5 1800.5 772.32 476.92 579.8 -17.78 391.49

03,07,2014 31:51.5 1800.4 772.72 468.41 571.4 -17.78 395.91

03,07,2014 31:56.5 1799.5 772.72 481.12 584.11 -17.78 394.08

03,07,2014 32:01.8 1799.9 772.72 470.14 573.13 -17.78 390.85

03,07,2014 32:06.8 1800.1 772.32 476.06 579.05 -17.78 400.33

03,07,2014 32:11.8 1801 772.32 466.8 569.68 -17.78 397.2


03,07,2014 32:16.8 1799.9 772.72 478.54 581.53 -17.78 394.62

03,07,2014 32:21.8 1799.4 772.32 460.87 563.75 -17.78 393.43

03,07,2014 32:26.7 1799.5 772.72 465.07 568.06 -17.78 389.66

03,07,2014 32:32.1 1800.1 772.72 464.21 567.2 -17.78 395.26

03,07,2014 32:37.0 1799.1 772.72 483.6 586.59 -17.78 395.26

03,07,2014 32:42.0 1800 772.72 480.26 583.25 -17.78 395.91

03,07,2014 32:47.0 1799.8 772.32 464.21 567.09 -17.78 394.62

03,07,2014 32:52.3 1799.1 772.32 469.27 572.16 -17.78 394.08

03,07,2014 32:57.3 1800.3 772.32 464.21 567.2 -17.78 394.08

03,07,2014 33:02.2 1800.3 772.72 474.34 577.33 -17.78 395.26

03,07,2014 33:07.2 1800.3 772.32 467.66 570.54 -17.78 399.14

03,07,2014 33:12.2 1800.1 772.72 458.39 561.38 -17.78 400.33

03,07,2014 33:17.5 1799.3 772.32 475.2 578.08 -17.78 396.56

03,07,2014 33:22.5 1799.8 772.72 471.86 574.85 -17.78 390.85

03,07,2014 33:27.5 1800 772.72 461.73 564.72 -17.78 398.49

03,07,2014 33:32.5 1799.8 772.32 481.12 584.01 -17.78 392.78

03,07,2014 33:37.8 1800.1 772.72 472.72 575.71 -17.78 394.62

03,07,2014 33:42.8 1800.6 772.72 476.06 579.05 -17.78 398.49

03,07,2014 33:47.8 1799.6 772.72 466.8 569.79 -17.78 395.91


03,07,2014 33:52.7 1799.5 772.72 460.01 563 -17.78 396.56

03,07,2014 33:57.7 1800.1 772.72 464.21 567.2 -17.78 391.49

03,07,2014 34:03.0 1800.8 772.72 465.07 568.06 -17.78 397.85

03,07,2014 34:08.0 1799 772.72 458.39 561.38 -17.78 397.2

03,07,2014 34:13.0 1799.6 772.72 474.34 577.33 -17.78 395.26

03,07,2014 34:18.0 1800.6 772.72 475.2 578.19 -17.78 392.78

03,07,2014 34:23.0 1800.3 772.72 462.59 565.58 -17.78 395.91

03,07,2014 34:28.0 1800.3 772.72 476.92 579.91 -17.78 397.85

03,07,2014 34:33.3 1799.6 772.72 477.68 580.67 -17.78 394.62

03,07,2014 34:38.2 1799.8 772.32 477.68 580.56 -17.78 393.43

03,07,2014 34:43.2 1800.1 772.72 470.14 573.13 -17.78 395.26

03,07,2014 34:48.2 1800.6 772.72 460.01 563 -17.78 399.14

03,07,2014 34:53.2 1800 772.72 471.86 574.85 -17.78 392.14

03,07,2014 34:58.5 1799.8 772.72 470.14 573.13 -17.78 391.49

03,07,2014 35:03.5 1800.5 772.32 460.01 562.89 -17.78 395.91

03,07,2014 35:08.5 1799.5 772.72 472.72 575.71 -17.78 395.91

03,07,2014 35:13.5 1799.8 772.72 476.92 579.91 -17.78 395.91

03,07,2014 35:18.5 1799.3 772.72 467.66 570.65 -17.78 393.43

03,07,2014 35:23.5 1800.3 772.72 471.86 574.85 -17.78 394.62


03,07,2014 35:28.5 1799.5 772.72 457.53 560.52 -17.78 394.62

03,07,2014 35:33.8 1799.4 772.72 470.14 573.13 -17.78 392.78

03,07,2014 35:38.7 1800.1 772.32 478.54 581.42 -17.78 392.14

03,07,2014 35:43.7 1800.8 772.72 478.54 581.53 -17.78 397.2

03,07,2014 35:48.7 1799.4 772.72 469.27 572.26 -17.78 397.2

03,07,2014 35:53.7 1800.9 772.32 460.01 562.89 -17.78 399.14

03,07,2014 35:59.0 1800 772.72 471 573.99 -17.78 392.78

03,07,2014 36:04.0 1800.6 772.72 471 573.99 -17.78 398.49

03,07,2014 36:09.0 1799.3 772.72 460.01 563 -17.78 396.56

03,07,2014 36:14.0 1799.5 772.72 474.34 577.33 -17.78 395.26

03,07,2014 36:19.0 1799.4 772.72 470.14 573.13 -17.78 394.08

03,07,2014 36:24.0 1800.3 772.72 460.87 563.86 -17.78 394.08

03,07,2014 36:29.3 1799.6 772.72 473.48 576.47 -17.78 392.14

03,07,2014 36:34.2 1799.9 772.72 471 573.99 -17.78 397.2

03,07,2014 36:39.2 1799.9 772.72 479.4 582.39 -17.78 394.08

03,07,2014 36:44.2 1800.3 772.72 468.41 571.4 -17.78 393.43

03,07,2014 36:49.5 1800 772.32 475.2 578.19 -17.78 390.85

03,07,2014 36:54.5 1799.4 772.72 473.48 576.47 -17.78 391.49

03,07,2014 36:59.5 1800.4 772.72 466.8 569.79 -17.78 391.49


03,07,2014 37:04.5 1800.8 772.72 457.53 560.52 -17.78 397.85

03,07,2014 37:09.5 1799.5 772.72 470.14 573.13 -17.78 395.26

03,07,2014 37:14.8 1800 772.72 477.68 580.67 -17.78 390.85

03,07,2014 37:19.8 1800.4 772.72 481.88 584.87 -17.78 395.26

03,07,2014 37:24.8 1800.1 772.72 469.27 572.26 -17.78 397.2

03,07,2014 37:29.7 1799.9 772.72 469.27 572.26 -17.78 398.49

03,07,2014 37:34.7 1799.5 772.72 467.66 570.65 -17.78 393.43

03,07,2014 37:40.0 1799.6 772.72 464.21 567.2 -17.78 392.78

03,07,2014 37:45.0 1801.1 772.72 460.87 563.86 -17.78 393.43

03,07,2014 37:50.0 1800.1 772.72 471 573.99 -17.78 396.56

03,07,2014 37:55.0 1800.1 772.72 469.27 572.26 -17.78 392.78

03,07,2014 38:00.0 1800.1 772.72 457.53 560.52 -17.78 396.56

03,07,2014 38:05.3 1799.3 772.72 474.34 577.33 -17.78 398.49

03,07,2014 38:10.3 1800.3 772.72 476.92 579.91 -17.78 392.78

03,07,2014 38:15.3 1800.1 772.72 466.8 569.79 -17.78 396.56

03,07,2014 38:20.2 1799.5 772.72 475.2 578.19 -17.78 394.62

03,07,2014 38:25.5 1799.9 772.72 466.8 569.79 -17.78 391.49

03,07,2014 38:30.5 1799.9 772.72 475.2 578.19 -17.78 392.78

03,07,2014 38:35.5 1800 772.72 467.66 570.65 -17.78 393.43


03,07,2014 38:40.5 1799.8 772.72 457.53 560.52 -17.78 395.91

03,07,2014 38:45.5 1800.4 772.72 472.72 575.71 -17.78 396.56

03,07,2014 38:50.8 1800.3 772.72 471 573.99 -17.78 394.62

03,07,2014 38:55.8 1799.6 772.72 461.73 564.72 -17.78 398.49

03,07,2014 39:00.8 1799.1 772.72 479.4 582.39 -17.78 393.43

03,07,2014 39:05.8 1800.5 772.72 478.54 581.53 -17.78 392.78

03,07,2014 39:10.8 1799.9 772.32 467.66 570.54 -17.78 393.43

03,07,2014 39:15.8 1800 772.72 471.86 574.85 -17.78 394.62

03,07,2014 39:21.1 1800.5 772.32 477.68 580.56 -17.78 399.68

03,07,2014 39:26.1 1799.4 772.72 467.66 570.65 -17.78 394.08

03,07,2014 39:31.1 1799.6 772.72 472.72 575.71 -17.78 392.78

03,07,2014 39:36.0 1799.4 772.72 479.4 582.39 -17.78 395.26

03,07,2014 39:41.3 1799.1 772.72 476.06 579.05 -17.78 394.62

03,07,2014 39:46.3 1800.8 772.72 468.41 571.4 -17.78 390.85

03,07,2014 39:51.3 1799.6 772.72 460.01 563 -17.78 392.78

03,07,2014 39:56.2 1800.1 772.72 472.72 575.71 -17.78 394.62

03,07,2014 40:01.2 1800.4 772.72 478.54 581.53 -17.78 397.2

03,07,2014 40:06.5 1800.1 772.72 480.26 583.25 -17.78 394.08

03,07,2014 40:11.5 1799.9 772.32 471.86 574.85 -17.78 396.56


03,07,2014 40:16.5 1799.9 772.72 459.25 562.24 -17.78 395.26

03,07,2014 40:21.5 1800 772.72 471.86 574.85 -17.78 395.26

03,07,2014 40:26.5 1799.9 772.72 468.41 571.4 -17.78 390.85

03,07,2014 40:31.5 1800.5 772.72 477.68 580.67 -17.78 392.14

03,07,2014 40:36.8 1800.6 772.72 476.92 579.91 -17.78 397.2

03,07,2014 40:41.8 1799.4 772.72 472.72 575.71 -17.78 388.37

03,07,2014 40:46.8 1799.9 772.72 464.21 567.2 -17.78 395.91

03,07,2014 40:51.8 1800.1 772.72 471.86 574.85 -17.78 395.26

03,07,2014 40:56.8 1799.9 772.72 457.53 560.52 -17.78 397.2

03,07,2014 41:02.1 1800.8 772.72 468.41 571.4 -17.78 394.62

03,07,2014 41:07.1 1799.6 772.72 477.68 580.67 -17.78 392.78

03,07,2014 41:12.0 1800.6 772.72 479.4 582.39 -17.78 396.56

03,07,2014 41:17.0 1800.9 772.32 472.72 575.6 -17.78 395.91

03,07,2014 41:22.3 1799.9 772.72 466.8 569.79 -17.78 392.14

03,07,2014 41:27.3 1800.5 772.72 463.46 566.45 -17.78 394.62

03,07,2014 41:32.2 1799.1 772.72 473.48 576.47 -17.78 394.62

03,07,2014 41:37.2 1800.4 772.32 479.4 582.28 -17.78 395.91

03,07,2014 41:42.5 1799.8 772.72 480.26 583.25 -17.78 391.49

03,07,2014 41:47.5 1799.6 772.32 472.72 575.6 -17.78 395.91


03,07,2014 41:52.5 1800.1 772.72 465.93 568.92 -17.78 395.91

03,07,2014 41:57.5 1800.1 772.72 474.34 577.33 -17.78 393.43

03,07,2014 42:02.5 1800.4 772.32 478.54 581.53 -17.78 391.49

03,07,2014 42:07.8 1800.4 772.72 461.73 564.72 -17.78 395.26

03,07,2014 42:12.8 1800.3 772.72 476.92 579.91 -17.78 392.78

03,07,2014 42:17.8 1799.6 772.72 471 573.99 -17.78 397.2

03,07,2014 42:22.8 1799.5 772.72 462.59 565.58 -17.78 393.43

03,07,2014 42:27.8 1799.9 772.72 474.34 577.33 -17.78 394.62

03,07,2014 42:33.1 1800.4 772.72 467.66 570.65 -17.78 396.56

03,07,2014 42:38.0 1800 772.72 476.92 579.91 -17.78 395.26

03,07,2014 42:43.0 1800.1 772.72 476.92 579.91 -17.78 396.56

03,07,2014 42:48.0 1800.5 772.72 466.8 569.79 -17.78 398.49

03,07,2014 42:53.3 1800.1 772.72 478.54 581.53 -17.78 394.08

03,07,2014 42:58.3 1800.1 772.32 468.41 571.29 -17.78 389.01

03,07,2014 43:03.2 1799.9 772.72 461.73 564.72 -17.78 395.26

03,07,2014 43:08.2 1799 772.32 470.14 573.02 -17.78 394.08

03,07,2014 43:13.2 1800.5 772.72 463.46 566.45 -17.78 397.2

03,07,2014 43:18.2 1799.3 772.72 464.21 567.2 -17.78 389.66

03,07,2014 43:23.5 1801.1 772.32 473.48 576.36 -17.78 397.2


03,07,2014 43:28.5 1800.6 772.72 465.93 568.92 -17.78 392.78

03,07,2014 43:33.5 1799.8 772.72 481.12 584.11 -17.78 394.62

03,07,2014 43:38.5 1798.9 772.72 479.4 582.39 -17.78 391.49

03,07,2014 43:43.5 1800 772.72 465.93 568.92 -17.78 394.62

03,07,2014 43:48.7 1801 772.72 477.68 580.67 -17.78 392.78

03,07,2014 43:53.8 1800.1 772.72 472.72 575.71 -17.78 395.91

03,07,2014 43:58.7 1800.9 772.72 461.73 564.72 -17.78 394.62

03,07,2014 44:03.7 1799.4 772.72 471.86 574.85 -17.78 394.08

03,07,2014 44:08.7 1799.4 772.72 473.48 576.47 -17.78 397.2

03,07,2014 44:14.0 1800.6 772.72 478.54 581.53 -17.78 391.49

03,07,2014 44:19.0 1799.9 772.72 479.4 582.39 -17.78 392.14

03,07,2014 44:24.0 1799.4 772.72 465.93 568.92 -17.78 395.91

03,07,2014 44:29.0 1798.9 772.72 479.4 582.39 -17.78 394.08

03,07,2014 44:34.0 1799.9 772.72 482.74 585.73 -17.78 393.43

03,07,2014 44:39.3 1799.9 772.72 465.07 568.06 -17.78 396.56

03,07,2014 44:44.2 1799.5 772.72 471.86 574.85 -17.78 391.49

03,07,2014 44:49.2 1799.9 772.72 474.34 577.33 -17.78 389.66

03,07,2014 44:54.2 1800.3 772.72 464.21 567.2 -17.78 392.78

03,07,2014 44:59.2 1800.1 772.32 466.8 569.68 -17.78 390.85


03,07,2014 45:04.5 1799.5 772.72 463.46 566.45 -17.78 396.56

03,07,2014 45:09.5 1800.4 772.72 486.94 589.93 -17.78 394.08

03,07,2014 45:14.5 1799.9 772.72 485.33 588.32 -17.78 391.49

03,07,2014 45:19.5 1799.9 772.72 481.12 584.11 -17.78 392.78

03,07,2014 45:24.5 1800.8 772.72 481.12 584.11 -17.78 394.62

03,07,2014 45:29.8 1799 772.72 474.34 577.33 -17.78 389.66

03,07,2014 45:34.8 1800 772.72 462.59 565.58 -17.78 392.78

03,07,2014 45:39.8 1799.8 772.72 465.93 568.92 -17.78 394.62

03,07,2014 45:44.8 1800.4 772.72 464.21 567.2 -17.78 395.91

03,07,2014 45:49.8 1800 772.72 474.34 577.33 -17.78 395.26

03,07,2014 45:54.8 1800 772.72 469.27 572.26 -17.78 396.56

03,07,2014 46:00.1 1799.4 772.72 472.72 575.71 -17.78 394.62

03,07,2014 46:05.0 1799.5 772.72 469.27 572.26 -17.78 390.85

03,07,2014 46:10.0 1800.3 772.72 471 573.99 -17.78 390.85

03,07,2014 46:15.0 1800.3 772.72 485.33 588.32 -17.78 395.26

03,07,2014 46:20.3 1800.5 772.72 473.48 576.47 -17.78 393.43

03,07,2014 46:25.3 1800.5 772.72 477.68 580.67 -17.78 397.2

03,07,2014 46:29.6 1800 772.72 480.26 583.25 -17.78 393.43

03,07,2014 46:30.0 1799.8 772.72 476.92 579.91 -17.78 394.08


03,07,2014 46:30.4 1800.1 772.72 470.14 573.13 -17.78 394.62

03,07,2014 46:30.8 1800.3 772.72 473.48 576.47 -17.78 393.43

03,07,2014 46:31.2 1800.1 772.72 479.4 582.39 -17.78 393.43

03,07,2014 46:31.6 1800.1 772.72 479.4 582.39 -17.78 393.43

03,07,2014 46:31.6 1800.4 772.32 481.88 584.76 -17.78 394.62

03,07,2014 46:32.3 1800 772.72 477.68 580.67 -17.78 394.62

03,07,2014 46:32.7 1800.1 772.72 478.54 581.53 -17.78 393.43

03,07,2014 46:33.1 1799.9 772.72 467.66 570.65 -17.78 392.14

03,07,2014 46:33.8 1800.1 772.32 481.88 584.76 -17.78 390.2

03,07,2014 46:34.2 1801 772.72 475.2 578.19 -17.78 392.14

03,07,2014 46:34.6 1801 772.72 475.2 578.19 -17.78 392.14

03,07,2014 46:34.6 1800.1 772.72 471.86 574.85 -17.78 395.91

03,07,2014 46:35.0 1799.3 772.72 472.72 575.71 -17.78 392.78

03,07,2014 46:35.4 1800.1 772.72 483.6 586.59 -17.78 392.14

03,07,2014 46:35.8 1799.9 772.72 485.33 588.32 -17.78 395.91

03,07,2014 46:36.2 1799.6 772.72 484.46 587.45 -17.78 395.91

03,07,2014 46:36.6 1799.3 772.72 479.4 582.39 -17.78 392.78

03,07,2014 46:37.0 1800 772.72 478.54 581.53 -17.78 392.78

03,07,2014 46:37.4 1800 772.72 469.27 572.16 -17.78 393.43


03,07,2014 46:37.8 1799.6 772.72 469.27 572.26 -17.78 394.08

03,07,2014 46:38.2 1799.9 772.72 465.93 568.92 -17.78 395.26

03,07,2014 46:38.6 1799.9 772.72 465.93 568.92 -17.78 395.26

03,07,2014 46:38.6 1800 772.72 463.46 566.45 -17.78 392.78

03,07,2014 46:39.3 1799.6 772.72 480.26 583.25 -17.78 394.08

03,07,2014 46:39.7 1799.9 772.72 476.06 579.05 -17.78 395.91

03,07,2014 46:40.1 1800.6 772.72 466.8 569.79 -17.78 394.62

03,07,2014 46:40.5 1800.3 772.72 462.59 565.58 -17.78 393.43

03,07,2014 46:40.9 1800 772.32 473.48 576.36 -17.78 391.49

03,07,2014 46:41.3 1800.4 772.32 477.68 580.67 -17.78 393.43

03,07,2014 46:41.7 1800 772.72 476.06 579.05 -17.78 395.91

03,07,2014 46:42.1 1799.4 772.72 473.48 576.47 -17.78 392.14

03,07,2014 46:42.5 1800.1 772.72 470.14 573.13 -17.78 391.49

03,07,2014 46:42.9 1800.5 772.72 474.34 577.33 -17.78 394.08

03,07,2014 46:43.3 1800.3 772.72 471 573.99 -17.78 394.62

03,07,2014 46:43.7 1800.6 772.72 466.8 569.79 -17.78 393.43

03,07,2014 46:44.1 1800 772.72 464.21 567.2 -17.78 392.14

03,07,2014 46:44.5 1800.6 772.72 463.46 566.45 -17.78 395.91

03,07,2014 46:44.9 1799.9 772.72 464.21 567.2 -17.78 389.66


03,07,2014 46:45.3 1799.8 772.72 471 573.99 -17.78 391.49

03,07,2014 46:45.7 1800.6 772.32 477.68 580.56 -17.78 397.2

03,07,2014 46:46.1 1799 772.32 478.54 581.42 -17.78 391.49

03,07,2014 46:46.5 1800 772.32 469.27 572.16 -17.78 394.62

03,07,2014 46:46.9 1800 772.32 469.27 572.16 -17.78 394.62

03,07,2014 46:46.9 1800.4 772.72 461.73 564.72 -17.78 394.62

03,07,2014 46:47.3 1799.6 772.72 464.21 567.2 -17.78 394.62

03,07,2014 46:47.7 1800.4 772.32 464.21 567.09 -17.78 392.78

03,07,2014 46:48.0 1799.1 772.72 476.92 579.91 -17.78 391.49

03,07,2014 46:48.4 1800.3 772.72 471.86 574.85 -17.78 393.43

03,07,2014 46:48.8 1800.1 772.72 472.72 575.71 -17.78 390.2

03,07,2014 46:49.2 1799 772.72 482.74 585.73 -17.78 393.43

03,07,2014 46:49.6 1800 772.72 485.33 588.32 -17.78 393.43

03,07,2014 46:50.0 1800.4 772.72 481.88 584.87 -17.78 395.91

03,07,2014 46:50.4 1799.8 772.72 481.12 584.11 -17.78 395.26

03,07,2014 46:50.8 1799.5 772.72 479.4 582.39 -17.78 392.78

03,07,2014 46:51.2 1800 772.72 470.14 573.13 -17.78 394.62

03,07,2014 46:51.6 1800.4 772.72 467.66 570.65 -17.78 395.26

03,07,2014 46:52.0 1799.5 772.72 480.26 583.14 -17.78 393.43


03,07,2014 46:52.4 1800.1 772.72 483.6 586.59 -17.78 392.78

03,07,2014 46:52.8 1800.9 772.72 477.68 580.67 -17.78 396.56

03,07,2014 46:53.2 1800 772.72 482.74 585.73 -17.78 390.85

03,07,2014 46:53.6 1800.1 772.72 474.34 577.33 -17.78 392.14

03,07,2014 46:54.0 1800.6 772.72 471.86 574.85 -17.78 393.43

03,07,2014 46:54.4 1800 772.72 472.72 575.71 -17.78 397.2

03,07,2014 46:54.8 1800.3 772.72 467.66 570.65 -17.78 394.08

03,07,2014 46:55.2 1799.9 772.72 460.01 563 -17.78 394.08

03,07,2014 46:55.6 1800.4 772.72 454.95 557.94 -17.78 396.56

03,07,2014 46:56.0 1800.3 772.72 462.59 565.58 -17.78 390.2

03,07,2014 46:56.4 1798.8 772.72 467.66 570.65 -17.78 390.85

03,07,2014 46:56.8 1799.8 772.72 470.14 573.13 -17.78 392.78

03,07,2014 46:57.2 1800.8 772.72 471.86 574.85 -17.78 394.62

03,07,2014 46:57.6 1800.6 772.72 468.41 571.4 -17.78 395.91

03,07,2014 46:58.0 1799.6 772.32 466.8 569.68 -17.78 394.08

03,07,2014 46:58.4 1799.3 772.32 463.46 566.34 -17.78 395.91

03,07,2014 46:58.8 1800 772.72 479.4 582.39 -17.78 390.2

03,07,2014 46:59.2 1800.5 772.32 476.06 578.94 -17.78 394.08

03,07,2014 46:59.6 1799.5 772.72 466.8 569.79 -17.78 398.49


03,07,2014 47:00.0 1798.8 772.72 470.14 573.13 -17.78 393.43

03,07,2014 47:00.4 1799.9 772.72 481.88 584.87 -17.78 394.08

03,07,2014 47:00.8 1800 772.72 481.88 584.87 -17.78 395.26

03,07,2014 47:01.2 1800.1 772.72 482.74 585.73 -17.78 395.91

03,07,2014 47:01.6 1800 772.72 481.12 584.11 -17.78 391.49

03,07,2014 47:02.0 1799.8 772.72 477.68 580.67 -17.78 392.14

03,07,2014 47:02.4 1800.1 772.72 477.68 580.67 -17.78 394.08

03,07,2014 47:02.8 1800.4 772.72 475.2 578.19 -17.78 397.85

03,07,2014 47:03.2 1799.1 772.72 474.34 577.33 -17.78 395.26

03,07,2014 47:03.6 1800.4 772.72 464.21 567.2 -17.78 392.14

03,07,2014 47:04.0 1801 772.72 460.01 563 -17.78 395.26

03,07,2014 47:04.4 1801 772.72 460.01 563 -17.78 395.26

03,07,2014 47:04.4 1799.5 772.32 464.21 567.09 -17.78 392.78

03,07,2014 47:04.8 1799.6 772.72 471 573.99 -17.78 394.08

03,07,2014 47:05.2 1800.5 772.72 471 573.99 -17.78 394.62

03,07,2014 47:05.6 1799.9 772.72 475.2 578.19 -17.78 389.01

03,07,2014 47:06.0 1800 772.72 467.66 570.65 -17.78 394.62

03,07,2014 47:06.4 1800.4 772.72 473.48 576.47 -17.78 395.91

03,07,2014 47:06.8 1800.6 772.72 475.2 578.19 -17.78 395.26


03,07,2014 47:07.2 1800.5 772.72 467.66 570.65 -17.78 391.49

03,07,2014 47:07.6 1800.5 772.72 467.66 570.65 -17.78 391.49

03,07,2014 47:07.6 1799.5 772.72 468.41 571.4 -17.78 393.43

03,07,2014 47:08.3 1800.4 772.72 471 573.99 -17.78 394.62

03,07,2014 47:08.7 1799.8 772.72 465.93 568.92 -17.78 394.08

03,07,2014 47:09.1 1800.1 772.72 460.01 563 -17.78 393.43

03,07,2014 47:09.5 1800.4 772.32 459.25 562.14 -17.78 395.26

03,07,2014 47:09.9 1800.3 772.72 462.59 565.58 -17.78 393.43

03,07,2014 47:10.3 1799.5 772.72 465.93 568.92 -17.78 390.85

03,07,2014 47:10.7 1800.1 772.72 471 573.99 -17.78 392.78

03,07,2014 47:11.1 1800.4 772.72 472.72 575.71 -17.78 392.14

03,07,2014 47:11.5 1799.1 772.72 476.92 579.91 -17.78 395.91

03,07,2014 47:11.9 1799.4 772.72 481.12 584.11 -17.78 395.26

03,07,2014 47:12.3 1800.3 772.72 479.4 582.39 -17.78 392.78

03,07,2014 47:12.7 1800.9 772.72 478.54 581.53 -17.78 394.62

03,07,2014 47:13.1 1800.9 772.72 478.54 581.53 -17.78 394.62

03,07,2014 47:13.1 1799.9 772.72 476.92 579.91 -17.78 391.49

03,07,2014 47:13.5 1800.4 772.72 468.41 571.4 -17.78 392.78

03,07,2014 47:13.9 1800.1 772.32 471.86 574.74 -17.78 394.08


03,07,2014 47:14.3 1800 772.72 481.88 584.87 -17.78 393.43

03,07,2014 47:14.7 1800.1 772.72 486.94 589.93 -17.78 394.08

03,07,2014 47:15.1 1799.5 772.72 485.33 588.32 -17.78 395.26

03,07,2014 47:15.5 1799.1 772.72 483.6 586.59 -17.78 392.14

03,07,2014 47:15.9 1799.9 772.72 476.06 579.05 -17.78 392.14

03,07,2014 47:16.3 1800 772.72 471.86 574.85 -17.78 392.14

03,07,2014 47:16.7 1800.1 772.72 471 573.99 -17.78 391.49

03,07,2014 47:17.0 1800.3 772.72 479.4 582.39 -17.78 394.08

03,07,2014 47:17.4 1800.1 772.72 467.66 570.65 -17.78 389.66

03,07,2014 47:17.8 1799.8 772.72 463.46 566.45 -17.78 394.08

03,07,2014 47:18.2 1799.9 772.72 466.8 569.79 -17.78 390.85

03,07,2014 47:18.6 1800 772.72 471 573.99 -17.78 391.49

03,07,2014 47:19.0 1800.4 772.72 473.48 576.47 -17.78 392.78

03,07,2014 47:19.4 1799.3 772.72 474.34 577.33 -17.78 395.26

03,07,2014 47:19.8 1799 772.72 469.27 572.26 -17.78 389.66

03,07,2014 47:20.2 1800.3 772.72 464.21 567.2 -17.78 396.56

03,07,2014 47:20.6 1800.3 772.72 456.67 559.66 -17.78 396.56

03,07,2014 47:21.0 1800.3 772.72 465.07 568.06 -17.78 394.62

03,07,2014 47:21.4 1800 772.72 468.41 571.4 -17.78 393.43


03,07,2014 47:21.8 1800 772.72 465.93 568.92 -17.78 394.08

03,07,2014 47:22.2 1799.8 772.72 463.46 566.45 -17.78 391.49

03,07,2014 47:22.6 1799.9 772.72 472.72 575.71 -17.78 394.62

03,07,2014 47:23.0 1798.9 772.72 476.06 579.05 -17.78 394.08

03,07,2014 47:23.4 1800.4 772.72 474.34 577.33 -17.78 397.2

03,07,2014 47:23.8 1799.9 772.72 477.68 580.67 -17.78 394.08

03,07,2014 47:24.2 1799.4 772.72 472.72 575.71 -17.78 390.85

03,07,2014 47:24.6 1799.8 772.72 467.66 570.65 -17.78 390.2

03,07,2014 47:24.0 1799.8 772.72 467.66 570.65 -17.78 390.2

03,07,2014 47:25.0 1800.1 772.72 468.41 571.4 -17.78 396.56

03,07,2014 47:25.4 1800.5 772.32 477.68 580.56 -17.78 394.08

03,07,2014 47:25.8 1800.3 772.72 481.88 584.87 -17.78 395.91

03,07,2014 47:26.2 1800.4 772.72 479.4 582.39 -17.78 395.26

03,07,2014 47:26.6 1799.5 772.72 480.26 583.25 -17.78 391.49

03,07,2014 47:27.0 1799.4 772.72 476.06 579.05 -17.78 389.01

03,07,2014 47:27.4 1800.4 772.72 483.6 586.59 -17.78 394.62

03,07,2014 47:27.8 1800.6 772.72 485.33 588.32 -17.78 394.08

03,07,2014 47:28.2 1800.6 772.72 478.54 581.53 -17.78 392.78

03,07,2014 47:28.6 1800.5 772.72 471 573.99 -17.78 394.08


03,07,2014 47:29.0 1800.5 772.72 466.8 569.79 -17.78 396.56

03,07,2014 47:29.4 1800 772.72 473.48 576.47 -17.78 390.2

03,07,2014 47:29.8 1799.3 772.72 476.06 579.05 -17.78 390.85

03,07,2014 47:30.2 1800.4 772.72 480.26 583.25 -17.78 392.14

03,07,2014 47:30.6 1800.4 772.72 481.12 584.11 -17.78 392.78

03,07,2014 47:31.0 1800 772.72 476.92 579.91 -17.78 393.43

03,07,2014 47:31.4 1799.8 772.32 470.14 573.02 -17.78 394.08

03,07,2014 47:31.8 1799.9 772.72 472.72 575.71 -17.78 394.08

03,07,2014 47:32.2 1800.3 772.72 463.46 566.45 -17.78 392.14

03,07,2014 47:32.6 1800.4 772.72 463.46 566.45 -17.78 393.43

03,07,2014 47:33.0 1800.4 772.72 460.01 563 -17.78 394.62

03,07,2014 47:33.4 1799.8 772.72 458.39 561.38 -17.78 393.43

03,07,2014 47:33.8 1800 772.72 471 573.99 -17.78 394.62

03,07,2014 47:34.2 1799.8 772.72 472.72 575.71 -17.78 397.85

03,07,2014 47:34.6 1800 772.72 475.2 578.19 -17.78 396.56

03,07,2014 47:35.0 1799.4 772.72 468.41 571.4 -17.78 392.14

03,07,2014 47:35.4 1799.8 772.72 465.93 568.92 -17.78 394.08

03,07,2014 47:35.8 1800.4 772.72 465.07 568.06 -17.78 392.14

03,07,2014 47:36.2 1800.9 772.72 460.01 563 -17.78 397.2


03,07,2014 47:36.6 1800.9 772.72 460.01 563 -17.78 397.2

03,07,2014 47:36.6 1799.5 772.72 474.34 577.33 -17.78 393.43

03,07,2014 47:37.0 1799 772.72 475.2 578.19 -17.78 392.78

03,07,2014 47:37.4 1800.3 772.72 467.66 570.65 -17.78 393.43

03,07,2014 47:37.8 1799.9 772.72 476.92 579.91 -17.78 393.43

03,07,2014 47:38.2 1799.4 772.72 482.74 585.73 -17.78 392.78

03,07,2014 47:38.6 1800.5 772.32 486.19 589.07 -17.78 394.62

03,07,2014 47:39.0 1800.3 772.72 485.33 588.32 -17.78 397.2

03,07,2014 47:39.4 1799.8 772.72 481.12 584.11 -17.78 392.14

03,07,2014 47:39.7 1799.9 772.72 473.48 576.47 -17.78 394.62

03,07,2014 47:40.1 1800.5 772.72 474.34 577.33 -17.78 395.91

03,07,2014 47:40.5 1800 772.72 471.86 574.85 -17.78 388.37

03,07,2014 47:40.9 1799.4 772.32 481.12 584.01 -17.78 392.14

03,07,2014 47:41.3 1799.9 772.72 481.12 584.11 -17.78 390.85

03,07,2014 47:41.7 1799.8 772.32 484.46 587.45 -17.78 390.85

03,07,2014 47:42.1 1799.4 772.72 480.26 583.25 -17.78 390.85

03,07,2014 47:42.5 1800 772.72 473.48 576.47 -17.78 395.26

03,07,2014 47:42.9 1800 772.72 466.8 569.79 -17.78 393.43

03,07,2014 47:43.3 1800.1 772.72 465.93 568.92 -17.78 390.2


03,07,2014 47:43.7 1799.8 772.72 461.73 564.72 -17.78 390.85

03,07,2014 47:44.1 1799.9 772.72 460.01 563 -17.78 392.14

03,07,2014 47:44.5 1799.5 772.72 456.67 559.66 -17.78 388.37

03,07,2014 47:44.9 1800.3 772.72 467.66 570.65 -17.78 397.85

03,07,2014 47:45.3 1799.8 772.72 471 573.99 -17.78 398.49

03,07,2014 47:45.7 1800.5 772.72 468.41 571.4 -17.78 393.43

03,07,2014 47:46.1 1799.9 772.72 465.93 568.92 -17.78 395.26

03,07,2014 47:46.5 1799.6 772.72 465.07 568.06 -17.78 391.49

03,07,2014 47:46.9 1800.1 772.72 460.01 563 -17.78 394.08

03,07,2014 47:47.3 1799.6 772.72 458.39 561.38 -17.78 395.26

03,07,2014 47:47.7 1799.4 772.72 470.14 573.13 -17.78 395.91

03,07,2014 47:48.1 1800.1 772.72 473.48 576.47 -17.78 390.85

03,07,2014 47:48.5 1801 772.72 471.86 574.85 -17.78 395.91

03,07,2014 47:48.9 1799.8 772.72 466.8 569.79 -17.78 386.43

03,07,2014 47:49.3 1799 772.72 481.88 584.87 -17.78 392.14

03,07,2014 47:49.7 1799.8 772.72 486.19 589.18 -17.78 392.14

03,07,2014 47:50.1 1800.5 772.72 488.67 591.66 -17.78 394.08

03,07,2014 47:50.5 1800.5 772.72 478.54 581.53 -17.78 392.78

03,07,2014 47:50.9 1800 772.72 471.86 574.85 -17.78 393.43


03,07,2014 47:51.3 1800.4 772.72 470.14 573.13 -17.78 394.08

03,07,2014 47:51.7 1801 772.72 476.92 579.91 -17.78 391.49

03,07,2014 47:52.1 1799.5 772.32 481.88 584.87 -17.78 392.78

03,07,2014 47:52.5 1800.4 772.72 483.6 586.59 -17.78 396.56

03,07,2014 47:52.9 1800.5 772.72 486.94 589.93 -17.78 389.66

03,07,2014 47:53.3 1799.4 772.72 481.12 584.11 -17.78 396.56

03,07,2014 47:53.7 1800.1 772.72 476.92 579.91 -17.78 395.26

03,07,2014 47:54.1 1800.8 772.32 476.06 578.94 -17.78 395.91

03,07,2014 47:54.5 1800.1 772.72 466.8 569.79 -17.78 391.49

03,07,2014 47:54.9 1799.9 772.72 466.8 569.79 -17.78 392.78

03,07,2014 47:55.3 1800 772.72 460.87 563.86 -17.78 394.08

03,07,2014 47:55.7 1799.9 772.72 459.25 562.24 -17.78 390.85

03,07,2014 47:56.1 1799.1 772.72 470.14 573.13 -17.78 394.62

03,07,2014 47:56.4 1800 772.72 474.34 577.33 -17.78 394.62

03,07,2014 47:56.8 1800 772.72 469.27 572.26 -17.78 395.91

03,07,2014 47:57.2 1799.8 772.72 469.27 572.26 -17.78 392.14

03,07,2014 47:57.6 1799.8 772.72 465.07 568.06 -17.78 390.2

03,07,2014 47:58.0 1799.8 772.72 455.81 558.8 -17.78 395.26

03,07,2014 47:58.4 1799.8 772.72 455.81 558.8 -17.78 395.26


03,07,2014 47:58.4 1800 772.32 460.01 562.89 -17.78 395.26

03,07,2014 47:59.1 1800.1 772.72 471 573.99 -17.78 395.26

03,07,2014 47:59.5 1799.4 772.72 468.41 571.4 -17.78 395.91

03,07,2014 47:59.9 1799.4 772.72 468.41 571.4 -17.78 395.91

03,07,2014 47:59.9 1800.1 772.72 468.41 571.4 -17.78 394.62

03,07,2014 48:00.3 1800 772.72 465.07 568.06 -17.78 392.78

03,07,2014 48:00.7 1800.5 772.72 460.87 563.86 -17.78 391.49

03,07,2014 48:01.1 1800.5 772.72 459.25 562.24 -17.78 392.78

03,07,2014 48:01.5 1799.9 772.32 467.66 570.54 -17.78 392.78

03,07,2014 48:01.9 1799.5 772.72 473.48 576.47 -17.78 394.08

03,07,2014 48:02.3 1800.1 772.72 473.48 576.47 -17.78 392.14

03,07,2014 48:02.7 1800.1 772.72 471 573.99 -17.78 390.2

03,07,2014 48:03.1 1800 772.72 466.8 569.79 -17.78 391.49

03,07,2014 48:03.5 1800 772.72 460.87 563.86 -17.78 393.43

03,07,2014 48:03.9 1799.8 772.72 459.25 562.24 -17.78 395.91

03,07,2014 48:04.3 1799.4 772.72 477.68 580.67 -17.78 393.43

03,07,2014 48:04.7 1800.3 772.72 473.48 576.47 -17.78 389.66

03,07,2014 48:05.1 1799.9 772.72 467.66 570.65 -17.78 394.62

03,07,2014 48:05.5 1800.6 772.32 476.06 578.94 -17.78 392.14


03,07,2014 48:05.9 1799.5 772.32 478.54 581.42 -17.78 392.14

03,07,2014 48:06.3 1799.6 772.72 485.33 588.32 -17.78 392.78

03,07,2014 48:06.7 1799.9 772.72 484.46 587.45 -17.78 390.2

03,07,2014 48:07.1 1800 772.72 481.88 584.87 -17.78 394.08

03,07,2014 48:07.5 1799.5 772.72 472.72 575.71 -17.78 392.78

03,07,2014 48:07.9 1799.5 772.72 474.34 577.33 -17.78 391.49

03,07,2014 48:08.3 1800 772.72 473.48 576.47 -17.78 391.49

03,07,2014 48:08.7 1800 772.72 483.6 586.59 -17.78 391.49

03,07,2014 48:09.1 1799.9 772.72 482.74 585.73 -17.78 394.08

03,07,2014 48:09.4 1799.5 772.72 484.46 587.45 -17.78 392.78

03,07,2014 48:09.8 1799.6 772.72 479.4 582.39 -17.78 390.85

03,07,2014 48:10.2 1799.9 772.72 473.48 576.47 -17.78 394.62

03,07,2014 48:10.6 1799.1 772.72 470.14 573.13 -17.78 391.49

03,07,2014 48:11.0 1800.5 772.72 471 573.99 -17.78 392.14

03,07,2014 48:11.4 1800 772.32 477.68 580.67 -17.78 387.72

03,07,2014 48:11.8 1800.5 772.72 459.25 562.24 -17.78 392.14

03,07,2014 48:12.2 1800.6 772.72 455.81 558.8 -17.78 394.62

03,07,2014 48:12.6 1800.6 772.72 455.81 558.8 -17.78 394.62

03,07,2014 48:12.6 1798.8 772.72 471 573.99 -17.78 392.14


03,07,2014 48:13.0 1799.8 772.72 472.72 575.71 -17.78 394.08

03,07,2014 48:13.4 1800.3 772.72 469.27 572.26 -17.78 392.14

03,07,2014 48:13.8 1799.9 772.32 467.66 570.54 -17.78 395.91

03,07,2014 48:14.2 1799.6 772.72 466.8 569.79 -17.78 393.43

03,07,2014 48:14.6 1799.8 772.72 460.01 563 -17.78 389.66

03,07,2014 48:15.0 1800.6 772.72 457.53 560.52 -17.78 394.62

03,07,2014 48:15.4 1799 772.72 465.93 568.92 -17.78 390.2

03,07,2014 48:15.8 1799.3 772.72 473.48 576.47 -17.78 391.49

03,07,2014 48:16.2 1800.3 772.32 471 573.88 -17.78 398.49

03,07,2014 48:16.6 1800.6 772.72 472.72 575.71 -17.78 391.49

03,07,2014 48:17.0 1799.9 772.72 469.27 572.26 -17.78 392.14

03,07,2014 48:17.4 1799.3 772.72 483.6 586.59 -17.78 391.49

03,07,2014 48:17.8 1800.6 772.72 489.53 592.52 -17.78 392.14

03,07,2014 48:18.2 1800.6 772.72 477.68 580.67 -17.78 394.08

03,07,2014 48:18.6 1799.8 772.72 476.92 579.91 -17.78 390.85

03,07,2014 48:19.0 1800.8 772.72 472.72 575.71 -17.78 397.85

03,07,2014 48:19.4 1799.9 772.72 475.2 578.19 -17.78 391.49

03,07,2014 48:19.8 1800.1 772.72 477.68 580.67 -17.78 391.49

03,07,2014 48:20.2 1801.1 772.72 481.88 584.87 -17.78 394.08


03,07,2014 48:20.6 1801.1 772.72 481.88 584.87 -17.78 392.78

03,07,2014 48:20.6 1799.5 772.72 483.6 586.59 -17.78 392.78

03,07,2014 48:21.0 1799.6 772.72 481.12 584.11 -17.78 394.62

03,07,2014 48:21.4 1800.5 772.72 476.06 579.05 -17.78 394.08

03,07,2014 48:21.8 1799.9 772.72 475.2 578.19 -17.78 393.43

03,07,2014 48:22.2 1799.4 772.72 470.14 573.13 -17.78 393.43

03,07,2014 48:22.6 1800.8 772.72 471 573.99 -17.78 394.08

03,07,2014 48:23.0 1800.3 772.72 464.21 567.2 -17.78 394.62

03,07,2014 48:23.4 1799.3 772.72 460.87 563.86 -17.78 394.08

03,07,2014 48:23.8 1799.3 772.72 471 573.99 -17.78 390.2

03,07,2014 48:24.2 1800.4 772.72 476.06 579.05 -17.78 394.08

03,07,2014 48:24.6 1800.6 772.72 469.27 572.26 -17.78 394.62

03,07,2014 48:25.0 1799.3 772.72 471 573.99 -17.78 398.49

03,07,2014 48:25.4 1799.4 772.72 467.66 570.65 -17.78 395.26

03,07,2014 48:25.8 1800.3 772.72 460.01 563 -17.78 395.26

03,07,2014 48:26.2 1799.9 772.72 457.53 560.52 -17.78 390.85

03,07,2014 48:26.6 1799.8 772.72 465.07 568.06 -17.78 393.43

03,07,2014 48:27.0 1800 772.72 471.86 574.85 -17.78 392.78

03,07,2014 48:27.4 1800 772.72 468.41 571.4 -17.78 394.08


03,07,2014 48:27.8 1800 772.72 469.27 572.26 -17.78 389.66

03,07,2014 48:28.1 1799.5 772.72 474.34 577.33 -17.78 392.78

03,07,2014 48:28.5 1800.1 772.72 478.54 581.53 -17.78 394.08

03,07,2014 48:28.9 1799.5 772.72 482.74 585.73 -17.78 392.78

03,07,2014 48:29.3 1799.9 772.72 476.06 579.05 -17.78 392.14

03,07,2014 48:29.7 1800.4 772.32 472.72 575.6 -17.78 390.85

03,07,2014 48:30.1 1800.3 772.72 469.27 572.26 -17.78 394.62

03,07,2014 48:30.5 1799.8 772.72 469.27 572.26 -17.78 391.49

03,07,2014 48:30.9 1800.5 772.72 478.54 581.53 -17.78 394.62

03,07,2014 48:31.3 1800.5 772.72 482.74 585.73 -17.78 390.2

03,07,2014 48:31.7 1800.3 772.72 487.8 590.79 -17.78 390.85

03,07,2014 48:32.1 1799.1 772.72 476.92 579.91 -17.78 392.78

03,07,2014 48:32.5 1800.4 772.72 475.2 578.19 -17.78 395.26

03,07,2014 48:32.9 1800.4 772.72 475.2 578.19 -17.78 395.26

03,07,2014 48:32.9 1800.5 772.72 477.68 580.67 -17.78 394.62

03,07,2014 48:33.3 1800.1 772.72 477.68 580.67 -17.78 392.14

03,07,2014 48:33.7 1800.1 772.72 476.92 579.91 -17.78 390.85

03,07,2014 48:34.1 1800.3 772.72 467.66 570.65 -17.78 392.14

03,07,2014 48:34.5 1800.8 772.72 464.21 567.2 -17.78 392.78


03,07,2014 48:34.9 1800.8 772.72 464.21 567.2 -17.78 392.78

03,07,2014 48:34.9 1800.1 772.72 476.92 579.91 -17.78 392.14

03,07,2014 48:35.3 1798.8 772.72 477.68 580.67 -17.78 392.14

03,07,2014 48:35.7 1799.1 772.72 476.92 579.91 -17.78 390.85

03,07,2014 48:36.1 1800 772.72 472.72 575.71 -17.78 390.2

03,07,2014 48:36.5 1800.1 772.72 475.2 578.19 -17.78 391.49

03,07,2014 48:36.9 1800 772.72 462.59 565.58 -17.78 392.14

03,07,2014 48:37.3 1799.6 772.72 458.39 561.38 -17.78 395.26

03,07,2014 48:37.7 1799.5 772.32 467.66 570.54 -17.78 390.85

03,07,2014 48:38.1 1799.5 772.32 467.66 570.54 -17.78 390.85

03,07,2014 48:38.1 1800.3 772.72 462.59 565.58 -17.78 394.08

03,07,2014 48:38.5 1799.9 772.72 463.46 566.45 -17.78 396.56

03,07,2014 48:38.9 1799.9 772.72 465.07 568.06 -17.78 389.66

03,07,2014 48:39.3 1800.3 772.72 471 573.99 -17.78 390.2

03,07,2014 48:39.7 1800 772.72 477.68 580.67 -17.78 392.78

03,07,2014 48:40.1 1799 772.72 476.92 579.91 -17.78 394.08

03,07,2014 48:40.5 1800.3 772.72 471.86 574.85 -17.78 392.14

03,07,2014 48:40.9 1800.1 772.72 468.41 571.4 -17.78 393.43

03,07,2014 48:41.3 1799.9 772.72 465.93 568.92 -17.78 394.08


03,07,2014 48:41.7 1800.1 772.72 467.66 570.65 -17.78 388.37

03,07,2014 48:42.1 1800.3 772.72 471.86 574.74 -17.78 390.2

03,07,2014 48:42.5 1800.3 772.72 481.12 584.11 -17.78 396.56

03,07,2014 48:42.9 1800.8 772.72 481.88 584.87 -17.78 392.78

03,07,2014 48:43.3 1799.8 772.72 475.2 578.19 -17.78 394.08

03,07,2014 48:43.7 1798.9 772.72 471.86 574.74 -17.78 395.26

03,07,2014 48:43.1 1798.9 772.72 471.86 574.74 -17.78 395.26

03,07,2014 48:44.1 1800.3 772.32 468.41 571.29 -17.78 394.62

03,07,2014 48:44.4 1800.8 772.32 472.72 575.71 -17.78 391.49

03,07,2014 48:44.8 1800.3 772.72 479.4 582.39 -17.78 392.14

03,07,2014 48:45.2 1800.3 772.72 479.4 582.39 -17.78 392.14

03,07,2014 48:45.2 1799.1 772.72 469.27 572.26 -17.78 390.2

03,07,2014 48:45.6 1799.6 772.72 470.14 573.13 -17.78 392.78

03,07,2014 48:46.0 1799.6 772.72 482.74 585.73 -17.78 393.43

03,07,2014 48:46.4 1799.3 772.72 484.46 587.45 -17.78 392.78

03,07,2014 48:46.8 1800 772.32 480.26 583.14 -17.78 394.08

03,07,2014 48:47.2 1800.4 772.72 477.68 580.67 -17.78 395.26

03,07,2014 48:47.6 1799.9 772.72 476.06 579.05 -17.78 395.26

03,07,2014 48:48.0 1799.6 772.72 470.14 573.13 -17.78 390.85


03,07,2014 48:48.4 1800.1 772.72 465.93 568.92 -17.78 396.56

03,07,2014 48:48.8 1800.8 772.32 475.2 578.08 -17.78 391.49

03,07,2014 48:49.2 1800 772.72 476.92 579.91 -17.78 390.2

03,07,2014 48:49.6 1800 772.72 476.92 579.91 -17.78 396.56

03,07,2014 48:50.0 1799.9 772.72 473.48 576.47 -17.78 391.49

03,07,2014 48:50.4 1800 772.72 471.86 574.85 -17.78 391.49

03,07,2014 48:50.8 1800.1 772.72 465.93 568.92 -17.78 391.49

03,07,2014 48:51.2 1800.3 772.72 459.25 576.47 -17.78 391.49

03,07,2014 48:51.6 1800.4 772.72 466.8 569.79 -17.78 393.43

03,07,2014 48:52.0 1799.5 772.32 463.46 566.34 -17.78 391.49

03,07,2014 48:52.4 1799.8 772.72 460.01 563 -17.78 394.08

03,07,2014 48:52.8 1799.5 772.72 463.46 566.45 -17.78 390.85

03,07,2014 48:53.2 1799.9 772.72 469.27 572.26 -17.78 392.78

03,07,2014 48:53.6 1800.1 772.72 474.34 577.33 -17.78 393.43

03,07,2014 48:54.0 1799.4 772.72 476.92 579.91 -17.78 392.78

03,07,2014 48:54.4 1799.1 772.72 468.41 571.4 -17.78 390.2

03,07,2014 48:54.8 1800.1 772.72 466.8 569.79 -17.78 393.43

03,07,2014 48:55.2 1800.4 772.72 464.21 567.2 -17.78 392.78

03,07,2014 48:55.6 1800.4 772.72 464.21 567.2 -17.78 392.78


03,07,2014 48:55.6 1799 772.72 469.27 572.26 -17.78 389.01

03,07,2014 48:56.0 1799.3 772.72 476.06 579.05 -17.78 392.78

03,07,2014 48:56.4 1800.6 772.72 479.4 582.39 -17.78 393.43

03,07,2014 48:56.7 1800.1 772.72 477.68 580.67 -17.78 392.14

03,07,2014 48:57.1 1799.5 772.72 486.19 589.18 -17.78 390.85

03,07,2014 48:57.5 1799.8 772.72 481.88 584.87 -17.78 393.43

03,07,2014 48:57.9 1800.3 772.72 482.74 585.73 -17.78 395.26

03,07,2014 48:58.3 1800.6 772.72 480.26 583.25 -17.78 394.08

03,07,2014 48:58.7 1801 772.72 479.4 582.39 -17.78 390.85

03,07,2014 48:59.1 1799.5 772.72 471 573.99 -17.78 394.62

03,07,2014 48:59.5 1799.1 772.72 465.93 568.92 -17.78 392.78

03,07,2014 48:59.9 1800.4 772.72 476.06 579.05 -17.78 391.49

03,07,2014 49:00.3 1800.9 772.72 485.33 588.32 -17.78 391.49

03,07,2014 49:00.7 1800.6 772.72 478.54 581.53 -17.78 395.91

03,07,2014 49:01.1 1799.8 772.72 481.88 584.87 -17.78 385.78

03,07,2014 49:01.5 1800 772.32 476.06 578.94 -17.78 395.26

03,07,2014 49:01.9 1799.9 772.72 469.27 572.26 -17.78 395.91

03,07,2014 49:02.3 1799.9 772.72 475.2 578.19 -17.78 392.78

03,07,2014 49:02.7 1800 772.32 464.21 567.09 -17.78 390.85


03,07,2014 49:03.1 1800 772.72 462.59 565.58 -17.78 390.2

03,07,2014 49:03.5 1800.5 772.72 458.39 561.38 -17.78 394.62

03,07,2014 49:03.9 1799.8 772.72 462.59 565.58 -17.78 389.66

03,07,2014 49:04.3 1799.8 772.72 462.59 565.58 -17.78 389.66

03,07,2014 49:04.3 1799.5 772.72 465.93 568.92 -17.78 391.49

03,07,2014 49:05.0 1799.9 772.72 458.39 561.38 -17.78 395.26

03,07,2014 49:05.4 1799.8 772.72 465.07 568.06 -17.78 392.14

03,07,2014 49:05.8 1799.3 772.72 475.2 578.19 -17.78 392.78

03,07,2014 49:06.2 1800.3 772.72 476.06 579.05 -17.78 394.08

03,07,2014 49:06.6 1800.3 772.72 476.06 579.05 -17.78 394.08

03,07,2014 49:06.6 1800.6 772.72 465.07 568.06 -17.78 391.49

03,07,2014 49:07.0 1799.3 772.72 470.14 573.13 -17.78 392.78

03,07,2014 49:07.4 1799.4 772.72 474.34 577.33 -17.78 394.08

03,07,2014 49:07.8 1800.5 772.72 476.06 579.05 -17.78 394.62

03,07,2014 49:08.2 1800.8 772.72 468.41 571.4 -17.78 392.14

03,07,2014 49:08.6 1800.8 772.72 468.41 571.4 -17.78 392.14

03,07,2014 49:08.6 1799.8 772.72 467.66 570.65 -17.78 390.85

03,07,2014 49:09.0 1800.3 772.72 465.07 568.06 -17.78 394.62

03,07,2014 49:09.4 1799.9 772.72 467.66 570.65 -17.78 392.14


03,07,2014 49:09.8 1800.1 772.72 473.48 576.47 -17.78 390.85

03,07,2014 49:10.2 1800.4 772.72 477.68 580.67 -17.78 393.43

03,07,2014 49:10.6 1799.9 772.72 480.26 583.25 -17.78 389.66

03,07,2014 49:11.0 1799.9 772.72 477.68 580.67 -17.78 392.14

03,07,2014 49:11.4 1800.1 772.72 471 573.99 -17.78 394.62

03,07,2014 49:11.8 1800.5 772.72 484.46 587.45 -17.78 392.78

03,07,2014 49:12.2 1800.9 772.72 484.46 587.45 -17.78 394.08

03,07,2014 49:12.6 1800.3 772.72 480.26 583.25 -17.78 392.14

03,07,2014 49:13.0 1800.6 772.72 473.48 576.47 -17.78 390.2

03,07,2014 49:13.4 1800.4 772.72 470.14 573.13 -17.78 395.26

03,07,2014 49:13.8 1800.1 772.72 476.92 579.91 -17.78 392.78

03,07,2014 49:14.2 1799.9 772.72 483.6 586.59 -17.78 390.85

03,07,2014 49:14.6 1799.6 772.32 484.46 587.45 -17.78 394.08

03,07,2014 49:15.0 1799.6 772.72 481.12 584.11 -17.78 390.2

03,07,2014 49:15.4 1800.9 772.72 468.41 571.4 -17.78 392.78

03,07,2014 49:16.1 1799.5 772.72 465.93 568.92 -17.78 397.2

03,07,2014 49:16.5 1799.3 772.72 475.2 578.19 -17.78 389.66

03,07,2014 49:16.9 1799.4 772.72 477.68 580.67 -17.78 393.43

03,07,2014 49:17.3 1799.8 772.72 481.88 584.87 -17.78 394.62


03,07,2014 49:17.7 1799.9 772.72 474.34 577.33 -17.78 389.66

03,07,2014 49:18.1 1800 772.72 473.48 576.47 -17.78 393.43

03,07,2014 49:18.5 1800.3 772.72 465.93 568.92 -17.78 394.62

03,07,2014 49:18.9 1800.1 772.72 464.21 567.2 -17.78 392.14

03,07,2014 49:19.3 1800 772.72 467.66 570.65 -17.78 392.14

03,07,2014 49:19.7 1800 772.72 467.66 570.65 -17.78 392.14

03,07,2014 49:19.7 1799.6 772.72 475.2 578.19 -17.78 392.14

03,07,2014 49:20.1 1799.1 772.72 475.2 578.19 -17.78 394.62

03,07,2014 49:20.5 1800.6 772.72 476.06 578.94 -17.78 390.85

03,07,2014 49:20.9 1800.9 772.32 471 573.88 -17.78 394.08

03,07,2014 49:21.3 1800.3 772.72 463.46 566.45 -17.78 392.14

03,07,2014 49:21.7 1799.4 772.72 475.2 578.19 -17.78 389.01

03,07,2014 49:22.1 1800 772.72 469.27 572.26 -17.78 389.66

03,07,2014 49:22.5 1799.9 772.72 465.07 568.06 -17.78 391.49

03,07,2014 49:22.9 1799.9 772.72 465.07 568.06 -17.78 391.49

03,07,2014 49:22.9 1800.5 772.72 465.07 568.06 -17.78 395.91

03,07,2014 49:23.3 1799.9 772.72 462.59 565.58 -17.78 392.78

03,07,2014 49:23.7 1799.1 772.72 473.48 576.47 -17.78 393.43

03,07,2014 49:24.0 1799.4 772.72 478.54 581.53 -17.78 394.08


03,07,2014 49:24.4 1800.4 772.72 476.92 579.91 -17.78 396.56

03,07,2014 49:24.8 1799.3 772.72 476.92 579.91 -17.78 391.49

03,07,2014 49:25.2 1799.5 772.72 473.48 576.36 -17.78 389.01

03,07,2014 49:25.6 1800.5 772.72 468.41 571.4 -17.78 391.49

03,07,2014 49:26.0 1799.6 772.72 470.14 573.13 -17.78 392.78

03,07,2014 49:26.4 1800.1 772.72 480.26 583.25 -17.78 392.14

03,07,2014 49:26.8 1800.4 772.72 471.86 574.85 -17.78 392.78

03,07,2014 49:27.2 1800.5 772.72 467.66 570.65 -17.78 392.78

03,07,2014 49:27.6 1799.4 772.72 474.34 577.33 -17.78 391.49

03,07,2014 49:28.0 1799.3 772.72 481.88 584.87 -17.78 390.85

03,07,2014 49:28.4 1800.5 772.72 483.6 586.59 -17.78 395.26

03,07,2014 49:28.8 1799.8 772.72 483.6 586.59 -17.78 397.2

03,07,2014 49:29.2 1799.3 772.72 476.06 579.05 -17.78 393.43

03,07,2014 49:29.6 1800 772.72 471.86 574.85 -17.78 392.78

03,07,2014 49:30.0 1800.1 772.72 466.8 569.79 -17.78 392.78

03,07,2014 49:30.4 1799.4 772.72 473.48 576.47 -17.78 391.49

03,07,2014 49:30.8 1799.3 772.72 476.06 579.05 -17.78 391.49

03,07,2014 49:31.2 1800.4 772.72 478.54 581.53 -17.78 394.08

03,07,2014 49:31.6 1800.4 772.72 478.54 581.53 -17.78 394.08


03,07,2014 49:31.6 1800.5 772.72 477.68 580.67 -17.78 394.08

03,07,2014 49:32.0 1799.4 772.72 472.72 575.71 -17.78 393.43

03,07,2014 49:32.4 1799.6 772.72 465.93 568.92 -17.78 392.78

03,07,2014 49:32.8 1800 772.72 464.21 567.2 -17.78 393.43

03,07,2014 49:33.2 1800.1 772.72 465.07 568.06 -17.78 392.14

03,07,2014 49:33.6 1800.1 772.72 465.07 568.06 -17.78 392.14

03,07,2014 49:33.6 1799.9 772.72 474.34 577.33 -17.78 392.14

03,07,2014 49:34.0 1799.5 772.72 477.68 580.67 -17.78 394.08

03,07,2014 49:34.4 1799.4 772.72 460.01 563 -17.78 392.78

03,07,2014 49:34.8 1800.3 772.72 471 573.99 -17.78 394.62

03,07,2014 49:35.1 1800.1 772.72 475.2 578.19 -17.78 392.14

03,07,2014 49:35.6 1800 772.72 472.72 575.71 -17.78 394.08

03,07,2014 49:35.9 1799.9 772.72 470.14 573.13 -17.78 393.43

03,07,2014 49:36.3 1799.8 772.72 467.66 570.65 -17.78 394.08

03,07,2014 49:36.7 1800.1 772.72 462.59 565.58 -17.78 393.43

03,07,2014 49:37.1 1800 772.72 464.21 567.2 -17.78 391.49

03,07,2014 49:37.5 1800.1 772.72 474.34 577.33 -17.78 390.85

03,07,2014 49:37.9 1800.6 772.72 480.26 583.25 -17.78 393.43

03,07,2014 49:38.3 1799.8 772.72 477.68 580.67 -17.78 394.08


03,07,2014 49:38.7 1799.1 772.72 477.68 580.67 -17.78 389.66

03,07,2014 49:39.1 1799.6 772.32 471.86 574.74 -17.78 392.14

03,07,2014 49:39.5 1799.6 772.32 471.86 574.74 -17.78 392.14

03,07,2014 49:39.5 1800.1 772.72 467.66 570.65 -17.78 392.78

03,07,2014 49:39.9 1800 772.72 464.21 567.2 -17.78 392.78

03,07,2014 49:40.3 1800 772.32 480.26 583.14 -17.78 392.78

03,07,2014 49:40.7 1799.6 772.72 475.2 578.19 -17.78 392.78

03,07,2014 49:41.1 1799.9 772.72 475.2 578.19 -17.78 394.62

03,07,2014 49:41.5 1798.9 772.72 476.06 579.05 -17.78 389.66

03,07,2014 49:41.9 1799.5 772.72 482.74 585.73 -17.78 393.43

03,07,2014 49:42.3 1800.3 772.32 482.74 585.62 -17.78 391.49

03,07,2014 49:42.7 1800.1 772.72 484.46 587.45 -17.78 395.91

03,07,2014 49:43.1 1799.3 772.72 476.92 579.91 -17.78 390.85

03,07,2014 49:43.5 1799.9 772.72 473.48 576.47 -17.78 391.49

03,07,2014 49:43.9 1800.3 772.72 468.41 571.4 -17.78 392.78

03,07,2014 49:44.3 1799.5 772.72 474.34 577.33 -17.78 394.08

03,07,2014 49:44.7 1799.5 772.72 477.68 580.67 -17.78 390.2

03,07,2014 49:45.1 1799.6 772.72 481.88 584.87 -17.78 391.49

03,07,2014 49:45.5 1800.6 772.72 479.4 582.39 -17.78 392.14


03,07,2014 49:45.9 1800.8 772.72 475.2 578.19 -17.78 392.78

03,07,2014 49:46.3 1799.6 772.72 470.14 573.13 -17.78 395.91

03,07,2014 49:46.7 1800 772.72 470.14 573.13 -17.78 395.26

03,07,2014 49:47.1 1800.4 772.32 465.93 568.82 -17.78 395.91

03,07,2014 49:47.5 1799.8 772.72 463.46 566.45 -17.78 392.14

03,07,2014 49:47.9 1799.9 772.72 461.73 564.72 -17.78 390.2

03,07,2014 49:48.3 1799.9 772.72 460.01 563 -17.78 391.49

03,07,2014 49:48.7 1800 772.72 470.14 573.13 -17.78 392.14

03,07,2014 49:49.1 1799.6 772.72 471.86 574.85 -17.78 394.08

03,07,2014 49:49.5 1800.3 772.32 468.41 571.29 -17.78 394.08

03,07,2014 49:49.9 1800.6 772.72 474.34 577.33 -17.78 389.01

03,07,2014 49:50.3 1799.9 772.72 469.27 572.26 -17.78 391.49

03,07,2014 49:50.7 1800.1 772.72 485.33 588.32 -17.78 395.26

03,07,2014 49:51.1 1800 772.72 484.46 587.45 -17.78 392.78

03,07,2014 49:51.5 1800.6 772.72 478.54 581.53 -17.78 393.43

03,07,2014 49:51.9 1800 772.72 476.06 579.05 -17.78 394.62

03,07,2014 49:52.3 1799.5 772.32 471.86 574.74 -17.78 395.91

03,07,2014 49:52.6 1800.4 772.72 477.68 580.67 -17.78 390.2

03,07,2014 49:53.0 1799.5 772.72 480.26 583.25 -17.78 391.49


03,07,2014 49:53.4 1799.6 772.72 485.33 588.32 -17.78 394.62

03,07,2014 49:53.8 1800.1 772.72 484.46 587.45 -17.78 391.49

03,07,2014 49:54.2 1799.8 772.32 481.88 584.87 -17.78 394.62

03,07,2014 49:54.6 1800 772.72 472.72 575.71 -17.78 394.62

03,07,2014 49:55.0 1800 772.72 471.86 574.85 -17.78 395.26

03,07,2014 49:55.4 1800 772.72 474.34 577.22 -17.78 391.49

03,07,2014 49:55.8 1800.1 772.32 471 573.88 -17.78 392.78

03,07,2014 49:56.2 1800.6 772.32 461.73 564.61 -17.78 396.56

03,07,2014 49:56.6 1800.6 772.32 461.73 564.61 -17.78 393.43

03,07,2014 49:56.6 1800 772.32 457.53 560.41 -17.78 393.43

03,07,2014 49:57.3 1800.3 772.32 473.48 576.36 -17.78 394.62

03,07,2014 49:57.7 1799.8 772.72 466.8 569.79 -17.78 395.91

03,07,2014 49:58.1 1799.8 772.72 466.8 569.79 -17.78 395.91

03,07,2014 49:58.1 1800.3 772.72 473.48 576.47 -17.78 390.85

03,07,2014 49:58.5 1800.4 772.72 478.54 581.53 -17.78 391.49

03,07,2014 49:58.9 1800 772.32 480.26 583.14 -17.78 392.14

03,07,2014 49:59.3 1800.5 772.72 481.12 584.11 -17.78 392.14

03,07,2014 49:59.7 1800.1 772.72 474.34 577.33 -17.78 394.62

03,07,2014 50:00.1 1800.4 772.72 470.14 573.13 -17.78 393.43


03,07,2014 50:00.5 1799.1 772.72 468.41 571.4 -17.78 397.85

03,07,2014 50:00.9 1799.4 772.32 471 573.88 -17.78 394.08

03,07,2014 50:01.3 1799.8 772.32 469.27 572.16 -17.78 392.14

03,07,2014 50:01.7 1800 772.72 462.59 565.58 -17.78 393.43

03,07,2014 50:02.1 1800.6 772.72 456.67 559.66 -17.78 390.85

03,07,2014 50:02.5 1799.4 772.72 470.14 573.13 -17.78 392.78

03,07,2014 50:02.9 1799.4 772.72 470.14 573.13 -17.78 392.78

03,07,2014 50:02.9 1798.8 772.72 472.72 575.71 -17.78 390.2

03,07,2014 50:03.3 1799.8 772.72 475.2 578.19 -17.78 394.08

03,07,2014 50:03.7 1799.9 772.32 473.48 576.36 -17.78 388.37

03,07,2014 50:04.1 1799.1 772.72 470.14 573.13 -17.78 390.2

03,07,2014 50:04.5 1800.1 772.72 462.59 565.58 -17.78 387.72

03,07,2014 50:04.9 1799.9 772.72 460.01 563 -17.78 392.78

03,07,2014 50:05.3 1800 772.72 466.8 569.79 -17.78 394.62

03,07,2014 50:05.7 1799.8 772.72 475.2 578.19 -17.78 392.14

03,07,2014 50:06.1 1800.3 772.72 469.27 572.26 -17.78 394.08

03,07,2014 50:06.5 1800.6 772.72 476.92 579.91 -17.78 390.85

03,07,2014 50:06.9 1799.8 772.72 478.54 581.53 -17.78 393.43

03,07,2014 50:07.3 1800.1 772.72 483.6 586.59 -17.78 390.85


03,07,2014 50:07.7 1799.3 772.72 484.46 587.45 -17.78 392.78

03,07,2014 50:08.1 1799.3 772.32 480.26 583.14 -17.78 392.14

03,07,2014 50:08.5 1799.5 772.72 473.48 576.47 -17.78 395.26

03,07,2014 50:08.9 1800.5 772.72 471.86 574.85 -17.78 394.08

03,07,2014 50:09.3 1799.3 772.72 475.2 578.19 -17.78 391.49

03,07,2014 50:09.7 1799.8 772.72 480.26 583.25 -17.78 390.85

03,07,2014 50:10.1 1800.8 772.72 483.6 586.59 -17.78 390.85

03,07,2014 50:10.5 1799.9 772.72 460.87 563.86 -17.78 395.26

03,07,2014 50:10.9 1799.4 772.72 471.86 574.85 -17.78 392.78

03,07,2014 50:11.3 1799 772.72 474.34 577.33 -17.78 394.62

03,07,2014 50:11.7 1800.4 772.72 470.14 573.13 -17.78 395.26

03,07,2014 50:12.1 1800.9 772.72 468.41 571.4 -17.78 391.49

03,07,2014 50:12.5 1799.5 772.72 468.41 571.4 -17.78 391.49

03,07,2014 50:12.9 1800.5 772.72 461.73 564.72 -17.78 393.43

03,07,2014 50:13.3 1799.8 772.72 458.39 561.38 -17.78 393.43

03,07,2014 50:13.7 1799.6 772.72 471.86 574.85 -17.78 391.49

03,07,2014 50:14.1 1800.4 772.72 473.48 576.47 -17.78 393.43

03,07,2014 50:14.5 1800.3 772.72 471.86 574.85 -17.78 395.26

03,07,2014 50:14.9 1800.4 772.72 471 573.99 -17.78 390.2


03,07,2014 50:15.3 1800.4 772.72 466.8 569.79 -17.78 392.78

03,07,2014 50:15.7 1799.6 772.72 481.12 584.11 -17.78 394.62

03,07,2014 50:16.1 1800.1 772.72 479.4 582.39 -17.78 396.56

03,07,2014 50:16.5 1801 772.72 478.54 581.53 -17.78 391.49

03,07,2014 50:16.9 1801 772.72 478.54 581.53 -17.78 391.49

03,07,2014 50:16.9 1800.4 772.72 471 573.99 -17.78 390.2

03,07,2014 50:17.3 1799.6 772.72 471 573.99 -17.78 392.14

03,07,2014 50:17.7 1800.4 772.72 473.48 576.47 -17.78 389.01

03,07,2014 50:18.0 1799.8 772.72 480.26 583.25 -17.78 392.78

03,07,2014 50:18.4 1799.4 772.32 482.74 585.62 -17.78 391.49

03,07,2014 50:18.8 1800.1 772.72 486.94 589.93 -17.78 392.14

03,07,2014 50:19.2 1799.6 772.72 478.54 581.53 -17.78 391.49

03,07,2014 50:19.6 1799.9 772.72 475.2 578.19 -17.78 394.08

03,07,2014 50:20.0 1800 772.72 469.27 572.26 -17.78 393.43

03,07,2014 50:20.4 1800.1 772.32 474.34 577.22 -17.78 388.37

03,07,2014 50:20.8 1799.4 772.72 479.4 582.39 -17.78 390.2

03,07,2014 50:21.2 1799.8 772.72 484.46 587.45 -17.78 390.85

03,07,2014 50:21.6 1800.4 772.72 463.46 566.45 -17.78 391.49

03,07,2014 50:22.0 1800.3 772.72 476.06 579.05 -17.78 391.49


03,07,2014 50:22.4 1799.1 772.72 476.06 579.05 -17.78 396.56

03,07,2014 50:22.8 1799.5 772.72 475.2 578.19 -17.78 394.08

03,07,2014 50:23.2 1801 772.72 471 573.99 -17.78 392.78

03,07,2014 50:23.6 1800.6 772.72 469.27 572.26 -17.78 394.08

03,07,2014 50:24.0 1799.9 772.72 465.07 568.06 -17.78 391.49

03,07,2014 50:24.4 1799.6 772.72 460.01 563 -17.78 391.49

03,07,2014 50:24.8 1800.4 772.72 471 573.99 -17.78 390.2

03,07,2014 50:25.2 1800 772.72 475.2 578.19 -17.78 392.78

03,07,2014 50:25.6 1800.3 772.72 471 573.99 -17.78 395.91

03,07,2014 50:26.0 1800.1 772.72 472.72 575.71 -17.78 389.66

03,07,2014 50:26.4 1800.1 772.72 467.66 570.65 -17.78 391.49

03,07,2014 50:26.8 1800.1 772.72 467.66 570.65 -17.78 391.49

03,07,2014 50:26.8 1799.4 772.72 460.01 563 -17.78 392.14

03,07,2014 50:27.2 1800.4 772.72 478.54 581.53 -17.78 390.2

03,07,2014 50:27.6 1800.8 772.72 469.27 572.26 -17.78 392.78

03,07,2014 50:28.0 1799.1 772.72 467.66 570.65 -17.78 395.26

03,07,2014 50:28.4 1800.6 772.72 465.07 568.06 -17.78 395.91

03,07,2014 50:28.8 1800.3 772.72 469.27 572.26 -17.78 387.72

03,07,2014 50:29.2 1799 772.72 476.06 579.05 -17.78 392.78


03,07,2014 50:29.6 1800 772.72 481.12 584.11 -17.78 390.85

03,07,2014 50:30.0 1800.3 772.72 482.74 585.73 -17.78 390.85

03,07,2014 50:30.4 1799.6 772.72 477.68 580.67 -17.78 392.78

03,07,2014 50:30.8 1799.5 772.72 473.48 576.47 -17.78 394.62

03,07,2014 50:31.2 1800.1 772.72 471 573.99 -17.78 395.91

03,07,2014 50:31.6 1800.6 772.72 471 573.99 -17.78 392.78

03,07,2014 50:32.0 1799.5 772.72 479.4 582.39 -17.78 392.14

03,07,2014 50:32.4 1799.1 772.72 483.6 586.59 -17.78 390.2

03,07,2014 50:32.7 1800 772.72 485.33 588.32 -17.78 392.14

03,07,2014 50:33.1 1800 772.72 477.68 580.67 -17.78 392.78

03,07,2014 50:33.5 1800.6 772.32 484.46 587.35 -17.78 395.91

03,07,2014 50:33.9 1800.5 772.72 481.12 584.11 -17.78 395.91

03,07,2014 50:34.3 1799.5 772.72 477.68 580.67 -17.78 395.26

03,07,2014 50:34.7 1799.4 772.72 475.2 578.19 -17.78 390.85

03,07,2014 50:35.1 1800.4 772.72 466.8 569.79 -17.78 392.78

03,07,2014 50:35.5 1800.6 772.72 461.73 564.72 -17.78 390.2

03,07,2014 50:35.9 1799.6 772.72 476.06 579.05 -17.78 393.43

03,07,2014 50:36.3 1800 772.72 481.12 584.11 -17.78 392.78

03,07,2014 50:36.7 1800.4 772.72 474.34 577.22 -17.78 394.62


03,07,2014 50:37.1 1800 772.72 473.48 576.47 -17.78 390.85

03,07,2014 50:37.5 1799.9 772.72 469.27 572.26 -17.78 388.37

03,07,2014 50:37.9 1800.5 772.72 471.86 574.85 -17.78 393.43

03,07,2014 50:38.3 1800.3 772.72 472.72 575.71 -17.78 393.43

03,07,2014 50:38.7 1800.8 772.72 468.41 571.4 -17.78 391.49

03,07,2014 50:39.1 1800.4 772.72 461.73 564.72 -17.78 392.14

03,07,2014 50:39.5 1799.6 772.72 460.01 563 -17.78 397.2

03,07,2014 50:39.9 1799.4 772.72 464.21 567.2 -17.78 388.37

03,07,2014 50:40.3 1800.3 772.72 471.86 574.85 -17.78 393.43

03,07,2014 50:40.7 1799.9 772.72 475.2 578.19 -17.78 394.08

03,07,2014 50:41.1 1799.4 772.72 479.4 582.39 -17.78 392.78

03,07,2014 50:41.5 1799.1 772.72 471.86 574.85 -17.78 395.91

03,07,2014 50:41.9 1800 772.72 468.41 571.4 -17.78 394.62

03,07,2014 50:42.3 1800 772.72 466.8 569.79 -17.78 392.14

03,07,2014 50:42.7 1799.3 772.72 481.88 584.87 -17.78 392.14

03,07,2014 50:43.1 1799.6 772.72 476.06 579.05 -17.78 394.08

03,07,2014 50:43.5 1800.3 772.72 474.34 577.33 -17.78 392.14

03,07,2014 50:43.9 1800.4 772.72 471.86 574.85 -17.78 389.01

03,07,2014 50:44.3 1799.5 772.72 483.6 586.59 -17.78 392.78


03,07,2014 50:44.7 1799.4 772.72 482.74 585.73 -17.78 394.62

03,07,2014 50:45.1 1799.3 772.72 484.46 587.45 -17.78 395.91

03,07,2014 50:45.5 1799.6 772.72 481.88 584.87 -17.78 389.01

03,07,2014 50:45.9 1800.3 772.72 479.4 582.39 -17.78 389.01

03,07,2014 50:46.3 1800 772.72 469.27 572.16 -17.78 394.08

03,07,2014 50:46.7 1800.1 772.72 469.27 572.26 -17.78 394.62

03,07,2014 50:47.1 1799.9 772.72 468.41 571.4 -17.78 394.08

03,07,2014 50:47.5 1799.9 772.72 463.46 566.45 -17.78 394.08

03,07,2014 50:47.9 1799.9 772.72 457.53 560.52 -17.78 396.56

03,07,2014 50:48.3 1800 772.72 464.21 567.2 -17.78 394.08

03,07,2014 50:48.7 1799.4 772.72 466.8 569.79 -17.78 391.49

03,07,2014 50:49.1 1799.4 772.72 466.8 569.79 -17.78 391.49

03,07,2014 50:49.1 1799.9 772.72 474.34 577.33 -17.78 394.62

03,07,2014 50:49.5 1800.9 772.32 475.2 578.08 -17.78 395.26

03,07,2014 50:49.9 1800.1 772.72 465.93 568.92 -17.78 393.43

03,07,2014 50:50.3 1799.3 772.72 460.01 563 -17.78 393.43

03,07,2014 50:50.7 1799.9 772.72 457.53 560.52 -17.78 390.85

03,07,2014 50:51.1 1800.1 772.72 465.93 568.92 -17.78 392.14

03,07,2014 50:51.5 1799.6 772.72 467.66 570.65 -17.78 391.49


03,07,2014 50:51.9 1799.4 772.72 471.86 574.85 -17.78 394.62

03,07,2014 50:52.3 1800.5 772.72 471.86 574.85 -17.78 389.66

03,07,2014 50:52.7 1799.6 772.72 479.4 582.39 -17.78 393.43

03,07,2014 50:53.1 1799.4 772.72 482.74 585.73 -17.78 392.78

03,07,2014 50:53.5 1800.3 772.72 486.19 589.18 -17.78 394.62

03,07,2014 50:53.9 1799.6 772.72 478.54 581.53 -17.78 390.2

03,07,2014 50:54.3 1799.6 772.72 476.92 579.91 -17.78 394.08

03,07,2014 50:54.7 1800.3 772.72 470.14 573.13 -17.78 394.08

03,07,2014 50:55.1 1800.9 772.32 471 573.88 -17.78 390.2

03,07,2014 50:55.5 1800.3 772.72 480.26 583.25 -17.78 392.78

03,07,2014 50:55.9 1799.6 772.72 486.19 589.18 -17.78 395.26

03,07,2014 50:56.3 1799.6 772.72 484.46 587.45 -17.78 393.43

03,07,2014 50:56.7 1800 772.72 481.12 584.11 -17.78 391.49

03,07,2014 50:57.1 1800.3 772.72 478.54 581.53 -17.78 391.49

03,07,2014 50:57.4 1799.3 772.72 472.72 575.71 -17.78 393.43

03,07,2014 50:57.9 1800.4 772.32 473.48 576.36 -17.78 392.14

03,07,2014 50:58.3 1800.1 772.32 473.48 576.36 -17.78 394.08

03,07,2014 50:58.7 1799.4 772.72 466.8 569.79 -17.78 394.62

03,07,2014 50:59.1 1799.6 772.72 461.73 564.72 -17.78 392.78


03,07,2014 50:59.5 1799.9 772.72 465.07 568.06 -17.78 391.49

03,07,2014 50:59.8 1799.3 772.72 474.34 577.33 -17.78 391.49

03,07,2014 51:00.2 1800 772.72 476.06 579.05 -17.78 392.78

03,07,2014 51:00.6 1800.3 772.72 475.2 578.19 -17.78 393.43

03,07,2014 51:01.0 1800.3 772.72 470.14 573.13 -17.78 393.43

03,07,2014 51:01.0 1799.6 772.72 470.14 573.13 -17.78 393.43

03,07,2014 51:01.7 1799.8 772.72 478.54 581.53 -17.78 395.91

03,07,2014 51:02.1 1800 772.72 479.4 582.39 -17.78 389.66

03,07,2014 51:02.5 1800.3 772.72 472.72 575.71 -17.78 394.08

03,07,2014 51:02.9 1799.3 772.72 470.14 573.13 -17.78 394.08

03,07,2014 51:03.3 1799.1 772.72 474.34 577.33 -17.78 392.78

03,07,2014 51:03.7 1800 772.72 465.93 568.92 -17.78 392.14

03,07,2014 51:04.1 1800.1 772.72 462.59 565.58 -17.78 390.85

03,07,2014 51:04.5 1800.1 772.72 461.73 564.72 -17.78 394.62

03,07,2014 51:04.9 1799.6 772.72 464.21 567.2 -17.78 390.85

03,07,2014 51:05.3 1800.1 772.72 466.8 569.79 -17.78 392.14

03,07,2014 51:05.7 1799.8 772.32 475.2 578.08 -17.78 393.43

03,07,2014 51:06.1 1800.1 772.72 476.92 579.91 -17.78 389.01

03,07,2014 51:06.5 1799.5 772.72 469.27 572.26 -17.78 391.49


03,07,2014 51:06.9 1800.1 772.72 463.46 566.45 -17.78 393.43

03,07,2014 51:07.3 1800.1 772.72 463.46 566.45 -17.78 393.43

03,07,2014 51:07.3 1800.3 772.72 461.73 564.72 -17.78 393.43

03,07,2014 51:07.7 1799.1 772.32 467.66 570.65 -17.78 395.26

03,07,2014 51:08.1 1800.4 772.72 475.2 578.19 -17.78 390.2

03,07,2014 51:08.5 1800.6 772.72 470.14 573.13 -17.78 392.78

03,07,2014 51:08.9 1799.4 772.72 472.72 575.71 -17.78 392.14

03,07,2014 51:09.3 1799.9 772.72 482.74 585.73 -17.78 392.14

03,07,2014 51:09.7 1799.3 772.72 483.6 586.59 -17.78 394.08

03,07,2014 51:10.1 1799.9 772.32 482.74 585.62 -17.78 395.91

03,07,2014 51:10.5 1800.3 772.32 486.19 589.07 -17.78 392.14

03,07,2014 51:10.9 1800.5 772.72 476.06 579.05 -17.78 391.49

03,07,2014 51:11.3 1799.4 772.72 471.86 574.85 -17.78 391.49

03,07,2014 51:11.7 1799.5 772.32 469.27 572.16 -17.78 393.43

03,07,2014 51:12.1 1800 772.72 481.88 584.87 -17.78 397.2

03,07,2014 51:12.5 1800.3 772.72 464.21 567.2 -17.78 391.49

03,07,2014 51:12.9 1800.3 772.72 462.59 565.58 -17.78 395.26

03,07,2014 51:13.3 1799.3 772.72 467.66 570.65 -17.78 390.2

03,07,2014 51:13.7 1800.1 772.72 471.86 574.85 -17.78 391.49


03,07,2014 51:14.1 1800 772.72 471.86 574.85 -17.78 392.14

03,07,2014 51:14.5 1800 772.72 471.86 574.85 -17.78 392.14

03,07,2014 51:14.5 1799.9 772.72 476.06 579.05 -17.78 390.85

03,07,2014 51:15.2 1799.9 772.32 483.6 586.48 -17.78 390.2

03,07,2014 51:15.6 1800 772.72 483.6 586.59 -17.78 392.14

03,07,2014 51:16.0 1799.6 772.32 483.6 586.48 -17.78 392.78

03,07,2014 51:16.4 1799.8 772.72 476.06 579.05 -17.78 394.62

03,07,2014 51:16.8 1800 772.72 471.86 574.85 -17.78 390.85

03,07,2014 51:17.2 1800 772.72 465.93 568.92 -17.78 394.62

03,07,2014 51:17.6 1800.4 772.32 471.86 574.74 -17.78 393.43

03,07,2014 51:18.0 1800.1 772.72 476.92 579.91 -17.78 390.2

03,07,2014 51:18.4 1798.4 772.72 463.46 566.45 -17.78 396.56

03,07,2014 51:18.8 1798.5 772.72 460.01 563 -17.78 392.14

03,07,2014 51:19.2 1800.3 772.72 468.41 571.4 -17.78 393.43

03,07,2014 51:19.6 1800.1 772.32 475.2 578.08 -17.78 390.2

03,07,2014 51:20.0 1799.5 772.72 475.2 578.19 -17.78 395.26

03,07,2014 51:20.3 1800.3 772.72 466.8 569.79 -17.78 392.78

03,07,2014 51:20.7 1800.3 772.72 466.8 569.79 -17.78 390.85

03,07,2014 51:20.7 1800 772.72 463.46 566.45 -17.78 390.85


03,07,2014 51:21.2 1799.6 772.72 463.46 566.45 -17.78 394.62

03,07,2014 51:21.6 1800 772.72 461.73 564.72 -17.78 396.56

03,07,2014 51:22.0 1800.8 772.72 470.14 573.13 -17.78 393.43

03,07,2014 51:22.4 1800.3 772.72 476.06 579.05 -17.78 390.85

03,07,2014 51:22.8 1800.4 772.72 471.86 574.85 -17.78 395.91

03,07,2014 51:23.2 1798.9 772.72 482.74 585.73 -17.78 392.14

03,07,2014 51:23.6 1798.9 772.72 484.46 587.45 -17.78 392.78

03,07,2014 51:24.0 1800 772.72 484.46 587.45 -17.78 394.62

03,07,2014 51:24.4 1800.1 772.72 487.8 590.79 -17.78 395.91

03,07,2014 51:24.7 1800 772.72 476.92 579.91 -17.78 391.49

03,07,2014 51:25.1 1799.4 772.72 473.48 576.47 -17.78 394.62

03,07,2014 51:25.5 1800.4 772.72 468.41 571.4 -17.78 392.14

03,07,2014 51:25.9 1800.8 772.32 481.12 584.01 -17.78 392.78

03,07,2014 51:26.3 1799.1 772.32 485.33 588.21 -17.78 391.49

03,07,2014 51:26.7 1799.1 772.32 485.33 588.21 -17.78 391.49

03,07,2014 51:26.7 1799.4 772.72 486.19 589.18 -17.78 395.91

03,07,2014 51:27.1 1800.9 772.72 482.74 585.73 -17.78 390.2

03,07,2014 51:27.5 1800.6 772.72 471.86 574.85 -17.78 392.78

03,07,2014 51:27.9 1799.9 772.72 475.2 578.19 -17.78 393.43


03,07,2014 51:28.3 1800.1 772.72 477.68 580.67 -17.78 395.26

03,07,2014 51:28.7 1800 772.72 470.14 573.13 -17.78 392.78

03,07,2014 51:29.1 1799.9 772.72 465.07 568.06 -17.78 392.78

03,07,2014 51:29.5 1800.3 772.72 460.87 563.86 -17.78 395.91

03,07,2014 51:29.9 1799.8 772.72 462.59 565.58 -17.78 391.49

03,07,2014 51:30.3 1799.8 772.72 469.27 572.26 -17.78 392.14

03,07,2014 51:30.7 1799.8 772.72 469.27 572.26 -17.78 394.08

03,07,2014 51:30.7 1799.5 772.72 474.34 577.33 -17.78 394.08

03,07,2014 51:31.4 1800.3 772.72 470.14 573.13 -17.78 392.78

03,07,2014 51:31.8 1799.6 772.72 478.54 581.53 -17.78 391.49

03,07,2014 51:32.2 1799.4 772.72 460.87 563.86 -17.78 394.08

03,07,2014 51:32.6 1800.1 772.72 462.59 565.58 -17.78 389.01

03,07,2014 51:33.0 1799.9 772.72 471 573.99 -17.78 394.62

03,07,2014 51:33.4 1799.4 772.72 474.34 577.33 -17.78 394.62

03,07,2014 51:33.8 1799.8 772.72 470.14 573.13 -17.78 389.01

03,07,2014 51:33.2 1799.8 772.72 470.14 573.13 -17.78 389.01

03,07,2014 51:34.2 1799.1 772.72 469.27 572.26 -17.78 395.26

03,07,2014 51:34.6 1800.1 772.72 465.07 568.06 -17.78 390.2

03,07,2014 51:35.0 1801.1 772.72 464.21 567.2 -17.78 395.26


03,07,2014 51:35.4 1800.6 772.72 460.87 563.86 -17.78 394.62

03,07,2014 51:35.8 1799.4 772.72 469.27 572.26 -17.78 394.08

03,07,2014 51:36.2 1799.9 772.72 474.34 577.33 -17.78 392.14

03,07,2014 51:36.6 1800.6 772.72 472.72 575.71 -17.78 392.14

03,07,2014 51:37.0 1799.9 772.72 476.92 579.91 -17.78 390.85

03,07,2014 51:37.4 1799.6 772.72 483.6 586.59 -17.78 393.43

03,07,2014 51:37.8 1799.3 772.72 485.33 588.32 -17.78 392.78

03,07,2014 51:38.2 1800.6 772.72 483.6 586.59 -17.78 392.78

03,07,2014 51:38.6 1799.8 772.72 478.54 581.53 -17.78 395.26

03,07,2014 51:39.0 1799.8 772.72 478.54 581.53 -17.78 395.26

03,07,2014 51:39.0 1800.5 772.72 476.06 579.05 -17.78 394.08

03,07,2014 51:39.7 1799.6 772.72 476.92 579.91 -17.78 395.26

03,07,2014 51:40.1 1799.4 772.72 472.72 575.71 -17.78 390.2

03,07,2014 51:40.5 1800.8 772.72 470.14 573.13 -17.78 391.49

03,07,2014 51:40.9 1799.8 772.72 465.93 568.92 -17.78 392.78

03,07,2014 51:41.3 1798.9 772.72 476.92 579.91 -17.78 394.62

03,07,2014 51:41.7 1800.4 772.72 481.12 579.05 -17.78 395.26

03,07,2014 51:42.1 1799.9 772.72 470.14 573.13 -17.78 397.2

03,07,2014 51:42.5 1799.5 772.72 475.2 578.19 -17.78 389.66


03,07,2014 51:42.9 1798.9 772.72 482.74 585.73 -17.78 392.78

03,07,2014 51:43.3 1799.9 772.72 481.12 584.11 -17.78 394.08

03,07,2014 51:43.7 1800 772.72 481.12 584.11 -17.78 390.85

03,07,2014 51:44.1 1799.8 772.72 478.54 581.53 -17.78 391.49

03,07,2014 51:44.5 1800.3 772.72 472.72 575.71 -17.78 390.2

03,07,2014 51:44.9 1799.9 772.72 466.8 569.79 -17.78 392.14

03,07,2014 51:45.3 1800.5 772.72 470.14 573.13 -17.78 394.08

03,07,2014 51:45.7 1800.1 772.72 475.2 578.19 -17.78 391.49

03,07,2014 51:46.1 1799.9 772.72 478.54 581.53 -17.78 392.78

03,07,2014 51:46.5 1799.9 772.72 480.26 583.25 -17.78 391.49

03,07,2014 51:46.5 1799.6 772.72 480.26 583.25 -17.78 391.49

03,07,2014 51:46.9 1799.9 772.72 471.86 574.85 -17.78 392.14

03,07,2014 51:47.3 1799.5 772.72 474.34 577.33 -17.78 395.91

03,07,2014 51:47.7 1799.9 772.32 471 573.88 -17.78 394.08

03,07,2014 51:48.1 1800.3 772.72 468.41 571.4 -17.78 392.78

03,07,2014 51:48.5 1800.3 772.72 465.93 568.92 -17.78 390.85

03,07,2014 51:48.9 1800.9 772.72 460.87 563.86 -17.78 393.43

03,07,2014 51:49.3 1799.8 772.72 459.25 562.24 -17.78 393.43

03,07,2014 51:49.7 1799.9 772.72 475.2 578.19 -17.78 389.66


03,07,2014 51:50.1 1799.8 772.72 471.86 574.85 -17.78 392.78

03,07,2014 51:50.4 1800 772.72 473.48 576.47 -17.78 394.08

03,07,2014 51:50.9 1799.3 772.72 471 573.99 -17.78 387.72

03,07,2014 51:51.3 1799.6 772.72 470.14 573.13 -17.78 390.2

03,07,2014 51:51.6 1800 772.32 463.46 566.34 -17.78 390.2

03,07,2014 51:52.0 1799.9 772.72 463.46 566.45 -17.78 394.62

03,07,2014 51:52.4 1800 772.72 475.2 578.19 -17.78 394.08

03,07,2014 51:52.8 1799.9 772.72 476.06 579.05 -17.78 392.78

03,07,2014 51:53.2 1800 772.32 471.86 574.74 -17.78 392.78

03,07,2014 51:53.6 1799.9 772.72 479.4 582.39 -17.78 390.85

03,07,2014 51:54.0 1799.8 772.32 479.4 582.28 -17.78 393.43

03,07,2014 51:54.4 1800.3 772.72 486.94 589.93 -17.78 392.14

03,07,2014 51:54.8 1800.1 772.72 482.74 585.73 -17.78 392.78

03,07,2014 51:55.3 1799.9 772.72 480.26 583.25 -17.78 395.91

03,07,2014 51:55.7 1799.9 772.72 473.48 576.47 -17.78 394.08

03,07,2014 51:56.0 1799.9 772.72 471.86 574.85 -17.78 392.78

03,07,2014 51:56.4 1799.9 772.32 473.48 576.36 -17.78 392.14

03,07,2014 51:56.8 1800.8 772.72 467.66 570.65 -17.78 393.43

03,07,2014 51:57.2 1800.4 772.72 465.07 568.06 -17.78 394.62


03,07,2014 51:57.6 1800.1 772.72 461.73 564.72 -17.78 391.49

03,07,2014 51:58.0 1799.6 772.72 471.86 574.85 -17.78 395.91

03,07,2014 51:58.4 1799.4 772.72 476.06 579.05 -17.78 392.14

03,07,2014 51:58.8 1800.4 772.32 471.86 574.74 -17.78 397.2

03,07,2014 51:59.2 1800.4 772.32 471.86 574.74 -17.78 397.2

03,07,2014 51:59.2 1800.4 772.72 465.93 568.92 -17.78 394.08

03,07,2014 51:59.9 1800.4 772.72 480.26 583.25 -17.78 392.78

03,07,2014 52:00.3 1800.5 772.72 479.4 582.39 -17.78 392.14

03,07,2014 52:00.7 1799.6 772.72 475.2 578.19 -17.78 392.78

03,07,2014 52:01.1 1800.5 772.72 466.8 569.79 -17.78 389.66

03,07,2014 52:01.5 1799.8 772.72 471 573.99 -17.78 390.85

03,07,2014 52:01.9 1800.3 772.72 471 573.99 -17.78 392.14

03,07,2014 52:02.3 1800.4 772.72 465.93 568.92 -17.78 391.49

03,07,2014 52:02.7 1800.1 772.72 460.87 563.86 -17.78 392.14

03,07,2014 52:03.1 1799.5 772.72 460.01 563 -17.78 394.62

03,07,2014 52:03.5 1799.3 772.72 471 573.99 -17.78 390.85

03,07,2014 52:03.9 1800.4 772.72 475.2 578.19 -17.78 392.14

03,07,2014 52:04.3 1800.6 772.72 473.48 576.47 -17.78 392.78

03,07,2014 52:04.7 1800.1 772.72 472.72 575.71 -17.78 389.66


03,07,2014 52:05.1 1799.4 772.72 471 573.99 -17.78 390.85

03,07,2014 52:05.5 1800.6 772.72 461.73 564.72 -17.78 394.62

03,07,2014 52:05.9 1799.9 772.72 484.46 587.45 -17.78 392.78

03,07,2014 52:06.3 1799.6 772.32 478.54 581.42 -17.78 392.14

03,07,2014 52:06.7 1800.5 772.72 474.34 577.33 -17.78 389.01

03,07,2014 52:07.1 1800.8 772.72 470.14 573.13 -17.78 396.56

03,07,2014 52:07.5 1799.5 772.72 476.06 579.05 -17.78 391.49

03,07,2014 52:07.9 1799.8 772.72 480.26 583.25 -17.78 391.49

03,07,2014 52:08.3 1800.3 772.72 482.74 585.73 -17.78 393.43

03,07,2014 52:08.7 1800.4 772.72 486.19 589.18 -17.78 390.2

03,07,2014 52:09.1 1799.8 772.72 483.6 586.59 -17.78 392.14

03,07,2014 52:09.5 1799.4 772.72 474.34 577.33 -17.78 394.08

03,07,2014 52:09.9 1799.8 772.72 474.34 577.33 -17.78 395.91

03,07,2014 52:10.3 1800.5 772.72 470.14 573.13 -17.78 390.2

03,07,2014 52:10.7 1799.8 772.72 470.14 573.13 -17.78 394.62

03,07,2014 52:11.1 1799.8 772.72 461.73 564.72 -17.78 392.14

03,07,2014 52:11.5 1799.4 772.72 459.25 562.24 -17.78 389.01

03,07,2014 52:11.9 1799.3 772.72 473.48 576.47 -17.78 393.43

03,07,2014 52:12.3 1799.4 772.72 474.34 577.33 -17.78 392.14


03,07,2014 52:12.7 1799.9 772.72 472.72 575.71 -17.78 395.26

03,07,2014 52:13.1 1800.5 772.72 471 573.99 -17.78 393.43

03,07,2014 52:13.5 1800.1 772.32 468.41 571.29 -17.78 392.14

03,07,2014 52:13.9 1799.9 772.72 462.59 565.58 -17.78 391.49

03,07,2014 52:14.3 1799.4 772.72 456.67 559.66 -17.78 393.43

03,07,2014 52:14.7 1799.6 772.72 472.72 575.71 -17.78 390.85

03,07,2014 52:15.1 1799.8 772.72 471 573.99 -17.78 394.62

03,07,2014 52:15.5 1800 772.72 469.27 572.26 -17.78 397.85

03,07,2014 52:15.9 1799.8 772.72 471 573.99 -17.78 392.14

03,07,2014 52:16.3 1799.3 772.72 478.54 581.53 -17.78 394.62

03,07,2014 52:16.7 1800.6 772.72 484.46 587.45 -17.78 393.43

03,07,2014 52:17.1 1800.1 772.72 479.4 582.39 -17.78 392.14

03,07,2014 52:17.5 1799.4 772.72 478.54 581.53 -17.78 387.08

03,07,2014 52:17.9 1799.4 772.72 478.54 581.53 -17.78 387.08

03,07,2014 52:17.9 1799 772.72 470.14 573.13 -17.78 394.08

03,07,2014 52:18.3 1800.1 772.32 471 573.99 -17.78 394.62

03,07,2014 52:18.7 1800.9 772.72 475.2 578.19 -17.78 391.49

03,07,2014 52:19.1 1799.9 772.72 479.4 582.39 -17.78 392.14

03,07,2014 52:19.5 1799.9 772.72 482.74 585.73 -17.78 392.78


03,07,2014 52:19.9 1799.3 772.72 466.8 569.79 -17.78 391.49

03,07,2014 52:20.3 1799.3 772.72 479.4 582.39 -17.78 394.62

03,07,2014 52:20.7 1800.1 772.72 483.6 586.59 -17.78 391.49

03,07,2014 52:21.1 1799.6 772.72 477.68 580.67 -17.78 393.43

03,07,2014 52:21.5 1799.9 772.72 475.2 578.19 -17.78 391.49

03,07,2014 52:21.9 1799.8 772.72 472.72 575.71 -17.78 390.85

03,07,2014 52:22.3 1800.5 772.72 468.41 571.4 -17.78 390.2

03,07,2014 52:22.7 1800.6 772.72 462.59 565.58 -17.78 391.49

03,07,2014 52:23.1 1800.4 772.32 474.34 577.22 -17.78 392.14

03,07,2014 52:23.5 1799.4 772.72 481.12 584.01 -17.78 393.43

03,07,2014 52:23.9 1800.1 772.72 474.34 577.33 -17.78 393.43

03,07,2014 52:24.3 1800.1 772.72 471.86 574.85 -17.78 389.01

03,07,2014 52:24.7 1799.8 772.72 469.27 572.26 -17.78 394.08

03,07,2014 52:25.1 1799.3 772.72 461.73 564.72 -17.78 395.91

03,07,2014 52:25.5 1799.9 772.72 477.68 580.67 -17.78 396.56

03,07,2014 52:25.9 1799.9 772.72 467.66 570.65 -17.78 394.08

03,07,2014 52:26.3 1800 772.72 462.59 565.58 -17.78 392.78

03,07,2014 52:26.7 1800.1 772.72 465.07 568.06 -17.78 395.91

03,07,2014 52:27.1 1799 772.72 468.41 571.4 -17.78 388.37


03,07,2014 52:27.4 1799.4 772.72 474.34 577.33 -17.78 389.66

03,07,2014 52:27.8 1800 772.72 479.4 582.39 -17.78 395.26

03,07,2014 52:28.2 1800.4 772.72 481.88 584.87 -17.78 394.08

03,07,2014 52:28.6 1799.6 772.72 474.34 577.33 -17.78 392.78

03,07,2014 52:29.0 1799.6 772.72 474.34 573.99 -17.78 392.14

03,07,2014 52:29.0 1800 772.72 471 573.99 -17.78 392.14

03,07,2014 52:29.4 1800.5 772.72 468.41 571.4 -17.78 394.08

03,07,2014 52:29.8 1800 772.72 471.86 574.85 -17.78 392.78

03,07,2014 52:30.2 1799.4 772.72 477.68 580.67 -17.78 392.14

03,07,2014 52:30.6 1800.5 772.72 481.88 584.87 -17.78 394.62

03,07,2014 52:31.0 1800.6 772.72 482.74 585.73 -17.78 389.66

03,07,2014 52:31.7 1799.3 772.72 472.72 575.71 -17.78 389.66

03,07,2014 52:32.1 1800.1 772.72 469.27 572.26 -17.78 395.91

03,07,2014 52:32.5 1799.6 772.72 473.48 576.47 -17.78 390.2

03,07,2014 52:32.9 1800 772.72 479.4 582.39 -17.78 393.43

03,07,2014 52:33.3 1799.6 772.32 481.88 584.76 -17.78 392.78

03,07,2014 52:33.7 1799.8 772.72 485.33 588.32 -17.78 393.43

03,07,2014 52:34.1 1799.5 772.72 478.54 581.53 -17.78 393.43

03,07,2014 52:34.5 1798.9 772.72 476.06 579.05 -17.78 390.85


03,07,2014 52:34.9 1800.1 772.72 475.2 578.19 -17.78 395.26

03,07,2014 52:35.3 1800.4 772.72 475.2 578.19 -17.78 394.62

03,07,2014 52:36.0 1800.1 772.72 484.46 587.45 -17.78 394.08

03,07,2014 52:36.4 1799.6 772.72 485.33 588.32 -17.78 394.62

03,07,2014 52:36.8 1799.4 772.72 479.4 582.39 -17.78 392.78

03,07,2014 52:37.2 1799.5 772.72 477.68 580.67 -17.78 389.66

03,07,2014 52:37.6 1800.4 772.72 472.72 575.71 -17.78 392.14

03,07,2014 52:38.0 1800.4 772.72 473.48 576.47 -17.78 390.85

03,07,2014 52:38.4 1800 772.72 484.46 587.45 -17.78 392.14

03,07,2014 52:38.8 1799.9 772.72 484.46 587.45 -17.78 393.43

03,07,2014 52:39.2 1799.4 772.72 487.8 590.79 -17.78 392.14

03,07,2014 52:39.6 1800.3 772.72 479.4 582.39 -17.78 390.2

03,07,2014 52:40.0 1799.5 772.72 474.34 577.33 -17.78 392.14

03,07,2014 52:40.4 1800.5 772.72 472.72 575.71 -17.78 390.85

03,07,2014 52:40.8 1801 772.72 473.48 576.47 -17.78 394.08

03,07,2014 52:41.2 1800.6 772.72 469.27 572.26 -17.78 394.62

03,07,2014 52:41.6 1799 772.72 464.21 567.2 -17.78 392.14

03,07,2014 52:42.0 1800.1 772.72 458.39 561.38 -17.78 392.78

03,07,2014 52:42.4 1800.4 772.72 465.07 568.06 -17.78 392.78


03,07,2014 52:42.8 1799.5 772.72 470.14 573.13 -17.78 392.14

03,07,2014 52:43.2 1800.3 772.72 473.48 576.47 -17.78 391.49

03,07,2014 52:43.6 1799.9 772.72 476.06 579.05 -17.78 392.78

03,07,2014 52:44.0 1799.3 772.72 465.93 568.92 -17.78 394.62

03,07,2014 52:44.4 1799.5 772.72 462.59 565.58 -17.78 393.43

03,07,2014 52:44.8 1800.3 772.72 461.73 564.72 -17.78 393.43

03,07,2014 52:45.2 1799.6 772.32 466.8 569.79 -17.78 394.08

03,07,2014 52:45.6 1800 772.72 470.14 573.13 -17.78 390.85

03,07,2014 52:46.0 1800.5 772.72 471 573.99 -17.78 392.14

03,07,2014 52:46.4 1799.6 772.72 472.72 575.71 -17.78 392.78

03,07,2014 52:46.8 1799 772.72 481.12 584.11 -17.78 394.08

03,07,2014 52:47.2 1799.4 772.72 483.6 586.59 -17.78 392.78

03,07,2014 52:47.6 1799.9 772.72 481.88 584.87 -17.78 394.62

03,07,2014 52:48.0 1799.5 772.72 479.4 582.39 -17.78 391.49

03,07,2014 52:48.4 1799.5 772.72 478.54 581.53 -17.78 392.14

03,07,2014 52:48.7 1799.5 772.72 478.54 581.53 -17.78 392.14

03,07,2014 52:48.7 1800.6 772.72 478.54 581.53 -17.78 392.14

03,07,2014 52:48.7 1800.6 772.72 480.26 583.25 -17.78 390.85

03,07,2014 52:49.5 1798.9 772.72 469.27 572.26 -17.78 392.14


03,07,2014 52:49.9 1800.1 772.72 486.19 589.18 -17.78 394.62

03,07,2014 52:50.6 1800.1 772.72 469.27 572.26 -17.78 395.91

03,07,2014 52:51.0 1800.5 772.72 472.72 575.71 -17.78 392.78

03,07,2014 52:51.4 1799.6 772.72 481.12 584.11 -17.78 390.85

03,07,2014 52:51.8 1799.3 772.72 481.12 584.11 -17.78 392.14

03,07,2014 52:52.2 1800.4 772.72 482.74 585.73 -17.78 392.78

03,07,2014 52:52.6 1800 772.72 484.46 587.45 -17.78 394.08

03,07,2014 52:53.0 1800 772.72 485.33 588.32 -17.78 397.2

03,07,2014 52:53.4 1800.5 772.72 481.88 584.87 -17.78 394.08

03,07,2014 52:53.8 1799.6 772.72 478.54 581.53 -17.78 390.85

03,07,2014 52:54.2 1799.8 772.72 471.86 574.85 -17.78 391.49

03,07,2014 52:54.6 1800.4 772.72 468.41 571.4 -17.78 393.43

03,07,2014 52:55.0 1799.9 772.72 478.54 581.53 -17.78 392.14

03,07,2014 52:55.4 1799.9 772.72 478.54 581.53 -17.78 392.14

03,07,2014 52:55.4 1799.6 772.72 486.19 589.18 -17.78 392.78

03,07,2014 52:55.8 1799.9 772.72 481.12 584.11 -17.78 395.91

03,07,2014 52:56.2 1800.1 772.72 481.88 584.87 -17.78 389.66

07,03,2014 52:56.6 1798.9 772.72 476.92 579.91 -17.78 390.85

03,07,2014 52:57.0 1799.4 772.72 469.27 572.26 -17.78 394.08


03,07,2014 52:57.4 1799.9 772.72 462.59 565.58 -17.78 391.49

03,07,2014 52:57.8 1799.8 772.72 465.93 568.92 -17.78 391.49

03,07,2014 52:58.2 1800.1 772.72 462.59 565.58 -17.78 389.66

03,07,2014 52:58.6 1800.3 772.72 461.73 564.72 -17.78 395.91

03,07,2014 52:59.0 1799.4 772.72 464.21 567.2 -17.78 391.49

03,07,2014 52:59.4 1799.3 772.72 470.14 573.13 -17.78 393.43

03,07,2014 52:59.8 1800.1 772.72 474.34 577.33 -17.78 390.85

03,07,2014 53:00.2 1800.8 772.72 476.92 579.91 -17.78 392.14

03,07,2014 53:00.6 1799.6 772.72 469.27 572.26 -17.78 391.49

03,07,2014 53:01.0 1798.9 772.72 463.46 566.45 -17.78 391.49

03,07,2014 53:01.4 1798.9 772.72 464.21 567.2 -17.78 395.91

03,07,2014 53:01.4 1800 772.72 464.21 567.2 -17.78 395.91

03,07,2014 53:02.1 1799.3 772.72 472.72 575.71 -17.78 394.62

03,07,2014 53:02.4 1799.8 772.72 466.8 569.79 -17.78 395.26

03,07,2014 53:02.8 1800.3 772.72 461.73 564.72 -17.78 392.78

03,07,2014 53:03.2 1799.9 772.32 465.07 567.95 -17.78 391.49

03,07,2014 53:03.6 1800.8 772.72 469.27 572.26 -17.78 390.85

03,07,2014 53:04.0 1799.4 772.72 466.8 569.79 -17.78 397.2

03,07,2014 53:04.4 1799.3 772.32 468.41 571.29 -17.78 391.49


03,07,2014 53:04.8 1799.8 772.72 477.68 580.67 -17.78 392.78

03,07,2014 53:05.2 1800.6 772.72 479.4 582.39 -17.78 390.85

03,07,2014 53:05.6 1799.1 772.72 479.4 582.39 -17.78 393.43

03,07,2014 53:06.0 1799.6 772.72 475.2 578.19 -17.78 390.85

03,07,2014 53:06.4 1800.4 772.72 473.48 576.47 -17.78 391.49

03,07,2014 53:06.8 1800 772.72 471 573.99 -17.78 394.62

03,07,2014 53:07.2 1799.5 772.72 470.14 573.13 -17.78 394.62

03,07,2014 53:07.6 1800 772.72 480.26 583.25 -17.78 393.43

03,07,2014 53:08.0 1799.9 772.72 481.12 584.11 -17.78 389.66

03,07,2014 53:08.7 1800 772.72 462.59 565.58 -17.78 394.08

03,07,2014 53:09.1 1800.1 772.32 480.26 583.14 -17.78 390.85

03,07,2014 53:09.5 1799.6 772.72 470.14 573.13 -17.78 395.26

03,07,2014 53:09.9 1800.1 772.72 471.86 574.85 -17.78 390.85

03,07,2014 53:10.3 1799.6 772.72 481.12 584.11 -17.78 390.85

03,07,2014 53:10.7 1799.1 772.72 485.33 588.32 -17.78 390.85

03,07,2014 53:11.1 1799.6 772.72 484.46 587.45 -17.78 395.91

03,07,2014 53:11.5 1799.9 772.72 483.6 586.59 -17.78 397.2

03,07,2014 53:11.9 1799.8 772.72 477.68 580.67 -17.78 392.14

03,07,2014 53:12.3 1800.5 772.72 471.86 574.85 -17.78 390.85


03,07,2014 53:12.7 1801 772.72 470.14 573.13 -17.78 393.43

03,07,2014 53:13.1 1800 772.72 481.88 584.87 -17.78 390.85

03,07,2014 53:13.5 1799.1 772.72 484.46 587.45 -17.78 389.01

03,07,2014 53:13.9 1799.9 772.72 484.46 587.45 -17.78 395.26

03,07,2014 53:14.3 1800.5 772.72 480.26 583.25 -17.78 388.37

03,07,2014 53:14.7 1800.3 772.72 471 573.99 -17.78 392.14

03,07,2014 53:15.1 1800.1 772.72 476.92 579.91 -17.78 391.49

03,07,2014 53:15.5 1800.5 772.72 480.26 583.25 -17.78 394.62

03,07,2014 53:15.9 1800.5 772.72 471 573.99 -17.78 390.85

03,07,2014 53:15.9 1800.1 772.72 471 573.99 -17.78 390.85

03,07,2014 53:16.6 1800.3 772.72 480.26 583.25 -17.78 394.62

03,07,2014 53:17.0 1801.1 772.72 484.46 587.45 -17.78 390.2

03,07,2014 53:17.4 1799.8 772.32 477.68 580.56 -17.78 394.62

03,07,2014 53:17.8 1799.3 772.72 471.86 574.85 -17.78 392.14

03,07,2014 53:18.2 1800.4 772.72 463.46 566.45 -17.78 392.78

03,07,2014 53:18.6 1800.8 772.72 468.41 571.4 -17.78 392.14

03,07,2014 53:19.0 1799.4 772.72 463.46 566.45 -17.78 390.85

03,07,2014 53:19.4 1799.8 772.72 461.73 564.72 -17.78 394.08

03,07,2014 53:19.8 1799.5 772.72 461.73 564.72 -17.78 390.2


03,07,2014 53:20.2 1799.4 772.72 470.14 573.13 -17.78 396.56

03,07,2014 53:20.6 1799.8 772.72 474.34 577.33 -17.78 394.08

03,07,2014 53:21.0 1800 772.72 473.48 576.47 -17.78 393.43

03,07,2014 53:21.4 1799.4 772.72 466.8 569.79 -17.78 392.78

03,07,2014 53:21.8 1799.3 772.72 465.07 568.06 -17.78 394.08

03,07,2014 53:22.2 1799.9 772.72 465.93 568.92 -17.78 392.14

03,07,2014 53:22.6 1799.6 772.72 464.21 567.2 -17.78 395.26

03,07,2014 53:23.0 1800.1 772.32 476.92 579.8 -17.78 392.78

03,07,2014 53:23.4 1799.5 772.72 469.27 572.26 -17.78 392.78

03,07,2014 53:23.8 1800 772.72 472.72 575.71 -17.78 389.01

03,07,2014 53:24.2 1800.1 772.72 480.26 583.25 -17.78 388.37

03,07,2014 53:24.6 1799.6 772.72 482.74 585.73 -17.78 393.43

03,07,2014 53:25.0 1800.3 772.72 484.46 587.45 -17.78 393.43

03,07,2014 53:25.4 1800 772.72 484.46 587.45 -17.78 394.62

03,07,2014 53:25.7 1800.1 772.72 478.54 581.53 -17.78 392.78

03,07,2014 53:26.1 1799.6 772.72 472.72 575.71 -17.78 394.08

03,07,2014 53:26.5 1800.4 772.72 470.14 573.13 -17.78 392.14

03,07,2014 53:26.9 1800.5 772.72 478.54 581.53 -17.78 392.14

03,07,2014 53:27.3 1800.5 772.72 478.54 581.53 -17.78 392.14


03,07,2014 53:27.3 1800.3 772.72 482.74 585.73 -17.78 391.49

03,07,2014 53:28.0 1800 772.72 468.41 571.4 -17.78 392.14

03,07,2014 53:28.4 1799.3 772.72 479.4 582.39 -17.78 394.62

03,07,2014 53:28.8 1800.1 772.72 473.48 576.47 -17.78 393.43

03,07,2014 53:29.2 1800.1 772.72 471.86 574.85 -17.78 395.91

03,07,2014 53:29.6 1799.1 772.72 474.34 577.33 -17.78 392.14

03,07,2014 53:30.0 1799.1 772.72 474.34 577.33 -17.78 392.14

03,07,2014 53:30.0 1799.1 772.72 483.6 586.59 -17.78 392.78

03,07,2014 53:30.4 1800 772.72 481.88 584.87 -17.78 397.2

03,07,2014 53:30.8 1799.9 772.72 481.88 584.87 -17.78 391.49

03,07,2014 53:31.2 1800 772.72 477.68 580.67 -17.78 395.91

03,07,2014 53:31.6 1799.6 772.72 473.48 576.47 -17.78 390.2

03,07,2014 53:32.0 1799.8 772.72 467.66 570.65 -17.78 395.26

03,07,2014 53:32.4 1800.3 772.72 472.72 575.71 -17.78 392.78

03,07,2014 53:32.8 1799.6 772.72 473.48 576.47 -17.78 388.37

03,07,2014 53:33.2 1799.6 772.72 481.12 584.11 -17.78 394.62

03,07,2014 53:33.6 1800.4 772.72 480.26 583.25 -17.78 390.85

03,07,2014 53:34.0 1800.4 772.72 476.06 579.05 -17.78 391.49

03,07,2014 53:34.4 1800.3 772.72 473.48 576.47 -17.78 390.85


03,07,2014 53:34.8 1799.8 772.72 471 573.99 -17.78 394.08

03,07,2014 53:35.2 1800.9 772.72 470.14 573.13 -17.78 389.66

03,07,2014 53:35.6 1800.4 772.72 465.93 568.92 -17.78 392.78

03,07,2014 53:36.0 1800.4 772.72 463.46 566.45 -17.78 392.78

03,07,2014 53:36.4 1800.1 772.72 460.87 563.86 -17.78 388.37

03,07,2014 53:36.8 1799.4 772.72 471.86 574.85 -17.78 390.85

03,07,2014 53:37.2 1799.8 772.72 473.48 576.47 -17.78 391.49

03,07,2014 53:37.6 1800 772.72 474.34 577.33 -17.78 396.56

03,07,2014 53:38.0 1800.4 772.72 474.34 577.33 -17.78 391.49

03,07,2014 53:38.4 1799.6 772.72 471 573.99 -17.78 390.2

03,07,2014 53:38.8 1800 772.72 463.46 566.45 -17.78 394.08

03,07,2014 53:39.2 1799.8 772.72 466.8 569.79 -17.78 395.26

03,07,2014 53:39.6 1800.3 772.72 476.92 579.91 -17.78 395.26

03,07,2014 53:40.0 1800 772.72 479.4 582.39 -17.78 392.14

03,07,2014 53:40.4 1799.3 772.72 469.27 572.26 -17.78 396.56

03,07,2014 53:40.8 1799.1 772.72 477.68 580.67 -17.78 387.08

03,07,2014 53:41.2 1799.3 772.72 483.6 586.59 -17.78 392.78

03,07,2014 53:41.5 1800.3 772.72 485.33 588.32 -17.78 390.2

03,07,2014 53:41.9 1800.8 772.72 484.46 587.45 -17.78 392.78


03,07,2014 53:42.3 1799.6 772.72 480.26 583.25 -17.78 393.43

03,07,2014 53:42.7 1799.6 772.72 472.72 575.71 -17.78 389.01

03,07,2014 53:43.1 1800.3 772.72 470.14 573.13 -17.78 393.43

03,07,2014 53:43.5 1800.1 772.72 476.06 579.05 -17.78 390.85

03,07,2014 53:43.9 1800.1 772.72 480.26 583.25 -17.78 391.49

03,07,2014 53:44.3 1800.3 772.72 482.74 585.73 -17.78 396.56

03,07,2014 53:44.7 1800.6 772.72 485.33 588.32 -17.78 390.85

03,07,2014 53:45.1 1800.6 772.72 485.33 588.32 -17.78 390.85

03,07,2014 53:45.1 1799 772.72 477.68 580.67 -17.78 397.2

03,07,2014 53:45.8 1800 772.72 469.27 572.26 -17.78 397.2

03,07,2014 53:46.2 1799.8 772.72 474.34 577.33 -17.78 391.49

03,07,2014 53:46.6 1799.8 772.72 474.34 577.33 -17.78 391.49

03,07,2014 53:46.6 1798.9 772.72 475.2 578.19 -17.78 391.49

03,07,2014 53:47.0 1799.3 772.72 479.4 582.39 -17.78 394.08

03,07,2014 53:47.4 1800.4 772.72 480.26 583.25 -17.78 393.43

03,07,2014 53:47.8 1799.8 772.72 471.86 574.85 -17.78 393.43

03,07,2014 53:48.2 1799 772.72 466.8 569.79 -17.78 388.37

03,07,2014 53:48.6 1800.5 772.72 465.93 568.92 -17.78 394.62

03,07,2014 53:49.0 1800.5 772.72 465.07 568.06 -17.78 390.85


03,07,2014 53:49.4 1800.1 772.72 472.72 575.71 -17.78 392.78

03,07,2014 53:49.8 1800.1 772.72 476.06 579.05 -17.78 392.78

03,07,2014 53:50.2 1800.3 772.72 476.06 579.05 -17.78 392.14

03,07,2014 53:50.6 1800 772.72 467.66 570.65 -17.78 387.08

03,07,2014 53:51.0 1800.3 772.72 474.34 577.33 -17.78 394.62

03,07,2014 53:51.4 1800.6 772.72 475.2 578.19 -17.78 394.08

03,07,2014 53:51.8 1800.3 772.72 475.2 578.19 -17.78 393.43

03,07,2014 53:52.2 1801.1 772.72 471.86 574.85 -17.78 392.14

03,07,2014 53:52.6 1800.3 772.72 464.21 567.2 -17.78 394.62

03,07,2014 53:53.0 1800.3 772.72 464.21 567.2 -17.78 394.62

03,07,2014 53:53.0 1799.4 772.32 463.46 566.34 -17.78 392.78

03,07,2014 53:53.4 1799.3 772.72 475.2 578.19 -17.78 392.14

03,07,2014 53:53.8 1800.3 772.72 480.26 583.25 -17.78 393.43

03,07,2014 53:54.2 1800.3 772.72 479.4 582.39 -17.78 392.78

03,07,2014 53:54.6 1799.9 772.72 480.26 583.25 -17.78 391.49

03,07,2014 53:55.0 1799.5 772.72 481.12 584.11 -17.78 390.2

03,07,2014 53:55.4 1800.4 772.72 485.33 588.32 -17.78 394.08

03,07,2014 53:55.8 1800.1 772.72 486.94 589.93 -17.78 389.66

03,07,2014 53:56.2 1799.9 772.72 481.12 584.11 -17.78 392.78


03,07,2014 53:56.6 1801 772.72 475.2 578.19 -17.78 388.37

03,07,2014 53:57.0 1800.9 772.72 475.2 578.19 -17.78 394.08

03,07,2014 53:57.4 1799 772.72 475.2 578.19 -17.78 393.43

03,07,2014 53:57.8 1799.1 772.72 481.12 584.11 -17.78 391.49

03,07,2014 53:58.2 1799.1 772.72 481.12 584.11 -17.78 391.49

03,07,2014 53:58.2 1800.3 772.72 484.46 587.45 -17.78 393.43

03,07,2014 53:58.6 1799.5 772.72 484.46 587.45 -17.78 391.49

03,07,2014 53:59.0 1799.4 772.72 478.54 581.53 -17.78 389.66

03,07,2014 53:59.4 1799.5 772.72 472.72 575.71 -17.78 394.08

03,07,2014 53:59.8 1800.6 772.72 470.14 573.13 -17.78 392.14

03,07,2014 54:00.2 1800.1 772.72 476.06 579.05 -17.78 395.26

03,07,2014 54:00.6 1799.3 772.72 477.68 580.67 -17.78 387.72

03,07,2014 54:01.0 1799.6 772.72 464.21 567.2 -17.78 394.08

03,07,2014 54:01.4 1800.8 772.72 460.87 563.86 -17.78 390.2

03,07,2014 54:01.8 1799.6 772.32 471.86 574.74 -17.78 392.14

03,07,2014 54:02.2 1798.9 772.72 473.48 576.47 -17.78 394.08

03,07,2014 54:02.6 1799.8 772.72 471.86 574.85 -17.78 394.08

03,07,2014 54:03.0 1800.4 772.72 470.14 573.13 -17.78 395.26

03,07,2014 54:03.3 1800 772.72 469.27 572.26 -17.78 394.08


03,07,2014 54:03.7 1800 772.72 460.87 563.86 -17.78 394.62

03,07,2014 54:04.1 1800.1 772.72 460.87 563.86 -17.78 390.85

03,07,2014 54:04.5 1799.9 772.72 470.14 573.13 -17.78 390.85

03,07,2014 54:04.9 1799.9 772.72 475.2 578.19 -17.78 392.14

03,07,2014 54:05.3 1800.9 772.72 473.48 576.47 -17.78 395.26

03,07,2014 54:05.7 1800.9 772.72 473.48 576.47 -17.78 389.01

03,07,2014 54:06.1 1800.9 772.72 473.48 576.47 -17.78 389.01

03,07,2014 54:06.1 1799.8 772.72 481.12 584.11 -17.78 390.85

03,07,2014 54:06.5 1800.8 772.72 484.46 587.45 -17.78 392.78

03,07,2014 54:06.9 1800.8 772.72 485.33 588.32 -17.78 393.43

03,07,2014 54:07.3 1799.5 772.72 477.68 580.67 -17.78 394.62

03,07,2014 54:07.7 1799.1 772.32 474.34 577.22 -17.78 390.85

03,07,2014 54:08.1 1801.3 772.72 471 573.99 -17.78 394.62

03,07,2014 54:08.5 1800.3 772.72 475.2 578.19 -17.78 389.66

03,07,2014 54:08.9 1799.4 772.72 479.4 582.39 -17.78 390.85

03,07,2014 54:09.3 1800.1 772.72 483.6 586.59 -17.78 393.43

03,07,2014 54:09.7 1800.3 772.72 485.33 588.32 -17.78 391.49

03,07,2014 54:10.1 1800.6 772.72 481.88 584.87 -17.78 390.2

03,07,2014 54:10.5 1800.6 772.72 475.2 578.19 -17.78 394.62


03,07,2014 54:10.9 1800 772.72 475.2 578.19 -17.78 393.43

03,07,2014 54:11.3 1800.1 772.72 472.72 575.71 -17.78 391.49

03,07,2014 54:11.7 1800.9 772.72 468.41 571.4 -17.78 393.43

03,07,2014 54:12.1 1800.6 772.72 465.07 568.06 -17.78 392.14

03,07,2014 54:12.5 1799.6 772.72 461.73 564.72 -17.78 392.14

03,07,2014 54:12.9 1799.4 772.72 472.72 575.71 -17.78 391.49

03,07,2014 54:13.3 1800.3 772.72 475.2 578.19 -17.78 391.49

03,07,2014 54:13.7 1800.3 772.72 474.34 577.33 -17.78 393.43

03,07,2014 54:14.1 1800.5 772.72 471 573.99 -17.78 390.2

03,07,2014 54:14.5 1799.3 772.72 471 573.99 -17.78 393.43

03,07,2014 54:14.9 1799.8 772.72 461.73 564.72 -17.78 392.14

03,07,2014 54:15.3 1800.4 772.72 483.6 586.59 -17.78 392.14

03,07,2014 54:15.7 1800 772.72 474.34 577.33 -17.78 394.08

03,07,2014 54:16.1 1799.3 772.72 469.27 572.26 -17.78 391.49

03,07,2014 54:16.5 1800 772.72 466.8 569.79 -17.78 394.08

03,07,2014 54:16.9 1799.8 772.72 472.72 575.71 -17.78 392.14

03,07,2014 54:17.3 1799.6 772.72 476.92 579.91 -17.78 391.49

03,07,2014 54:17.7 1799.9 772.72 480.26 583.25 -17.78 390.2

03,07,2014 54:18.1 1799.6 772.72 482.74 585.73 -17.78 390.2


03,07,2014 54:18.5 1799.8 772.72 480.26 583.25 -17.78 392.14

03,07,2014 54:18.9 1800 772.72 472.72 575.71 -17.78 392.14

03,07,2014 54:19.3 1800.8 772.72 472.72 575.71 -17.78 393.43

03,07,2014 54:19.7 1800.8 772.72 472.72 575.71 -17.78 393.43

03,07,2014 54:19.7 1800 772.72 475.2 578.19 -17.78 392.14

03,07,2014 54:20.1 1799.5 772.72 477.68 580.67 -17.78 390.2

03,07,2014 54:20.5 1799.5 772.72 483.6 586.59 -17.78 394.08

03,07,2014 54:20.9 1800.1 772.32 489.53 592.52 -17.78 392.78

03,07,2014 54:21.3 1799.6 772.72 479.4 582.39 -17.78 394.62

03,07,2014 54:21.7 1800.1 772.72 482.74 585.73 -17.78 394.62

03,07,2014 54:22.1 1800.5 772.72 479.4 582.39 -17.78 397.2

03,07,2014 54:22.5 1800.6 772.72 474.34 577.33 -17.78 390.85

03,07,2014 54:22.9 1799.6 772.72 474.34 577.33 -17.78 392.14

03,07,2014 54:23.3 1800.4 772.72 467.66 570.65 -17.78 394.62

03,07,2014 54:23.7 1800 772.72 463.46 566.45 -17.78 390.2

03,07,2014 54:24.1 1800.3 772.72 477.68 580.67 -17.78 394.08

03,07,2014 54:24.5 1800.3 772.72 476.92 579.91 -17.78 394.08

03,07,2014 54:24.9 1800.3 772.72 476.92 579.91 -17.78 394.08

03,07,2014 54:24.9 1799.5 772.72 475.2 578.19 -17.78 394.08


03,07,2014 54:25.3 1799.6 772.72 474.34 577.33 -17.78 389.66

03,07,2014 54:25.7 1800.4 772.72 472.72 575.71 -17.78 392.78

03,07,2014 54:26.1 1800.4 772.72 472.72 575.71 -17.78 392.78

03,07,2014 54:26.1 1800.3 772.72 476.06 579.05 -17.78 395.26

03,07,2014 54:26.5 1800.8 772.72 479.4 582.39 -17.78 389.01

03,07,2014 54:26.9 1800.1 772.72 469.27 572.26 -17.78 395.91

03,07,2014 54:27.3 1800 772.72 465.07 568.06 -17.78 391.49

03,07,2014 54:27.7 1800 772.72 465.93 568.92 -17.78 395.26

03,07,2014 54:28.0 1800 772.72 465.93 568.92 -17.78 395.26

03,07,2014 54:28.0 1799.9 772.72 467.66 570.65 -17.78 389.01

03,07,2014 54:28.7 1800.6 772.72 463.46 566.45 -17.78 394.62

03,07,2014 54:29.1 1799.5 772.72 460.87 563.86 -17.78 394.08

03,07,2014 54:29.5 1799.6 772.72 467.66 570.65 -17.78 395.26

03,07,2014 54:29.9 1800 772.72 473.48 576.47 -17.78 390.2

03,07,2014 54:30.3 1800.1 772.72 473.48 576.47 -17.78 395.91

03,07,2014 54:30.7 1801.4 772.72 473.48 576.47 -17.78 390.2

03,07,2014 54:31.1 1799.8 772.72 476.06 579.05 -17.78 394.08

03,07,2014 54:31.5 1799.1 772.72 481.88 584.87 -17.78 393.43

03,07,2014 54:31.9 1800.1 772.72 483.6 586.59 -17.78 389.01


03,07,2014 54:32.3 1800.3 772.72 476.06 579.05 -17.78 391.49

03,07,2014 54:32.7 1799.8 772.72 474.34 577.33 -17.78 390.85

03,07,2014 54:33.1 1800.3 772.72 470.14 573.13 -17.78 393.43

03,07,2014 54:33.5 1800.3 772.72 470.14 573.13 -17.78 393.43

03,07,2014 54:33.5 1800.3 772.72 475.2 578.19 -17.78 390.85

03,07,2014 54:33.9 1799.3 772.72 479.4 582.39 -17.78 394.08

03,07,2014 54:34.3 1798.9 772.72 485.33 588.32 -17.78 397.2

03,07,2014 54:34.7 1800.6 772.72 484.46 587.45 -17.78 395.26

03,07,2014 54:35.1 1800.1 772.72 480.26 583.25 -17.78 393.43

03,07,2014 54:35.5 1799.9 772.72 478.54 581.53 -17.78 392.14

03,07,2014 54:35.9 1799.5 772.72 471.86 574.85 -17.78 395.26

03,07,2014 54:36.3 1800 772.72 475.2 578.19 -17.78 394.08

03,07,2014 54:36.7 1800.4 772.72 481.88 575.71 -17.78 390.85

03,07,2014 54:37.1 1799.5 772.72 467.66 570.65 -17.78 394.08

03,07,2014 54:37.5 1800.3 772.72 460.87 563.86 -17.78 394.08

03,07,2014 54:37.9 1799.4 772.72 475.2 578.19 -17.78 388.37

03,07,2014 54:38.3 1799.8 772.72 477.68 580.67 -17.78 390.85

03,07,2014 54:38.7 1800.4 772.72 476.06 579.05 -17.78 395.91

03,07,2014 54:39.1 1799.3 772.72 476.06 579.05 -17.78 392.14


03,07,2014 54:39.5 1799.9 772.72 471 573.99 -17.78 392.78

03,07,2014 54:39.9 1800.3 772.72 465.93 568.92 -17.78 395.91

03,07,2014 54:40.3 1800 772.72 463.46 566.45 -17.78 392.78

03,07,2014 54:40.7 1799.8 772.72 469.27 572.26 -17.78 394.08

03,07,2014 54:41.1 1799.6 772.72 477.68 580.67 -17.78 391.49

03,07,2014 54:41.5 1799.6 772.72 477.68 580.67 -17.78 391.49

03,07,2014 54:41.5 1799.8 772.72 477.68 580.67 -17.78 395.91

03,07,2014 54:41.9 1799.9 772.72 475.2 578.19 -17.78 389.66

03,07,2014 54:42.3 1800 772.72 471.86 574.85 -17.78 390.85

03,07,2014 54:42.7 1800.9 772.72 476.06 579.05 -17.78 392.14

03,07,2014 54:43.1 1800.3 772.72 480.26 583.25 -17.78 396.56

03,07,2014 54:43.5 1799.8 772.32 474.34 577.22 -17.78 394.08

03,07,2014 54:43.9 1800.1 772.72 470.14 573.13 -17.78 389.66

03,07,2014 54:44.2 1801.3 772.72 470.14 573.13 -17.78 393.43

03,07,2014 54:44.6 1801.3 772.72 471.86 574.85 -17.78 388.37

03,07,2014 54:44.6 1799.5 772.72 471.86 574.85 -17.78 388.37

03,07,2014 54:45.3 1799.9 772.72 465.07 568.06 -17.78 390.85

03,07,2014 54:45.7 1800.3 772.72 460.87 563.86 -17.78 392.78

03,07,2014 54:46.2 1800.3 772.72 460.87 563.86 -17.78 392.78


03,07,2014 54:46.2 1799.6 772.72 464.21 567.2 -17.78 392.78

03,07,2014 54:46.5 1799.3 772.72 471.86 574.85 -17.78 392.78

03,07,2014 54:46.9 1799.9 772.72 476.06 579.05 -17.78 395.91

03,07,2014 54:47.3 1800.1 772.72 479.4 582.39 -17.78 390.85

03,07,2014 54:47.7 1800 772.72 481.12 584.11 -17.78 393.43

03,07,2014 54:48.1 1799.6 772.72 482.74 585.73 -17.78 392.14

03,07,2014 54:48.5 1799.5 772.72 486.19 589.18 -17.78 395.91

03,07,2014 54:48.9 1799.9 772.72 478.54 581.53 -17.78 392.78

03,07,2014 54:49.3 1799.9 772.72 478.54 581.53 -17.78 392.78

03,07,2014 54:49.3 1800.3 772.72 477.68 580.67 -17.78 391.49

03,07,2014 54:50.0 1800.5 772.72 481.12 584.11 -17.78 390.85

03,07,2014 54:50.4 1800 772.72 475.2 578.19 -17.78 390.85

03,07,2014 54:50.8 1800 772.72 475.2 578.19 -17.78 390.85

03,07,2014 54:50.8 1800 772.72 472.72 575.71 -17.78 393.43

03,07,2014 54:51.3 1800.1 772.72 484.46 587.45 -17.78 392.14

03,07,2014 54:51.7 1800.5 772.72 483.6 586.59 -17.78 392.78

03,07,2014 54:52.1 1800.5 772.72 478.54 581.53 -17.78 389.66

03,07,2014 54:52.4 1800.5 772.72 473.48 576.47 -17.78 391.49

03,07,2014 54:52.8 1800.5 772.72 473.48 576.47 -17.78 391.49


03,07,2014 54:52.8 1799.4 772.72 471 573.99 -17.78 390.2

03,07,2014 54:53.2 1799.1 772.72 483.6 586.59 -17.78 390.85

03,07,2014 54:53.6 1800.1 772.72 481.12 584.11 -17.78 395.26

03,07,2014 54:54.0 1800.6 772.72 485.33 588.32 -17.78 395.91

03,07,2014 54:54.4 1799.5 772.72 483.6 586.59 -17.78 393.43

03,07,2014 54:54.8 1799.3 772.72 481.12 584.11 -17.78 393.43

03,07,2014 54:55.2 1799.6 772.72 470.14 573.13 -17.78 393.43

03,07,2014 54:55.6 1799.5 772.72 470.14 573.13 -17.78 392.78

03,07,2014 54:56.0 1800.1 772.72 475.2 578.19 -17.78 393.43

03,07,2014 54:56.4 1800 772.72 485.33 588.32 -17.78 394.62

03,07,2014 54:56.8 1799.5 772.72 479.4 582.39 -17.78 394.08

03,07,2014 54:57.2 1799.6 772.72 466.8 569.79 -17.78 387.72

03,07,2014 54:57.6 1799.5 772.72 470.14 573.13 -17.78 392.14

03,07,2014 54:58.0 1800.8 772.72 474.34 577.33 -17.78 392.78

03,07,2014 54:58.4 1800.5 772.72 476.06 579.05 -17.78 392.78

03,07,2014 54:58.8 1799.5 772.72 467.66 570.65 -17.78 392.78

03,07,2014 54:59.2 1799.3 772.72 464.21 567.2 -17.78 393.43

03,07,2014 54:59.6 1801 772.72 462.59 565.58 -17.78 392.78

03,07,2014 55:00.0 1801.4 772.72 464.21 567.2 -17.78 389.66


03,07,2014 55:00.4 1799.8 772.72 467.66 570.65 -17.78 393.43

03,07,2014 55:00.8 1798.9 772.72 475.2 578.19 -17.78 394.08

03,07,2014 55:01.2 1799.8 772.72 476.06 579.05 -17.78 390.2

03,07,2014 55:01.6 1799.9 772.72 472.72 575.71 -17.78 395.26

03,07,2014 55:02.0 1799.8 772.72 466.8 569.79 -17.78 389.01

03,07,2014 55:02.4 1800 772.72 461.73 564.72 -17.78 394.62

03,07,2014 55:02.8 1799.8 772.72 481.88 584.87 -17.78 393.43

03,07,2014 55:03.2 1798.9 772.72 477.68 580.67 -17.78 392.14

03,07,2014 55:03.6 1800.1 772.72 471 573.99 -17.78 393.43

03,07,2014 55:04.0 1800 772.72 472.72 575.71 -17.78 389.01

03,07,2014 55:04.4 1799.1 772.72 481.88 584.87 -17.78 388.37

03,07,2014 55:04.8 1800 772.72 483.6 586.59 -17.78 390.85

03,07,2014 55:05.2 1800 772.72 485.33 588.32 -17.78 395.91

03,07,2014 55:05.6 1800 772.72 485.33 588.32 -17.78 394.08

03,07,2014 55:06.0 1798.9 772.72 479.4 582.39 -17.78 392.78

03,07,2014 55:06.4 1800.3 772.72 474.34 577.33 -17.78 392.14

03,07,2014 55:06.8 1799.6 772.72 470.14 573.13 -17.78 392.14

03,07,2014 55:07.2 1799.8 772.72 483.6 586.59 -17.78 393.43

03,07,2014 55:07.5 1800.3 772.72 485.33 588.32 -17.78 392.78


03,07,2014 55:07.9 1800 772.32 483.6 586.48 -17.78 394.62

03,07,2014 55:08.3 1799.9 772.72 466.8 569.79 -17.78 389.66

03,07,2014 55:08.7 1799.9 772.72 466.8 569.79 -17.78 389.66

03,07,2014 55:08.7 1800.1 772.72 476.06 579.05 -17.78 394.08

03,07,2014 55:09.1 1800.1 772.72 476.06 579.05 -17.78 393.43

03,07,2014 55:09.5 1800 772.72 475.2 578.19 -17.78 394.62

03,07,2014 55:09.9 1800.3 772.72 471 573.99 -17.78 395.26

03,07,2014 55:10.3 1799.6 772.72 465.93 568.92 -17.78 389.66

03,07,2014 55:10.7 1800.5 772.72 460.87 563.86 -17.78 396.56

03,07,2014 55:11.1 1800 772.72 465.93 568.92 -17.78 391.49

03,07,2014 55:11.5 1799.4 772.72 471 573.99 -17.78 389.01

03,07,2014 55:11.9 1800.5 772.72 472.72 575.71 -17.78 394.08

03,07,2014 55:12.3 1800.9 772.72 477.68 580.67 -17.78 389.66

03,07,2014 55:12.7 1799.4 772.72 467.66 570.65 -17.78 390.85

03,07,2014 55:13.1 1799.8 772.72 481.12 584.11 -17.78 393.43

03,07,2014 55:13.5 1800.6 772.72 479.4 582.39 -17.78 394.08

03,07,2014 55:13.9 1800.6 772.72 478.54 581.53 -17.78 392.78

03,07,2014 55:14.3 1800.1 772.72 474.34 577.33 -17.78 392.78

03,07,2014 55:14.7 1800.6 772.72 471 573.99 -17.78 395.91


03,07,2014 55:15.1 1800.4 772.72 469.27 572.26 -17.78 390.85

03,07,2014 55:15.5 1799.5 772.72 483.6 586.59 -17.78 391.49

03,07,2014 55:15.9 1799.6 772.72 481.12 584.11 -17.78 390.85

03,07,2014 55:16.3 1799.6 772.72 483.6 586.59 -17.78 394.62

03,07,2014 55:16.7 1800.3 772.72 478.54 581.53 -17.78 390.85

03,07,2014 55:17.1 1799.9 772.72 480.26 583.25 -17.78 392.14

03,07,2014 55:17.5 1799.4 772.72 471 573.99 -17.78 395.26

03,07,2014 55:17.9 1799.8 772.72 469.27 584.11 -17.78 390.85

03,07,2014 55:18.3 1799.9 772.72 476.92 579.91 -17.78 395.26

03,07,2014 55:18.7 1799.9 772.72 476.92 579.91 -17.78 395.26

03,07,2014 55:18.7 1800.1 772.72 470.14 573.13 -17.78 394.62

03,07,2014 55:19.1 1799.9 772.72 465.07 568.06 -17.78 394.08

03,07,2014 31:39.0 0 772.72 1.4 104.39 191.22 74.18

03,07,2014 31:39.4 0 772.72 1.4 104.39 191.22 74.18

03,07,2014 31:39.8 0 772.32 1.4 104.28 191.22 74.18

03,07,2014 31:40.2 0 772.32 1.4 104.28 191.22 74.18

03,07,2014 31:40.6 0 772.72 1.4 104.39 191.22 74.18

03,07,2014 31:41.0 0 772.72 1.4 104.39 191.22 74.18

03,07,2014 31:41.4 0 772.32 1.4 104.28 191.22 74.18


03,07,2014 31:41.8 0 772.72 1.4 104.39 191.22 74.18

03,07,2014 31:42.2 0 772.72 1.4 104.39 191.22 74.18

03,07,2014 31:42.5 0 772.72 1.4 104.39 191.22 74.18

03,07,2014 31:42.9 0 772.72 1.4 104.39 191.22 74.18

03,07,2014 31:43.3 0 772.72 1.4 104.39 191.22 74.09

03,07,2014 31:43.7 0 772.32 1.4 104.28 191.22 74.18

03,07,2014 31:44.1 0 772.72 1.4 104.39 191.22 74.15

03,07,2014 31:44.5 0 772.72 1.4 104.39 191.22 74.15

03,07,2014 31:44.9 0 772.32 1.4 104.39 191.22 74.06

03,07,2014 31:45.3 0 772.32 1.4 104.39 191.22 74.15

03,07,2014 31:45.3 0 772.32 1.4 104.28 191.22 74.15

03,07,2014 31:45.7 0 772.32 1.4 104.39 191.22 74.18

03,07,2014 31:46.1 0 772.72 1.4 104.39 191.22 74.08

03,07,2014 31:46.5 0 772.72 1.4 104.28 191.22 74.09

03,07,2014 31:46.9 0 772.72 1.4 104.39 191.22 74.08

03,07,2014 31:47.3 0 772.72 1.4 104.39 191.22 74.06

03,07,2014 31:47.7 0 772.72 1.4 104.39 191.22 74.05

03,07,2014 31:48.1 0 772.72 1.4 104.39 191.22 74.05

03,07,2014 31:48.5 0 772.72 1.4 104.39 191.22 74.15


03,07,2014 31:48.9 0 772.32 1.4 104.28 191.22 74.05

03,07,2014 31:49.3 0 772.72 1.4 104.39 191.22 74.05

03,07,2014 31:49.7 0 772.72 1.4 104.39 191.22 74.05

03,07,2014 31:50.1 0 772.72 1.4 104.39 191.22 74.15

03,07,2014 31:50.4 0 772.32 1.4 104.28 191.22 74.05

03,07,2014 31:50.8 0 772.32 1.4 104.28 191.22 74.05

03,07,2014 31:51.2 0 772.72 1.4 104.39 191.22 74.05

03,07,2014 31:51.6 0 772.32 1.4 104.28 191.22 74.05

03,07,2014 31:52.0 0 772.72 1.4 104.39 191.22 74.05

03,07,2014 31:52.4 0 772.32 1.4 104.28 191.22 74.05

03,07,2014 31:52.8 0 772.32 1.4 104.28 191.22 74.05

03,07,2014 31:53.2 0 772.72 1.4 104.39 191.22 74.05

03,07,2014 31:53.6 0 772.72 1.4 104.39 191.22 74.05

03,07,2014 31:54.0 0 772.32 1.4 104.28 191.22 74.05

03,07,2014 31:54.4 0 772.32 1.4 104.28 191.22 74.05

03,07,2014 31:54.4 0 772.72 1.4 104.39 191.22 74.05

03,07,2014 31:55.1 0 772.72 1.4 104.39 191.22 74.05

03,07,2014 31:55.5 0 772.32 1.4 104.28 191.22 74.05

03,07,2014 31:55.9 0 772.72 1.4 104.39 191.22 74.05


03,07,2014 31:56.3 0 772.72 1.4 104.39 191.22 74.05

03,07,2014 31:56.7 0 772.72 1.4 104.39 191.22 74.05

03,07,2014 31:57.1 0 772.72 1.4 104.39 190.58 74.05

03,07,2014 31:57.5 0 772.32 1.4 104.28 191.22 74.05

03,07,2014 31:57.9 0 772.32 1.4 104.28 190.58 74.05

03,07,2014 31:58.3 0 772.32 1.4 104.28 190.58 74.05

03,07,2014 31:58.7 0 772.32 1.4 104.28 190.58 74.05

03,07,2014 31:59.1 0 772.32 1.4 104.28 191.22 74.03

03,07,2014 31:59.4 0 772.72 1.4 104.39 190.58 74.05

03,07,2014 31:59.8 0 772.72 1.4 104.39 191.22 73.96

03,07,2014 32:00.2 0 772.32 1.4 104.28 190.58 74.02

03,07,2014 32:00.6 0 772.32 1.4 104.28 190.58 73.95

03,07,2014 32:01.0 0 772.32 1.4 104.28 190.58 73.92

03,07,2014 32:01.4 0 772.32 1.4 104.28 190.58 73.92

03,07,2014 32:01.8 0 772.32 1.4 104.28 190.58 73.92

03,07,2014 32:02.2 0 772.72 1.4 104.39 190.58 73.92

03,07,2014 32:02.6 0 772.32 1.4 104.39 190.58 73.92

03,07,2014 32:03.0 0 772.72 1.4 104.39 190.58 73.92

03,07,2014 32:03.4 0 772.72 1.4 104.39 190.58 73.92


03,07,2014 32:03.8 0 772.72 1.4 104.39 190.58 73.92

03,07,2014 32:04.2 0 772.32 1.4 104.39 190.58 73.92

03,07,2014 32:04.6 0 772.32 1.4 104.28 190.58 73.92

03,07,2014 32:05.0 0 772.72 1.4 104.39 190.58 73.92

03,07,2014 32:05.4 0 772.32 1.4 104.28 190.58 73.92

03,07,2014 32:05.8 0 772.72 1.4 104.39 190.58 73.92

03,07,2014 32:06.2 0 772.32 1.4 104.28 190.58 73.92

03,07,2014 32:06.6 0 772.32 1.4 104.28 190.58 73.92

03,07,2014 32:06.9 0 772.72 1.4 104.39 190.58 73.92

03,07,2014 32:07.3 0 772.72 1.4 104.39 190.58 73.92

03,07,2014 32:07.7 0 772.72 1.4 104.39 190.58 73.92

03,07,2014 32:08.1 0 772.32 1.4 104.28 190.58 73.92

03,07,2014 32:08.5 0 772.32 1.4 104.28 190.58 73.92

03,07,2014 32:08.9 0 772.72 1.4 104.39 190.58 73.92

03,07,2014 32:09.3 0 772.72 1.4 104.39 190.58 73.92

03,07,2014 32:09.7 0 772.72 1.4 104.39 190.58 73.92

03,07,2014 32:10.1 0 772.32 1.4 104.28 190.58 73.92

03,07,2014 32:10.5 0 772.72 1.4 104.39 190.58 73.92

03,07,2014 32:10.9 0 772.72 1.4 104.39 190.58 73.92


03,07,2014 32:11.3 0 772.32 1.4 104.28 190.58 73.92

03,07,2014 32:11.7 0 772.72 1.4 104.39 190.58 73.92

03,07,2014 32:12.1 0 772.72 1.4 104.39 190.58 73.92

03,07,2014 32:12.5 0 772.32 1.4 104.28 190.58 73.92

03,07,2014 32:12.9 0 772.72 1.4 104.39 190.58 73.92

03,07,2014 32:13.3 0 772.32 1.4 104.28 190.58 73.92

03,07,2014 32:14.0 0 772.32 1.4 104.28 190.58 73.92

03,07,2014 32:14.4 0 772.32 1.4 104.28 190.58 73.92

03,07,2014 32:14.8 0 772.32 1.4 104.28 190.58 73.91

03,07,2014 32:15.1 0 772.32 1.4 104.28 190.58 73.92

03,07,2014 32:15.5 0 772.32 1.4 104.28 190.58 73.92

03,07,2014 32:15.9 0 772.32 1.4 104.28 190.58 73.92

03,07,2014 32:16.3 0 772.32 1.4 104.28 190.58 73.92

03,07,2014 32:16.7 0 772.72 1.4 104.39 190.58 73.84

03,07,2014 32:17.1 0 772.72 1.4 104.39 190.58 73.81

03,07,2014 32:17.5 0 772.72 1.4 104.28 190.58 73.81

03,07,2014 32:17.5 0 772.32 1.4 104.28 190.58 73.81

03,07,2014 32:17.9 0 772.32 1.4 104.28 190.58 73.8

03,07,2014 32:18.3 0 772.32 1.4 104.28 190.58 73.8


03,07,2014 32:18.7 0 772.32 1.4 104.28 190.58 73.8

03,07,2014 32:19.1 0 772.72 1.4 104.39 190.58 73.8

03,07,2014 32:19.5 0 772.32 1.4 104.28 190.58 73.8

03,07,2014 32:19.9 0 772.72 1.4 104.39 190.58 73.8

03,07,2014 32:20.2 0 772.72 1.4 104.39 190.58 73.8

03,07,2014 32:20.6 0 772.32 1.4 104.28 190.58 73.8

03,07,2014 32:21.0 0 772.32 1.4 104.28 190.58 73.8

03,07,2014 32:21.4 0 772.32 1.4 104.28 190.58 73.8

03,07,2014 32:21.8 0 772.32 1.4 104.28 190.58 73.8

03,07,2014 32:22.2 0 772.32 1.4 104.28 190.58 73.8

03,07,2014 32:22.6 0 772.32 1.4 104.28 190.58 73.8

03,07,2014 32:23.0 0 772.32 1.4 104.28 190.58 73.8

03,07,2014 32:23.4 0 772.32 1.4 104.28 190.58 73.8

03,07,2014 32:23.8 0 772.72 1.4 104.28 190.58 73.8

03,07,2014 32:24.2 0 772.72 1.4 104.39 190.58 73.8

03,07,2014 32:24.6 0 772.32 1.4 104.28 190.58 73.8

03,07,2014 32:25.0 0 772.32 1.4 104.28 190.58 73.8

03,07,2014 32:25.4 0 772.32 1.4 104.28 190.58 73.8

03,07,2014 32:25.8 0 772.32 1.4 104.28 190.58 73.8


03,07,2014 32:25.8 0 772.72 1.4 104.28 190.58 73.8

03,07,2014 32:26.2 0 772.32 1.4 104.39 190.58 73.8

03,07,2014 32:26.5 0 772.32 1.4 104.28 190.58 73.8

03,07,2014 32:26.9 0 772.32 1.4 104.28 190.58 73.8

03,07,2014 32:27.3 0 772.32 1.4 104.28 190.58 73.8

03,07,2014 32:27.7 0 772.32 1.4 104.28 190.58 73.8

03,07,2014 32:28.1 0 772.32 1.4 104.28 190.58 73.8

03,07,2014 32:28.5 0 772.32 1.4 104.28 190.58 73.8

03,07,2014 32:28.9 0 772.32 1.4 104.28 190.58 73.8

03,07,2014 32:29.3 0 772.32 1.4 104.28 190.58 73.8

03,07,2014 32:29.7 0 772.32 1.4 104.28 190.58 73.8

03,07,2014 32:30.1 0 772.32 1.4 104.28 190.58 73.79

03,07,2014 32:30.5 0 772.32 1.4 104.28 190.58 73.71

03,07,2014 32:30.9 0 772.32 1.4 104.28 190.58 73.79

03,07,2014 32:31.3 0 772.32 1.4 104.28 190.58 73.79

03,07,2014 32:31.3 0 772.32 1.4 104.28 190.58 73.77

03,07,2014 32:31.7 0 771.92 1.4 104.28 190.58 73.77

03,07,2014 32:32.1 0 771.92 1.4 104.28 190.58 73.7

03,07,2014 32:32.5 0 772.32 1.4 104.28 190.58 73.67


03,07,2014 32:32.8 0 772.32 1.4 104.28 190.58 73.67

03,07,2014 32:33.2 0 772.32 1.4 104.28 190.58 73.67

03,07,2014 32:33.6 0 772.32 1.4 104.28 190.58 73.67

03,07,2014 32:34.0 0 771.92 1.4 104.28 190.58 73.67

03,07,2014 32:34.4 0 772.32 1.4 104.28 190.58 73.67

03,07,2014 32:34.8 0 772.32 1.4 104.28 190.58 73.67

03,07,2014 32:35.2 0 772.32 1.4 104.28 190.58 73.67

03,07,2014 32:35.6 0 772.32 1.4 104.28 190.58 73.67

03,07,2014 32:36.0 0 772.32 1.4 104.28 190.58 73.67

03,07,2014 32:36.4 0 772.32 1.4 104.28 190.58 73.67

03,07,2014 32:36.8 0 772.32 1.4 104.28 190.58 73.67

03,07,2014 32:37.2 0 772.32 1.4 104.28 190.58 73.67

03,07,2014 32:37.6 0 772.72 1.4 104.39 190.58 73.67

03,07,2014 32:38.0 0 772.32 1.4 104.28 190.58 73.67

03,07,2014 32:38.4 0 772.32 1.4 104.28 190.58 73.67

03,07,2014 32:38.8 0 772.72 1.4 104.39 190.58 73.67

03,07,2014 32:39.2 0 772.32 1.4 104.28 190.58 73.67

03,07,2014 32:39.6 0 772.32 1.4 104.28 190.58 73.67

03,07,2014 32:39.9 0 772.32 1.4 104.28 190.58 73.67


03,07,2014 32:40.3 0 772.72 1.4 104.39 190.58 73.67

03,07,2014 32:40.7 0 772.72 1.4 104.39 190.58 73.67

03,07,2014 32:41.1 0 772.32 1.4 104.28 190.58 73.67

03,07,2014 32:41.5 0 772.32 1.4 104.28 190.58 73.67

03,07,2014 32:42.2 0 772.32 1.4 104.28 190.58 73.67

03,07,2014 32:42.6 0 772.32 1.4 104.28 189.93 73.67

03,07,2014 32:43.0 0 772.32 1.4 104.28 189.93 73.67

03,07,2014 32:43.0 0 772.72 1.4 104.39 189.93 73.67

03,07,2014 32:43.4 0 772.32 1.4 104.28 190.58 73.67

03,07,2014 32:43.8 0 772.72 1.4 104.39 189.93 73.67

03,07,2014 32:44.2 0 772.72 1.4 104.39 189.93 73.67

03,07,2014 32:44.6 0 772.72 1.4 104.39 189.93 73.67

03,07,2014 32:45.0 0 772.72 1.4 104.28 189.93 73.67

03,07,2014 32:45.4 0 772.32 1.4 104.28 189.93 73.67

03,07,2014 32:45.8 0 772.72 1.4 104.39 189.93 73.67

03,07,2014 32:46.2 0 772.32 1.4 104.28 189.93 73.67

03,07,2014 32:46.6 0 772.32 1.4 104.28 189.93 73.67

03,07,2014 32:47.0 0 772.32 1.4 104.28 189.93 73.58

03,07,2014 32:47.4 0 772.72 1.4 104.39 189.93 73.57


03,07,2014 32:47.8 0 772.32 1.4 104.28 189.93 73.54

03,07,2014 32:48.2 0 772.32 1.4 104.28 189.93 73.54

03,07,2014 32:48.6 0 772.72 1.4 104.39 189.93 73.54

03,07,2014 32:49.0 0 772.72 1.4 104.39 189.93 73.54

03,07,2014 32:49.4 0 772.32 1.4 104.28 189.93 73.54

03,07,2014 32:49.7 0 772.72 1.4 104.39 189.93 73.57

03,07,2014 32:50.1 0 772.72 1.4 104.39 189.93 73.54

03,07,2014 32:50.5 0 772.32 1.4 104.28 189.93 73.54

03,07,2014 32:50.9 0 772.32 1.4 104.28 189.93 73.54

03,07,2014 32:51.3 0 772.72 1.4 104.39 189.93 73.54

03,07,2014 32:51.7 0 772.72 1.4 104.39 189.93 73.54

03,07,2014 32:52.1 0 772.72 1.4 104.39 189.93 73.54

03,07,2014 32:52.5 0 772.32 1.4 104.28 189.93 73.54

03,07,2014 32:52.9 0 772.32 1.4 104.28 189.93 73.54

03,07,2014 32:53.3 0 772.32 1.4 104.28 189.93 73.54

03,07,2014 32:53.7 0 772.32 1.4 104.28 189.93 73.54

03,07,2014 32:54.1 0 772.72 1.4 104.39 189.93 73.54

03,07,2014 32:54.5 0 772.32 1.4 104.39 189.93 73.54

03,07,2014 32:54.9 0 772.32 1.4 104.28 189.93 73.54


03,07,2014 32:55.3 0 772.32 1.4 104.28 189.93 73.54

03,07,2014 32:55.9 0 772.32 1.4 104.39 189.93 73.54

03,07,2014 32:56.3 0 772.72 1.4 104.39 189.93 73.54

03,07,2014 32:56.7 0 772.32 1.4 104.28 189.93 73.54

03,07,2014 32:57.1 0 772.32 1.4 104.28 189.93 73.54

03,07,2014 32:57.5 0 772.32 1.4 104.28 189.93 73.54

03,07,2014 32:57.9 0 772.32 1.4 104.28 189.93 73.54

03,07,2014 32:58.3 0 772.32 1.4 104.28 189.93 73.54

03,07,2014 32:58.7 0 771.92 1.4 104.28 189.93 73.54

03,07,2014 32:59.1 0 771.92 1.4 104.28 189.93 73.54

03,07,2014 32:59.5 0 772.32 1.4 104.28 189.93 73.54

03,07,2014 32:59.9 0 772.32 1.4 104.28 189.93 73.54

03,07,2014 33:00.3 0 772.32 1.4 104.28 189.93 73.54

03,07,2014 33:00.7 0 772.32 1.4 104.28 189.93 73.53

03,07,2014 33:01.1 0 771.92 1.4 104.28 189.93 73.54

03,07,2014 33:01.5 0 771.92 1.4 104.28 189.93 73.54

03,07,2014 33:01.9 0 772.32 1.4 104.28 189.93 73.54

03,07,2014 33:02.2 0 771.92 1.4 104.28 189.93 73.54

03,07,2014 33:02.6 0 771.92 1.4 104.28 189.93 73.54


03,07,2014 33:03.0 0 771.92 1.4 104.28 189.93 73.54

03,07,2014 33:03.4 0 771.92 1.4 104.28 189.93 73.54

03,07,2014 33:03.8 0 771.92 1.4 104.28 189.93 73.52

03,07,2014 33:04.2 0 771.92 1.4 104.28 189.93 73.54

03,07,2014 33:04.6 0 771.92 1.4 104.28 189.93 73.54

03,07,2014 33:05.0 0 771.92 1.4 104.28 189.93 73.45

03,07,2014 33:05.4 0 771.92 1.4 104.28 189.93 73.45

03,07,2014 33:05.4 0 771.92 1.4 104.28 189.93 73.53

03,07,2014 33:05.8 0 772.32 1.4 104.28 189.93 73.41

03,07,2014 33:06.2 0 771.92 1.4 104.28 189.93 73.41

03,07,2014 33:06.6 0 771.92 1.4 104.28 189.93 73.41

03,07,2014 33:07.0 0 772.32 1.4 104.28 189.93 73.41

03,07,2014 33:07.4 0 772.32 1.4 104.28 189.93 73.41

03,07,2014 33:07.8 0 771.92 1.4 104.28 189.93 73.41

03,07,2014 33:08.2 0 771.92 1.4 104.28 189.93 73.41

03,07,2014 33:08.6 0 772.32 1.4 104.28 189.93 73.41

03,07,2014 33:09.0 0 772.32 1.4 104.28 189.93 73.41

03,07,2014 33:09.4 0 772.32 1.4 104.28 189.93 73.41

03,07,2014 33:09.8 0 771.92 1.4 104.28 189.93 73.41


03,07,2014 33:10.2 0 771.92 1.4 104.28 189.93 73.41

03,07,2014 33:10.6 0 771.92 1.4 104.28 189.93 73.41

03,07,2014 33:10.9 0 772.32 1.4 104.28 189.93 73.41

03,07,2014 33:11.4 0 772.32 1.4 104.28 189.93 73.41

03,07,2014 33:11.7 0 771.92 1.4 104.28 189.93 73.41

03,07,2014 33:12.1 0 771.92 1.4 104.28 189.93 73.41

03,07,2014 33:12.5 0 771.92 1.4 104.28 189.93 73.41

03,07,2014 33:12.9 0 771.92 1.4 104.28 189.93 73.41

03,07,2014 33:13.3 0 771.92 1.4 104.28 189.93 73.41

03,07,2014 33:13.7 0 771.92 1.4 104.28 189.93 73.41

03,07,2014 33:14.1 0 771.92 1.4 104.28 189.93 73.41

03,07,2014 33:14.5 0 771.92 1.4 104.28 189.93 73.41

03,07,2014 33:14.9 0 771.92 1.4 104.28 189.93 73.39

03,07,2014 33:15.3 0 771.92 1.4 104.28 189.93 73.41

03,07,2014 33:15.7 0 772.32 1.4 104.28 189.93 73.41

03,07,2014 33:16.1 0 771.92 1.4 104.28 189.93 73.41

03,07,2014 33:16.5 0 772.32 1.4 104.28 189.93 73.41

03,07,2014 33:16.9 0 772.32 1.4 104.28 189.93 73.41

03,07,2014 33:17.3 0 771.92 1.4 104.28 189.93 73.41


03,07,2014 33:17.7 0 772.32 1.4 104.28 189.93 73.41

03,07,2014 33:18.1 0 772.32 1.4 104.28 189.93 73.32

03,07,2014 33:18.4 0 772.32 1.4 104.28 189.93 73.41

03,07,2014 33:18.8 0 772.32 1.4 104.28 189.93 73.39

03,07,2014 33:19.2 0 771.92 1.4 104.28 189.93 73.39

03,07,2014 33:19.6 0 771.92 1.4 104.28 189.93 73.38

03,07,2014 33:20.0 0 771.92 1.4 104.28 189.93 73.29

03,07,2014 33:20.4 0 772.32 1.4 104.28 189.93 73.29

03,07,2014 33:20.8 0 772.32 1.4 104.28 189.93 73.29

03,07,2014 33:21.2 0 772.32 1.4 104.28 189.93 73.29

03,07,2014 33:21.6 0 771.92 1.4 104.28 189.93 73.29

03,07,2014 33:22.0 0 772.32 1.4 104.28 189.93 73.29

03,07,2014 33:22.4 0 771.92 1.4 104.28 189.93 73.29

03,07,2014 33:22.8 0 771.92 1.4 104.28 189.93 73.29

03,07,2014 33:23.2 0 772.32 1.4 104.28 189.93 73.29

03,07,2014 33:23.6 0 772.32 1.4 104.28 189.93 73.29

03,07,2014 33:24.0 0 771.92 1.4 104.28 189.93 73.29

03,07,2014 33:24.4 0 771.92 1.4 104.28 189.28 73.29

03,07,2014 33:24.8 0 771.92 1.4 104.28 189.93 73.29


03,07,2014 33:25.1 0 771.92 1.4 104.18 189.93 73.29

03,07,2014 33:25.5 0 771.92 1.4 104.28 189.28 73.29

03,07,2014 33:25.9 0 771.92 1.4 104.28 189.28 73.29

03,07,2014 33:26.3 0 771.92 1.4 104.28 189.93 73.29

03,07,2014 33:26.7 0 771.92 1.4 104.28 189.28 73.29

03,07,2014 33:27.1 0 771.92 1.4 104.28 189.28 73.29

03,07,2014 33:27.5 0 771.92 1.4 104.28 189.93 73.29

03,07,2014 33:27.9 0 771.92 1.4 104.28 189.28 73.29

03,07,2014 33:28.3 0 771.92 1.4 104.28 189.28 73.29

03,07,2014 33:28.7 0 771.92 1.4 104.28 189.93 73.29

03,07,2014 33:29.1 0 771.52 1.4 104.18 189.28 73.29

03,07,2014 33:29.5 0 771.92 1.4 104.28 189.28 73.29

03,07,2014 33:29.9 0 771.92 1.4 104.28 189.28 73.29

03,07,2014 33:30.3 0 771.92 1.4 104.28 189.28 73.29

03,07,2014 33:30.7 0 771.92 1.4 104.28 189.93 73.29

03,07,2014 33:31.1 0 771.92 1.4 104.28 189.28 73.29

03,07,2014 33:31.5 0 771.92 1.4 104.28 189.28 73.29

03,07,2014 33:31.9 0 771.92 1.4 104.28 189.28 73.29

03,07,2014 33:32.3 0 771.92 1.4 104.28 189.28 73.29


03,07,2014 33:32.7 0 771.92 1.4 104.28 189.28 73.29

03,07,2014 33:33.1 0 771.92 1.4 104.28 189.28 73.29

03,07,2014 33:33.5 0 771.92 1.4 104.28 189.28 73.29

03,07,2014 33:33.9 0 771.92 1.4 104.28 189.28 73.29

03,07,2014 33:34.2 0 771.92 1.4 104.28 189.28 73.29

03,07,2014 33:34.6 0 771.92 1.4 104.28 189.28 73.26

03,07,2014 33:35.0 0 771.92 1.4 104.28 189.28 73.26

03,07,2014 33:35.4 0 771.92 1.4 104.28 189.28 73.16

03,07,2014 33:35.8 0 771.92 1.4 104.28 189.28 73.17

03,07,2014 33:36.2 0 771.52 1.4 104.18 189.28 73.19

03,07,2014 33:36.6 0 771.92 1.4 104.28 189.28 73.16

03,07,2014 33:37.0 0 771.52 1.4 104.18 189.28 73.16

03,07,2014 33:37.4 0 771.92 1.4 104.28 189.28 73.16

03,07,2014 33:37.8 0 771.92 1.4 104.28 189.28 73.16

03,07,2014 33:38.2 0 771.92 1.4 104.28 189.28 73.16

03,07,2014 33:38.6 0 771.92 1.4 104.28 189.28 73.16

03,07,2014 33:39.0 0 771.92 1.4 104.28 189.28 73.16

03,07,2014 33:39.4 0 771.92 1.4 104.28 189.28 73.16

03,07,2014 33:39.8 0 771.92 1.4 104.28 189.28 73.16


03,07,2014 33:40.2 0 771.92 1.4 104.28 189.28 73.16

03,07,2014 33:40.6 0 771.92 1.4 104.28 189.28 73.16

03,07,2014 33:41.0 0 771.92 1.4 104.28 189.28 73.16

03,07,2014 33:41.4 0 771.92 1.4 104.28 189.28 73.16

03,07,2014 33:41.8 0 771.92 1.4 104.28 189.28 73.16

03,07,2014 33:42.2 0 771.92 1.4 104.28 189.28 73.16

03,07,2014 33:42.6 0 771.92 1.4 104.28 189.28 73.16

03,07,2014 33:43.0 0 771.92 1.4 104.28 189.28 73.16

03,07,2014 33:43.4 0 771.92 1.4 104.28 189.28 73.16

03,07,2014 33:43.8 0 772.32 1.4 104.28 189.28 73.16

03,07,2014 33:44.2 0 771.92 1.4 104.28 189.28 73.16

03,07,2014 33:44.6 0 771.92 1.4 104.28 189.28 73.16

03,07,2014 33:45.0 0 771.52 1.4 104.28 189.28 73.16

03,07,2014 33:45.4 0 771.52 1.4 104.18 189.28 73.16

03,07,2014 33:45.7 0 771.92 1.4 104.28 189.28 73.16

03,07,2014 33:46.1 0 771.92 1.4 104.28 189.28 73.16

03,07,2014 33:46.5 0 771.92 1.4 104.28 189.28 73.16

03,07,2014 33:46.9 0 771.92 1.4 104.28 189.28 73.16

03,07,2014 33:47.3 0 771.52 1.4 104.18 189.28 73.16


03,07,2014 33:47.7 0 771.52 1.4 104.18 189.28 73.16

03,07,2014 33:48.1 0 771.52 1.4 104.18 189.28 73.16

03,07,2014 33:48.5 0 771.92 1.4 104.28 189.28 73.16

03,07,2014 33:48.9 0 771.52 1.4 104.18 189.28 73.15

03,07,2014 33:49.3 0 771.52 1.4 104.18 189.28 73.15

03,07,2014 33:49.3 0 771.92 1.4 104.28 189.28 73.16

03,07,2014 33:49.7 0 771.92 1.4 104.28 189.28 73.06

03,07,2014 33:50.1 0 771.52 1.4 104.18 189.28 73.16

03,07,2014 33:50.5 0 771.92 1.4 104.28 189.28 73.13

03,07,2014 33:50.9 0 772.32 1.4 104.28 189.28 73.13

03,07,2014 33:51.3 0 772.32 1.4 104.28 189.28 73.16

03,07,2014 33:51.7 0 772.32 1.4 104.28 189.28 73.06

03,07,2014 33:52.1 0 772.32 1.4 104.28 189.28 73.15

03,07,2014 33:52.5 0 772.32 1.4 104.28 189.28 73.15

03,07,2014 33:52.5 0 772.32 1.4 104.28 189.28 73.03

03,07,2014 33:52.9 0 772.32 1.4 104.28 189.28 73.06

03,07,2014 33:53.3 0 772.32 1.4 104.28 189.28 73.03

03,07,2014 33:53.7 0 772.32 1.4 104.28 189.28 73.03

03,07,2014 33:54.1 0 772.32 1.4 104.28 189.28 73.03


03,07,2014 33:54.5 0 772.32 1.4 104.28 189.28 73.03

03,07,2014 33:54.9 0 771.92 1.4 104.28 189.28 73.03

03,07,2014 33:55.3 0 771.92 1.4 104.28 189.28 73.03

03,07,2014 33:55.7 0 771.92 1.4 104.28 189.28 73.03

03,07,2014 33:56.0 0 771.92 1.4 104.28 189.28 73.03

03,07,2014 33:56.4 0 771.92 1.4 104.28 189.28 73.03

03,07,2014 33:56.8 0 771.92 1.4 104.28 189.28 73.03

03,07,2014 33:57.2 0 771.92 1.4 104.28 189.28 73.03

03,07,2014 33:57.6 0 771.92 1.4 104.28 189.28 73.03

03,07,2014 33:58.0 0 771.92 1.4 104.28 189.28 73.03

03,07,2014 33:58.4 0 771.92 1.4 104.28 189.28 73.03

03,07,2014 33:58.8 0 771.92 1.4 104.28 189.28 73.03

03,07,2014 33:58.8 0 772.32 1.4 104.28 189.28 73.03

03,07,2014 33:59.2 0 771.92 1.4 104.28 189.28 73.03

03,07,2014 33:59.6 0 771.92 1.4 104.28 189.28 73.03

03,07,2014 34:00.0 0 771.92 1.4 104.28 189.28 73.03

03,07,2014 34:00.4 0 771.52 1.4 104.18 189.28 73.03

03,07,2014 34:00.8 0 771.52 1.4 104.18 189.28 73.03

03,07,2014 34:01.2 0 771.92 1.4 104.28 189.28 73.03


03,07,2014 34:01.6 0 771.92 1.4 104.28 189.28 73.03

03,07,2014 34:02.0 0 771.92 1.4 104.28 189.28 73.03

03,07,2014 34:02.3 0 771.92 1.4 104.28 189.28 73.03

03,07,2014 34:02.7 0 771.92 1.4 104.28 189.28 73.03

03,07,2014 34:03.1 0 771.92 1.4 104.28 189.28 73.03

03,07,2014 34:03.5 0 771.92 1.4 104.28 189.28 73.03

03,07,2014 34:03.9 0 772.32 1.4 104.28 189.28 73.03

03,07,2014 34:04.3 0 771.92 1.4 104.28 189.28 73.03

03,07,2014 34:04.7 0 771.92 1.4 104.28 189.28 73.03

03,07,2014 34:05.1 0 771.92 1.4 104.28 189.28 73.03

03,07,2014 34:05.5 0 771.52 1.4 104.18 189.28 73.03

03,07,2014 34:05.9 0 771.92 1.4 104.28 189.28 73.02

03,07,2014 34:06.3 0 771.52 1.4 104.18 189.28 73.02

03,07,2014 34:06.7 0 771.52 1.4 104.18 189.28 73.02

03,07,2014 34:07.1 0 771.92 1.4 104.28 188.74 73.02

03,07,2014 34:07.5 0 771.52 1.4 104.18 188.74 72.92

03,07,2014 34:07.9 0 771.52 1.4 104.18 188.74 72.91

03,07,2014 34:08.3 0 771.52 1.4 104.18 188.74 72.92

03,07,2014 34:08.7 0 771.92 1.4 104.28 188.74 72.91


03,07,2014 34:09.1 0 771.52 1.4 104.18 188.74 72.91

03,07,2014 34:09.5 0 771.52 1.4 104.18 188.74 72.91

03,07,2014 34:09.9 0 771.92 1.4 104.28 188.74 72.91

03,07,2014 34:10.3 0 771.52 1.4 104.18 188.74 72.91

03,07,2014 34:10.7 0 771.92 1.4 104.28 188.74 72.91

03,07,2014 34:11.0 0 771.52 1.4 104.18 188.74 72.91

03,07,2014 34:11.5 0 771.52 1.4 104.18 188.74 72.91

03,07,2014 34:11.9 0 771.52 1.4 104.18 188.74 72.91

03,07,2014 34:12.3 0 771.92 1.4 104.28 188.74 72.91

03,07,2014 34:12.6 0 771.52 1.4 104.18 188.74 72.91

03,07,2014 34:13.0 0 771.52 1.4 104.18 188.74 72.91

03,07,2014 34:13.4 0 771.92 1.4 104.28 188.74 72.91

03,07,2014 34:13.8 0 771.52 1.4 104.18 188.74 72.91

03,07,2014 34:14.2 0 771.92 1.4 104.28 188.74 72.91

03,07,2014 34:14.6 0 771.92 1.4 104.28 188.74 72.91

03,07,2014 34:15.0 0 771.52 1.4 104.18 188.74 72.91

03,07,2014 34:15.4 0 771.52 1.4 104.18 188.74 72.91

03,07,2014 34:15.8 0 771.92 1.4 104.28 188.74 72.91

03,07,2014 34:16.2 0 771.52 1.4 104.18 188.74 72.91


03,07,2014 34:16.6 0 771.92 1.4 104.18 188.74 72.91

03,07,2014 34:17.0 0 771.92 1.4 104.18 188.74 72.91

03,07,2014 34:17.4 0 771.92 1.4 104.18 188.74 72.91

03,07,2014 34:17.4 0 771.52 1.4 104.18 188.74 72.91

03,07,2014 34:18.1 0 771.52 1.4 104.18 188.74 72.91

03,07,2014 34:18.5 0 771.52 1.4 104.18 188.74 72.91

03,07,2014 34:18.9 0 771.52 1.4 104.18 188.74 72.91

03,07,2014 34:19.3 0 771.92 1.4 104.28 188.74 72.91

03,07,2014 34:19.7 0 771.92 1.4 104.28 188.74 72.91

03,07,2014 34:20.1 0 771.92 1.4 104.28 188.74 72.91

03,07,2014 34:20.4 0 771.52 1.4 104.18 188.74 72.91

03,07,2014 34:20.8 0 771.92 1.4 104.28 188.74 72.91

03,07,2014 34:21.2 0 771.92 1.4 104.28 188.74 72.91

03,07,2014 34:21.6 0 771.52 1.4 104.18 188.74 72.91

03,07,2014 34:22.0 0 771.52 1.4 104.18 188.74 72.91

03,07,2014 34:22.0 0 771.52 1.4 104.18 188.74 72.91

03,07,2014 34:22.7 0 771.92 1.4 104.28 188.74 72.91

03,07,2014 34:23.1 0 771.92 1.4 104.28 188.74 72.91

03,07,2014 34:23.5 0 771.92 1.4 104.28 188.74 72.8


03,07,2014 34:23.9 0 771.52 1.4 104.18 188.74 72.79

03,07,2014 34:24.3 0 771.52 1.4 104.18 188.74 72.79

03,07,2014 34:24.7 0 771.92 1.4 104.18 188.74 72.78

03,07,2014 34:25.1 0 771.92 1.4 104.28 188.74 72.78

03,07,2014 34:25.5 0 771.92 1.4 104.28 188.74 72.87

03,07,2014 34:25.9 0 771.92 1.4 104.28 188.74 72.78

03,07,2014 34:26.3 0 771.92 1.4 104.28 188.74 72.78

03,07,2014 34:26.7 0 771.52 1.4 104.18 188.74 72.78

03,07,2014 34:27.1 0 771.92 1.4 104.28 188.74 72.78

03,07,2014 34:27.5 0 771.52 1.4 104.18 188.74 72.78

03,07,2014 34:27.9 0 771.52 1.4 104.18 188.74 72.78

03,07,2014 34:28.3 0 771.52 1.4 104.18 188.74 72.87

03,07,2014 34:28.7 0 771.52 1.4 104.18 188.74 72.87

03,07,2014 34:28.7 0 771.92 1.4 104.28 188.74 72.78

03,07,2014 34:29.1 0 771.52 1.4 104.18 188.74 72.78

03,07,2014 34:29.4 0 771.92 1.4 104.28 188.74 72.78

03,07,2014 34:29.8 0 771.52 1.4 104.18 188.74 72.78

03,07,2014 34:30.2 0 771.52 1.4 104.18 188.74 72.78

03,07,2014 34:30.6 0 771.52 1.4 104.18 188.74 72.78


03,07,2014 34:30.6 0 771.52 1.4 104.18 188.74 72.78

03,07,2014 34:31.0 0 771.52 1.4 104.18 188.74 72.78

03,07,2014 34:31.4 0 771.52 1.4 104.18 188.74 72.78

03,07,2014 34:31.8 0 771.52 1.4 104.18 188.74 72.78

03,07,2014 34:32.2 0 771.92 1.4 104.28 188.74 72.78

03,07,2014 34:32.6 0 771.52 1.4 104.18 188.74 72.78

03,07,2014 34:33.0 0 771.52 1.4 104.18 188.74 72.78

03,07,2014 34:33.4 0 771.52 1.4 104.18 188.74 72.78

03,07,2014 34:33.7 0 771.92 1.4 104.28 188.74 72.78

03,07,2014 34:34.1 0 771.52 1.4 104.18 188.74 72.78

03,07,2014 34:34.5 0 771.52 1.4 104.18 188.74 72.78

03,07,2014 34:34.9 0 771.52 1.4 104.18 188.74 72.78

03,07,2014 34:34.9 0 771.52 1.4 104.18 188.74 72.78

03,07,2014 34:35.3 0 771.52 1.4 104.18 188.74 72.78

03,07,2014 34:35.7 0 771.52 1.4 104.18 188.74 72.78

03,07,2014 34:36.1 0 771.52 1.4 104.18 188.74 72.78

03,07,2014 34:36.5 0 771.52 1.4 104.18 188.74 72.78

03,07,2014 34:36.9 0 771.92 1.4 104.28 188.74 72.78

03,07,2014 34:37.3 0 771.52 1.4 104.18 188.74 72.78


03,07,2014 34:37.7 0 771.52 1.4 104.18 188.74 72.78

03,07,2014 34:38.1 0 771.92 1.4 104.28 188.74 72.78

03,07,2014 34:38.5 0 771.52 1.4 104.18 188.74 72.78

03,07,2014 34:38.9 0 771.92 1.4 104.28 188.74 72.67

03,07,2014 34:39.3 0 771.92 1.4 104.28 188.74 72.75

03,07,2014 34:39.7 0 771.92 1.4 104.28 188.74 72.75

03,07,2014 34:39.7 0 771.52 1.4 104.18 188.74 72.74

03,07,2014 34:40.1 0 771.92 1.4 104.28 188.74 72.68

03,07,2014 34:40.5 0 771.52 1.4 104.18 188.74 72.65

03,07,2014 34:40.9 0 771.52 1.4 104.18 188.74 72.65

03,07,2014 34:40.9 0 771.52 1.4 104.18 188.74 72.65

03,07,2014 34:41.3 0 771.52 1.4 104.18 188.74 72.65

03,07,2014 34:41.6 0 771.52 1.4 104.18 188.74 72.67

03,07,2014 34:42.0 0 771.52 1.4 104.18 188.74 72.65

03,07,2014 34:42.4 0 771.52 1.4 104.18 188.74 72.65

03,07,2014 34:42.8 0 771.52 1.4 104.18 188.74 72.65

03,07,2014 34:43.2 0 771.52 1.4 104.18 188.74 72.65

03,07,2014 34:43.6 0 771.52 1.4 104.18 188.74 72.65

03,07,2014 34:44.0 0 771.92 1.4 104.28 188.74 72.65


03,07,2014 34:44.4 0 771.52 1.4 104.18 188.74 72.65

03,07,2014 34:44.8 0 771.52 1.4 104.18 188.74 72.65

03,07,2014 34:45.2 0 771.92 1.4 104.28 188.74 72.65

03,07,2014 34:45.6 0 771.92 1.4 104.28 188.74 72.65

03,07,2014 34:46.0 0 771.52 1.4 104.18 188.74 72.65

03,07,2014 34:46.4 0 771.92 1.4 104.28 188.74 72.65

03,07,2014 34:46.8 0 771.52 1.4 104.18 188.74 72.65

03,07,2014 34:47.2 0 771.52 1.4 104.18 188.74 72.65

03,07,2014 34:47.6 0 771.92 1.4 104.28 188.74 72.65

03,07,2014 34:47.9 0 771.52 1.4 104.28 188.74 72.65

03,07,2014 34:48.3 0 771.92 1.4 104.28 188.74 72.65

03,07,2014 34:48.7 0 771.92 1.4 104.28 188.74 72.65

03,07,2014 34:49.1 0 771.52 1.4 104.18 188.74 72.65

03,07,2014 34:49.5 0 771.52 1.4 104.18 188.74 72.65

03,07,2014 34:49.9 0 771.52 1.4 104.18 188.74 72.65

03,07,2014 34:50.3 0 771.52 1.4 104.18 188.74 72.65

03,07,2014 34:50.7 0 771.52 1.4 104.18 188.74 72.65

03,07,2014 34:51.1 0 771.92 1.4 104.28 188.74 72.65

03,07,2014 34:51.5 0 771.52 1.4 104.18 188.74 72.65


03,07,2014 34:51.9 0 771.92 1.4 104.28 188.74 72.65

03,07,2014 34:52.3 0 771.52 1.4 104.18 188.74 72.65

03,07,2014 34:52.7 0 771.52 1.4 104.18 188.74 72.65

03,07,2014 34:52.7 0 771.52 1.4 104.18 188.74 72.65

03,07,2014 34:53.5 0 771.52 1.4 104.18 188.74 72.65

03,07,2014 34:53.8 0 771.92 1.4 104.28 188.74 72.65

03,07,2014 34:54.2 0 771.52 1.4 104.18 188.1 72.65

03,07,2014 34:54.6 0 771.52 1.4 104.18 188.1 72.65

03,07,2014 34:54.6 0 771.52 1.4 104.18 188.1 72.56

03,07,2014 34:55.3 0 771.92 1.4 104.28 188.1 72.64

03,07,2014 34:55.7 0 771.92 1.4 104.28 188.74 72.65

03,07,2014 34:56.1 0 771.52 1.4 104.18 188.1 72.65

03,07,2014 34:56.5 0 771.52 1.4 104.18 188.1 72.61

03,07,2014 34:56.9 0 771.52 1.4 104.18 188.1 72.61

03,07,2014 34:56.9 0 771.52 1.4 104.18 188.1 72.65

03,07,2014 34:57.3 0 771.52 1.4 104.18 188.1 72.65

03,07,2014 34:57.7 0 771.52 1.4 104.18 188.1 72.53

03,07,2014 34:58.1 0 771.52 1.4 104.28 188.1 72.53

03,07,2014 34:58.5 0 771.52 1.4 104.18 188.1 72.62


03,07,2014 34:58.9 0 771.52 1.4 104.18 188.74 72.55

03,07,2014 34:59.3 0 771.52 1.4 104.18 188.74 72.61

03,07,2014 34:59.7 0 771.52 1.4 104.18 188.1 72.53

03,07,2014 35:00.1 0 771.92 1.4 104.28 188.1 72.53

03,07,2014 35:00.5 0 771.92 1.4 104.28 188.1 72.53

03,07,2014 35:00.9 0 771.52 1.4 104.18 188.1 72.61

03,07,2014 35:01.3 0 771.52 1.4 104.18 188.1 72.53

03,07,2014 35:01.7 0 771.92 1.4 104.28 188.1 72.53

03,07,2014 35:02.1 0 771.92 1.4 104.28 188.1 72.53

03,07,2014 35:02.5 0 771.52 1.4 104.18 188.1 72.53

03,07,2014 35:02.9 0 771.92 1.4 104.28 188.1 72.53

03,07,2014 35:03.2 0 771.52 1.4 104.18 188.1 72.53

03,07,2014 35:03.7 0 771.92 1.4 104.28 188.1 72.53

03,07,2014 35:04.1 0 771.52 1.4 104.18 188.1 72.53

03,07,2014 35:04.4 0 771.92 1.4 104.28 188.1 72.53

03,07,2014 35:04.8 0 771.52 1.4 104.18 188.74 72.53

03,07,2014 35:05.2 0 771.92 1.4 104.18 188.74 72.53

03,07,2014 35:05.6 0 771.52 1.4 104.18 188.1 72.53

03,07,2014 35:06.0 0 771.52 1.4 104.18 188.1 72.53


03,07,2014 35:06.4 0 771.92 1.4 104.28 188.1 72.53

03,07,2014 35:06.8 0 771.52 1.4 104.18 188.1 72.53

03,07,2014 35:07.2 0 771.52 1.4 104.18 188.1 72.53

03,07,2014 35:07.6 0 771.52 1.4 104.18 188.1 72.53

03,07,2014 35:08.0 0 771.92 1.4 104.28 188.1 72.53

03,07,2014 35:08.4 0 771.52 1.4 104.18 188.1 72.53

03,07,2014 35:08.8 0 771.52 1.4 104.18 188.1 72.53

03,07,2014 35:09.2 0 771.52 1.4 104.18 188.1 72.53

03,07,2014 35:09.6 0 771.52 1.4 104.18 188.1 72.53

03,07,2014 35:10.0 0 771.52 1.4 104.18 188.1 72.53

03,07,2014 35:10.4 0 771.52 1.4 104.18 188.1 72.53

03,07,2014 35:10.8 0 771.92 1.4 104.28 188.1 72.53

03,07,2014 35:11.2 0 771.92 1.4 104.28 188.1 72.53

03,07,2014 35:11.2 0 771.52 1.4 104.18 188.1 72.53

03,07,2014 35:11.5 0 771.52 1.4 104.18 188.1 72.43

03,07,2014 35:11.9 0 771.92 1.4 104.28 188.1 72.43

03,07,2014 35:12.3 0 771.52 1.4 104.18 188.1 72.52

03,07,2014 35:12.7 0 771.92 1.4 104.18 188.1 72.43

03,07,2014 35:13.1 0 771.52 1.4 104.18 188.1 72.53


03,07,2014 35:13.5 0 771.92 1.4 104.18 188.1 72.5

03,07,2014 35:13.9 0 771.52 1.4 104.18 188.1 72.52

03,07,2014 35:14.3 0 771.92 1.4 104.18 188.1 72.52

03,07,2014 35:14.7 0 771.52 1.4 104.18 188.1 72.4

03,07,2014 35:15.1 0 771.92 1.4 104.18 188.1 72.5

03,07,2014 35:15.5 0 771.52 1.4 104.18 188.1 72.42

03,07,2014 35:15.9 0 771.52 1.4 104.18 188.1 72.4

03,07,2014 35:16.3 0 771.52 1.4 104.18 188.1 72.4

03,07,2014 35:16.7 0 771.52 1.4 104.18 188.1 72.4

03,07,2014 35:17.1 0 771.52 1.4 104.18 188.1 72.4

03,07,2014 35:17.5 0 771.52 1.4 104.18 188.1 72.4

03,07,2014 35:17.9 0 771.52 1.4 104.18 188.1 72.4

03,07,2014 35:18.3 0 771.52 1.4 104.18 188.1 72.4

03,07,2014 35:19.0 0 771.92 1.4 104.28 188.1 72.4

03,07,2014 35:19.4 0 771.92 1.4 104.28 188.1 72.4

03,07,2014 35:19.8 0 771.92 1.4 104.28 188.1 72.4

03,07,2014 35:20.2 0 771.52 1.4 104.18 188.1 72.4

03,07,2014 35:20.6 0 771.52 1.4 104.18 188.1 72.4

03,07,2014 35:21.3 0 771.52 1.4 104.18 188.1 72.4


03,07,2014 35:21.6 0 771.52 1.4 104.18 188.1 72.4

03,07,2014 35:22.0 0 771.92 1.4 104.28 188.1 72.4

03,07,2014 35:22.4 0 771.52 1.4 104.18 188.1 72.4

03,07,2014 35:22.8 0 771.52 1.4 104.18 188.1 72.4

03,07,2014 35:23.2 0 771.52 1.4 104.18 188.1 72.4

03,07,2014 35:23.6 0 771.52 1.4 104.18 188.1 72.4

03,07,2014 35:24.0 0 771.52 1.4 104.18 188.1 72.4

03,07,2014 35:24.4 0 771.52 1.4 104.18 188.1 72.4

03,07,2014 35:24.8 0 771.52 1.4 104.18 188.1 72.4

03,07,2014 35:25.2 0 771.52 1.4 104.18 188.1 72.4

03,07,2014 35:25.6 0 771.52 1.4 104.18 188.1 72.4

03,07,2014 35:26.0 0 771.52 1.4 104.18 188.1 72.4

03,07,2014 35:26.4 0 771.92 1.4 104.28 188.1 72.4

03,07,2014 35:26.8 0 771.92 1.4 104.28 188.1 72.4

03,07,2014 35:27.2 0 771.52 1.4 104.18 188.1 72.4

03,07,2014 35:27.6 0 771.52 1.4 104.18 188.1 72.4

03,07,2014 35:28.0 0 771.92 1.4 104.28 188.1 72.4

03,07,2014 35:28.4 0 771.52 1.4 104.18 188.1 72.4

03,07,2014 35:28.8 0 771.52 1.4 104.18 188.1 72.4


03,07,2014 35:29.2 0 771.52 1.4 104.18 188.1 72.4

03,07,2014 35:29.2 0 771.92 1.4 104.28 188.1 72.4

03,07,2014 35:29.6 0 771.92 1.4 104.28 188.1 72.3

03,07,2014 35:30.0 0 771.52 1.4 104.18 188.1 72.4

03,07,2014 35:30.4 0 771.52 1.4 104.18 188.1 72.4

03,07,2014 35:30.8 0 771.52 1.4 104.18 188.1 72.4

03,07,2014 35:31.2 0 771.52 1.4 104.18 188.1 72.3

03,07,2014 35:31.6 0 771.92 1.4 104.28 188.1 72.4

03,07,2014 35:31.9 0 771.52 1.4 104.18 188.1 72.3

03,07,2014 35:32.3 0 771.52 1.4 104.18 188.1 72.36

03,07,2014 35:32.7 0 771.52 1.4 104.18 188.1 72.36

03,07,2014 35:33.1 0 771.52 1.4 104.18 188.1 72.27

03,07,2014 35:33.5 0 771.52 1.4 104.18 188.1 72.27

03,07,2014 35:33.9 0 771.52 1.4 104.18 188.1 72.27

03,07,2014 35:34.3 0 771.52 1.4 104.18 188.1 72.27

03,07,2014 35:34.7 0 771.52 1.4 104.18 188.1 72.27

03,07,2014 35:35.1 0 771.92 1.4 104.28 188.1 72.27

03,07,2014 35:35.5 0 771.52 1.4 104.18 188.1 72.27

03,07,2014 35:35.9 0 771.52 1.4 104.18 188.1 72.27


03,07,2014 35:36.3 0 771.52 1.4 104.18 188.1 72.27

03,07,2014 35:36.7 0 771.92 1.4 104.28 188.1 72.27

03,07,2014 35:37.1 0 771.52 1.4 104.18 188.1 72.27

03,07,2014 35:37.5 0 771.52 1.4 104.18 188.1 72.27

03,07,2014 35:37.9 0 771.52 1.4 104.18 188.1 72.27

03,07,2014 35:38.3 0 771.52 1.4 104.18 188.1 72.27

03,07,2014 35:38.7 0 771.52 1.4 104.18 188.1 72.27

03,07,2014 35:39.1 0 771.52 1.4 104.18 188.1 72.27

03,07,2014 35:39.5 0 771.52 1.4 104.18 188.1 72.27

03,07,2014 35:39.9 0 771.52 1.4 104.18 188.1 72.27

03,07,2014 35:40.2 0 771.52 1.4 104.18 188.1 72.27

03,07,2014 35:40.6 0 771.52 1.4 104.18 188.1 72.27

03,07,2014 35:41.0 0 771.52 1.4 104.18 188.1 72.27

03,07,2014 35:41.4 0 771.52 1.4 104.18 188.1 72.27

03,07,2014 35:41.8 0 771.52 1.4 104.18 188.1 72.27

03,07,2014 35:42.2 0 771.52 1.4 104.18 188.1 72.27

03,07,2014 35:42.6 0 771.92 1.4 104.18 188.1 72.27

03,07,2014 35:43.0 0 771.52 1.4 104.18 188.1 72.27

03,07,2014 35:43.4 0 771.92 1.4 104.28 188.1 72.27


03,07,2014 35:43.8 0 771.52 1.4 104.18 188.1 72.27

03,07,2014 35:44.2 0 771.52 1.4 104.18 188.1 72.27

03,07,2014 35:44.6 0 771.92 1.4 104.28 188.1 72.27

03,07,2014 35:45.0 0 771.52 1.4 104.18 188.1 72.27

03,07,2014 35:45.4 0 771.52 1.4 104.18 188.1 72.27

03,07,2014 35:45.8 0 771.52 1.4 104.18 188.1 72.27

03,07,2014 35:46.2 0 771.52 1.4 104.18 188.1 72.27

03,07,2014 35:46.6 0 771.52 1.4 104.18 188.1 72.24

03,07,2014 35:47.0 0 771.52 1.4 104.18 188.1 72.27

03,07,2014 35:47.4 0 771.52 1.4 104.18 188.1 72.24

03,07,2014 35:47.8 0 771.52 1.4 104.18 188.1 72.17

03,07,2014 35:48.2 0 771.52 1.4 104.18 188.1 72.17

03,07,2014 35:48.2 0 771.92 1.4 104.28 188.1 72.14

03,07,2014 35:48.6 0 771.52 1.4 104.18 188.1 72.23

03,07,2014 35:49.0 0 771.92 1.4 104.18 188.1 72.23

03,07,2014 35:49.4 0 771.52 1.4 104.18 188.1 72.14

03,07,2014 35:49.8 0 771.92 1.4 104.28 188.1 72.14

03,07,2014 35:50.2 0 771.92 1.4 104.28 188.1 72.14

03,07,2014 35:50.6 0 771.52 1.4 104.18 188.1 72.14


03,07,2014 35:51.0 0 771.52 1.4 104.18 188.1 72.14

03,07,2014 35:51.4 0 771.52 1.4 104.18 188.1 72.14

03,07,2014 35:51.8 0 771.52 1.4 104.18 188.1 72.14

03,07,2014 35:52.1 0 771.52 1.4 104.18 188.1 72.14

03,07,2014 35:52.5 0 771.52 1.4 104.18 188.1 72.14

03,07,2014 35:52.5 0 771.52 1.4 104.18 188.1 72.14

03,07,2014 35:53.2 0 771.92 1.4 104.28 188.1 72.14

03,07,2014 35:53.6 0 771.92 1.4 104.28 188.1 72.14

03,07,2014 35:54.0 0 771.92 1.4 104.28 188.1 72.14

03,07,2014 35:54.4 0 771.52 1.4 104.18 188.1 72.14

03,07,2014 35:54.8 0 771.92 1.4 104.28 188.1 72.14

03,07,2014 35:55.2 0 771.92 1.4 104.28 187.45 72.14

03,07,2014 35:55.6 0 771.52 1.4 104.18 187.45 72.14

03,07,2014 35:56.0 0 771.52 1.4 104.18 188.1 72.14

03,07,2014 35:56.4 0 771.52 1.4 104.28 188.1 72.14

03,07,2014 35:56.8 0 771.92 1.4 104.28 187.45 72.14

03,07,2014 35:57.2 0 771.92 1.4 104.28 188.1 72.14

03,07,2014 35:57.2 0 771.52 1.4 104.18 188.1 72.14

03,07,2014 35:57.6 0 771.92 1.4 104.28 188.1 72.14


03,07,2014 35:58.0 0 771.52 1.4 104.18 188.1 72.14

03,07,2014 35:58.4 0 771.52 1.4 104.18 188.1 72.14

03,07,2014 35:58.8 0 771.52 1.4 104.18 187.45 72.14

03,07,2014 35:59.2 0 771.52 1.4 104.18 187.45 72.14

03,07,2014 35:59.6 0 771.52 1.4 104.18 187.45 72.14

03,07,2014 36:00.0 0 771.52 1.4 104.18 187.45 72.14

03,07,2014 36:00.4 0 771.52 1.4 104.18 187.45 72.14

03,07,2014 36:00.4 0 771.92 1.4 104.28 187.45 72.14

03,07,2014 36:01.0 0 771.52 1.4 104.18 187.45 72.14

03,07,2014 36:01.4 0 771.52 1.4 104.18 187.45 72.14

03,07,2014 36:01.8 0 771.52 1.4 104.18 187.45 72.14

03,07,2014 36:01.8 0 771.52 1.4 104.18 187.45 72.14

03,07,2014 36:02.2 0 771.52 1.4 104.18 187.45 72.14

03,07,2014 36:02.6 0 771.52 1.4 104.18 187.45 72.14

03,07,2014 36:03.0 0 771.52 1.4 104.18 187.45 72.14

03,07,2014 36:03.4 0 771.92 1.4 104.18 187.45 72.14

03,07,2014 36:03.8 0 771.52 1.4 104.18 187.45 72.14

03,07,2014 36:04.2 0 771.52 1.4 104.18 187.45 72.14

03,07,2014 36:04.6 0 771.52 1.4 104.18 187.45 72.14


03,07,2014 36:05.0 0 771.52 1.4 104.18 187.45 72.11

03,07,2014 36:05.4 0 771.52 1.4 104.18 187.45 72.13

03,07,2014 36:05.8 0 771.52 1.4 104.18 187.45 72.1

03,07,2014 36:06.2 0 771.52 1.4 104.18 187.45 72.14

03,07,2014 36:06.6 0 771.52 1.4 104.18 187.45 72.11

03,07,2014 36:07.0 0 771.52 1.4 104.18 187.45 72.05

03,07,2014 36:07.4 0 771.52 1.4 104.18 187.45 72.02

03,07,2014 36:07.8 0 771.92 1.4 104.28 187.45 72.01

03,07,2014 36:08.2 0 771.92 1.4 104.28 187.45 72.01

03,07,2014 36:08.2 0 771.52 1.4 104.18 187.45 72.13

03,07,2014 36:08.6 0 771.52 1.4 104.18 187.45 72.01

03,07,2014 36:08.9 0 771.52 1.4 104.18 187.45 72.01

03,07,2014 36:09.3 0 771.52 1.4 104.18 187.45 72.01

03,07,2014 36:09.7 0 771.52 1.4 104.18 187.45 72.01

03,07,2014 36:10.1 0 771.52 1.4 104.18 187.45 72.01

03,07,2014 36:10.5 0 771.52 1.4 104.18 187.45 72.01

03,07,2014 36:10.9 0 771.92 1.4 104.28 187.45 72.01

03,07,2014 36:11.3 0 771.92 1.4 104.28 187.45 72.01

03,07,2014 36:11.7 0 771.52 1.4 104.18 187.45 72.01


03,07,2014 36:12.1 0 771.52 1.4 104.18 187.45 72.01

03,07,2014 36:12.5 0 771.52 1.4 104.18 187.45 72.01

03,07,2014 36:12.5 0 771.52 1.4 104.18 187.45 72.01

03,07,2014 36:12.9 0 771.52 1.4 104.18 187.45 72.01

03,07,2014 36:13.3 0 771.52 1.4 104.18 187.45 72.01

03,07,2014 36:13.7 0 771.52 1.4 104.18 187.45 72.01

03,07,2014 36:14.1 0 771.52 1.4 104.18 187.45 72.01

03,07,2014 36:14.5 0 771.52 1.4 104.18 187.45 72.01

03,07,2014 36:14.9 0 771.52 1.4 104.18 187.45 72.01

03,07,2014 36:15.3 0 771.52 1.4 104.18 187.45 72.01

03,07,2014 36:15.7 0 771.52 1.4 104.18 187.45 72.01

03,07,2014 36:16.1 0 771.52 1.4 104.18 187.45 72.01

03,07,2014 36:16.4 0 771.92 1.4 104.28 187.45 72.01

03,07,2014 36:16.8 0 771.52 1.4 104.18 187.45 72.01

03,07,2014 36:17.2 0 771.52 1.4 104.18 187.45 72.01

03,07,2014 36:17.6 0 771.52 1.4 104.18 187.45 72.01

03,07,2014 36:18.0 0 771.92 1.4 104.28 187.45 72.01

03,07,2014 36:18.4 0 771.52 1.4 104.18 187.45 72.01

03,07,2014 36:18.8 0 771.52 1.4 104.18 187.45 72.01


03,07,2014 36:18.8 0 771.52 1.4 104.18 187.45 72.01

03,07,2014 36:19.2 0 771.52 1.4 104.18 187.45 72.01

03,07,2014 36:19.6 0 771.52 1.4 104.18 187.45 72.01

03,07,2014 36:20.0 0 771.52 1.4 104.18 187.45 72.01

03,07,2014 36:20.0 0 771.52 1.4 104.18 187.45 72.01

03,07,2014 36:20.7 0 771.52 1.4 104.18 187.45 71.89

03,07,2014 36:21.1 0 771.52 1.4 104.18 187.45 72.01

03,07,2014 36:21.5 0 771.92 1.4 104.28 187.45 72.01

03,07,2014 36:22.2 0 771.92 1.4 104.28 187.45 71.88

03,07,2014 36:22.6 0 771.52 1.4 104.18 187.45 71.92

03,07,2014 36:23.0 0 771.92 1.4 104.28 187.45 71.88

03,07,2014 36:23.4 0 771.92 1.4 104.28 187.45 71.91

03,07,2014 36:23.8 0 771.52 1.4 104.18 187.45 71.88

03,07,2014 36:24.2 0 771.52 1.4 104.18 187.45 71.88

03,07,2014 36:24.6 0 771.52 1.4 104.18 187.45 71.98

03,07,2014 36:25.0 0 771.52 1.4 104.18 187.45 71.88

03,07,2014 36:25.4 0 771.52 1.4 104.18 187.45 71.88

03,07,2014 36:25.8 0 771.92 1.4 104.28 187.45 71.88

03,07,2014 36:26.1 0 771.52 1.4 104.18 187.45 71.88


03,07,2014 36:26.5 0 771.92 1.4 104.28 187.45 71.88

03,07,2014 36:26.9 0 771.52 1.4 104.18 187.45 71.88

03,07,2014 36:27.3 0 771.52 1.4 104.18 187.45 71.88

03,07,2014 36:27.7 0 771.52 1.4 104.18 187.45 71.88

03,07,2014 36:28.1 0 771.52 1.4 104.18 187.45 71.88

03,07,2014 36:28.5 0 771.52 1.4 104.18 187.45 71.88

03,07,2014 36:28.9 0 771.52 1.4 104.18 187.45 71.88

03,07,2014 36:29.3 0 771.52 1.4 104.18 187.45 71.88

03,07,2014 36:29.7 0 771.52 1.4 104.18 187.45 71.88

03,07,2014 36:30.1 0 771.92 1.4 104.28 187.45 71.88

03,07,2014 36:30.5 0 771.52 1.4 104.18 187.45 71.88

03,07,2014 36:30.9 0 771.52 1.4 104.18 187.45 71.88

03,07,2014 36:31.3 0 771.52 1.4 104.18 187.45 71.88

03,07,2014 36:31.7 0 771.52 1.4 104.18 187.45 71.88

03,07,2014 36:32.1 0 771.52 1.4 104.18 187.45 71.88

03,07,2014 36:32.5 0 771.52 1.4 104.18 187.45 71.88

03,07,2014 36:32.9 0 771.52 1.4 104.18 187.45 71.88

03,07,2014 36:33.3 0 771.52 1.4 104.18 187.45 71.88

03,07,2014 36:33.7 0 771.92 1.4 104.28 187.45 71.79


03,07,2014 36:34.1 0 771.52 1.4 104.18 187.45 71.88

03,07,2014 36:34.5 0 771.92 1.4 104.28 187.45 71.88

03,07,2014 36:34.9 0 771.52 1.4 104.18 187.45 71.79

03,07,2014 36:35.3 0 771.52 1.4 104.18 187.45 71.88

03,07,2014 36:35.7 0 771.92 1.4 104.28 187.45 71.88

03,07,2014 36:36.1 0 771.92 1.4 104.28 187.45 71.88

03,07,2014 36:36.4 0 771.52 1.4 104.18 187.45 71.88

03,07,2014 36:36.8 0 771.52 1.4 104.18 187.45 71.88

03,07,2014 36:36.8 0 771.52 1.4 104.18 187.45 71.88

03,07,2014 36:37.2 0 771.52 1.4 104.18 187.45 71.88

03,07,2014 36:37.6 0 771.52 1.4 104.18 187.45 71.88

03,07,2014 36:38.0 0 771.52 1.4 104.18 187.45 71.88

03,07,2014 36:38.4 0 771.52 1.4 104.18 187.45 71.88

03,07,2014 36:38.8 0 771.52 1.4 104.18 187.45 71.79

03,07,2014 36:39.2 0 771.52 1.4 104.18 187.45 71.76

03,07,2014 36:39.6 0 771.52 1.4 104.18 187.45 71.88

03,07,2014 36:40.0 0 771.52 1.4 104.18 187.45 71.75

03,07,2014 36:40.4 0 771.52 1.4 104.18 187.45 71.88

03,07,2014 36:40.8 0 771.92 1.4 104.28 187.45 71.75


03,07,2014 36:41.2 0 771.52 1.4 104.18 187.45 71.76

03,07,2014 36:41.6 0 771.52 1.4 104.18 187.45 71.76

03,07,2014 36:42.0 0 771.92 1.4 104.28 187.45 71.75

03,07,2014 36:42.3 0 771.52 1.4 104.18 187.45 71.75

03,07,2014 36:42.7 0 771.52 1.4 104.18 187.45 71.75

03,07,2014 36:43.1 0 771.52 1.4 104.18 187.45 71.75

03,07,2014 36:43.5 0 771.92 1.4 104.28 187.45 71.75

03,07,2014 36:43.9 0 771.52 1.4 104.18 187.45 71.75

03,07,2014 36:44.3 0 771.52 1.4 104.18 187.45 71.75

03,07,2014 36:44.7 0 771.52 1.4 104.18 187.45 71.75

03,07,2014 36:45.0 0 771.52 1.4 104.18 187.45 71.75

03,07,2014 36:45.7 0 771.52 1.4 104.18 187.45 71.75

03,07,2014 36:46.1 0 771.52 1.4 104.18 187.45 71.75

03,07,2014 36:46.5 0 771.52 1.4 104.18 187.45 71.75

03,07,2014 36:46.9 0 771.52 1.4 104.18 187.45 71.75

03,07,2014 36:47.3 0 771.52 1.4 104.18 187.45 71.75

03,07,2014 36:47.7 0 771.92 1.4 104.28 187.45 71.75

03,07,2014 36:48.1 0 771.52 1.4 104.18 187.45 71.75

03,07,2014 36:48.5 0 771.52 1.4 104.18 187.45 71.75


03,07,2014 36:48.9 0 771.52 1.4 104.18 187.45 71.75

03,07,2014 36:49.3 0 771.92 1.4 104.28 187.45 71.75

03,07,2014 36:49.7 0 771.52 1.4 104.18 187.45 71.75

03,07,2014 36:50.1 0 771.52 1.4 104.18 187.45 71.75

03,07,2014 36:50.5 0 771.52 1.4 104.18 187.45 71.75

03,07,2014 36:50.5 0 771.52 1.4 104.18 187.45 71.75

03,07,2014 36:50.9 0 771.52 1.4 104.18 187.45 71.75

03,07,2014 36:51.3 0 771.52 1.4 104.18 187.45 71.75

03,07,2014 36:51.7 0 771.52 1.4 104.18 187.45 71.75

03,07,2014 36:52.1 0 771.52 1.4 104.18 187.45 71.75

03,07,2014 36:52.5 0 771.52 1.4 104.18 187.45 71.75

03,07,2014 36:52.8 0 771.52 1.4 104.18 187.45 71.75

03,07,2014 36:53.2 0 771.52 1.4 104.18 187.45 71.75

03,07,2014 36:53.6 0 771.52 1.4 104.18 187.45 71.75

03,07,2014 36:54.0 0 771.52 1.4 104.18 187.45 71.75

03,07,2014 36:54.4 0 771.52 1.4 104.18 187.45 71.75

03,07,2014 36:54.8 0 771.52 1.4 104.18 187.45 71.75

03,07,2014 36:55.2 0 771.52 1.4 104.18 187.45 71.75

03,07,2014 36:55.6 0 771.52 1.4 104.18 187.45 71.75


03,07,2014 36:56.0 0 771.52 1.4 104.18 187.45 71.75

03,07,2014 36:56.4 0 771.52 1.4 104.18 187.45 71.73

03,07,2014 36:56.8 0 771.92 1.4 104.28 187.45 71.63

03,07,2014 36:57.2 0 771.92 1.4 104.28 187.45 71.63

03,07,2014 36:57.6 0 771.92 1.4 104.28 187.45 71.63

03,07,2014 36:57.6 0 771.52 1.4 104.18 187.45 71.63

03,07,2014 36:58.3 0 771.52 1.4 104.18 187.45 71.72

03,07,2014 36:58.7 0 771.52 1.4 104.18 187.45 71.63

03,07,2014 36:59.1 0 771.52 1.4 104.18 187.45 71.63

03,07,2014 36:59.5 0 771.52 1.4 104.18 187.45 71.63

03,07,2014 36:59.9 0 771.52 1.4 104.18 187.45 71.63

03,07,2014 37:00.3 0 771.52 1.4 104.18 187.45 71.63

03,07,2014 37:00.7 0 771.52 1.4 104.18 187.45 71.63

03,07,2014 37:01.1 0 771.52 1.4 104.18 187.45 71.63

03,07,2014 37:01.5 0 771.52 1.4 104.18 187.45 71.63

03,07,2014 37:01.9 0 771.52 1.4 104.18 187.45 71.63

03,07,2014 37:02.3 0 771.52 1.4 104.18 187.45 71.63

03,07,2014 37:02.7 0 771.52 1.4 104.18 187.45 71.63

03,07,2014 37:03.0 0 771.92 1.4 104.28 187.45 71.63


03,07,2014 37:03.4 0 771.52 1.4 104.18 187.45 71.63

03,07,2014 37:03.8 0 771.52 1.4 104.18 187.45 71.63

03,07,2014 37:04.2 0 771.52 1.4 104.18 187.45 71.63

03,07,2014 37:04.6 0 771.52 1.4 104.18 187.45 71.63

03,07,2014 37:05.0 0 771.52 1.4 104.18 187.45 71.63

03,07,2014 37:05.4 0 771.52 1.4 104.18 187.45 71.63

03,07,2014 37:05.8 0 771.52 1.4 104.18 187.45 71.63

03,07,2014 37:06.2 0 771.52 1.4 104.18 187.45 71.63

03,07,2014 37:06.6 0 771.52 1.4 104.18 187.45 71.63

03,07,2014 37:07.0 0 771.52 1.4 104.18 187.45 71.63

03,07,2014 37:07.4 0 771.92 1.4 104.28 187.45 71.63

03,07,2014 37:07.8 0 771.92 1.4 104.28 187.45 71.63

03,07,2014 37:07.8 0 771.52 1.4 104.18 187.45 71.63

03,07,2014 37:08.2 0 771.52 1.4 104.18 187.45 71.63

03,07,2014 37:08.6 0 771.92 1.4 104.28 187.45 71.63

03,07,2014 37:09.0 0 771.52 1.4 104.18 186.8 71.63

03,07,2014 37:09.4 0 771.52 1.4 104.18 187.45 71.63

03,07,2014 37:09.7 0 771.92 1.4 104.28 186.8 71.63

03,07,2014 37:10.1 0 771.92 1.4 104.18 187.45 71.63


03,07,2014 37:10.5 0 771.52 1.4 104.18 186.8 71.63

03,07,2014 37:10.9 0 771.52 1.4 104.18 186.8 71.63

03,07,2014 37:11.3 0 771.52 1.4 104.18 186.8 71.63

03,07,2014 37:11.7 0 771.52 1.4 104.18 186.8 71.63

03,07,2014 37:12.1 0 771.52 1.4 104.18 186.8 71.63

03,07,2014 37:12.5 0 771.92 1.4 104.28 186.8 71.6

03,07,2014 37:12.9 0 771.52 1.4 104.18 186.8 71.63

03,07,2014 37:13.3 0 771.52 1.4 104.18 186.8 71.61

03,07,2014 37:13.7 0 771.52 1.4 104.18 186.8 71.63

03,07,2014 37:14.1 0 771.52 1.4 104.18 186.8 71.6

03,07,2014 37:14.5 0 771.52 1.4 104.18 186.8 71.63

03,07,2014 37:14.9 0 771.52 1.4 104.18 186.8 71.51

03,07,2014 37:15.3 0 771.52 1.4 104.18 186.8 71.63

03,07,2014 37:15.7 0 771.52 1.4 104.18 186.8 71.5

03,07,2014 37:16.0 0 771.52 1.4 104.18 186.8 71.51

03,07,2014 37:16.4 0 771.52 1.4 104.18 186.8 71.6

03,07,2014 37:16.8 0 771.52 1.4 104.18 186.8 71.5

03,07,2014 37:17.2 0 771.52 1.4 104.18 186.8 71.6

03,07,2014 37:17.6 0 771.52 1.4 104.18 186.8 71.5


03,07,2014 37:18.0 0 771.52 1.4 104.18 186.8 71.5

03,07,2014 37:18.4 0 771.92 1.4 104.28 186.8 71.5

03,07,2014 37:18.8 0 771.52 1.4 104.18 186.8 71.5

03,07,2014 37:19.2 0 771.52 1.4 104.18 186.8 71.5

03,07,2014 37:19.6 0 771.52 1.4 104.18 186.8 71.5

03,07,2014 37:20.0 0 771.52 1.4 104.18 186.8 71.5

03,07,2014 37:20.4 0 771.52 1.4 104.18 186.8 71.5

03,07,2014 37:20.8 0 771.52 1.4 104.18 186.8 71.5

03,07,2014 37:21.2 0 771.52 1.4 104.18 186.8 71.5

03,07,2014 37:21.6 0 771.52 1.4 104.18 186.8 71.5

03,07,2014 37:22.0 0 771.52 1.4 104.18 186.8 71.5

03,07,2014 37:22.4 0 771.52 1.4 104.18 186.8 71.5

03,07,2014 37:22.8 0 771.92 1.4 104.28 186.8 71.5

03,07,2014 37:23.2 0 771.52 1.4 104.18 186.8 71.5

03,07,2014 37:23.6 0 771.52 1.4 104.18 186.8 71.5

03,07,2014 37:23.9 0 771.52 1.4 104.18 186.8 71.5

03,07,2014 37:24.3 0 771.52 1.4 104.18 186.8 71.5

03,07,2014 37:24.3 0 771.52 1.4 104.18 186.8 71.5

03,07,2014 37:24.7 0 771.52 1.4 104.18 186.8 71.5


03,07,2014 37:25.1 0 771.52 1.4 104.18 186.8 71.5

03,07,2014 37:25.5 0 771.52 1.4 104.18 186.8 71.5

03,07,2014 37:25.9 0 771.52 1.4 104.18 186.8 71.5

03,07,2014 37:26.3 0 771.52 1.4 104.18 186.8 71.5

03,07,2014 37:26.7 0 771.52 1.4 104.18 186.8 71.5

03,07,2014 37:27.1 0 771.52 1.4 104.18 186.8 71.5

03,07,2014 37:27.5 0 771.52 1.4 104.18 186.8 71.5

03,07,2014 37:27.9 0 771.52 1.4 104.18 186.8 71.5

03,07,2014 37:28.3 0 771.52 1.4 104.18 186.8 71.5

03,07,2014 37:28.7 0 771.52 1.4 104.18 186.8 71.5

03,07,2014 37:29.1 0 771.92 1.4 104.28 186.8 71.5

03,07,2014 37:29.5 0 771.52 1.4 104.18 186.8 71.5

03,07,2014 37:29.9 0 771.52 1.4 104.18 186.8 71.5

03,07,2014 37:30.3 0 771.52 1.4 104.18 186.8 71.4

03,07,2014 37:30.7 0 771.52 1.4 104.18 186.8 71.41

03,07,2014 37:31.0 0 771.52 1.4 104.18 186.8 71.37

03,07,2014 37:31.4 0 771.92 1.4 104.28 186.8 71.37

03,07,2014 37:31.8 0 771.52 1.4 104.18 186.8 71.47

03,07,2014 37:32.2 0 771.52 1.4 104.18 186.8 71.38


03,07,2014 37:32.6 0 771.52 1.4 104.18 186.8 71.37

03,07,2014 37:33.0 0 771.52 1.4 104.18 186.8 71.37

03,07,2014 37:33.4 0 771.52 1.4 104.18 186.8 71.37

03,07,2014 37:33.8 0 771.52 1.4 104.18 186.8 71.37

03,07,2014 37:34.2 0 771.52 1.4 104.18 186.8 71.37

03,07,2014 37:34.6 0 771.52 1.4 104.18 186.8 71.37

03,07,2014 37:35.0 0 771.52 1.4 104.18 186.8 71.37

03,07,2014 37:35.4 0 771.52 1.4 104.18 186.8 71.37

03,07,2014 37:35.8 0 771.52 1.4 104.18 186.8 71.37

03,07,2014 37:36.2 0 771.52 1.4 104.18 186.8 71.37

03,07,2014 37:36.6 0 771.52 1.4 104.18 186.8 71.37

03,07,2014 37:37.0 0 771.52 1.4 104.18 186.8 71.37

03,07,2014 37:37.4 0 771.52 1.4 104.18 186.8 71.37

03,07,2014 37:37.8 0 771.52 1.4 104.18 186.8 71.37

03,07,2014 37:38.2 0 771.92 1.4 104.28 186.8 71.37

03,07,2014 37:38.6 0 771.52 1.4 104.18 186.8 71.37

03,07,2014 37:39.0 0 771.52 1.4 104.18 186.8 71.37

03,07,2014 37:39.4 0 771.52 1.4 104.18 186.8 71.37

03,07,2014 37:39.8 0 771.52 1.4 104.18 186.8 71.37


03,07,2014 37:40.2 0 771.92 1.4 104.28 186.8 71.37

03,07,2014 37:40.5 0 771.52 1.4 104.18 186.8 71.37

03,07,2014 37:40.9 0 771.52 1.4 104.18 186.8 71.37

03,07,2014 37:41.3 0 771.52 1.4 104.18 186.8 71.37

03,07,2014 37:41.7 0 771.52 1.4 104.18 186.8 71.37

03,07,2014 37:42.1 0 771.52 1.4 104.18 186.8 71.37

03,07,2014 37:42.5 0 771.52 1.4 104.18 186.8 71.37

03,07,2014 37:42.9 0 771.52 1.4 104.18 186.8 71.37

03,07,2014 37:43.3 0 771.52 1.4 104.18 186.8 71.35

03,07,2014 37:43.7 0 771.52 1.4 104.28 186.8 71.37

03,07,2014 37:44.1 0 771.52 1.4 104.18 186.8 71.37

03,07,2014 37:44.5 0 771.52 1.4 104.18 186.8 71.37

03,07,2014 37:44.9 0 771.52 1.4 104.18 186.8 71.37

03,07,2014 37:45.3 0 771.52 1.4 104.28 186.8 71.37

03,07,2014 37:45.7 0 771.52 1.4 104.18 186.8 71.37

03,07,2014 37:46.1 0 771.52 1.4 104.18 186.8 71.28

03,07,2014 37:46.5 0 771.52 1.4 104.18 186.8 71.35

03,07,2014 37:46.9 0 771.92 1.4 104.28 186.8 71.37

03,07,2014 37:47.3 0 771.52 1.4 104.18 186.8 71.28


03,07,2014 37:47.7 0 771.52 1.4 104.18 186.8 71.37

03,07,2014 37:48.1 0 771.92 1.4 104.28 186.8 71.25

03,07,2014 37:48.5 0 771.52 1.4 104.18 186.8 71.26

03,07,2014 37:48.9 0 771.52 1.4 104.18 186.8 71.28

03,07,2014 37:49.3 0 771.52 1.4 104.18 186.8 71.25

03,07,2014 37:49.6 0 771.52 1.4 104.18 186.8 71.25

03,07,2014 37:50.0 0 771.52 1.4 104.18 186.8 71.28

03,07,2014 37:50.4 0 771.52 1.4 104.18 186.8 71.25

03,07,2014 37:50.8 0 771.52 1.4 104.18 186.8 71.25

03,07,2014 37:51.2 0 771.92 1.4 104.28 186.8 71.25

03,07,2014 37:51.6 0 771.52 1.4 104.18 186.8 71.25

03,07,2014 37:52.0 0 771.52 1.4 104.18 186.8 71.25

03,07,2014 37:52.4 0 771.52 1.4 104.18 186.8 71.25

03,07,2014 37:52.8 0 771.52 1.4 104.18 186.8 71.25

03,07,2014 37:53.2 0 771.52 1.4 104.18 186.8 71.25

03,07,2014 37:53.6 0 771.52 1.4 104.18 186.8 71.25

03,07,2014 37:54.0 0 771.52 1.4 104.18 186.8 71.25

03,07,2014 37:54.4 0 771.52 1.4 104.18 186.8 71.25

03,07,2014 37:54.8 0 771.52 1.4 104.18 186.8 71.25


03,07,2014 37:55.2 0 771.52 1.4 104.18 186.8 71.25

03,07,2014 37:55.6 0 771.52 1.4 104.18 186.8 71.25

03,07,2014 37:56.0 0 771.52 1.4 104.18 186.8 71.25

03,07,2014 37:55.4 0 771.52 1.4 104.18 186.8 71.25

03,07,2014 37:56.4 0 771.52 1.4 104.18 186.8 71.25

03,07,2014 37:56.8 0 771.92 1.4 104.28 186.8 71.25

03,07,2014 37:57.2 0 771.92 1.4 104.28 186.8 71.25

03,07,2014 37:57.5 0 771.52 1.4 104.18 186.8 71.25

03,07,2014 37:57.9 0 771.52 1.4 104.18 186.8 71.25

03,07,2014 37:58.3 0 771.52 1.4 104.18 186.8 71.25

03,07,2014 37:58.7 0 771.52 1.4 104.18 186.8 71.25

03,07,2014 37:59.1 0 771.92 1.4 104.28 186.8 71.25

03,07,2014 37:59.5 0 771.92 1.4 104.28 186.8 71.25

03,07,2014 37:59.5 0 771.92 1.4 104.28 186.8 71.25

03,07,2014 38:00.2 0 771.52 1.4 104.18 186.8 71.25

03,07,2014 38:00.6 0 771.52 1.4 104.18 186.8 71.25

03,07,2014 38:01.0 0 771.52 1.4 104.18 186.8 71.25

03,07,2014 38:01.4 0 771.52 1.4 104.18 186.8 71.25

03,07,2014 38:01.8 0 771.52 1.4 104.18 186.8 71.25


03,07,2014 38:02.2 0 771.52 1.4 104.28 186.8 71.25

03,07,2014 38:02.6 0 771.52 1.4 104.18 186.8 71.25

03,07,2014 38:03.0 0 771.52 1.4 104.18 186.16 71.22

03,07,2014 38:03.4 0 771.52 1.4 104.18 186.8 71.25

03,07,2014 38:03.8 0 771.52 1.4 104.18 186.8 71.25

03,07,2014 38:04.2 0 771.52 1.4 104.18 186.8 71.13

03,07,2014 38:04.6 0 771.52 1.4 104.18 186.8 71.15

03,07,2014 38:05.0 0 771.52 1.4 104.18 186.8 71.24

03,07,2014 38:05.3 0 771.52 1.4 104.18 186.8 71.22

03,07,2014 38:05.7 0 771.52 1.4 104.18 186.8 71.13

03,07,2014 38:06.1 0 771.52 1.4 104.18 186.8 71.13

03,07,2014 38:06.5 0 771.52 1.4 104.18 186.8 71.22

03,07,2014 38:06.9 0 771.52 1.4 104.18 186.8 71.12

03,07,2014 38:07.3 0 771.52 1.4 104.18 186.8 71.12

03,07,2014 38:07.7 0 771.52 1.4 104.18 186.8 71.13

03,07,2014 38:08.1 0 771.52 1.4 104.18 186.8 71.12

03,07,2014 38:08.5 0 771.52 1.4 104.18 186.8 71.12

03,07,2014 38:08.9 0 771.52 1.4 104.18 186.8 71.12

03,07,2014 38:09.3 0 771.52 1.4 104.18 186.8 71.12


03,07,2014 38:09.7 0 771.52 1.4 104.18 186.8 71.12

03,07,2014 38:10.1 0 771.52 1.4 104.18 186.16 71.12

03,07,2014 38:10.5 0 771.52 1.4 104.18 186.8 71.12

03,07,2014 38:10.8 0 771.52 1.4 104.18 186.8 71.12

03,07,2014 38:11.2 0 771.52 1.4 104.18 186.16 71.12

03,07,2014 38:11.6 0 771.92 1.4 104.28 186.16 71.12

03,07,2014 38:12.0 0 771.52 1.4 104.18 186.16 71.12

03,07,2014 38:12.4 0 771.52 1.4 104.18 186.8 71.12

03,07,2014 38:12.8 0 771.52 1.4 104.18 186.8 71.12

03,07,2014 38:13.2 0 771.52 1.4 104.18 186.8 71.12

03,07,2014 38:13.6 0 771.52 1.4 104.18 186.8 71.12

03,07,2014 38:14.0 0 771.52 1.4 104.18 186.8 71.12

03,07,2014 38:14.4 0 771.52 1.4 104.18 186.8 71.12

03,07,2014 38:14.8 0 771.52 1.4 104.18 186.8 71.12

03,07,2014 38:15.2 0 771.52 1.4 104.18 186.8 71.12

03,07,2014 38:15.6 0 771.52 1.4 104.18 186.8 71.12

03,07,2014 38:16.0 0 771.52 1.4 104.18 186.16 71.12

03,07,2014 38:16.4 0 771.52 1.4 104.18 186.16 71.12

03,07,2014 38:16.8 0 771.52 1.4 104.18 186.16 71.12


03,07,2014 38:17.2 0 771.52 1.4 104.18 186.8 71.12

03,07,2014 38:17.6 0 771.52 1.4 104.18 186.16 71.12

03,07,2014 38:18.0 0 771.52 1.4 104.18 186.16 71.12

03,07,2014 38:18.4 0 771.52 1.4 104.18 186.16 71.12

03,07,2014 38:18.8 0 771.52 1.4 104.18 186.16 71.12

03,07,2014 38:19.2 0 771.52 1.4 104.18 186.16 71.11

03,07,2014 38:19.6 0 771.92 1.4 104.28 186.8 71.11

03,07,2014 38:20.0 0 771.52 1.4 104.18 186.16 71.12

03,07,2014 38:20.4 0 771.92 1.4 104.18 186.16 71.12

03,07,2014 38:20.7 0 771.52 1.4 104.18 186.16 71.12

03,07,2014 38:21.1 0 771.52 1.4 104.18 186.16 71.09

03,07,2014 38:21.5 0 771.52 1.4 104.18 186.16 71.12

03,07,2014 38:21.9 0 771.52 1.4 104.18 186.16 71

03,07,2014 38:22.3 0 771.52 1.4 104.18 186.16 71.02

03,07,2014 38:22.7 0 771.52 1.4 104.18 186.16 71.12

03,07,2014 38:23.1 0 771.52 1.4 104.18 186.16 71

03,07,2014 38:23.5 0 771.52 1.4 104.18 186.16 71.02

03,07,2014 38:23.9 0 771.52 1.4 104.18 186.16 70.99

03,07,2014 38:24.3 0 771.52 1.4 104.18 186.16 70.99


03,07,2014 38:24.7 0 771.52 1.4 104.18 186.16 70.99

03,07,2014 38:25.1 0 771.52 1.4 104.18 186.16 70.99

03,07,2014 38:25.5 0 771.52 1.4 104.18 186.16 70.99

03,07,2014 38:25.9 0 771.52 1.4 104.18 186.16 70.99

03,07,2014 38:26.3 0 771.52 1.4 104.18 186.16 71.02

03,07,2014 38:26.7 0 771.52 1.4 104.18 186.16 70.99

03,07,2014 38:27.1 0 771.52 1.4 104.18 186.16 70.99

03,07,2014 38:27.5 0 771.52 1.4 104.18 186.16 70.99

03,07,2014 38:27.9 0 771.52 1.4 104.18 186.16 70.99

03,07,2014 38:28.3 0 771.52 1.4 104.18 186.16 70.99

03,07,2014 38:28.7 0 771.52 1.4 104.18 186.16 70.99

03,07,2014 38:28.7 0 771.52 1.4 104.18 186.16 70.99

03,07,2014 38:29.0 0 771.52 1.4 104.18 186.16 70.99

03,07,2014 38:29.4 0 771.52 1.4 104.18 186.8 70.99

03,07,2014 38:29.8 0 771.52 1.4 104.18 186.16 70.99

03,07,2014 38:30.2 0 771.52 1.4 104.18 186.16 70.99

03,07,2014 38:30.6 0 771.52 1.4 104.18 186.16 70.99

03,07,2014 38:31.0 0 771.52 1.4 104.18 186.16 70.99

03,07,2014 38:31.4 0 771.52 1.4 104.18 186.16 70.99


03,07,2014 38:31.8 0 771.92 1.4 104.28 186.16 70.99

03,07,2014 38:32.2 0 771.52 1.4 104.18 186.16 70.99

03,07,2014 38:32.6 0 771.52 1.4 104.18 186.16 70.99

03,07,2014 38:33.0 0 771.52 1.4 104.18 186.16 70.99

03,07,2014 38:33.4 0 771.52 1.4 104.18 186.16 70.99

03,07,2014 38:33.8 0 771.52 1.4 104.18 186.16 70.99

03,07,2014 38:34.2 0 771.52 1.4 104.18 186.16 70.99

03,07,2014 38:34.6 0 771.52 1.4 104.18 186.16 70.89

03,07,2014 38:35.0 0 771.52 1.4 104.18 186.16 70.99

03,07,2014 38:35.3 0 771.52 1.4 104.18 186.16 70.99

03,07,2014 38:35.7 0 771.52 1.4 104.18 186.16 70.96

03,07,2014 38:36.1 0 771.52 1.4 104.18 186.16 70.96

03,07,2014 38:36.5 0 771.52 1.4 104.28 186.16 70.98

03,07,2014 38:36.9 0 771.52 1.4 104.18 186.16 70.95

03,07,2014 38:37.3 0 771.52 1.4 104.18 186.16 70.98

03,07,2014 38:37.7 0 771.52 1.4 104.18 186.16 70.89

03,07,2014 38:38.1 0 771.52 1.4 104.18 186.16 70.87

03,07,2014 38:38.5 0 771.52 1.4 104.18 186.16 70.86

03,07,2014 38:38.9 0 771.52 1.4 104.18 186.16 70.86


03,07,2014 38:39.3 0 771.52 1.4 104.18 186.16 70.95

03,07,2014 38:39.7 0 771.52 1.4 104.18 186.16 70.86

03,07,2014 38:40.1 0 771.52 1.4 104.18 186.16 70.86

03,07,2014 38:40.5 0 771.52 1.4 104.18 186.16 70.86

03,07,2014 38:40.9 0 771.52 1.4 104.18 186.16 70.86

03,07,2014 38:41.3 0 771.52 1.4 104.18 186.16 70.95

03,07,2014 38:41.7 0 771.52 1.4 104.18 186.16 70.86

03,07,2014 38:42.1 0 771.52 1.4 104.18 186.16 70.86

03,07,2014 38:42.5 0 771.52 1.4 104.18 186.16 70.86

03,07,2014 38:42.8 0 771.52 1.4 104.18 186.16 70.86

03,07,2014 38:43.2 0 771.52 1.4 104.18 186.16 70.86

03,07,2014 38:43.6 0 771.52 1.4 104.18 186.16 70.86

03,07,2014 38:44.0 0 771.52 1.4 104.18 186.16 70.86

03,07,2014 38:44.4 0 771.52 1.4 104.18 186.16 70.86

03,07,2014 38:44.8 0 771.52 1.4 104.18 186.16 70.86

03,07,2014 38:45.2 0 771.52 1.4 104.18 186.16 70.86

03,07,2014 38:45.6 0 771.52 1.4 104.18 186.16 70.86

03,07,2014 38:46.0 0 771.52 1.4 104.18 186.16 70.86

03,07,2014 38:46.4 0 771.52 1.4 104.18 186.16 70.86


03,07,2014 38:46.4 0 771.52 1.4 104.18 186.16 70.86

03,07,2014 38:46.8 0 771.52 1.4 104.18 186.16 70.86

03,07,2014 38:47.2 0 771.52 1.4 104.18 186.16 70.86

03,07,2014 38:47.6 0 771.52 1.4 104.18 186.16 70.86

03,07,2014 38:47.9 0 771.52 1.4 104.18 186.16 70.86

03,07,2014 38:48.3 0 771.52 1.4 104.18 186.16 70.86

03,07,2014 38:48.7 0 771.52 1.4 104.18 186.16 70.86

03,07,2014 38:49.1 0 771.52 1.4 104.18 186.16 70.85

03,07,2014 38:49.5 0 771.52 1.4 104.18 186.16 70.86


COM1\dvc1 COM1\dvc1 COM1\dvc1 COM1\dvc1 COM1\dvc1 COM1\dvc1 COM1\dvc1 COM1\dvc1
Coolant Temp Coolant Level (Absolute) Manifold Temp Water Temp Blowby Flow Battery (absolute)
(degC) Switch (mmHg) (degC) (degC) (CFM) Voltage (Volts) (kPa)

Normal
71.5 Coolant Level 752.08 62.11 39.62 0 25,578 102.67

Normal
71.5 Coolant Level 752.08 62.11 39.52 0 25,578 102.67

Normal
71.4 Coolant Level 752.08 62.01 39.31 0 25,547 102.67

Normal
71.37 Coolant Level 752.08 62.01 39.1 0 25,578 102.67

Normal
71.37 Coolant Level 752.08 62.01 39.1 0 25,547 102.67

Normal
71.28 Coolant Level 752.08 61.9 38.86 0 25,547 102.67

Normal
71.25 Coolant Level 752.08 61.9 38.89 0 25,547 102.67

Normal
71.25 Coolant Level 752.08 61.9 38.71 0 25,516 102.67

Normal
71.25 Coolant Level 752.08 61.79 38.58 0 25,516 102.67

Normal
71.22 Coolant Level 752.08 61.79 38.37 0 25,516 102.67

Normal
71.22 Coolant Level 752.08 61.68 38.26 0 25,516 102.67

Normal
71.12 Coolant Level 752.08 61.68 38.06 0 25,516 102.67

Normal
71 Coolant Level 752.08 61.58 38.03 0 25,516 102.67

Normal
71 Coolant Level 743.35 61.15 37.42 01,01,1952 24,547 182.71

Normal
71.76 Coolant Level 868.36 56.18 40.82 0.94 25,281 178.08

Normal
71.63 Coolant Level 879.08 52.26 44.14 0.35 25,578 174.63

Normal
72.27 Coolant Level 877.09 50.1 42.76 0.35 25,813 177.97

Normal
73.03 Coolant Level 866.38 47.97 40.76 0.59 26,094 176.35
Normal
73.8 Coolant Level 872.33 46.15 39.54 0.23 26,391 178.62

Normal
74.4 Coolant Level 876.3 44.84 38.89 0.47 26,750 179.91

Normal
74.95 Coolant Level 877.09 43.64 38.26 0.35 26,969 180.34

Normal
75.46 Coolant Level 877.09 42.73 37.93 0.59 27,172 176.25

Normal
75.97 Coolant Level 886.62 42.12 38.06 0.59 27,281 174.09

Normal
76.47 Coolant Level 872.73 41.7 38.89 0.47 27,391 175.06

Normal
76.86 Coolant Level 872.73 41.7 39.62 0.59 27,438 175.06

Normal
77.25 Coolant Level 888.21 42.01 40.35 0.59 27,469 174.85

Normal
77.65 Coolant Level 887.81 42.43 40.97 0.35 27,547 174.74

Normal
78.1 Coolant Level 882.65 42.73 41.6 0.47 27,547 288.83

Normal
78.54 Coolant Level 1139.43 43.23 42.3 01,01,1952 27,547 308.65

Normal
79.14 Coolant Level 1284.29 43.74 43.25 2 27,547 393

Normal
79.84 Coolant Level 1279.52 44.44 44.44 01,01,1988 27,594 406.79

Normal
80.48 Coolant Level 948.53 45.25 45.65 0.35 27,594 187.34

Normal
81.08 Coolant Level 1335.88 46.26 46.53 02,12,2014 27,594 390.41

Normal
81.55 Coolant Level 1657.35 47.16 47.77 01,03,1935 27,594 619.13

Normal
81.97 Coolant Level 1979.61 48.46 49.77 04,04,2014 27,594 765.42

Normal
82.3 Coolant Level 2066.53 49.8 48.68 01,03,1963 27,594 749.16

Normal
82.41 Coolant Level 2118.52 49.59 45.25 01,03,1972 27,625 748.62
Normal
82.22 Coolant Level 2251.07 48.67 43.23 04,09,2014 27,625 851.18

Normal
81.82 Coolant Level 2311.4 48.17 43.44 01,03,1991 27,594 847.95

Normal
81.67 Coolant Level 2285.6 48.27 43.96 01,03,1999 27,594 855.92

Normal
81.52 Coolant Level 2295.52 48.78 44.24 01,03,1972 27,625 859.15

Normal
81.67 Coolant Level 2321.72 48.98 43.94 01,03,1977 27,625 849.56

Normal
81.82 Coolant Level 2336 49.18 43.45 01,03,1981 27,625 847.51

Normal
81.98 Coolant Level 2334.81 49.18 43.13 01,03,1963 27,625 857.21

Normal
82.22 Coolant Level 2337.2 49.08 42.95 01,03,1999 27,625 853.01

Normal
82.37 Coolant Level 2388.39 49.08 42.93 01,03,1986 27,625 857.64

Normal
82.41 Coolant Level 2393.15 49.18 43.04 01,03,1967 27,625 858.5

Normal
82.41 Coolant Level 2393.15 49.39 43.13 01,03,1986 27,625 855.16

Normal
82.27 Coolant Level 2397.92 49.5 43.2 01,03,1986 27,625 854.63

Normal
82.15 Coolant Level 2381.25 49.59 43.15 01,03,1981 27,625 861.2

Normal
82.15 Coolant Level 2403.08 49.7 43.16 04,04,2014 27,625 848.59

Normal
82.26 Coolant Level 2364.18 49.8 43.23 01,03,1981 27,625 847.19

Normal
82.27 Coolant Level 2359.82 49.9 43.25 01,03,1991 27,625 846.01

Normal
82.41 Coolant Level 2368.95 50.01 43.33 01,03,1986 27,625 854.3

Normal
82.41 Coolant Level 2368.95 50.1 43.25 01,03,1972 27,625 859.37

Normal
82.56 Coolant Level 2377.68 50.1 43.23 01,03,1999 27,625 851.18
Normal
82.41 Coolant Level 2423.71 50.21 43.23 01,03,1986 27,625 850.96

Normal
82.4 Coolant Level 2370.53 50.31 43.23 01,03,1981 27,625 863.03

Normal
82.27 Coolant Level 2411.01 50.31 43.23 01,03,1995 27,625 855.7

Normal
82.26 Coolant Level 2411.01 50.31 43.23 01,03,1981 27,625 847.51

Normal
82.27 Coolant Level 2375.69 50.42 43.23 01,03,1977 27,625 849.67

Normal
82.27 Coolant Level 2375.69 50.42 43.33 01,03,1991 27,625 860.77

Normal
82.41 Coolant Level 2375.69 50.52 43.33 01,03,1972 27,625 854.52

Normal
82.45 Coolant Level 2379.66 50.52 43.16 01,04,2013 27,625 852.47

Normal
82.56 Coolant Level 2379.66 50.52 43.13 01,03,1972 27,672 852.26

Normal
82.56 Coolant Level 2384.42 50.62 43.13 01,03,1995 27,625 845.14

Normal
82.56 Coolant Level 2436.41 50.62 43.13 01,03,1991 27,625 850.85

Normal
82.56 Coolant Level 2432.45 50.62 43.13 01,03,1977 27,625 858.72

Normal
82.56 Coolant Level 2436.41 50.62 43.13 01,03,1986 27,625 853.12

Normal
82.53 Coolant Level 2432.45 50.62 43.13 01,03,1991 27,672 845.9

Normal
82.53 Coolant Level 2399.11 50.72 43.13 01,03,1991 27,625 854.63

Normal
82.55 Coolant Level 2430.86 50.72 43.13 01,03,1986 27,625 854.73

Normal
82.56 Coolant Level 2419.35 50.82 43.13 01,03,1981 27,625 844.71

Normal
82.71 Coolant Level 2386.8 50.82 43.13 01,03,1977 27,625 853.12

Normal
82.71 Coolant Level 2410.22 50.82 43.13 01,03,1986 27,625 867.01
Normal
82.71 Coolant Level 2403.47 50.82 43.13 01,03,1995 27,672 860.55

Normal
82.56 Coolant Level 2443.56 50.93 43.13 01,03,1991 27,625 853.44

Normal
82.56 Coolant Level 2415.38 50.93 43.12 01,03,1995 27,625 847.95

Normal
82.56 Coolant Level 2425.3 51.03 43.03 01,03,1977 27,625 859.26

Normal
82.56 Coolant Level 2381.25 50.93 42.96 01,03,1991 27,625 850.1

Normal
82.56 Coolant Level 2380.45 50.93 42.93 01,03,1999 27,625 853.44

Normal
82.56 Coolant Level 2430.46 50.93 43 01,03,1986 27,625 848.7

Normal
82.71 Coolant Level 2385.22 51.03 42.96 01,03,1999 27,625 849.45

Normal
82.71 Coolant Level 2389.98 50.93 43.03 01,03,1986 27,625 857.64

Normal
82.71 Coolant Level 2389.98 51.03 43.03 01,03,1981 27,625 855.49

Normal
82.74 Coolant Level 2441.57 51.13 43 01,03,1991 27,672 851.29

Normal
82.71 Coolant Level 2405.46 51.03 42.93 01,03,1981 27,625 843.64

Normal
82.71 Coolant Level 2400.3 51.13 42.95 01,03,1995 27,625 855.81

Normal
82.56 Coolant Level 2405.06 51.13 43 01,03,1991 27,672 852.47

Normal
82.56 Coolant Level 2409.03 51.23 43 01,03,1981 27,625 852.9

Normal
82.56 Coolant Level 2399.5 51.23 43 01,03,1986 27,625 847.73

Normal
82.7 Coolant Level 2404.27 51.23 42.93 01,03,1999 27,672 849.24

Normal
82.56 Coolant Level 2428.08 51.23 42.93 01,03,1986 27,672 844.71

Normal
82.71 Coolant Level 2391.57 51.23 42.94 04,04,2014 27,625 859.47
Normal
82.71 Coolant Level 2419.35 51.34 42.93 01,03,1986 27,625 849.67

Normal
82.71 Coolant Level 2440.78 51.24 42.93 01,03,1995 27,625 847.19

Normal
82.74 Coolant Level 2408.24 51.34 42.93 01,03,1999 27,672 855.92

Normal
82.86 Coolant Level 2447.92 51.34 42.93 01,03,1986 27,625 846.44

Normal
82.86 Coolant Level 2393.95 51.34 42.93 04,04,2014 27,625 861.2

Normal
82.83 Coolant Level 2440.78 51.34 42.93 01,03,1991 27,672 851.72

Normal
82.71 Coolant Level 2394.74 51.44 42.93 01,03,1972 27,625 844.39

Normal
82.71 Coolant Level 2445.94 51.44 42.93 01,03,1986 27,625 851.18

Normal
82.71 Coolant Level 2445.94 51.44 42.93 01,03,1981 27,625 850.21

Normal
82.71 Coolant Level 2400.7 51.44 42.93 01,03,1981 27,672 843.74

Normal
82.71 Coolant Level 2405.06 51.44 43 01,03,1999 27,672 849.35

Normal
82.71 Coolant Level 2399.5 51.55 43.03 01,03,1981 27,625 853.01

Normal
82.71 Coolant Level 2399.11 51.55 42.93 01,03,1999 27,672 850.53

Normal
82.72 Coolant Level 2419.75 51.55 42.93 01,03,1991 27,625 847.62

Normal
82.83 Coolant Level 2427.68 51.55 42.93 01,03,1977 27,625 850.53

Normal
82.86 Coolant Level 2391.57 51.64 43 04,09,2014 27,625 847.19

Normal
82.86 Coolant Level 2395.54 51.64 42.93 01,03,1967 27,625 848.81

Normal
82.86 Coolant Level 2391.57 51.64 42.83 01,03,1999 27,672 855.92

Normal
82.86 Coolant Level 2440.78 51.55 42.83 01,03,1995 27,625 850.64
Normal
82.86 Coolant Level 2435.22 51.64 42.93 01,03,1977 27,672 848.48

Normal
82.86 Coolant Level 2439.99 51.64 43 01,03,1991 27,625 849.56

Normal
82.86 Coolant Level 2444.75 51.64 43 01,03,1995 27,625 845.9

Normal
82.71 Coolant Level 2402.28 51.74 42.96 01,03,1981 27,625 849.24

Normal
82.74 Coolant Level 2413.4 51.64 42.93 01,03,1986 27,672 851.5

Normal
82.72 Coolant Level 2452.29 51.74 42.93 01,03,1991 27,625 848.81

Normal
82.86 Coolant Level 2398.71 51.74 42.91 01,03,1999 27,672 851.82

Normal
82.86 Coolant Level 2433.64 51.64 42.93 01,03,1986 27,672 854.19

Normal
82.86 Coolant Level 2389.98 51.74 42.93 01,03,1995 27,625 849.56

Normal
82.86 Coolant Level 2411.81 51.85 42.92 01,03,1991 27,672 850.21

Normal
82.86 Coolant Level 2441.18 51.74 42.92 01,04,2013 27,672 850.96

Normal
82.86 Coolant Level 2445.94 51.74 42.86 01,03,1986 27,625 853.44

Normal
82.86 Coolant Level 2445.94 51.85 42.86 01,03,1999 27,672 844.71

Normal
82.86 Coolant Level 2399.5 51.74 42.83 01,03,1981 27,672 846.98

Normal
82.86 Coolant Level 2400.3 51.85 42.93 01,03,1981 27,672 849.24

Normal
82.86 Coolant Level 2405.06 51.85 42.93 01,03,1991 27,625 850.64

Normal
82.86 Coolant Level 2449.11 51.85 42.93 01,03,1991 27,672 856.46

Normal
82.86 Coolant Level 2427.68 51.95 42.93 04,04,2014 27,625 850.21

Normal
82.86 Coolant Level 2423.32 51.95 43 01,04,2013 27,672 857.64
Normal
82.86 Coolant Level 2427.29 51.85 42.93 01,03,1977 27,625 852.47

Normal
82.86 Coolant Level 2439.99 51.85 42.93 04,04,2014 27,625 845.14

Normal
82.86 Coolant Level 2436.02 51.85 42.93 01,03,1986 27,672 851.72

Normal
82.86 Coolant Level 2450.7 51.95 42.83 01,03,1995 27,672 850.42

Normal
82.86 Coolant Level 2416.97 51.95 42.83 01,03,1986 27,672 846.44

Normal
82.86 Coolant Level 2394.74 51.95 42.83 01,03,1972 27,672 851.93

Normal
82.86 Coolant Level 2442.37 51.85 42.83 01,03,1986 27,625 846.44

Normal
82.86 Coolant Level 2390.38 51.95 42.83 01,03,1995 27,672 850.42

Normal
82.86 Coolant Level 2395.93 51.95 42.83 01,03,1999 27,672 849.67

Normal
82.86 Coolant Level 2391.17 51.95 42.86 01,03,1999 27,672 853.12

Normal
82.86 Coolant Level 2395.14 51.95 42.83 01,03,1999 27,672 856.89

Normal
82.86 Coolant Level 2416.57 51.95 42.83 01,03,1986 27,672 850.1

Normal
82.86 Coolant Level 2449.91 51.95 42.81 01,03,1995 27,625 854.19

Normal
82.86 Coolant Level 2409.03 51.85 42.86 01,04,2013 27,672 847.84

Normal
82.86 Coolant Level 2406.25 51.95 42.93 01,03,1991 27,672 857.64

Normal
82.86 Coolant Level 2400.3 51.95 42.93 01,03,1991 27,672 847.51

Normal
82.86 Coolant Level 2400.3 52.05 42.96 01,03,1991 27,672 848.48

Normal
82.86 Coolant Level 2405.06 52.05 43.03 01,03,1991 27,672 845.9

Normal
82.86 Coolant Level 2392.76 52.15 43.03 01,04,2013 27,672 852.47
Normal
82.86 Coolant Level 2426.49 52.16 42.96 01,03,1999 27,625 849.99

Normal
82.86 Coolant Level 2440.78 52.15 42.93 01,03,1991 27,672 847.51

Normal
82.86 Coolant Level 2436.02 52.15 42.93 01,03,1986 27,625 844.93

Normal
82.86 Coolant Level 2408.24 52.15 42.83 01,03,1981 27,672 859.69

Normal
82.86 Coolant Level 2413 52.05 42.93 01,03,1991 27,672 854.63

Normal
82.86 Coolant Level 2399.11 52.05 42.93 01,03,1981 27,672 846.65

Normal
82.86 Coolant Level 2430.86 52.05 43 01,03,1981 27,625 848.81

Normal
82.86 Coolant Level 2420.54 52.05 42.93 01,03,1986 27,625 851.72

Normal
82.86 Coolant Level 2441.18 52.15 42.92 01,03,1995 27,625 854.52

Normal
82.86 Coolant Level 2441.18 52.05 42.93 01,03,1972 27,672 846.98

Normal
82.86 Coolant Level 2445.54 52.15 42.95 01,04,2018 27,672 860.87

Normal
82.86 Coolant Level 2445.94 52.15 43.03 01,03,1981 27,625 853.12

Normal
82.86 Coolant Level 2404.27 52.15 42.93 01,03,1986 27,672 855.49

Normal
82.86 Coolant Level 2404.27 52.15 42.86 01,04,2013 27,672 846.65

Normal
82.86 Coolant Level 2409.03 52.15 42.93 01,03,1995 27,625 850.42

Normal
82.86 Coolant Level 2405.06 52.26 43.03 01,04,2013 27,672 851.72

Normal
82.86 Coolant Level 2448.72 52.26 42.93 04,09,2014 27,672 854.3

Normal
82.86 Coolant Level 2459.04 52.26 42.93 04,04,2014 27,672 872.4

Normal
82.86 Coolant Level 2427.68 52.36 42.95 01,04,2013 27,672 880.8
Normal
82.86 Coolant Level 2477.29 52.36 42.93 01,03,1999 27,625 875.96

Normal
82.87 Coolant Level 2482.05 52.26 42.86 04,04,2014 27,625 879.19

Normal
83 Coolant Level 2437.21 52.36 42.93 01,04,2018 27,672 887.81

Normal
82.87 Coolant Level 2459.83 52.36 42.93 01,04,2013 27,625 881.77

Normal
83.01 Coolant Level 2493.17 52.36 42.93 01,03,1999 27,672 870.78

Normal
83.01 Coolant Level 2447.13 52.47 42.91 01,04,1937 27,625 878.97

Normal
82.98 Coolant Level 2492.77 52.47 42.83 04,09,2014 27,625 871.11

Normal
82.86 Coolant Level 2474.91 52.36 42.86 04,09,2014 27,672 868.74

Normal
82.86 Coolant Level 2471.34 52.47 42.83 04,04,2014 27,672 881.13

Normal
82.86 Coolant Level 2470.94 52.47 42.83 04,04,2014 27,672 885.22

Normal
82.86 Coolant Level 2466.58 52.47 42.83 01,04,2018 27,625 885.33

Normal
82.86 Coolant Level 2467.37 52.47 42.83 04,04,2014 27,672 871.86

Normal
82.86 Coolant Level 2488.01 52.47 42.92 04,04,2014 27,672 874.02

Normal
82.86 Coolant Level 2445.54 52.36 42.83 01,04,2018 27,672 880.37

Normal
82.86 Coolant Level 2499.91 52.47 42.83 04,09,2014 27,672 882.1

Normal
83.01 Coolant Level 2472.13 52.56 42.83 01,04,2013 27,625 862.92

Normal
83.01 Coolant Level 2467.77 52.56 42.93 01,04,2013 27,672 869.82

Normal
83.01 Coolant Level 2472.13 52.56 42.93 04,04,2014 27,625 886.41

Normal
83.01 Coolant Level 2476.5 52.56 42.91 04,04,2014 27,672 879.19
Normal
83.01 Coolant Level 2486.02 52.56 42.82 01,04,2013 27,672 873.48

Normal
83.01 Coolant Level 2483.25 52.56 42.73 04,09,2014 27,625 872.94

Normal
83.01 Coolant Level 2483.25 52.47 42.73 04,09,2014 27,672 879.62

Normal
83 Coolant Level 2481.66 52.47 42.83 01,03,1995 27,672 876.06

Normal
82.91 Coolant Level 2483.25 52.47 42.83 01,03,1999 27,625 875.96

Normal
83.01 Coolant Level 2458.64 52.47 42.83 01,03,1991 27,625 884.04

Normal
83.01 Coolant Level 2452.29 52.47 42.83 01,03,1995 27,625 871.22

Normal
83 Coolant Level 2447.92 52.56 42.83 01,03,1995 27,672 874.45

Normal
82.98 Coolant Level 2478.88 52.56 42.83 04,09,2014 27,625 866.8

Normal
83.01 Coolant Level 2475.31 52.47 42.83 01,03,1999 27,672 874.34

Normal
83.01 Coolant Level 2470.55 52.47 42.83 04,04,2014 27,625 886.3

Normal
83.01 Coolant Level 2488.01 52.47 42.82 01,03,1995 27,672 878.11

Normal
83.01 Coolant Level 2488.01 52.47 42.83 04,04,2014 27,672 869.38

Normal
83.01 Coolant Level 2488.01 52.56 42.81 04,04,2014 27,625 873.05

Normal
82.87 Coolant Level 2492.37 52.56 42.83 04,04,2014 27,625 869.49

Normal
83.01 Coolant Level 2451.5 52.56 42.86 01,03,1981 27,672 878.97

Normal
83.01 Coolant Level 2499.52 52.56 42.91 01,04,2023 27,672 875.2

Normal
82.91 Coolant Level 2499.52 52.56 42.81 01,03,1999 27,625 879.19

Normal
83 Coolant Level 2494.75 52.56 42.73 01,04,2018 27,672 868.09
Normal
83.01 Coolant Level 2467.77 52.47 42.74 01,03,1986 27,672 873.69

Normal
82.9 Coolant Level 2486.02 52.56 42.83 01,03,1995 27,625 884.68

Normal
82.91 Coolant Level 2445.94 52.56 42.83 01,04,2023 27,625 878.11

Normal
82.91 Coolant Level 2490.39 52.66 42.83 01,03,1977 27,672 874.56

Normal
83.01 Coolant Level 2481.26 52.66 42.83 01,03,1999 27,625 872.51

Normal
83.01 Coolant Level 2482.05 52.56 42.8 04,04,2014 27,672 873.59

Normal
83.01 Coolant Level 2481.26 52.56 42.73 04,04,2014 27,672 877.03

Normal
83.01 Coolant Level 2458.64 52.56 42.73 01,04,2013 27,672 874.12

Normal
83.01 Coolant Level 2488.8 52.47 42.73 01,03,1999 27,672 868.52

Normal
83.01 Coolant Level 2452.29 52.56 42.75 01,03,1999 27,672 881.56

Normal
83.01 Coolant Level 2497.53 52.56 42.83 04,09,2014 27,672 874.56

Normal
83.01 Coolant Level 2470.94 52.56 42.81 04,09,2014 27,625 870.46

Normal
83.01 Coolant Level 2476.1 52.56 42.73 04,04,2014 27,625 873.05

Normal
83.01 Coolant Level 2443.56 52.56 42.73 04,04,2014 27,672 873.8

Normal
83.01 Coolant Level 2439.59 52.66 42.73 01,03,1995 27,672 877.14

Normal
83.01 Coolant Level 2438.8 52.56 42.73 01,03,1999 27,672 883.93

Normal
83.01 Coolant Level 2488.01 52.56 42.73 01,04,2027 27,625 873.05

Normal
83.01 Coolant Level 2487.61 52.47 42.73 01,03,1991 27,625 869.71

Normal
83 Coolant Level 2488.01 52.56 42.82 01,04,2027 27,672 862.17
Normal
83.01 Coolant Level 2441.18 52.66 42.83 01,03,1999 27,625 878.33

Normal
83 Coolant Level 2445.54 52.66 42.74 01,03,1991 27,625 875.52

Normal
83.01 Coolant Level 2445.54 52.66 42.82 01,04,2027 27,672 878.54

Normal
83.01 Coolant Level 2489.99 52.66 42.83 04,09,2014 27,625 880.05

Normal
82.98 Coolant Level 2454.67 52.56 42.83 04,09,2014 27,625 885.65

Normal
83 Coolant Level 2481.26 52.66 42.73 01,03,1999 27,672 876.93

Normal
83.01 Coolant Level 2476.5 52.66 42.71 01,03,1991 27,625 877.46

Normal
83.01 Coolant Level 2474.51 52.56 42.73 04,09,2014 27,672 874.23

Normal
83.01 Coolant Level 2433.24 52.56 42.73 04,09,2014 27,672 878.54

Normal
83.01 Coolant Level 2484.04 52.47 42.73 01,03,1981 27,625 884.36

Normal
83 Coolant Level 2447.92 52.47 42.73 01,04,2018 27,625 867.66

Normal
83.01 Coolant Level 2446.73 52.47 42.83 04,04,2014 27,625 882.42

Normal
83.01 Coolant Level 2495.55 52.56 42.83 01,03,1999 27,625 885.65

Normal
83.01 Coolant Level 2491.58 52.66 42.73 01,04,2018 27,625 872.62

Normal
82.98 Coolant Level 2471.34 52.56 42.72 01,03,1995 27,672 867.77

Normal
83.01 Coolant Level 2466.58 52.47 42.63 01,04,2018 27,625 873.59

Normal
83.01 Coolant Level 2477.69 52.56 42.63 01,03,1995 27,672 886.19

Normal
83.01 Coolant Level 2488.01 52.56 42.63 01,03,1981 27,672 882.31

Normal
83.01 Coolant Level 2488.01 52.56 42.63 04,09,2014 27,672 875.96
Normal
82.98 Coolant Level 2440.78 52.56 42.63 01,04,2023 27,672 882.53

Normal
83.01 Coolant Level 2451.5 52.56 42.63 04,09,2014 27,625 867.98

Normal
83.01 Coolant Level 2455.46 52.47 42.63 01,03,1991 27,672 877.36

Normal
83.01 Coolant Level 2442.37 52.56 42.66 01,03,1991 27,672 878.54

Normal
83.01 Coolant Level 2446.34 52.66 42.63 01,04,2013 27,625 879.83

Normal
83.01 Coolant Level 2489.99 52.47 42.63 04,09,2014 27,625 873.69

Normal
83.01 Coolant Level 2489.99 52.47 42.63 01,03,1995 27,672 880.16

Normal
82.97 Coolant Level 2485.63 52.56 42.73 01,03,1995 27,625 882.1

Normal
83.01 Coolant Level 2442.76 52.47 42.73 04,04,2014 27,625 881.02

Normal
82.98 Coolant Level 2462.61 52.56 42.73 01,03,1981 27,672 880.26

Normal
83.01 Coolant Level 2447.92 52.56 42.73 01,04,2018 27,672 874.12

Normal
83.01 Coolant Level 2452.29 52.56 42.63 01,03,1981 27,672 876.17

Normal
83.01 Coolant Level 2501.1 52.56 42.53 01,03,1999 27,672 875.52

Normal
83.01 Coolant Level 2436.41 52.56 42.63 01,03,1999 27,672 877.46

Normal
83.01 Coolant Level 2439.19 52.47 42.63 01,03,1986 27,672 880.7

Normal
83.01 Coolant Level 2439.59 52.47 42.63 04,09,2014 27,672 880.05

Normal
83.01 Coolant Level 2439.19 52.47 42.62 01,03,1986 27,625 867.45

Normal
83.01 Coolant Level 2434.83 52.47 42.63 01,03,1995 27,672 876.39

Normal
83.01 Coolant Level 2434.83 52.56 42.65 01,03,1999 27,672 873.05
Normal
82.98 Coolant Level 2469.75 52.56 42.73 01,03,1981 27,672 879.83

Normal
83.01 Coolant Level 2478.88 52.56 42.73 01,03,1981 27,672 870.25

Normal
83.01 Coolant Level 2436.81 52.66 42.73 01,03,1995 27,672 880.37

Normal
83.01 Coolant Level 2450.3 52.66 42.73 01,03,1986 27,672 877.46

Normal
82.91 Coolant Level 2451.1 52.56 42.75 01,03,1995 27,672 874.77

Normal
83.01 Coolant Level 2455.46 52.66 42.73 01,03,1972 27,625 877.03

Normal
83.01 Coolant Level 2455.86 52.66 42.73 01,03,1995 27,672 875.74

Normal
83.01 Coolant Level 2442.37 52.66 42.73 01,03,1999 27,672 872.19

Normal
83.01 Coolant Level 2485.23 52.66 42.83 01,03,1991 27,672 884.04

Normal
83.01 Coolant Level 2485.63 52.66 42.83 01,03,1986 27,672 883.93

Normal
83.01 Coolant Level 2485.23 52.77 42.83 01,03,1991 27,672 872.19

Normal
83.01 Coolant Level 2481.26 52.66 42.83 01,03,1999 27,672 870.57

Normal
83.01 Coolant Level 2437.6 52.77 42.73 04,09,2014 27,672 880.48

Normal
83.01 Coolant Level 2462.61 52.66 42.82 04,04,2014 27,625 881.02

Normal
83.01 Coolant Level 2488.8 52.66 42.73 01,03,1991 27,672 878.22

Normal
83.01 Coolant Level 2448.72 52.56 42.66 04,09,2014 27,672 873.26

Normal
83.01 Coolant Level 2496.34 52.66 42.73 01,03,1995 27,672 876.06

Normal
83.01 Coolant Level 2495.55 52.66 42.8 01,03,1995 27,625 880.91

Normal
83.01 Coolant Level 2466.58 52.66 42.73 01,04,2013 27,672 864.86
Normal
83.01 Coolant Level 2471.34 52.66 42.86 01,03,1991 27,672 870.46

Normal
83.01 Coolant Level 2436.02 52.77 42.93 04,09,2014 27,625 872.72

Normal
83.01 Coolant Level 2472.93 52.77 42.93 04,04,2014 27,672 879.62

Normal
83.01 Coolant Level 2468.96 52.77 42.93 01,03,1995 27,625 879.62

Normal
83.01 Coolant Level 2478.09 52.77 42.93 04,09,2014 27,625 867.98

Normal
83.01 Coolant Level 2436.81 52.77 43.03 01,03,1991 27,672 878

Normal
83.01 Coolant Level 2436.81 52.87 43.03 01,03,1999 27,625 876.82

Normal
83.01 Coolant Level 2493.96 52.87 42.93 01,03,1999 27,625 874.34

Normal
83.01 Coolant Level 2451.5 52.87 42.91 01,04,2027 27,672 879.4

Normal
83.01 Coolant Level 2438 52.77 42.83 04,09,2014 27,672 872.51

Normal
83.01 Coolant Level 2438 52.77 42.83 01,04,2018 27,672 872.51

Normal
83.01 Coolant Level 2437.21 52.77 42.73 01,03,1991 27,625 876.17

Normal
83.01 Coolant Level 2474.91 52.66 42.63 04,09,2014 27,625 876.82

Normal
83.01 Coolant Level 2437.6 52.66 42.53 01,04,2013 27,672 870.68

Normal
83.01 Coolant Level 2438.4 52.56 42.6 01,03,1999 27,672 872.29

Normal
83.01 Coolant Level 2492.77 52.47 42.64 01,04,2013 27,672 884.79

Normal
83.01 Coolant Level 2451.5 52.56 42.73 01,04,2013 27,625 884.36

Normal
83.01 Coolant Level 2451.5 52.66 42.63 01,03,1999 27,672 875.42

Normal
83.01 Coolant Level 2491.58 52.66 42.73 01,04,2018 27,672 872.19
Normal
83.01 Coolant Level 2451.5 52.66 42.66 04,04,2014 27,625 877.79

Normal
83.01 Coolant Level 2491.58 52.56 42.63 01,03,1995 27,625 875.74

Normal
83.01 Coolant Level 2436.81 52.56 42.63 04,09,2014 27,625 879.3

Normal
83.01 Coolant Level 2436.41 52.56 42.64 04,09,2014 27,625 877.89

Normal
83.01 Coolant Level 2436.41 52.56 42.63 01,03,1999 27,672 875.31

Normal
83.01 Coolant Level 2466.97 52.56 42.63 01,04,2013 27,625 873.05

Normal
83.01 Coolant Level 2467.37 52.56 42.55 04,09,2014 27,672 879.83

Normal
83.01 Coolant Level 2439.99 52.56 42.63 04,04,2014 27,672 873.59

Normal
83.01 Coolant Level 2481.26 52.66 42.63 04,04,2014 27,625 875.96

Normal
83.01 Coolant Level 2436.81 52.66 42.63 01,03,1995 27,625 873.59

Normal
83.01 Coolant Level 2437.21 52.66 42.63 01,04,2013 27,625 879.94

Normal
83.01 Coolant Level 2493.17 52.56 42.63 01,03,1986 27,625 878

Normal
83.01 Coolant Level 2492.37 52.56 42.7 04,09,2014 27,672 874.88

Normal
83.01 Coolant Level 2474.91 52.66 42.66 01,04,2027 27,672 865.51

Normal
83.01 Coolant Level 2434.03 52.77 42.73 04,09,2014 27,672 874.02

Normal
83 Coolant Level 2488.01 52.77 42.83 01,04,2013 27,672 871.54

Normal
83.01 Coolant Level 2462.61 52.77 42.83 01,03,1999 27,672 870.68

Normal
83.01 Coolant Level 2445.54 52.77 42.83 01,03,1986 27,672 885.87

Normal
83.01 Coolant Level 2441.18 52.77 42.83 01,03,1991 27,625 880.59
Normal
83.01 Coolant Level 2440.78 52.66 42.83 01,03,1986 27,672 879.62

Normal
83.01 Coolant Level 2451.5 52.66 42.83 01,03,1981 27,672 870.35

Normal
83.01 Coolant Level 2451.5 52.77 42.83 04,04,2014 27,625 875.96

Normal
83.01 Coolant Level 2456.26 52.77 42.93 01,04,2013 27,625 873.26

Normal
83.01 Coolant Level 2467.77 52.77 42.93 04,04,2014 27,672 872.83

Normal
83.01 Coolant Level 2467.77 52.77 42.92 01,04,2013 27,672 869.49

Normal
83.01 Coolant Level 2462.61 52.87 42.83 01,03,1995 27,672 880.48

Normal
83.01 Coolant Level 2440.78 52.77 42.93 01,04,2013 27,672 871.97

Normal
83.05 Coolant Level 2436.41 52.77 42.93 01,03,1995 27,625 878.11

Normal
83.01 Coolant Level 2478.48 52.77 42.93 01,03,1995 27,625 869.17

Normal
83.01 Coolant Level 2432.84 52.66 42.83 01,04,2013 27,672 879.83

Normal
83.01 Coolant Level 2454.67 52.77 42.73 01,03,1995 27,625 871.86

Normal
83.01 Coolant Level 2452.29 52.66 42.73 04,09,2014 27,672 870.68

Normal
83.12 Coolant Level 2470.15 52.66 42.73 01,04,2023 27,625 865.83

Normal
83.01 Coolant Level 2474.91 52.56 42.73 04,04,2014 27,625 875.74

Normal
83.01 Coolant Level 2466.58 52.66 42.63 01,04,2018 27,625 886.19

Normal
83.01 Coolant Level 2492.37 52.56 42.64 01,03,1991 27,625 872.29

Normal
83.01 Coolant Level 2450.7 52.56 42.63 04,04,2014 27,672 872.4

Normal
83.01 Coolant Level 2494.75 52.56 42.73 04,04,2014 27,672 868.41
Normal
83.01 Coolant Level 2494.75 52.56 42.73 04,09,2014 27,672 877.36

Normal
83.01 Coolant Level 2495.55 52.66 42.73 01,03,1999 27,625 883.5

Normal
83.01 Coolant Level 2494.75 52.56 42.73 04,04,2014 27,672 874.23

Normal
83.01 Coolant Level 2445.94 52.66 42.73 01,03,1995 27,672 873.91

Normal
83.01 Coolant Level 2441.97 52.77 42.75 01,04,2018 27,672 883.07

Normal
82.91 Coolant Level 2481.66 52.66 42.73 04,04,2014 27,672 878.76

Normal
83.01 Coolant Level 2476.5 52.66 42.73 01,03,1995 27,672 878.65

Normal
83.01 Coolant Level 2478.88 52.66 42.73 01,03,1995 27,672 874.02

Normal
83.01 Coolant Level 2432.45 52.66 42.73 04,09,2014 27,672 872.72

Normal
83.01 Coolant Level 2454.67 52.66 42.73 01,03,1991 27,672 873.59

Normal
83.01 Coolant Level 2489.2 52.56 42.7 01,04,2013 27,625 866.48

Normal
83.01 Coolant Level 2447.13 52.56 42.63 01,03,1986 27,625 876.06

Normal
83.01 Coolant Level 2470.55 52.66 42.63 04,04,2014 27,625 867.77

Normal
83.01 Coolant Level 2434.43 52.56 42.63 01,04,2018 27,672 882.42

Normal
83.01 Coolant Level 2461.42 52.56 42.63 01,03,1999 27,672 878

Normal
83.01 Coolant Level 2482.85 52.56 42.7 01,04,2018 27,625 877.89

Normal
83.01 Coolant Level 2450.3 52.56 42.73 01,03,1986 27,672 886.41

Normal
83.01 Coolant Level 2445.54 52.66 42.8 01,03,1999 27,672 870.25

Normal
83.01 Coolant Level 2499.12 52.66 42.73 04,04,2014 27,625 864.86
Normal
83.01 Coolant Level 2459.04 52.66 42.73 01,03,1986 27,625 866.37

Normal
83.01 Coolant Level 2463.4 52.66 42.73 01,04,2013 27,672 875.96

Normal
83.01 Coolant Level 2436.81 52.77 42.74 01,03,1995 27,672 878.11

Normal
83.01 Coolant Level 2436.81 52.77 42.83 01,03,1991 27,672 876.6

Normal
83.01 Coolant Level 2478.88 52.77 42.83 01,03,1999 27,625 865.18

Normal
83.01 Coolant Level 2480.47 52.66 42.83 04,04,2014 27,625 862.49

Normal
83.01 Coolant Level 2483.64 52.66 42.86 01,03,1991 27,625 864.97

Normal
83.01 Coolant Level 2483.64 52.77 42.93 04,09,2014 27,672 882.42

Normal
83.01 Coolant Level 2441.97 52.77 42.86 01,03,1986 27,625 874.56

Normal
83.01 Coolant Level 2488.01 52.98 42.93 04,04,2014 27,625 878.33

Normal
83.01 Coolant Level 2447.92 52.87 42.83 01,04,2013 27,672 870.35

Normal
83.01 Coolant Level 2447.92 52.77 42.83 01,03,1995 27,672 886.41

Normal
83.01 Coolant Level 2447.92 52.87 42.8 01,03,1995 27,672 865.72

Normal
83.01 Coolant Level 2496.74 52.77 42.8 01,04,2013 27,672 872.83

Normal
83.01 Coolant Level 2434.83 52.66 42.73 01,03,1991 27,672 876.17

Normal
83.01 Coolant Level 2465.78 52.77 42.73 01,04,2018 27,672 886.41

Normal
83.01 Coolant Level 2486.82 52.77 42.8 01,03,1991 27,672 873.8

Normal
83.01 Coolant Level 2483.64 52.77 42.93 01,03,1991 27,625 869.28

Normal
83.01 Coolant Level 2451.5 52.87 42.83 01,04,2023 27,672 887.91
Normal
83.01 Coolant Level 2495.15 52.87 42.83 04,09,2014 27,625 879.73

Normal
83.01 Coolant Level 2459.04 52.77 42.83 04,04,2014 27,672 873.69

Normal
83.01 Coolant Level 2454.67 52.77 42.83 04,04,2014 27,672 859.8

Normal
83.01 Coolant Level 2459.43 52.77 42.83 04,09,2014 27,672 874.77

Normal
83.01 Coolant Level 2459.04 52.77 42.91 01,04,2018 27,672 866.8

Normal
83.01 Coolant Level 2437.21 52.87 42.83 01,03,1995 27,672 879.4

Normal
83.01 Coolant Level 2437.21 52.66 42.82 01,03,1995 27,672 873.15

Normal
83.01 Coolant Level 2437.21 52.66 42.74 01,04,2013 27,672 868.41

Normal
83.01 Coolant Level 2485.63 52.66 42.8 01,03,1999 27,672 874.56

Normal
83.01 Coolant Level 2486.02 52.66 42.83 01,04,2023 27,672 877.14

Normal
83.01 Coolant Level 2485.63 52.77 42.83 01,03,1995 27,672 876.93

Normal
83.01 Coolant Level 2433.24 52.77 42.83 04,04,2014 27,672 877.57

Normal
83.01 Coolant Level 2458.64 52.77 42.83 04,09,2014 27,625 869.71

Normal
83.01 Coolant Level 2488.8 52.77 42.83 01,04,2018 27,672 874.02

Normal
83.01 Coolant Level 2452.69 52.77 42.82 04,09,2014 27,672 880.37

Normal
83.01 Coolant Level 2471.34 52.87 42.81 04,04,2014 27,672 868.52

Normal
83.01 Coolant Level 2439.19 52.87 42.75 01,04,2013 27,672 877.57

Normal
83.01 Coolant Level 2488.8 52.77 42.73 04,04,2014 27,672 877.25

Normal
83.01 Coolant Level 2488.4 52.77 42.73 01,04,2013 27,672 872.08
Normal
83.01 Coolant Level 2474.51 52.77 42.73 01,03,1999 27,672 875.96

Normal
83.01 Coolant Level 2488.4 52.77 42.73 01,03,1995 27,625 876.93

Normal
83.01 Coolant Level 2474.91 52.77 42.73 04,04,2014 27,625 870.46

Normal
83.01 Coolant Level 2489.99 52.77 42.73 01,03,1991 27,625 871.75

Normal
83.01 Coolant Level 2489.99 52.77 42.73 01,03,1991 27,625 871.75

Normal
83.01 Coolant Level 2433.24 52.77 42.73 01,03,1995 27,672 874.45

Normal
83.01 Coolant Level 2442.37 52.77 42.73 04,09,2014 27,672 873.69

Normal
83.01 Coolant Level 2459.04 52.77 42.73 01,03,1995 27,672 878.65

Normal
83.01 Coolant Level 2470.15 52.77 42.73 01,04,2013 27,625 876.06

Normal
83.01 Coolant Level 2488.4 52.77 42.73 01,04,2013 27,672 864.21

Normal
83.01 Coolant Level 2488.4 52.77 42.73 01,04,2013 27,672 864.21

Normal
83.01 Coolant Level 2474.51 52.77 42.73 01,03,1986 27,625 863.46

Normal
83.01 Coolant Level 2447.92 52.77 42.74 04,04,2014 27,672 885.65

Normal
83.01 Coolant Level 2437.6 52.66 42.73 01,04,2018 27,672 884.36

Normal
83.01 Coolant Level 2452.29 52.66 42.73 04,04,2014 27,672 876.71

Normal
83.01 Coolant Level 2438 52.77 42.73 01,03,1995 27,672 874.77

Normal
83.01 Coolant Level 2455.86 52.66 42.73 01,04,2013 27,672 872.72

Normal
83.01 Coolant Level 2438 52.66 42.73 04,04,2014 27,672 881.88

Normal
83.01 Coolant Level 2455.46 52.66 42.73 01,03,1991 27,625 880.48
Normal
83.01 Coolant Level 2436.81 52.66 42.73 01,03,1991 27,625 872.29

Normal
83.01 Coolant Level 2459.43 52.66 42.73 01,04,2018 27,625 874.12

Normal
83.01 Coolant Level 2459.43 52.66 42.73 01,04,2018 27,625 874.12

Normal
83.01 Coolant Level 2441.18 52.66 42.73 04,04,2014 27,672 873.48

Normal
83.01 Coolant Level 2480.47 52.77 42.73 01,03,1991 27,625 876.93

Normal
83.01 Coolant Level 2489.2 52.66 42.73 04,09,2014 27,625 874.56

Normal
83.01 Coolant Level 2483.25 52.66 42.73 01,03,1999 27,672 870.25

Normal
83.01 Coolant Level 2494.36 52.66 42.73 01,03,1999 27,672 868.52

Normal
83.01 Coolant Level 2483.25 52.66 42.73 01,03,1999 27,672 877.46

Normal
83.01 Coolant Level 2494.36 52.66 42.73 04,04,2014 27,672 872.51

Normal
83.01 Coolant Level 2483.64 52.66 42.73 01,03,1995 27,672 871.11

Normal
83.01 Coolant Level 2489.99 52.77 42.73 01,04,2018 27,625 872.83

Normal
83.01 Coolant Level 2478.88 52.77 42.73 04,04,2014 27,672 868.41

Normal
83.01 Coolant Level 2463 52.77 42.73 01,03,1991 27,625 872.19

Normal
83.01 Coolant Level 2478.88 52.77 42.73 01,03,1995 27,672 865.61

Normal
83.01 Coolant Level 2466.58 52.77 42.73 01,03,1999 27,625 857.32

Normal
83.01 Coolant Level 2483.64 52.77 42.66 01,04,2018 27,625 866.26

Normal
83.01 Coolant Level 2466.58 52.77 42.66 01,03,1995 27,672 867.77

Normal
83.01 Coolant Level 2439.99 52.77 42.73 01,03,1995 27,672 879.51
Normal
83.01 Coolant Level 2470.15 52.77 42.73 04,09,2014 27,672 872.94

Normal
83.01 Coolant Level 2444.75 52.77 42.73 01,03,1999 27,672 869.92

Normal
83.01 Coolant Level 2434.83 52.66 42.73 01,03,1999 27,672 877.46

Normal
83.01 Coolant Level 2443.95 52.77 42.73 01,04,2023 27,672 875.85

Normal
83.01 Coolant Level 2443.95 52.77 42.73 01,04,2023 27,672 875.85

Normal
83.01 Coolant Level 2470.15 52.66 42.73 01,04,2013 27,625 877.68

Normal
83.01 Coolant Level 2447.92 52.66 42.73 01,03,1986 27,672 873.48

Normal
83.01 Coolant Level 2434.03 52.66 42.73 01,03,1999 27,672 869.17

Normal
83.01 Coolant Level 2438.8 52.66 42.73 04,04,2014 27,625 881.45

Normal
83.01 Coolant Level 2437.6 52.77 42.73 01,03,1986 27,672 871.65

Normal
83.01 Coolant Level 2442.37 52.66 42.73 01,03,1999 27,672 871.65

Normal
83.01 Coolant Level 2454.67 52.66 42.73 01,04,2027 27,625 875.96

Normal
83.01 Coolant Level 2441.57 52.66 42.73 01,03,1999 27,672 877.79

Normal
83.01 Coolant Level 2454.67 52.66 42.73 01,03,1995 27,625 880.16

Normal
83.01 Coolant Level 2485.63 52.66 42.73 01,03,1986 27,672 863.57

Normal
83.01 Coolant Level 2450.3 52.66 42.73 04,09,2014 27,672 871.32

Normal
83.01 Coolant Level 2481.26 52.66 42.73 04,04,2014 27,672 881.99

Normal
83.01 Coolant Level 2493.96 52.66 42.73 04,04,2014 27,672 880.7

Normal
83.01 Coolant Level 2477.29 52.66 42.73 01,03,1995 27,672 872.51
Normal
83.01 Coolant Level 2494.36 52.66 42.73 01,03,1995 27,672 874.02

Normal
83.01 Coolant Level 2478.09 52.66 42.73 01,03,1991 27,672 873.26

Normal
83.01 Coolant Level 2499.52 52.66 42.73 01,04,2013 27,672 875.96

Normal
83.01 Coolant Level 2482.85 52.66 42.73 01,04,2013 27,672 869.6

Normal
83.01 Coolant Level 2463 52.66 42.73 01,03,1999 27,672 868.31

Normal
83.01 Coolant Level 2441.18 52.66 42.73 01,03,1999 27,672 870.89

Normal
83.01 Coolant Level 2466.58 52.66 42.73 01,04,2013 27,672 874.12

Normal
83.01 Coolant Level 2440.78 52.66 42.73 04,09,2014 27,672 871.54

Normal
83.01 Coolant Level 2476.1 52.66 42.73 01,03,1986 27,672 871.75

Normal
83.01 Coolant Level 2445.54 52.66 42.73 04,09,2014 27,672 868.31

Normal
83.01 Coolant Level 2435.22 52.66 42.74 04,09,2014 27,625 885.54

Normal
83.01 Coolant Level 2448.72 52.66 42.74 04,09,2014 27,672 880.91

Normal
83.01 Coolant Level 2439.59 52.66 42.73 04,04,2014 27,672 868.85

Normal
83.01 Coolant Level 2452.29 52.66 42.73 01,04,2023 27,672 872.94

Normal
83.01 Coolant Level 2439.19 52.56 42.73 01,03,1995 27,672 878.33

Normal
83.01 Coolant Level 2452.69 52.56 42.73 01,03,1999 27,672 886.19

Normal
83.01 Coolant Level 2439.19 52.66 42.73 01,04,2013 27,625 878.97

Normal
83.01 Coolant Level 2447.13 52.66 42.73 04,04,2014 27,672 868.2

Normal
83.01 Coolant Level 2438 52.66 42.73 01,03,1999 27,672 871.97
Normal
83.01 Coolant Level 2447.13 52.66 42.73 01,03,1995 27,625 889.85

Normal
83 Coolant Level 2437.6 52.66 42.73 01,04,2018 27,672 886.3

Normal
83.01 Coolant Level 2442.37 52.66 42.73 04,09,2014 27,672 877.79

Normal
83.01 Coolant Level 2455.07 52.66 42.73 01,03,1999 27,625 873.15

Normal
83.01 Coolant Level 2441.57 52.66 42.73 01,03,1995 27,672 872.94

Normal
83.01 Coolant Level 2483.64 52.66 42.73 04,04,2014 27,672 876.06

Normal
83.01 Coolant Level 2495.15 52.66 42.73 01,03,1991 27,625 876.17

Normal
83.01 Coolant Level 2478.09 52.66 42.73 01,03,1977 27,672 874.34

Normal
83.01 Coolant Level 2495.15 52.66 42.73 04,09,2014 27,672 875.52

Normal
83.01 Coolant Level 2470.15 52.66 42.73 01,03,1999 27,672 871.54

Normal
83.01 Coolant Level 2495.55 52.66 42.73 01,03,1991 27,672 876.71

Normal
83.01 Coolant Level 2482.85 52.66 42.73 01,04,2018 27,672 874.77

Normal
83.01 Coolant Level 2482.85 52.66 42.73 01,04,2018 27,672 874.77

Normal
83.01 Coolant Level 2467.37 52.66 42.73 01,04,2023 27,672 875.63

Normal
83.01 Coolant Level 2487.61 52.66 42.73 01,03,1986 27,625 874.45

Normal
83.01 Coolant Level 2501.1 52.66 42.73 01,04,2023 27,672 874.23

Normal
83.01 Coolant Level 2488.01 52.66 42.73 01,04,2013 27,672 872.29

Normal
83.01 Coolant Level 2470.94 52.66 42.73 04,04,2014 27,625 867.55

Normal
83.01 Coolant Level 2488.01 52.66 42.73 01,03,1986 27,625 873.48
Normal
83.01 Coolant Level 2474.91 52.66 42.73 01,03,1999 27,672 864.97

Normal
83.01 Coolant Level 2447.92 52.66 42.73 01,03,1999 27,672 869.6

Normal
83.01 Coolant Level 2447.92 52.66 42.73 01,03,1999 27,672 869.6

Normal
83.01 Coolant Level 2466.18 52.66 42.66 01,03,1991 27,672 883.28

Normal
83.01 Coolant Level 2496.34 52.66 42.73 01,03,1999 27,672 871.97

Normal
83.01 Coolant Level 2462.61 52.77 42.73 04,09,2014 27,672 874.56

Normal
83.01 Coolant Level 2496.34 52.77 42.73 01,03,1986 27,672 873.59

Normal
83.01 Coolant Level 2488.01 52.66 42.66 01,03,1999 27,672 881.67

Normal
83.01 Coolant Level 2492.77 52.77 42.72 01,04,2013 27,672 885.01

Normal
83.01 Coolant Level 2488.01 52.77 42.7 01,03,1991 27,672 877.14

Normal
82.98 Coolant Level 2492.37 52.66 42.7 01,03,1995 27,672 871.22

Normal
83.01 Coolant Level 2488.8 52.66 42.63 01,04,2018 27,672 876.49

Normal
83.01 Coolant Level 2478.88 52.66 42.72 01,04,2013 27,672 878.11

Normal
83.01 Coolant Level 2493.96 52.66 42.63 01,03,1995 27,625 876.39

Normal
83.01 Coolant Level 2478.88 52.66 42.64 04,09,2014 27,625 862.81

Normal
83.01 Coolant Level 2478.88 52.66 42.64 04,09,2014 27,625 861.52

Normal
83.01 Coolant Level 2493.17 52.66 42.64 04,09,2014 27,625 861.52

Normal
83.01 Coolant Level 2483.64 52.66 42.63 01,03,1995 27,672 870.68

Normal
83.01 Coolant Level 2456.26 52.66 42.63 01,03,1991 27,672 878.43
Normal
83.01 Coolant Level 2436.81 52.66 42.64 01,04,2023 27,672 877.89

Normal
83.01 Coolant Level 2459.04 52.66 42.63 04,09,2014 27,625 876.82

Normal
83.01 Coolant Level 2437.21 52.66 42.63 01,03,1995 27,672 878.11

Normal
83.01 Coolant Level 2459.04 52.66 42.65 04,09,2014 27,672 872.08

Normal
83.01 Coolant Level 2441.97 52.66 42.64 01,04,2023 27,672 876.06

Normal
82.91 Coolant Level 2463.4 52.66 42.7 01,03,1995 27,672 876.71

Normal
83.01 Coolant Level 2441.18 52.66 42.65 01,03,1995 27,672 878

Normal
83.01 Coolant Level 2436.81 52.66 42.7 01,03,1995 27,672 880.16

Normal
83 Coolant Level 2451.5 52.66 42.66 01,03,1991 27,672 867.88

Normal
83.01 Coolant Level 2439.99 52.66 42.7 01,03,1981 27,672 881.77

Normal
83.01 Coolant Level 2455.46 52.66 42.63 01,04,2013 27,625 876.93

Normal
83.01 Coolant Level 2439.19 52.56 42.65 01,04,1932 27,672 882.64

Normal
83.01 Coolant Level 2451.5 52.56 42.66 04,09,2014 27,672 880.26

Normal
83.01 Coolant Level 2443.56 52.66 42.63 01,03,1977 27,625 867.34

Normal
82.98 Coolant Level 2451.5 52.66 42.63 01,04,2013 27,672 876.39

Normal
83.01 Coolant Level 2439.19 52.66 42.64 04,04,2014 27,672 880.37

Normal
83 Coolant Level 2452.29 52.66 42.65 01,03,1999 27,672 883.28

Normal
83.01 Coolant Level 2438.4 52.66 42.7 01,03,1991 27,672 878.54

Normal
83.01 Coolant Level 2443.16 52.66 42.7 04,09,2014 27,672 870.57
Normal
83.01 Coolant Level 2458.64 52.66 42.7 01,03,1986 27,672 877.25

Normal
83.01 Coolant Level 2447.13 52.66 42.66 01,03,1995 27,672 876.39

Normal
83.01 Coolant Level 2459.04 52.66 42.72 04,04,2014 27,672 876.17

Normal
83.01 Coolant Level 2489.6 52.66 42.63 04,09,2014 27,672 875.63

Normal
83.01 Coolant Level 2454.67 52.66 42.65 01,03,1991 27,672 877.79

Normal
83.01 Coolant Level 2485.63 52.66 42.65 01,03,1995 27,672 876.71

Normal
82.91 Coolant Level 2489.2 52.66 42.66 01,03,1999 27,672 875.2

Normal
83.01 Coolant Level 2485.63 52.66 42.7 04,04,2014 27,672 875.52

Normal
83.01 Coolant Level 2485.63 52.66 42.7 04,04,2014 27,672 875.52

Normal
83.01 Coolant Level 2498.72 52.77 42.7 01,03,1991 27,625 877.89

Normal
82.91 Coolant Level 2481.66 52.66 42.73 01,03,1995 27,672 875.42

Normal
83.01 Coolant Level 2494.36 52.66 42.73 04,04,2014 27,672 884.47

Normal
83.01 Coolant Level 2477.69 52.77 42.73 01,03,1995 27,672 874.88

Normal
83.01 Coolant Level 2495.15 52.77 42.73 04,09,2014 27,672 872.62

Normal
83.01 Coolant Level 2483.64 52.66 42.73 01,03,1999 27,672 870.03

Normal
83.01 Coolant Level 2467.77 52.66 42.73 01,03,1991 27,672 875.52

Normal
83 Coolant Level 2482.85 52.77 42.73 01,03,1999 27,625 871.65

Normal
83.01 Coolant Level 2495.55 52.77 42.73 01,04,2018 27,672 861.84

Normal
83.01 Coolant Level 2487.61 52.77 42.73 01,03,1999 27,672 867.66
Normal
82.91 Coolant Level 2466.58 52.77 42.74 01,03,1999 27,672 872.19

Normal
82.87 Coolant Level 2440.78 52.77 42.73 01,03,1999 27,672 880.26

Normal
83.01 Coolant Level 2466.58 52.77 42.74 01,04,2023 27,672 880.91

Normal
83.01 Coolant Level 2444.75 52.77 42.73 01,03,1986 27,672 871.43

Normal
82.91 Coolant Level 2475.31 52.77 42.73 01,04,2018 27,672 872.72

Normal
82.91 Coolant Level 2443.95 52.77 42.8 01,04,2018 27,672 876.93

Normal
83 Coolant Level 2492.37 52.77 42.83 04,04,2014 27,625 878.65

Normal
83.01 Coolant Level 2488.01 52.77 42.74 01,03,1986 27,672 874.45

Normal
82.91 Coolant Level 2478.88 52.77 42.81 04,04,2014 27,672 867.23

Normal
83.01 Coolant Level 2489.2 52.77 42.81 01,03,1995 27,672 867.66

Normal
82.98 Coolant Level 2474.51 52.77 42.74 01,03,1981 27,672 873.15

Normal
83.01 Coolant Level 2456.26 52.77 42.82 01,03,1999 27,672 883.07

Normal
83.01 Coolant Level 2437.6 52.77 42.81 04,09,2014 27,625 875.09

Normal
83.01 Coolant Level 2446.34 52.77 42.75 04,09,2014 27,672 875.85

Normal
83.01 Coolant Level 2436.81 52.77 42.74 01,03,1995 27,672 882.74

Normal
83.01 Coolant Level 2441.57 52.77 42.82 01,04,2023 27,672 877.36

Normal
83.01 Coolant Level 2455.07 52.77 42.81 01,04,2013 27,672 871

Normal
83.01 Coolant Level 2441.57 52.77 42.81 01,03,1995 27,625 878.76

Normal
83.01 Coolant Level 2455.07 52.77 42.82 01,03,1981 27,672 871.86
Normal
83.01 Coolant Level 2455.07 52.77 42.81 01,03,1999 27,625 877.25

Normal
83.01 Coolant Level 2437.6 52.77 42.81 01,03,1999 27,625 877.25

Normal
83.01 Coolant Level 2451.5 52.77 42.82 01,03,1999 27,672 878.22

Normal
83.01 Coolant Level 2477.29 52.77 42.73 01,03,1995 27,672 873.91

Normal
83.01 Coolant Level 2454.67 52.77 42.73 01,04,2023 27,625 880.8

Normal
83.01 Coolant Level 2473.72 52.77 42.8 01,04,2013 27,672 885.01

Normal
83.01 Coolant Level 2495.15 52.77 42.73 04,04,2014 27,672 878

Normal
83.01 Coolant Level 2473.72 52.77 42.73 01,03,1981 27,672 870.46

Normal
83.01 Coolant Level 2490.79 52.77 42.73 01,03,1995 27,625 870.89

Normal
83.01 Coolant Level 2487.61 52.77 42.73 01,03,1991 27,625 877.03

Normal
83.01 Coolant Level 2467.37 52.77 42.73 01,03,1986 27,672 869.49

Normal
82.98 Coolant Level 2440.78 52.77 42.73 01,03,1995 27,625 872.29

Normal
83.01 Coolant Level 2439.19 52.77 42.73 04,04,2014 27,625 878

Normal
82.91 Coolant Level 2445.54 52.66 42.73 04,09,2014 27,672 883.28

Normal
83 Coolant Level 2434.83 52.66 42.73 01,03,1995 27,672 873.69

Normal
83 Coolant Level 2439.99 52.66 42.73 04,04,2014 27,672 875.31

Normal
83.01 Coolant Level 2470.15 52.66 42.73 04,09,2014 27,672 871.11

Normal
82.91 Coolant Level 2448.72 52.66 42.73 01,03,1991 27,672 880.16

Normal
83 Coolant Level 2438.4 52.66 42.73 01,03,1999 27,625 875.2
Normal
82.91 Coolant Level 2447.92 52.66 42.73 04,09,2014 27,672 875.63

Normal
83 Coolant Level 2434.03 52.66 42.73 01,03,1991 27,625 868.63

Normal
82.98 Coolant Level 2452.29 52.66 42.73 04,09,2014 27,672 880.8

Normal
82.91 Coolant Level 2437.6 52.66 42.73 04,04,2014 27,625 885.22

Normal
82.98 Coolant Level 2447.13 52.77 42.73 04,09,2014 27,672 885.22

Normal
82.91 Coolant Level 2459.04 52.77 42.73 01,03,1977 27,625 867.23

Normal
82.91 Coolant Level 2484.44 52.77 42.73 01,04,2013 27,625 872.83

Normal
82.9 Coolant Level 2454.67 52.66 42.73 01,03,1999 27,672 878.22

Normal
83 Coolant Level 2485.63 52.66 42.73 01,03,1986 27,672 872.4

Normal
82.98 Coolant Level 2454.67 52.66 42.73 04,09,2014 27,625 877.68

Normal
82.91 Coolant Level 2481.26 52.77 42.72 04,04,2014 27,672 869.17

Normal
82.98 Coolant Level 2450.3 52.66 42.73 01,03,1995 27,672 878.43

Normal
82.91 Coolant Level 2477.29 52.77 42.73 01,03,1986 27,625 877.68

Normal
83.01 Coolant Level 2494.36 52.77 42.73 01,04,2023 27,672 866.04

Normal
83.01 Coolant Level 2478.48 52.77 42.7 01,04,2018 27,672 866.8

Normal
83.01 Coolant Level 2489.99 52.77 42.64 01,03,1999 27,672 876.06

Normal
83.01 Coolant Level 2478.09 52.77 42.72 01,03,1981 27,625 872.08

Normal
83.01 Coolant Level 2490.79 52.77 42.73 01,04,2018 27,672 868.09

Normal
83.01 Coolant Level 2482.85 52.66 42.73 01,03,1999 27,672 866.58
Normal
83.01 Coolant Level 2495.55 52.66 42.7 01,03,1999 27,672 868.31

Normal
83.01 Coolant Level 2483.64 52.66 42.72 04,04,2014 27,672 872.94

Normal
83.01 Coolant Level 2466.58 52.66 42.66 04,04,2014 27,672 873.91

Normal
83.01 Coolant Level 2483.64 52.66 42.7 01,03,1986 27,625 873.69

Normal
83.01 Coolant Level 2496.74 52.66 42.7 04,09,2014 27,672 865.61

Normal
82.98 Coolant Level 2488.01 52.66 42.66 01,03,1999 27,672 878.54

Normal
83.01 Coolant Level 2470.94 52.66 42.73 01,03,1999 27,672 872.62

Normal
83.01 Coolant Level 2492.77 52.66 42.73 01,03,1995 27,625 872.19

Normal
82.98 Coolant Level 2474.91 52.66 42.73 01,03,1991 27,672 867.01

Normal
83.01 Coolant Level 2443.56 52.66 42.73 01,03,1995 27,625 863.14

Normal
83 Coolant Level 2474.51 52.66 42.73 01,03,1999 27,672 881.13

Normal
83.01 Coolant Level 2447.53 52.56 42.73 01,03,1999 27,672 878.76

Normal
83.01 Coolant Level 2433.24 52.66 42.73 01,04,2018 27,672 880.48

Normal
83.01 Coolant Level 2442.37 52.66 42.73 01,04,2018 27,625 870.14

Normal
83.01 Coolant Level 2458.64 52.56 42.73 01,03,1999 27,625 872.4

Normal
83.01 Coolant Level 2441.57 52.66 42.73 01,03,1995 27,672 871.75

Normal
83.01 Coolant Level 2454.67 52.66 42.73 04,04,2014 27,625 866.37

Normal
83.01 Coolant Level 2485.23 52.66 42.73 01,03,1999 27,625 876.93

Normal
83.01 Coolant Level 2485.23 52.66 42.73 01,03,1999 27,625 876.93
Normal
83.01 Coolant Level 2450.3 52.66 42.73 01,04,2013 27,672 871.54

Normal
82.91 Coolant Level 2474.91 52.66 42.74 01,04,2013 27,672 872.72

Normal
83.01 Coolant Level 2447.53 52.66 42.8 01,03,1991 27,672 883.07

Normal
83.01 Coolant Level 2447.53 52.66 42.8 01,03,1991 27,672 883.07

Normal
83.01 Coolant Level 2433.24 52.66 42.73 01,03,1999 27,672 865.61

Normal
83.01 Coolant Level 2489.99 52.66 42.8 01,04,2018 27,625 867.01

Normal
83 Coolant Level 2478.48 52.66 42.74 01,03,1999 27,672 866.26

Normal
82.9 Coolant Level 2459.43 52.66 42.73 01,03,1999 27,672 875.09

Normal
82.98 Coolant Level 2478.48 52.77 42.82 01,04,2018 27,672 875.09

Normal
82.87 Coolant Level 2459.04 52.77 42.8 01,03,1995 27,625 871.75

Normal
82.9 Coolant Level 2437.21 52.66 42.75 01,03,1995 27,672 873.15

Normal
82.98 Coolant Level 2468.16 52.66 42.82 01,03,1991 27,672 873.59

Normal
82.87 Coolant Level 2436.81 52.66 42.82 01,04,1932 27,672 869.82

Normal
82.87 Coolant Level 2467.37 52.66 42.83 01,04,2013 27,672 875.2

Normal
82.97 Coolant Level 2440.78 52.66 42.81 01,03,1999 27,672 873.59

Normal
82.86 Coolant Level 2439.99 52.66 42.83 01,04,2013 27,672 878.86

Normal
83 Coolant Level 2445.54 52.77 42.8 01,03,1995 27,625 880.91

Normal
82.98 Coolant Level 2434.83 52.66 42.73 01,03,1995 27,672 871.43

Normal
82.98 Coolant Level 2455.46 52.66 42.75 01,03,1991 27,672 872.08
Normal
82.87 Coolant Level 2439.59 52.66 42.82 01,04,2018 27,672 876.49

Normal
82.86 Coolant Level 2451.5 52.66 42.82 01,03,1999 27,672 885.01

Normal
82.9 Coolant Level 2466.58 52.66 42.82 01,03,1981 27,672 874.99

Normal
82.98 Coolant Level 2447.53 52.66 42.82 01,03,1999 27,672 869.92

Normal
83 Coolant Level 2466.58 52.66 42.81 04,04,2014 27,672 874.77

Normal
82.91 Coolant Level 2496.74 52.66 42.83 01,03,1986 27,672 882.1

Normal
83 Coolant Level 2467.37 52.66 42.82 01,04,2013 27,672 877.68

Normal
83.01 Coolant Level 2447.92 52.77 42.82 04,04,2014 27,625 875.09

Normal
82.98 Coolant Level 2459.04 52.77 42.83 01,03,1995 27,672 870.35

Normal
83 Coolant Level 2459.04 52.77 42.83 01,03,1995 27,672 870.35

Normal
82.87 Coolant Level 2447.53 52.77 42.83 01,04,2023 27,672 869.92

Normal
83.01 Coolant Level 2438.4 52.77 42.75 01,04,2013 27,672 873.59

Normal
83.01 Coolant Level 2446.34 52.66 42.73 01,03,1991 27,672 884.9

Normal
83.01 Coolant Level 2438 52.66 42.8 01,03,1986 27,672 881.45

Normal
83.01 Coolant Level 2442.37 52.66 42.83 01,03,1995 27,625 870.78

Normal
82.98 Coolant Level 2438 52.66 42.83 04,09,2014 27,672 866.15

Normal
83.01 Coolant Level 2441.57 52.66 42.75 01,03,1981 27,672 873.48

Normal
83.01 Coolant Level 2441.57 52.66 42.75 01,03,1981 27,672 873.48

Normal
83.01 Coolant Level 2436.81 52.66 42.8 04,09,2014 27,625 880.48
Normal
83.01 Coolant Level 2446.73 52.66 42.83 01,04,1932 27,672 881.45

Normal
83.01 Coolant Level 2455.07 52.66 42.82 01,03,1991 27,672 873.69

Normal
83 Coolant Level 2476.9 52.66 42.83 01,03,1995 27,672 871.22

Normal
83.01 Coolant Level 2489.99 52.66 42.75 04,04,2014 27,672 878

Normal
83.01 Coolant Level 2476.9 52.66 42.83 01,03,1995 27,672 881.45

Normal
82.98 Coolant Level 2451.5 52.66 42.81 01,03,1999 27,672 876.93

Normal
83.01 Coolant Level 2478.48 52.66 42.83 04,09,2014 27,672 878.65

Normal
83.01 Coolant Level 2450.7 52.66 42.73 04,04,2014 27,672 872.72

Normal
83 Coolant Level 2468.96 52.77 42.83 01,03,1991 27,672 881.45

Normal
83.01 Coolant Level 2494.75 52.77 42.81 04,04,2014 27,625 872.08

Normal
82.98 Coolant Level 2488.01 52.77 42.81 01,04,2018 27,672 870.46

Normal
83.01 Coolant Level 2466.58 52.77 42.83 04,04,2014 27,672 877.03

Normal
83.01 Coolant Level 2487.61 52.77 42.83 01,03,1986 27,672 873.05

Normal
83.01 Coolant Level 2471.34 52.77 42.73 04,04,2014 27,672 869.82

Normal
83.01 Coolant Level 2488.01 52.77 42.83 01,04,2013 27,672 874.88

Normal
82.87 Coolant Level 2475.31 52.77 42.83 01,03,1981 27,672 866.04

Normal
82.91 Coolant Level 2492.77 52.77 42.82 01,04,2018 27,625 881.13

Normal
83.01 Coolant Level 2474.91 52.77 42.73 01,04,2013 27,625 873.26

Normal
83.01 Coolant Level 2488.01 52.77 42.73 01,03,1991 27,625 874.56
Normal
83.01 Coolant Level 2474.51 52.77 42.83 04,09,2014 27,672 871.54

Normal
83.01 Coolant Level 2474.51 52.77 42.83 04,09,2014 27,672 871.54

Normal
83.01 Coolant Level 2488.01 52.66 42.8 01,04,2013 27,625 868.41

Normal
82.91 Coolant Level 2474.51 52.66 42.75 04,04,2014 27,672 878.11

Normal
83.01 Coolant Level 2451.5 52.66 42.82 01,03,1995 27,625 882.1

Normal
82.98 Coolant Level 2438 52.66 42.83 01,03,1999 27,672 870.46

Normal
82.98 Coolant Level 2451.5 52.66 42.83 01,03,1999 27,672 873.26

Normal
83.01 Coolant Level 2438 52.66 42.83 01,03,1991 27,672 877.25

Normal
83 Coolant Level 2450.7 52.66 42.83 01,03,1999 27,672 882.64

Normal
83.01 Coolant Level 2441.97 52.66 42.83 04,09,2014 27,672 881.99

Normal
82.98 Coolant Level 2441.57 52.77 42.83 01,04,2027 27,672 882.1

Normal
83.01 Coolant Level 2454.67 52.77 42.83 01,03,1991 27,625 874.88

Normal
82.91 Coolant Level 2441.18 52.66 42.83 01,03,1995 27,672 884.04

Normal
83.01 Coolant Level 2451.1 52.66 42.83 01,03,1999 27,625 872.08

Normal
82.86 Coolant Level 2481.66 52.77 42.83 01,04,2013 27,672 871.97

Normal
82.91 Coolant Level 2450.7 52.66 42.83 01,04,2013 27,625 879.83

Normal
83 Coolant Level 2473.72 52.66 42.83 04,04,2014 27,672 877.89

Normal
82.98 Coolant Level 2450.7 52.77 42.83 04,04,2014 27,672 877.03

Normal
83 Coolant Level 2468.96 52.77 42.83 01,03,1999 27,672 870.46
Normal
83.01 Coolant Level 2495.55 52.77 42.83 04,09,2014 27,672 881.67

Normal
83.01 Coolant Level 2483.64 52.77 42.83 01,04,2023 27,625 879.51

Normal
83 Coolant Level 2496.34 52.77 42.83 01,03,1995 27,672 881.45

Normal
82.98 Coolant Level 2482.85 52.77 42.83 01,03,1986 27,672 875.52

Normal
82.9 Coolant Level 2495.55 52.66 42.83 04,09,2014 27,672 876.06

Normal
83.01 Coolant Level 2484.04 52.77 42.83 04,09,2014 27,625 875.52

Normal
82.87 Coolant Level 2470.94 52.77 42.83 01,03,1991 27,672 879.3

Normal
83.01 Coolant Level 2488.01 52.66 42.83 01,03,1999 27,672 876.39

Normal
83.01 Coolant Level 2470.15 52.66 42.83 01,04,2018 27,672 868.85

Normal
82.91 Coolant Level 2488.01 52.66 42.83 01,03,1999 27,672 877.03

Normal
83 Coolant Level 2474.51 52.77 42.83 04,04,2014 27,672 875.85

Normal
83 Coolant Level 2488.4 52.77 42.83 01,04,2013 27,672 886.84

Normal
82.91 Coolant Level 2474.51 52.77 42.83 01,03,1999 27,625 868.95

Normal
82.91 Coolant Level 2474.51 52.77 42.83 01,03,1999 27,625 868.95

Normal
83.01 Coolant Level 2452.29 52.77 42.83 01,03,1995 27,672 877.25

Normal
83.01 Coolant Level 2481.26 52.77 42.83 04,04,2014 27,625 870.46

Normal
83.01 Coolant Level 2493.17 52.77 42.83 04,09,2014 27,672 868.41

Normal
83.01 Coolant Level 2478.88 52.77 42.83 01,03,1991 27,672 869.49

Normal
82.98 Coolant Level 2456.26 52.77 42.83 04,04,2014 27,672 873.69
Normal
82.98 Coolant Level 2456.26 52.77 42.83 04,04,2014 27,672 873.69

Normal
83.01 Coolant Level 2441.97 52.77 42.83 01,04,2018 27,672 872.72

Normal
82.98 Coolant Level 2459.04 52.87 42.83 04,04,2014 27,672 889.85

Normal
83 Coolant Level 2432.84 52.87 42.83 01,03,1999 27,672 875.52

Normal
83.01 Coolant Level 2437.6 52.87 42.83 04,09,2014 27,625 875.52

Normal
82.91 Coolant Level 2436.81 52.87 42.83 04,09,2014 27,672 871.65

Normal
83.01 Coolant Level 2436.81 52.87 42.83 04,04,2014 27,672 892.12

Normal
83.01 Coolant Level 2450.7 52.77 42.83 01,03,1991 27,625 879.94

Normal
83.01 Coolant Level 2436.81 52.77 42.83 04,04,2014 27,672 875.63

Normal
83.01 Coolant Level 2436.81 52.77 42.83 04,04,2014 27,672 875.63

Normal
82.98 Coolant Level 2454.67 52.77 42.83 04,09,2014 27,672 872.08

Normal
83.01 Coolant Level 2435.62 52.77 42.83 01,03,1999 27,625 872.83

Normal
83 Coolant Level 2450.7 52.77 42.83 04,09,2014 27,672 885.11

Normal
83 Coolant Level 2434.43 52.77 42.83 04,09,2014 27,672 882.64

Normal
82.9 Coolant Level 2446.73 52.77 42.83 01,03,1995 27,672 873.59

Normal
82.98 Coolant Level 2461.42 52.77 42.83 01,03,1981 27,672 873.59

Normal
82.91 Coolant Level 2495.55 52.77 42.83 04,04,2014 27,672 871.65

Normal
82.9 Coolant Level 2483.64 52.66 42.74 01,03,1999 27,672 871.97

Normal
82.98 Coolant Level 2492.37 52.66 42.75 01,03,1986 27,672 868.85
Normal
82.87 Coolant Level 2483.64 52.77 42.75 01,03,1986 27,672 875.96

Normal
82.91 Coolant Level 2470.94 52.66 42.8 04,09,2014 27,672 873.69

Normal
83 Coolant Level 2443.95 52.77 42.74 01,03,1986 27,672 872.72

Normal
82.86 Coolant Level 2470.15 52.77 42.81 01,03,1986 27,672 862.17

Normal
83 Coolant Level 2483.64 52.77 42.73 01,04,2018 27,672 865.4

Normal
82.9 Coolant Level 2474.51 52.77 42.75 01,03,1999 27,672 874.23

Normal
82.9 Coolant Level 2474.51 52.77 42.75 01,03,1999 27,672 874.23

Normal
83 Coolant Level 2447.53 52.77 42.73 01,03,1981 27,625 879.83

Normal
83 Coolant Level 2437.6 52.77 42.83 01,03,1999 27,672 872.62

Normal
82.91 Coolant Level 2438 52.77 42.73 01,03,1977 27,672 869.06

Normal
82.91 Coolant Level 2438 52.77 42.73 01,03,1977 27,672 869.06

Normal
82.98 Coolant Level 2454.67 52.66 42.73 01,03,1995 27,672 874.56

Normal
83.01 Coolant Level 2441.18 52.66 42.73 01,03,1995 27,672 876.06

Normal
83.01 Coolant Level 2454.67 52.77 42.73 04,04,2014 27,672 874.23

Normal
82.91 Coolant Level 2441.57 52.66 42.73 04,09,2014 27,672 878.11

Normal
83.01 Coolant Level 2451.1 52.66 42.73 01,03,1995 27,672 872.94

Normal
82.98 Coolant Level 2481.66 52.66 42.73 04,04,2014 27,625 875.85

Normal
83.01 Coolant Level 2489.99 52.66 42.73 01,03,1991 27,625 864.97

Normal
83.01 Coolant Level 2481.26 52.66 42.73 04,09,2014 27,672 871.86
Normal
83.01 Coolant Level 2499.12 52.66 42.73 01,03,1986 27,672 879.51

Normal
83 Coolant Level 2478.88 52.66 42.73 01,03,1999 27,672 871.65

Normal
83.01 Coolant Level 2489.99 52.66 42.73 01,03,1986 27,672 867.66

Normal
83.01 Coolant Level 2478.88 52.66 42.74 01,03,1986 27,672 863.24

Normal
82.91 Coolant Level 2499.52 52.66 42.8 04,09,2014 27,672 868.41

Normal
83.01 Coolant Level 2482.85 52.66 42.73 01,04,2027 27,672 869.71

Normal
83.01 Coolant Level 2467.37 52.77 42.73 01,03,1999 27,625 871.86

Normal
83.01 Coolant Level 2440.78 52.77 42.73 01,03,1991 27,625 870.78

Normal
83.01 Coolant Level 2439.19 52.77 42.74 04,04,2014 27,672 877.57

Normal
83.01 Coolant Level 2444.75 52.77 42.8 01,03,1999 27,672 875.85

Normal
83.01 Coolant Level 2434.83 52.66 42.8 01,03,1991 27,672 869.71

Normal
82.98 Coolant Level 2444.75 52.77 42.8 04,09,2014 27,672 878.76

Normal
83.01 Coolant Level 2443.56 52.77 42.83 01,04,2013 27,672 878.22

Normal
82.91 Coolant Level 2452.29 52.77 42.74 01,03,1999 27,672 875.09

Normal
83.01 Coolant Level 2462.61 52.77 42.74 01,03,1991 27,625 880.59

Normal
82.91 Coolant Level 2447.53 52.77 42.73 04,09,2014 27,672 872.29

Normal
83.01 Coolant Level 2466.97 52.77 42.73 04,04,2014 27,672 871.75

Normal
83.01 Coolant Level 2496.74 52.66 42.73 01,03,1986 27,672 870.03

Normal
83.01 Coolant Level 2496.74 52.66 42.73 01,03,1986 27,672 870.03
Normal
83 Coolant Level 2458.64 52.66 42.73 01,03,1991 27,672 879.83

Normal
83.01 Coolant Level 2493.56 52.77 42.73 01,03,1995 27,672 881.88

Normal
83.01 Coolant Level 2458.64 52.77 42.71 01,03,1995 27,625 872.94

Normal
83.01 Coolant Level 2489.6 52.77 42.73 01,03,1986 27,672 877.89

Normal
83.01 Coolant Level 2489.2 52.77 42.73 01,03,1999 27,672 880.05

Normal
83.01 Coolant Level 2478.88 52.77 42.7 04,09,2014 27,672 873.05

Normal
83.01 Coolant Level 2493.96 52.77 42.7 01,03,1991 27,672 873.15

Normal
82.91 Coolant Level 2478.88 52.77 42.64 04,09,2014 27,672 865.61

Normal
83 Coolant Level 2493.96 52.87 42.7 01,03,1999 27,672 870.68

Normal
83.01 Coolant Level 2483.25 52.77 42.7 01,03,1991 27,672 866.15

Normal
83.01 Coolant Level 2459.04 52.77 42.63 01,03,1995 27,672 866.69

Normal
82.91 Coolant Level 2478.48 52.77 42.63 04,09,2014 27,672 871.97

Normal
83.01 Coolant Level 2459.04 52.66 42.63 04,04,2014 27,672 870.68

Normal
83.01 Coolant Level 2488.01 52.77 42.63 01,03,1999 27,672 873.26

Normal
83.01 Coolant Level 2463 52.77 42.63 04,04,2014 27,625 868.63

Normal
83.01 Coolant Level 2478.88 52.66 42.63 01,03,1999 27,625 866.8

Normal
82.91 Coolant Level 2466.58 52.66 42.63 01,03,1999 27,672 876.71

Normal
83.01 Coolant Level 2445.54 52.66 42.63 01,03,1991 27,672 881.77

Normal
83.01 Coolant Level 2471.34 52.66 42.63 01,03,1991 27,672 867.55
Normal
83.01 Coolant Level 2488.01 52.66 42.63 01,03,1995 27,672 862.81

Normal
83.01 Coolant Level 2471.34 52.77 42.63 01,03,1991 27,625 863.67

Normal
83.01 Coolant Level 2449.51 52.66 42.63 04,09,2014 27,672 874.66

Normal
83.01 Coolant Level 2449.51 52.66 42.63 01,04,2027 27,672 877.25

Normal
83.01 Coolant Level 2470.94 52.66 42.55 01,04,2027 27,672 877.25

Normal
82.91 Coolant Level 2495.55 52.66 42.6 01,03,1999 27,672 881.88

Normal
82.91 Coolant Level 2465.78 52.66 42.6 01,03,1999 27,625 876.39

Normal
83.01 Coolant Level 2446.73 52.66 42.6 04,04,2014 27,672 875.63

Normal
83.01 Coolant Level 2462.61 52.56 42.53 01,03,1995 27,672 878.97

Normal
83.01 Coolant Level 2462.61 52.56 42.53 01,03,1995 27,672 878.97

Normal
83.01 Coolant Level 2496.34 52.56 42.6 04,04,2014 27,672 879.4

Normal
83.01 Coolant Level 2483.64 52.56 42.53 04,09,2014 27,672 874.77

Normal
83.01 Coolant Level 2496.34 52.66 42.53 04,04,2014 27,672 872.19

Normal
82.98 Coolant Level 2488.8 52.56 42.62 01,03,1991 27,672 882.42

Normal
82.91 Coolant Level 2492.77 52.56 42.62 01,03,1999 27,672 868.74

Normal
82.91 Coolant Level 2492.77 52.56 42.6 04,04,2014 27,672 881.45

Normal
83.01 Coolant Level 2488.8 52.56 42.6 04,04,2014 27,672 881.45

Normal
83.01 Coolant Level 2474.91 52.56 42.55 01,03,1986 27,625 866.26

Normal
83.01 Coolant Level 2493.56 52.56 42.63 01,03,1991 27,672 869.82
Normal
83.01 Coolant Level 2474.91 52.56 42.63 04,04,2014 27,672 884.14

Normal
83.01 Coolant Level 2493.17 52.56 42.62 01,03,1986 27,672 872.51

Normal
83.01 Coolant Level 2485.63 52.66 42.62 01,03,1991 27,625 871.11

Normal
83.01 Coolant Level 2493.96 52.66 42.63 01,04,2018 27,672 867.01

Normal
83.01 Coolant Level 2483.25 52.56 42.63 01,04,2018 27,672 872.29

Normal
83.01 Coolant Level 2460.23 52.56 42.63 01,03,1991 27,672 879.4

Normal
83.01 Coolant Level 2478.88 52.56 42.63 01,04,2018 27,672 859.9

Normal
83.01 Coolant Level 2459.43 52.56 42.63 04,09,2014 27,672 859.8

Normal
83.01 Coolant Level 2483.64 52.56 42.63 04,04,2014 27,625 865.4

Normal
83.01 Coolant Level 2499.52 52.66 42.63 01,03,1999 27,672 876.93

Normal
83.01 Coolant Level 2470.15 52.56 42.63 04,09,2014 27,672 884.25

Normal
83.01 Coolant Level 2490.79 52.66 42.63 04,09,2014 27,672 878.65

Normal
83.01 Coolant Level 2470.15 52.66 42.63 01,03,1995 27,672 874.23

Normal
83.01 Coolant Level 2500.31 52.66 42.64 04,09,2014 27,625 878

Normal
83.01 Coolant Level 2492.37 52.66 42.63 01,04,2023 27,625 878.11

Normal
83.01 Coolant Level 2440.78 52.66 42.72 01,03,1999 27,672 880.16

Normal
83.01 Coolant Level 2456.26 52.66 42.64 01,04,2023 27,672 882.64

Normal
83.01 Coolant Level 2436.41 52.66 42.63 01,04,2027 27,672 870.68

Normal
83.01 Coolant Level 2451.5 52.56 42.63 01,03,1995 27,672 878.22
Normal
83.01 Coolant Level 2469.75 52.66 42.63 01,03,1991 27,672 875.63

Normal
83.01 Coolant Level 2494.75 52.56 42.63 01,04,2027 27,672 870.03

Normal
83.01 Coolant Level 2487.61 52.56 42.63 01,04,2013 27,625 871.65

Normal
83.01 Coolant Level 2501.1 52.56 42.7 01,03,1977 27,625 878.43

Normal
83.01 Coolant Level 2483.64 52.56 42.64 01,04,2013 27,672 880.05

Normal
83.01 Coolant Level 2483.64 52.56 42.64 01,04,2013 27,672 880.05

Normal
83.01 Coolant Level 2491.58 52.56 42.63 01,04,2013 27,672 876.71

Normal
83.01 Coolant Level 2483.64 52.56 42.7 04,09,2014 27,672 878.33

Normal
83.01 Coolant Level 2470.94 52.56 42.7 01,03,1999 27,672 869.17

Normal
83.01 Coolant Level 2492.77 52.56 42.65 04,04,2014 27,672 871.86

Normal
83.01 Coolant Level 2474.91 52.56 42.73 01,04,2013 27,672 873.15

Normal
83.01 Coolant Level 2447.92 52.56 42.73 01,03,1981 27,672 878.22

Normal
83.01 Coolant Level 2474.91 52.56 42.7 01,03,1999 27,672 869.06

Normal
83.01 Coolant Level 2452.69 52.56 42.7 04,04,2014 27,672 874.77

Normal
83.01 Coolant Level 2452.69 52.56 42.7 04,04,2014 27,672 874.77

Normal
83.01 Coolant Level 2438.4 52.56 42.73 01,03,1986 27,672 872.29

Normal
83.01 Coolant Level 2452.29 52.56 42.73 01,03,1999 27,672 873.37

Normal
83.01 Coolant Level 2442.76 52.56 42.73 04,09,2014 27,672 877.14

Normal
83.01 Coolant Level 2446.34 52.56 42.73 01,04,2013 27,672 879.62
Normal
83.01 Coolant Level 2454.67 52.56 42.73 01,03,1977 27,672 877.46

Normal
83.01 Coolant Level 2442.37 52.56 42.73 04,04,2014 27,672 873.59

Normal
82.98 Coolant Level 2455.86 52.56 42.73 04,09,2014 27,672 873.48

Normal
83.01 Coolant Level 2445.94 52.56 42.73 01,04,2013 27,672 872.4

Normal
83.01 Coolant Level 2437.21 52.56 42.73 01,03,1999 27,672 878.97

Normal
83.01 Coolant Level 2441.18 52.56 42.73 01,03,1999 27,672 886.19

Normal
83.01 Coolant Level 2456.26 52.56 42.73 01,03,1995 27,625 872.72

Normal
83.01 Coolant Level 2477.29 52.66 42.73 01,03,1999 27,672 865.08

Normal
82.91 Coolant Level 2451.5 52.66 42.73 04,09,2014 27,672 878.65

Normal
83.01 Coolant Level 2439.99 52.66 42.73 01,04,2018 27,672 882.31

Normal
83.01 Coolant Level 2450.7 52.66 42.73 04,04,2014 27,672 879.08

Normal
83.01 Coolant Level 2470.15 52.66 42.73 01,03,1995 27,672 871.43

Normal
83 Coolant Level 2451.5 52.66 42.73 01,04,2018 27,672 870.35

Normal
83.01 Coolant Level 2466.18 52.66 42.73 04,09,2014 27,672 882.2

Normal
83 Coolant Level 2451.5 52.66 42.73 01,03,1991 27,672 872.83

Normal
83.01 Coolant Level 2438.8 52.66 42.73 01,03,1999 27,625 878

Normal
83.01 Coolant Level 2446.73 52.66 42.81 04,04,2014 27,672 872.94

Normal
82.98 Coolant Level 2462.21 52.66 42.73 01,03,1999 27,672 874.12

Normal
82.98 Coolant Level 2462.21 52.66 42.73 01,03,1999 27,672 874.12
Normal
82.98 Coolant Level 2462.21 52.66 42.73 01,03,1999 27,672 874.12

Normal
83.01 Coolant Level 2495.55 52.66 42.73 01,03,1995 27,672 875.96

Normal
83 Coolant Level 2461.42 52.66 42.73 04,09,2014 27,672 878.65

Normal
83 Coolant Level 2447.53 52.66 42.8 04,04,2014 27,672 884.04

Normal
83.01 Coolant Level 2462.21 52.77 42.73 01,03,1995 27,672 885.54

Normal
83.01 Coolant Level 2447.13 52.66 42.81 01,04,2013 27,672 869.38

Normal
83.01 Coolant Level 2447.13 52.66 42.81 01,04,2013 27,672 869.38

Normal
83.01 Coolant Level 2458.64 52.77 42.81 01,03,1999 27,672 880.59

Normal
82.98 Coolant Level 2488.01 52.66 42.73 04,04,2014 27,672 877.89

Normal
83.01 Coolant Level 2453.88 52.66 42.82 04,09,2014 27,625 884.68

Normal
82.98 Coolant Level 2484.04 52.66 42.81 04,09,2014 27,625 881.23

Normal
83.01 Coolant Level 2489.2 52.66 42.75 04,09,2014 27,672 871.75

Normal
83.01 Coolant Level 2480.47 52.66 42.83 01,04,2013 27,672 880.8

Normal
83.01 Coolant Level 2488.4 52.66 42.75 04,09,2014 27,672 876.39

Normal
83.01 Coolant Level 2483.64 52.77 42.81 01,03,1995 27,625 868.74

Normal
83.01 Coolant Level 2451.5 52.66 42.75 04,04,2014 27,672 871.22

Normal
82.89 Coolant Level 2478.48 52.66 42.73 01,04,2018 27,625 881.34

Normal
83.01 Coolant Level 2455.46 52.66 42.74 01,04,2018 27,672 882.74

Normal
83.01 Coolant Level 2432.84 52.77 42.83 01,03,1999 27,672 874.88
Normal
83.01 Coolant Level 2454.67 52.77 42.81 01,03,1999 27,672 871.54

Normal
83.01 Coolant Level 2436.81 52.66 42.82 01,04,2018 27,672 872.62

Normal
83.01 Coolant Level 2436.81 52.66 42.82 01,04,2018 27,672 872.62

Normal
83 Coolant Level 2463 52.77 42.83 04,04,2014 27,672 884.25

Normal
83 Coolant Level 2436.81 52.66 42.73 01,03,1995 27,672 877.36

Normal
83.01 Coolant Level 2436.41 52.66 42.73 01,03,1995 27,672 876.17

Normal
82.98 Coolant Level 2436.81 52.66 42.75 01,03,1999 27,672 871

Normal
82.91 Coolant Level 2430.86 52.66 42.73 01,03,1981 27,672 878.11

Normal
83.01 Coolant Level 2432.45 52.66 42.74 01,04,2018 27,672 887.91

Normal
83.01 Coolant Level 2430.46 52.77 42.73 04,04,2014 27,672 878.22

Normal
82.98 Coolant Level 2445.94 52.66 42.73 04,04,2014 27,625 874.12

Normal
83.01 Coolant Level 2461.02 52.66 42.73 01,03,1999 27,672 877.57

Normal
82.9 Coolant Level 2446.73 52.77 42.73 01,04,2013 27,672 877.68

Normal
83 Coolant Level 2461.42 52.77 42.73 01,03,1995 27,672 874.88

Normal
83.01 Coolant Level 2496.34 52.77 42.73 01,03,1981 27,672 871.97

Normal
83.01 Coolant Level 2457.45 52.77 42.73 01,03,1999 27,672 872.51

Normal
83 Coolant Level 2492.37 52.77 42.73 01,04,2013 27,672 885.33

Normal
83 Coolant Level 2458.64 52.77 42.73 01,03,1995 27,672 878.11

Normal
83 Coolant Level 2497.53 52.77 42.73 01,03,1991 27,672 875.74
Normal
82.87 Coolant Level 2488.8 52.77 42.73 04,09,2014 27,672 875.74

Normal
82.89 Coolant Level 2470.15 52.77 42.73 01,03,1999 27,672 878.33

Normal
82.98 Coolant Level 2488.4 52.77 42.73 01,03,1981 27,672 880.48

Normal
82.97 Coolant Level 2484.44 52.77 42.73 01,03,1995 27,672 870.25

Normal
82.86 Coolant Level 2484.44 52.77 42.73 01,03,1991 27,672 868.63

Normal
83.01 Coolant Level 2469.75 52.77 42.73 01,03,1991 27,672 868.95

Normal
82.86 Coolant Level 2489.99 52.77 42.73 01,03,1995 27,672 874.66

Normal
82.86 Coolant Level 2478.88 52.77 42.73 01,03,1995 27,672 870.25

Normal
82.86 Coolant Level 2485.23 52.77 42.73 01,03,1991 27,672 870.14

Normal
82.87 Coolant Level 2478.88 52.77 42.73 01,03,1999 27,672 871.11

Normal
82.86 Coolant Level 2494.36 52.77 42.73 01,03,1995 27,672 871.22

Normal
82.86 Coolant Level 2478.88 52.77 42.73 01,04,2023 27,672 874.12

Normal
82.87 Coolant Level 2458.64 52.77 42.73 01,03,1999 27,672 867.77

Normal
82.86 Coolant Level 2432.45 52.66 42.73 01,03,1991 27,672 867.77

Normal
82.86 Coolant Level 2457.85 52.66 42.73 01,03,1995 27,672 873.26

Normal
82.87 Coolant Level 2436.81 52.66 42.73 01,03,1999 27,672 869.71

Normal
82.87 Coolant Level 2466.58 52.66 42.73 01,03,1995 27,672 871.11

Normal
82.98 Coolant Level 2440.78 52.66 42.73 04,04,2014 27,672 872.51

Normal
82.86 Coolant Level 2434.83 52.66 42.73 01,04,2023 27,672 874.23
Normal
82.87 Coolant Level 2446.73 52.66 42.73 04,04,2014 27,625 880.59

Normal
82.9 Coolant Level 2438.8 52.66 42.73 04,04,2014 27,672 876.06

Normal
82.86 Coolant Level 2451.5 52.66 42.73 04,09,2014 27,625 874.88

Normal
82.86 Coolant Level 2438.4 52.66 42.73 01,03,1999 27,672 875.2

Normal
82.87 Coolant Level 2447.53 52.66 42.73 04,09,2014 27,672 880.7

Normal
82.86 Coolant Level 2439.19 52.66 42.73 04,04,2014 27,672 878.22

Normal
83.01 Coolant Level 2441.97 52.66 42.73 01,03,1986 27,672 865.72

Normal
82.87 Coolant Level 2434.83 52.66 42.73 01,03,1995 27,672 859.37

Normal
82.87 Coolant Level 2447.13 52.66 42.73 01,03,1999 27,672 879.83

Normal
82.87 Coolant Level 2447.13 52.66 42.73 01,03,1999 27,672 879.83

Normal
82.89 Coolant Level 2483.64 52.77 42.73 01,04,2013 27,672 876.6

Normal
82.87 Coolant Level 2470.15 52.66 42.73 01,03,1999 27,672 871.86

Normal
82.89 Coolant Level 2483.64 52.66 42.73 01,03,1995 27,672 876.6

Normal
82.89 Coolant Level 2483.64 52.66 42.73 01,03,1995 27,672 876.6

Normal
82.97 Coolant Level 2470.15 52.66 42.73 01,03,1999 27,672 864.54

Normal
82.86 Coolant Level 2483.64 52.66 42.73 01,03,1999 27,672 870.46

Normal
82.97 Coolant Level 2470.15 52.66 42.73 04,04,2014 27,672 870.03

Normal
82.87 Coolant Level 2488.8 52.66 42.73 04,09,2014 27,672 870.25

Normal
82.87 Coolant Level 2474.51 52.66 42.73 01,03,1999 27,672 866.15
Normal
82.97 Coolant Level 2451.5 52.66 42.73 01,03,1991 27,672 880.05

Normal
82.86 Coolant Level 2433.24 52.66 42.73 01,03,1999 27,672 884.47

Normal
82.86 Coolant Level 2451.5 52.66 42.8 01,04,2018 27,672 879.62

Normal
82.87 Coolant Level 2441.97 52.66 42.8 04,09,2014 27,672 871.43

Normal
82.87 Coolant Level 2455.46 52.66 42.82 01,03,1991 27,672 866.37

Normal
82.97 Coolant Level 2432.45 52.66 42.83 01,04,2018 27,672 879.62

Normal
82.97 Coolant Level 2432.45 52.66 42.83 01,04,2018 27,672 879.62

Normal
82.89 Coolant Level 2454.67 52.66 42.81 04,09,2014 27,672 884.68

Normal
82.86 Coolant Level 2441.18 52.66 42.83 01,03,1999 27,672 877.36

Normal
82.86 Coolant Level 2441.18 52.66 42.83 01,03,1995 27,672 873.59

Normal
82.86 Coolant Level 2436.81 52.56 42.83 04,09,2014 27,672 871.22

Normal
82.86 Coolant Level 2463.4 52.66 42.75 01,04,2013 27,672 887.05

Normal
82.86 Coolant Level 2440.78 52.66 42.83 01,03,1999 27,672 880.7

Normal
82.86 Coolant Level 2439.99 52.66 42.83 01,04,2013 27,672 871.43

Normal
82.86 Coolant Level 2451.5 52.66 42.83 01,03,1991 27,672 866.8

Normal
82.89 Coolant Level 2439.99 52.66 42.83 01,03,1995 27,672 877.68

Normal
82.97 Coolant Level 2455.46 52.66 42.83 01,04,2018 27,672 875.85

Normal
82.87 Coolant Level 2439.59 52.66 42.83 04,09,2014 27,672 879.62

Normal
82.98 Coolant Level 2451.5 52.66 42.83 04,09,2014 27,625 873.8
Normal
82.98 Coolant Level 2462.61 52.66 42.83 01,04,2013 27,672 871.65

Normal
82.9 Coolant Level 2446.73 52.66 42.83 01,03,1995 27,672 872.72

Normal
83 Coolant Level 2462.21 52.77 42.83 04,04,2014 27,672 877.79

Normal
82.98 Coolant Level 2446.73 52.77 42.83 01,03,1995 27,672 867.23

Normal
82.89 Coolant Level 2463.4 52.77 42.83 04,04,2014 27,672 875.74

Normal
83 Coolant Level 2447.13 52.66 42.83 01,04,2013 27,672 878.86

Normal
83 Coolant Level 2458.64 52.66 42.86 01,03,1991 27,672 877.46

Normal
83.01 Coolant Level 2488.4 52.77 42.83 01,03,1995 27,672 874.45

Normal
83 Coolant Level 2459.04 52.77 42.83 04,09,2014 27,672 873.91

Normal
83.01 Coolant Level 2485.63 52.66 42.83 04,04,2014 27,672 885.54

Normal
83 Coolant Level 2455.07 52.77 42.91 01,03,1999 27,672 880.05

Normal
83 Coolant Level 2485.63 52.77 42.93 01,03,1995 27,672 873.05

Normal
83.01 Coolant Level 2489.2 52.77 42.93 01,03,1991 27,672 869.49

Normal
82.98 Coolant Level 2478.88 52.77 42.91 01,03,1999 27,625 869.49

Normal
83.01 Coolant Level 2459.43 52.77 42.83 01,03,1999 27,672 882.74

Normal
82.91 Coolant Level 2478.88 52.77 42.84 04,09,2014 27,625 877.57

Normal
83 Coolant Level 2459.04 52.77 42.92 04,09,2014 27,672 873.37

Normal
82.91 Coolant Level 2483.64 52.77 42.86 01,03,1999 27,672 866.37

Normal
82.91 Coolant Level 2494.75 52.77 42.86 01,04,2013 27,672 872.94
Normal
82.9 Coolant Level 2482.85 52.77 42.83 01,04,2023 27,672 867.98

Normal
82.98 Coolant Level 2462.61 52.77 42.91 01,03,1995 27,672 871.43

Normal
82.97 Coolant Level 2482.85 52.77 42.91 01,03,1991 27,672 864.54

Normal
82.89 Coolant Level 2466.58 52.66 42.86 01,04,2013 27,625 863.78

Normal
82.89 Coolant Level 2466.58 52.66 42.86 01,04,2013 27,625 863.78

Normal
82.98 Coolant Level 2482.85 52.77 42.83 04,04,2014 27,672 872.51

Normal
82.97 Coolant Level 2471.34 52.77 42.83 01,03,1977 27,672 875.96

Normal
82.87 Coolant Level 2440.78 52.77 42.83 04,09,2014 27,672 873.91

Normal
82.86 Coolant Level 2438.8 52.66 42.83 01,04,2027 27,672 872.94

Normal
82.87 Coolant Level 2446.73 52.66 42.83 01,03,1999 27,672 882.2

Normal
82.87 Coolant Level 2438.4 52.77 42.83 01,03,1986 27,672 880.37

Normal
82.87 Coolant Level 2451.5 52.77 42.83 01,03,1995 27,625 873.48

Normal
83 Coolant Level 2462.61 52.77 42.83 04,09,2014 27,672 866.69

Normal
82.91 Coolant Level 2446.73 52.77 42.83 01,03,1995 27,672 884.04

Normal
83 Coolant Level 2458.64 52.77 42.86 01,03,1995 27,672 878.65

Normal
82.98 Coolant Level 2442.37 52.77 42.86 01,03,1991 27,672 870.78

Normal
82.89 Coolant Level 2453.88 52.77 42.86 01,03,1999 27,672 876.6

Normal
82.87 Coolant Level 2488.4 52.77 42.86 01,03,1991 27,672 872.29

Normal
82.98 Coolant Level 2488.4 52.77 42.93 01,03,1999 27,672 884.25
Normal
82.86 Coolant Level 2484.44 52.77 42.91 01,04,2023 27,672 874.02

Normal
82.87 Coolant Level 2488.4 52.77 42.92 01,03,1977 27,672 878.33

Normal
82.86 Coolant Level 2485.63 52.77 42.91 04,04,2014 27,672 872.62

Normal
82.9 Coolant Level 2489.2 52.77 42.86 01,03,1999 27,672 875.52

Normal
82.87 Coolant Level 2478.88 52.77 42.93 01,04,2018 27,672 877.46

Normal
82.87 Coolant Level 2455.46 52.77 42.91 04,09,2014 27,672 870.35

Normal
82.86 Coolant Level 2478.88 52.77 42.86 01,04,2023 27,672 877.46

Normal
82.87 Coolant Level 2454.67 52.77 42.83 01,03,1986 27,672 880.16

Normal
82.87 Coolant Level 2478.88 52.77 42.83 01,03,1991 27,672 874.23

Normal
82.86 Coolant Level 2459.04 52.77 42.83 01,04,2013 27,672 866.04

Normal
82.86 Coolant Level 2482.85 52.77 42.83 01,04,1932 27,672 861.2

Normal
82.86 Coolant Level 2482.85 52.77 42.83 01,04,1932 27,672 861.2

Normal
82.87 Coolant Level 2467.37 52.77 42.83 04,04,2014 27,672 875.52

Normal
82.87 Coolant Level 2441.18 52.77 42.83 01,03,1995 27,672 880.05

Normal
82.98 Coolant Level 2466.58 52.77 42.75 01,03,1995 27,672 862.38

Normal
82.98 Coolant Level 2440.78 52.77 42.75 01,03,1999 27,672 867.98

Normal
82.9 Coolant Level 2471.34 52.77 42.75 01,03,1981 27,672 873.48

Normal
83 Coolant Level 2441.18 52.77 42.73 04,04,2014 27,672 878.22

Normal
83.01 Coolant Level 2439.19 52.77 42.82 01,04,2018 27,672 876.93
Normal
83 Coolant Level 2451.5 52.77 42.73 04,04,2014 27,672 874.12

Normal
82.97 Coolant Level 2470.55 52.77 42.73 01,03,1977 27,672 871.11

Normal
82.89 Coolant Level 2447.53 52.77 42.73 04,09,2014 27,672 875.63

Normal
83 Coolant Level 2462.21 52.77 42.73 01,04,2018 27,672 877.89

Normal
83.01 Coolant Level 2447.53 52.77 42.73 01,03,1986 27,672 872.83

Normal
82.91 Coolant Level 2462.61 52.77 42.73 01,03,1999 27,672 866.58

Normal
83.01 Coolant Level 2488.8 52.77 42.73 04,04,2014 27,672 879.62

Normal
83 Coolant Level 2458.64 52.77 42.73 01,03,1999 27,672 883.28

Normal
83.01 Coolant Level 2492.77 52.77 42.66 04,04,2014 27,672 875.52

Normal
83.01 Coolant Level 2488.8 52.77 42.7 04,09,2014 27,672 874.88

Normal
83.01 Coolant Level 2494.36 52.77 42.66 01,04,2013 27,625 885.11

Normal
83 Coolant Level 2493.17 52.77 42.7 01,03,1999 27,672 876.71

Normal
83 Coolant Level 2480.47 52.77 42.73 01,03,1995 27,672 871.32

Normal
83.01 Coolant Level 2489.2 52.77 42.63 01,03,1991 27,625 871.11

Normal
83.01 Coolant Level 2474.51 52.77 42.72 01,03,1999 27,672 867.88

Normal
83.01 Coolant Level 2455.46 52.66 42.66 01,03,1999 27,672 879.08

Normal
83.01 Coolant Level 2478.48 52.77 42.66 01,04,2013 27,672 877.57

Normal
82.98 Coolant Level 2459.43 52.77 42.64 01,03,1999 27,672 866.26

Normal
83.01 Coolant Level 2478.88 52.66 42.72 01,03,1991 27,672 866.26
Normal
83.01 Coolant Level 2489.99 52.66 42.7 01,04,2013 27,672 872.51

Normal
83.01 Coolant Level 2482.85 52.66 42.73 01,04,2018 27,672 874.45

Normal
83.01 Coolant Level 2490.79 52.77 42.73 04,09,2014 27,672 875.63

Normal
83.01 Coolant Level 2482.85 52.77 42.73 01,03,1977 27,672 865.61

Normal
83.01 Coolant Level 2467.37 52.77 42.73 04,04,2014 27,672 866.91

Normal
83.01 Coolant Level 2483.64 52.77 42.73 04,04,2014 27,672 865.08

Normal
83.01 Coolant Level 2466.58 52.66 42.73 01,03,1991 27,672 873.37

Normal
83.01 Coolant Level 2440.78 52.77 42.73 01,03,1991 27,672 873.91

Normal
83.01 Coolant Level 2434.83 52.77 42.73 04,09,2014 27,672 875.09

Normal
83.01 Coolant Level 2439.99 52.77 42.73 01,04,2013 27,672 879.83

Normal
83 Coolant Level 2434.43 52.77 42.73 01,03,1995 27,672 882.2

Normal
83.01 Coolant Level 2443.95 52.77 42.73 01,04,2023 27,625 881.77

Normal
83.01 Coolant Level 2438.4 52.77 42.73 04,04,2014 27,672 870.14

Normal
83.01 Coolant Level 2443.56 52.77 42.7 01,03,1972 27,672 878.86

Normal
83.01 Coolant Level 2429.27 52.77 42.73 04,09,2014 27,672 880.59

Normal
82.91 Coolant Level 2443.56 52.77 42.73 01,03,1999 27,672 880.05

Normal
82.98 Coolant Level 2434.03 52.77 42.73 01,03,1999 27,672 874.02

Normal
83.01 Coolant Level 2451.5 52.77 42.73 04,09,2014 27,625 873.69

Normal
83.01 Coolant Level 2432.45 52.66 42.73 04,09,2014 27,625 877.36
Normal
83.01 Coolant Level 2446.73 52.66 42.73 01,04,2018 27,672 883.5

Normal
83 Coolant Level 2433.24 52.66 42.73 01,03,1999 27,672 880.26

Normal
83.01 Coolant Level 2455.46 52.66 42.73 04,09,2014 27,672 875.2

Normal
83.01 Coolant Level 2436.81 52.66 42.74 01,04,2013 27,672 870.46

Normal
83.01 Coolant Level 2459.04 52.77 42.75 01,03,1995 27,672 881.45

Normal
83.01 Coolant Level 2436.81 52.77 42.73 01,03,1999 27,672 878.54

Normal
83.01 Coolant Level 2436.81 52.77 42.73 01,03,1999 27,672 872.51

Normal
83.01 Coolant Level 2436.81 52.77 42.73 01,03,1999 27,672 871.43

Normal
82.91 Coolant Level 2436.41 52.77 42.73 04,04,2014 27,672 882.53

Normal
83.01 Coolant Level 2436.81 52.77 42.73 01,04,2018 27,672 885.44

Normal
83.01 Coolant Level 2431.65 52.77 42.73 01,03,1995 27,672 885.54

Normal
83.01 Coolant Level 2451.5 52.77 42.73 01,03,1986 27,672 866.91

Normal
83.01 Coolant Level 2451.5 52.77 42.73 01,03,1986 27,672 866.91

Normal
83.01 Coolant Level 2439.19 52.77 42.73 04,04,2014 27,672 874.66

Normal
83.01 Coolant Level 2446.73 52.77 42.73 01,04,2013 27,672 866.37

Normal
83.01 Coolant Level 2434.83 52.77 42.73 01,03,1986 27,672 877.25

Normal
83.01 Coolant Level 2447.53 52.77 42.73 01,03,1999 27,672 878.65

Normal
83.01 Coolant Level 2438.4 52.77 42.73 01,04,2023 27,672 867.88

Normal
83.01 Coolant Level 2447.53 52.77 42.73 01,04,2018 27,672 875.85
Normal
83.01 Coolant Level 2461.42 52.66 42.73 01,03,1999 27,672 879.83

Normal
83.01 Coolant Level 2501.1 52.77 42.73 04,04,2014 27,672 877.68

Normal
83.01 Coolant Level 2462.61 52.77 42.73 01,04,2013 27,672 876.82

Normal
83.01 Coolant Level 2492.77 52.77 42.73 04,04,2014 27,625 876.71

Normal
83.01 Coolant Level 2459.04 52.77 42.73 01,03,1986 27,625 880.05

Normal
83.01 Coolant Level 2488.8 52.87 42.73 04,09,2014 27,625 876.6

Normal
83.01 Coolant Level 2493.17 52.87 42.73 01,04,2013 27,672 870.89

Normal
83.01 Coolant Level 2478.48 52.87 42.73 04,04,2014 27,625 868.52

Normal
83.01 Coolant Level 2489.2 52.87 42.73 01,03,1995 27,672 877.25

Normal
83.01 Coolant Level 2478.48 52.87 42.73 01,04,2018 27,672 877.68

Normal
83.01 Coolant Level 2489.2 52.87 42.73 01,03,1991 27,625 873.8

Normal
83.01 Coolant Level 2481.26 52.87 42.73 01,03,1991 27,672 867.01

Normal
83.01 Coolant Level 2494.36 52.87 42.73 01,04,2023 27,672 873.48

Normal
82.91 Coolant Level 2483.25 52.87 42.73 01,04,2027 27,672 871.97

Normal
83.01 Coolant Level 2464.2 52.87 42.74 04,04,2014 27,625 875.63

Normal
83.01 Coolant Level 2441.97 52.87 42.73 01,03,1999 27,672 873.8

Normal
83.01 Coolant Level 2463.4 52.87 42.73 04,04,2014 27,672 868.85

Normal
83.01 Coolant Level 2441.18 52.87 42.82 01,03,1995 27,672 874.88

Normal
83.01 Coolant Level 2466.58 52.77 42.74 04,04,2014 27,672 877.46
Normal
83.01 Coolant Level 2441.18 52.77 42.73 04,04,2014 27,672 872.72

Normal
83.01 Coolant Level 2439.99 52.77 42.73 01,04,2018 27,672 880.26

Normal
83.01 Coolant Level 2436.81 52.77 42.75 04,04,2014 27,672 880.16

Normal
83.01 Coolant Level 2435.62 52.77 42.82 04,04,2014 27,672 880.37

Normal
83.01 Coolant Level 2439.99 52.77 42.83 01,04,2018 27,625 870.89

Normal
83.01 Coolant Level 2439.99 52.77 42.83 01,04,2018 27,625 870.89

Normal
83.01 Coolant Level 2478.09 52.77 42.83 01,03,1995 27,672 874.88

Normal
83.01 Coolant Level 2495.15 52.77 42.81 04,09,2014 27,672 866.26

Normal
83.01 Coolant Level 2483.64 52.77 42.74 01,04,2013 27,672 874.66

Normal
82.98 Coolant Level 2462.61 52.87 42.73 04,09,2014 27,672 869.71

Normal
83.01 Coolant Level 2440.78 52.87 42.81 01,03,1995 27,672 873.37

Normal
83.01 Coolant Level 2439.99 52.87 42.73 04,09,2014 27,672 873.59

Normal
83.01 Coolant Level 2445.54 52.77 42.74 01,03,1991 27,672 874.56

Normal
83 Coolant Level 2470.55 52.87 42.73 01,03,1995 27,672 875.31

Normal
83 Coolant Level 2444.75 52.87 42.73 04,09,2014 27,672 880.26

Normal
83.01 Coolant Level 2474.91 52.87 42.73 01,04,2018 27,625 872.08

Normal
83.01 Coolant Level 2443.95 52.77 42.73 04,04,2014 27,672 872.29

Normal
83.01 Coolant Level 2474.91 52.77 42.73 01,03,1995 27,672 881.99

Normal
83.01 Coolant Level 2447.92 52.77 42.73 04,09,2014 27,672 877.79
Normal
83.01 Coolant Level 2474.51 52.77 42.73 01,04,2018 27,672 874.45

Normal
82.98 Coolant Level 2452.29 52.77 42.73 01,03,1995 27,672 878

Normal
82.98 Coolant Level 2452.29 52.77 42.73 01,03,1995 27,672 878

Normal
83.01 Coolant Level 2434.03 52.77 42.73 04,04,2014 27,672 879.4

Normal
83.01 Coolant Level 2443.16 52.77 42.73 04,09,2014 27,672 884.9

Normal
83.01 Coolant Level 2438 52.66 42.73 01,03,1981 27,672 864.21

Normal
82.91 Coolant Level 2446.34 52.66 42.73 04,04,2014 27,672 877.14

Normal
82.98 Coolant Level 2432.45 52.66 42.73 01,03,1999 27,672 876.17

Normal
83.01 Coolant Level 2438 52.66 42.73 01,03,1999 27,672 882.53

Normal
83 Coolant Level 2436.81 52.66 42.73 01,03,1995 27,672 879.08

Normal
82.98 Coolant Level 2441.18 52.66 42.73 04,04,2014 27,672 873.15

Normal
83.01 Coolant Level 2455.46 52.66 42.73 01,04,2023 27,625 871.97

Normal
82.91 Coolant Level 2441.18 52.66 42.73 01,03,1995 27,672 887.7

Normal
83 Coolant Level 2441.18 52.77 42.73 01,03,1995 27,672 882.96

Normal
83.01 Coolant Level 2441.18 52.66 42.73 04,09,2014 27,672 878.65

Normal
83.01 Coolant Level 2456.26 52.66 42.73 01,03,1999 27,672 870.68

Normal
83.01 Coolant Level 2444.75 52.66 42.73 01,03,1991 27,672 873.8

Normal
83.01 Coolant Level 2451.5 52.66 42.73 04,04,2014 27,672 886.3

Normal
83.01 Coolant Level 2443.95 52.66 42.73 01,03,1995 27,672 878.22
Normal
83.01 Coolant Level 2452.29 52.66 42.81 04,04,2014 27,672 875.74

Normal
83.01 Coolant Level 2452.29 52.66 42.81 04,04,2014 27,672 875.74

Normal
82.91 Coolant Level 2470.15 52.66 42.73 01,03,1995 27,625 879.83

Normal
83.01 Coolant Level 2440.78 52.66 42.75 04,09,2014 27,672 892.55

Normal
83.01 Coolant Level 2451.5 52.66 42.8 01,03,1999 27,672 878.97

Normal
82.98 Coolant Level 2444.75 52.66 42.83 01,03,1995 27,672 869.71

Normal
83.01 Coolant Level 2456.26 52.66 42.8 01,04,2013 27,672 869.71

Normal
83.01 Coolant Level 2439.99 52.66 42.75 04,09,2014 27,625 876.39

Normal
82.87 Coolant Level 2456.26 52.77 42.82 04,04,2014 27,672 884.57

Normal
82.91 Coolant Level 2471.34 52.77 42.82 01,04,2018 27,625 876.93

Normal
83.01 Coolant Level 2456.26 52.77 42.73 04,04,2014 27,672 878.22

Normal
83 Coolant Level 2466.58 52.77 42.83 01,03,1999 27,625 875.31

Normal
82.91 Coolant Level 2451.5 52.77 42.82 01,04,2013 27,672 878.22

Normal
83.01 Coolant Level 2466.97 52.77 42.73 01,04,2013 27,672 889.1

Normal
82.87 Coolant Level 2447.53 52.77 42.73 01,03,1999 27,672 875.31

Normal
82.91 Coolant Level 2458.64 52.77 42.73 01,03,1995 27,672 876.28

Normal
82.91 Coolant Level 2492.37 52.77 42.73 01,03,1999 27,672 877.03

Normal
82.91 Coolant Level 2488.8 52.77 42.73 01,04,2013 27,672 881.99

Normal
82.91 Coolant Level 2488.8 52.77 42.73 01,04,2013 27,672 881.99
Normal
83.01 Coolant Level 2446.34 52.77 42.73 01,03,1981 27,672 880.7

Normal
83.01 Coolant Level 2463.4 52.77 42.73 04,09,2014 27,672 868.41

Normal
82.91 Coolant Level 2446.34 52.66 42.73 01,04,2013 27,672 870.68

Normal
82.87 Coolant Level 2459.83 52.66 42.73 01,03,1999 27,672 877.25

Normal
83 Coolant Level 2485.63 52.77 42.73 01,03,1991 27,672 876.6

Normal
82.86 Coolant Level 2455.07 52.66 42.73 01,04,2013 27,672 881.77

Normal
82.97 Coolant Level 2476.9 52.77 42.73 01,04,2018 27,672 875.74

Normal
82.87 Coolant Level 2455.46 52.66 42.73 01,03,1995 27,672 878.22

Normal
82.89 Coolant Level 2482.05 52.66 42.73 04,04,2014 27,672 879.51

Normal
82.9 Coolant Level 2494.36 52.66 42.73 04,04,2014 27,672 873.15

Normal
82.97 Coolant Level 2478.88 52.66 42.73 01,03,1999 27,672 873.48

Normal
82.87 Coolant Level 2499.52 52.66 42.73 01,03,1995 27,672 876.49

Normal
82.89 Coolant Level 2488.01 52.66 42.73 01,04,2023 27,672 871.97

Normal
82.9 Coolant Level 2490.79 52.77 42.73 04,09,2014 27,672 870.57

Normal
82.9 Coolant Level 2490.79 52.77 42.73 04,09,2014 27,672 870.57

Normal
82.98 Coolant Level 2482.85 52.77 42.7 01,03,1995 27,672 874.66

Normal
82.91 Coolant Level 2499.52 52.66 42.73 04,04,2014 27,625 870.14

Normal
82.91 Coolant Level 2484.04 52.66 42.64 01,04,2023 27,672 873.15

Normal
82.98 Coolant Level 2496.34 52.66 42.7 01,03,1999 27,672 884.47
Normal
83.01 Coolant Level 2492.77 52.66 42.73 01,03,1995 27,672 874.45

Normal
82.98 Coolant Level 2500.31 52.66 42.63 01,04,2013 27,672 862.06

Normal
83.01 Coolant Level 2483.64 52.66 42.63 04,09,2014 27,672 870.14

Normal
82.91 Coolant Level 2474.91 52.66 42.63 04,04,2014 27,672 868.09

Normal
83 Coolant Level 2444.75 52.66 42.63 04,04,2014 27,672 880.16

Normal
83.01 Coolant Level 2438.4 52.66 42.63 01,04,2023 27,672 875.96

Normal
83.01 Coolant Level 2443.56 52.66 42.63 04,04,2014 27,672 877.14

Normal
83.01 Coolant Level 2443.56 52.66 42.63 04,04,2014 27,672 877.14

Normal
83.01 Coolant Level 2462.21 52.66 42.63 04,09,2014 27,672 873.91

Normal
82.91 Coolant Level 2442.76 52.66 42.63 01,03,1999 27,672 875.09

Normal
83.01 Coolant Level 2457.45 52.66 42.63 01,03,1991 27,672 883.07

Normal
83.01 Coolant Level 2447.53 52.66 42.63 01,03,1995 27,672 866.58

Normal
83.01 Coolant Level 2453.48 52.66 42.63 01,04,2013 27,672 874.56

Normal
83.01 Coolant Level 2488.01 52.66 42.63 01,04,2013 27,672 880.05

Normal
83.01 Coolant Level 2454.67 52.66 42.63 01,03,1999 27,672 873.59

Normal
83.01 Coolant Level 2454.67 52.66 42.63 01,03,1999 27,672 873.59

Normal
83.01 Coolant Level 2488.4 52.77 42.63 01,04,2013 27,672 869.6

Normal
83.01 Coolant Level 2488.4 52.66 42.63 04,04,2014 27,672 869.06

Normal
83.01 Coolant Level 2489.6 52.66 42.63 01,03,1981 27,672 878.43
Normal
83.01 Coolant Level 2489.2 52.66 42.63 04,04,2014 27,672 872.51

Normal
83.01 Coolant Level 2474.51 52.66 42.63 04,09,2014 27,672 874.56

Normal
83.01 Coolant Level 2489.2 52.66 42.63 01,03,1999 27,672 875.2

Normal
82.98 Coolant Level 2476.5 52.66 42.63 01,03,1995 27,672 869.06

Normal
83.01 Coolant Level 2485.23 52.66 42.63 01,04,2013 27,672 876.17

Normal
83.01 Coolant Level 2474.51 52.66 42.63 01,03,1995 27,625 876.39

Normal
83.01 Coolant Level 2489.99 52.66 42.63 01,04,2013 27,672 876.49

Normal
83.01 Coolant Level 2468.96 52.66 42.63 01,03,1995 27,672 867.98

Normal
83.01 Coolant Level 2485.63 52.66 42.63 01,03,1986 27,672 869.82

Normal
83.01 Coolant Level 2485.63 52.66 42.63 01,03,1986 27,672 869.82

Normal
83.01 Coolant Level 2478.88 52.66 42.63 04,09,2014 27,672 878

Normal
83.01 Coolant Level 2436.81 52.66 42.63 01,03,1999 27,672 873.15

Normal
83.01 Coolant Level 2450.3 52.66 42.63 01,04,2013 27,625 871.43

Normal
83.01 Coolant Level 2436.81 52.66 42.63 01,03,1999 27,625 870.57

Normal
83.01 Coolant Level 2445.94 52.66 42.63 01,03,1995 27,672 872.08

Normal
83.01 Coolant Level 2431.65 52.66 42.63 04,04,2014 27,672 880.8

Normal
83.01 Coolant Level 2446.73 52.66 42.63 01,03,1995 27,625 870.57

Normal
83.01 Coolant Level 2468.96 52.66 42.63 04,04,2014 27,672 870.89

Normal
83.01 Coolant Level 2450.7 52.66 42.64 04,09,2014 27,672 875.96
Normal
83.01 Coolant Level 2464.99 52.66 42.72 04,09,2014 27,672 881.77

Normal
83.01 Coolant Level 2446.73 52.66 42.66 04,04,2014 27,672 876.82

Normal
83.01 Coolant Level 2461.02 52.66 42.73 01,03,1986 27,672 869.06

Normal
83.01 Coolant Level 2491.58 52.66 42.73 01,04,2018 27,672 873.05

Normal
83.01 Coolant Level 2457.45 52.66 42.73 01,03,1991 27,672 876.06

Normal
83.01 Coolant Level 2495.55 52.66 42.73 01,03,1999 27,672 877.57

Normal
83.01 Coolant Level 2483.64 52.66 42.73 01,03,1999 27,625 880.7

Normal
83.01 Coolant Level 2492.37 52.66 42.73 04,09,2014 27,672 867.45

Normal
83.01 Coolant Level 2453.88 52.66 42.73 04,04,2014 27,625 873.91

Normal
83.01 Coolant Level 2483.64 52.66 42.73 01,03,1991 27,672 875.96

Normal
83.01 Coolant Level 2483.64 52.66 42.73 01,03,1991 27,672 875.96

Normal
83.01 Coolant Level 2483.64 52.66 42.73 04,09,2014 27,672 876.39

Normal
83.01 Coolant Level 2484.44 52.66 42.73 04,04,2014 27,672 882.64

Normal
83.01 Coolant Level 2488.4 52.66 42.73 01,03,1986 27,625 872.94

Normal
83.01 Coolant Level 2474.51 52.66 42.73 01,04,2013 27,672 871.75

Normal
83.01 Coolant Level 2489.2 52.77 42.73 01,03,1999 27,672 875.31

Normal
83.01 Coolant Level 2478.48 52.77 42.73 01,03,1986 27,672 865.72

Normal
83.01 Coolant Level 2450.7 52.66 42.73 01,03,1995 27,672 870.25

Normal
83.01 Coolant Level 2474.51 52.77 42.73 01,04,2013 27,672 882.1
Normal
83.01 Coolant Level 2455.46 52.66 42.73 01,04,2013 27,672 887.16

Normal
83.01 Coolant Level 2436.81 52.66 42.73 01,03,1999 27,672 873.48

Normal
83.01 Coolant Level 2458.64 52.66 42.73 01,04,2013 27,672 867.66

Normal
83.01 Coolant Level 2437.21 52.66 42.73 01,04,2013 27,672 872.62

Normal
83.01 Coolant Level 2459.04 52.77 42.73 01,03,1999 27,672 884.47

Normal
83.01 Coolant Level 2436.81 52.77 42.73 01,03,1991 27,672 878.76

Normal
83.01 Coolant Level 2436.81 52.77 42.81 01,03,1999 27,672 875.52

Normal
83.01 Coolant Level 2446.73 52.77 42.73 01,03,1995 27,672 869.06

Normal
83.01 Coolant Level 2436.41 52.77 42.73 01,03,1981 27,672 878.86

Normal
83.01 Coolant Level 2450.7 52.77 42.75 04,09,2014 27,672 887.27

Normal
83.01 Coolant Level 2434.83 52.77 42.75 01,04,2013 27,672 880.59

Normal
83.01 Coolant Level 2445.94 52.77 42.81 01,03,1999 27,672 871.65

Normal
83.01 Coolant Level 2434.43 52.77 42.82 01,03,1991 27,625 873.59

Normal
83.01 Coolant Level 2439.99 52.77 42.83 01,04,2013 27,672 871.54

Normal
82.98 Coolant Level 2470.15 52.77 42.83 04,09,2014 27,672 874.66

Normal
83.01 Coolant Level 2443.95 52.87 42.75 01,03,1986 27,672 879.94

Normal
82.91 Coolant Level 2434.83 52.77 42.81 04,04,2014 27,672 876.17

Normal
83.01 Coolant Level 2442.76 52.77 42.73 04,04,2014 27,625 869.49

Normal
83.01 Coolant Level 2434.03 52.87 42.73 01,03,1991 27,672 876.71
Normal
83.01 Coolant Level 2443.16 52.77 42.73 01,03,1995 27,672 879.83

Normal
83.01 Coolant Level 2437.6 52.77 42.74 01,04,2018 27,672 874.77

Normal
82.91 Coolant Level 2442.37 52.77 42.73 01,03,1999 27,672 870.78

Normal
83.01 Coolant Level 2459.04 52.66 42.75 01,03,1986 27,672 877.03

Normal
83.01 Coolant Level 2459.04 52.66 42.75 01,03,1986 27,672 877.03

Normal
83 Coolant Level 2485.23 52.77 42.74 01,03,1999 27,672 873.26

Normal
83.01 Coolant Level 2452.69 52.66 42.8 01,03,1999 27,672 875.63

Normal
82.98 Coolant Level 2474.51 52.66 42.73 01,03,1986 27,672 865.29

Normal
83.01 Coolant Level 2493.17 52.66 42.73 04,09,2014 27,672 865.4

Normal
83.01 Coolant Level 2478.88 52.77 42.73 01,03,1995 27,672 871.65

Normal
83 Coolant Level 2456.26 52.66 42.73 01,03,1995 27,625 883.71

Normal
83.01 Coolant Level 2483.64 52.66 42.8 01,03,1995 27,672 869.71

Normal
83.01 Coolant Level 2455.46 52.66 42.73 01,03,1999 27,625 870.25

Normal
83.01 Coolant Level 2441.18 52.66 42.73 04,09,2014 27,625 881.67

Normal
83.01 Coolant Level 2459.43 52.66 42.73 01,03,1991 27,672 880.16

Normal
83.01 Coolant Level 2437.21 52.66 42.73 01,04,2023 27,672 879.73

Normal
82.98 Coolant Level 2445.94 52.66 42.73 01,04,2018 27,672 881.02

Normal
83.01 Coolant Level 2441.18 52.66 42.73 01,03,1986 27,672 870.35

Normal
83 Coolant Level 2463 52.56 42.73 01,04,2013 27,672 867.88
Normal
83.01 Coolant Level 2488.01 52.66 42.73 01,04,2018 27,672 875.85

Normal
82.98 Coolant Level 2466.58 52.66 42.73 01,03,1995 27,672 870.57

Normal
82.98 Coolant Level 2441.18 52.66 42.73 01,03,1999 27,672 868.2

Normal
83.01 Coolant Level 2471.34 52.66 42.73 01,04,2013 27,672 870.57

Normal
83.01 Coolant Level 2440.78 52.66 42.73 01,03,1986 27,672 871.86

Normal
83.01 Coolant Level 2476.1 52.66 42.74 04,04,2014 27,672 872.4

Normal
83.01 Coolant Level 2445.54 52.66 42.74 01,03,1995 27,672 872.72

Normal
83.01 Coolant Level 2470.94 52.66 42.73 01,04,2023 27,672 871.54

Normal
82.91 Coolant Level 2448.72 52.66 42.75 01,03,1995 27,672 874.45

Normal
83 Coolant Level 2475.7 52.77 42.82 04,04,2014 27,672 872.62

Normal
83.01 Coolant Level 2488.4 52.66 42.73 04,09,2014 27,672 874.12

Normal
83.01 Coolant Level 2478.88 52.66 42.81 04,09,2014 27,672 871.32

Normal
83.01 Coolant Level 2447.92 52.66 42.83 04,04,2014 27,672 881.45

Normal
83.01 Coolant Level 2437.6 52.66 42.83 04,04,2014 27,672 876.71

Normal
83.01 Coolant Level 2447.53 52.66 42.83 01,03,1986 27,672 875.85

Normal
83.01 Coolant Level 2437.6 52.66 42.83 01,03,1981 27,672 867.12

Normal
83.01 Coolant Level 2460.23 52.66 42.83 01,03,1999 27,672 873.26

Normal
83.01 Coolant Level 2437.21 52.77 42.83 01,04,1932 27,672 884.04

Normal
83.01 Coolant Level 2442.37 52.77 42.83 04,09,2014 27,672 882.64
Normal
83.01 Coolant Level 2445.94 52.77 42.83 01,03,1999 27,672 869.06

Normal
83.01 Coolant Level 2441.57 52.77 42.83 04,09,2014 27,672 870.89

Normal
83.01 Coolant Level 2455.46 52.77 42.83 01,04,2027 27,672 871.54

Normal
83.01 Coolant Level 2463.4 52.77 42.75 01,04,2018 27,672 881.34

Normal
83.01 Coolant Level 2441.18 52.87 42.83 01,03,1995 27,625 881.23

Normal
83.01 Coolant Level 2441.18 52.77 42.83 01,04,2013 27,672 870.78

Normal
83.01 Coolant Level 2456.26 52.77 42.81 01,03,1999 27,625 868.63

Normal
83.01 Coolant Level 2440.78 52.87 42.83 01,03,1986 27,672 873.48

Normal
83.01 Coolant Level 2456.26 52.87 42.82 04,04,2014 27,672 883.5

Normal
83.01 Coolant Level 2443.95 52.87 42.73 01,04,2027 27,672 874.12

Normal
83.01 Coolant Level 2451.5 52.87 42.73 04,04,2014 27,672 870.46

Normal
83.01 Coolant Level 2470.15 52.87 42.73 01,03,1995 27,672 877.03

Normal
83.01 Coolant Level 2496.34 52.77 42.73 01,04,2013 27,672 876.28

Normal
83.01 Coolant Level 2496.34 52.77 42.73 01,04,2013 27,672 876.28

Normal
83.01 Coolant Level 2461.42 52.77 42.73 01,04,2013 27,625 879.73

Normal
83.01 Coolant Level 2496.34 52.77 42.73 01,03,1999 27,672 875.63

Normal
83.01 Coolant Level 2462.61 52.77 42.73 01,03,1999 27,672 866.37

Normal
83.01 Coolant Level 2452.29 52.77 42.73 01,04,2018 27,672 873.15

Normal
83.01 Coolant Level 2458.64 52.87 42.73 01,03,1999 27,672 877.03
Normal
83.01 Coolant Level 2492.37 52.87 42.73 04,04,2014 27,672 871.97

Normal
83.01 Coolant Level 2458.64 52.87 42.73 01,04,2023 27,672 881.13

Normal
83.01 Coolant Level 2488.8 52.87 42.73 04,04,2014 27,625 872.51

Normal
83.01 Coolant Level 2454.67 52.87 42.73 01,04,2018 27,672 887.48

Normal
83.01 Coolant Level 2479.67 52.87 42.73 04,04,2014 27,672 869.38

Normal
83.01 Coolant Level 2489.2 52.87 42.73 04,04,2014 27,672 870.03

Normal
83.01 Coolant Level 2474.51 52.87 42.73 04,04,2014 27,672 860.77

Normal
83.01 Coolant Level 2451.5 52.77 42.73 01,03,1995 27,672 876.49

Normal
83.01 Coolant Level 2478.88 52.77 42.73 01,04,2023 27,672 871.11

Normal
83.01 Coolant Level 2450.7 52.77 42.73 04,04,2014 27,672 874.56

Normal
83.01 Coolant Level 2478.88 52.77 42.73 01,03,1999 27,625 871.22

Normal
83.01 Coolant Level 2459.43 52.77 42.73 01,04,2013 27,672 874.34

Normal
83.01 Coolant Level 2432.84 52.77 42.73 01,04,2018 27,672 879.51

Normal
83 Coolant Level 2463.4 52.77 42.73 04,09,2014 27,672 873.91

Normal
83.01 Coolant Level 2437.21 52.77 42.73 01,03,1986 27,672 872.29

Normal
83.01 Coolant Level 2463 52.77 42.81 04,04,2014 27,672 876.17

Normal
83.01 Coolant Level 2436.81 52.77 42.82 01,03,1991 27,672 873.8

Normal
83.01 Coolant Level 2467.37 52.77 42.81 01,03,1981 27,672 875.09

Normal
83.01 Coolant Level 2440.78 52.77 42.83 01,03,1999 27,672 876.71
Normal
83.01 Coolant Level 2439.19 52.77 42.83 01,04,2013 27,672 881.45

Normal
83.01 Coolant Level 2456.26 52.77 42.83 04,04,2014 27,625 885.65

Normal
83.01 Coolant Level 2444.35 52.77 42.83 04,04,2014 27,672 876.49

Normal
83.01 Coolant Level 2455.46 52.77 42.83 01,03,1991 27,672 869.28

Normal
83.01 Coolant Level 2466.58 52.87 42.83 01,03,1995 27,625 876.06

Normal
83.01 Coolant Level 2466.58 52.87 42.83 01,03,1995 27,625 876.06

Normal
83.01 Coolant Level 2499.52 52.87 42.83 01,03,1995 27,672 883.39

Normal
83.01 Coolant Level 2461.42 52.77 42.83 01,04,2023 27,672 878.76

Normal
83.01 Coolant Level 2496.34 52.77 42.83 04,09,2014 27,672 877.79

Normal
83.01 Coolant Level 2488.01 52.77 42.83 04,04,2014 27,672 878.97

Normal
83.01 Coolant Level 2492.37 52.87 42.83 04,09,2014 27,672 872.29

Normal
83.01 Coolant Level 2450.7 52.87 42.83 04,04,2014 27,625 880.16

Normal
83.01 Coolant Level 2439.59 52.77 42.83 01,03,1999 27,672 876.06

Normal
83.01 Coolant Level 2444.75 52.77 42.81 04,09,2014 27,672 876.82

Normal
83.01 Coolant Level 2439.19 52.77 42.83 01,04,2013 27,625 877.57

Normal
83.01 Coolant Level 2443.56 52.77 42.75 01,04,2013 27,672 882.96

Normal
83.01 Coolant Level 2438.4 52.77 42.8 01,03,1986 27,625 879.19

Normal
83.01 Coolant Level 2447.92 52.77 42.83 01,04,2018 27,672 873.26

Normal
83.01 Coolant Level 2434.03 52.77 42.73 01,04,2018 27,672 874.45
Normal
83.01 Coolant Level 2451.5 52.77 42.73 01,03,1995 27,672 875.09

Normal
83.01 Coolant Level 2434.03 52.77 42.73 01,03,1995 27,672 878.97

Normal
83 Coolant Level 2488.01 52.77 42.73 04,04,2014 27,672 881.13

Normal
83.01 Coolant Level 2453.48 52.77 42.73 01,03,1999 27,672 878.86

Normal
83 Coolant Level 2484.04 52.77 42.73 04,04,2014 27,672 864.86

Normal
83.01 Coolant Level 2483.64 52.77 42.7 01,04,2023 27,672 878

Normal
82.91 Coolant Level 2478.48 52.66 42.66 01,03,1995 27,672 884.47

Normal
83.01 Coolant Level 2493.17 52.77 42.73 04,04,2014 27,672 872.4

Normal
83.01 Coolant Level 2485.63 52.66 42.7 04,04,2014 27,625 873.48

Normal
82.98 Coolant Level 2455.07 52.66 42.66 01,03,1999 27,672 872.94

Normal
83.01 Coolant Level 2480.47 52.66 42.63 01,03,1991 27,672 874.77

Normal
83.01 Coolant Level 2489.99 52.66 42.63 01,04,2018 27,672 880.26

Normal
83.01 Coolant Level 2478.48 52.66 42.63 01,04,2013 27,672 874.02

Normal
83.01 Coolant Level 2494.36 52.66 42.63 01,03,1999 27,672 876.6

Normal
83.01 Coolant Level 2478.88 52.66 42.64 01,03,1991 27,625 871.97

Normal
83.01 Coolant Level 2489.99 52.66 42.7 01,03,1991 27,625 866.04

Normal
83.01 Coolant Level 2478.09 52.56 42.66 01,03,1999 27,672 871.65

Normal
83.01 Coolant Level 2457.85 52.56 42.63 01,03,1999 27,672 867.12

Normal
83.01 Coolant Level 2436.81 52.66 42.64 01,04,2013 27,672 875.2
Normal
83.01 Coolant Level 2436.41 52.56 42.64 04,09,2014 27,672 889.96

Normal
83 Coolant Level 2440.78 52.66 42.73 01,03,1991 27,672 880.8

Normal
83.01 Coolant Level 2435.62 52.66 42.73 01,03,1999 27,672 868.2

Normal
82.98 Coolant Level 2439.99 52.66 42.73 04,04,2014 27,672 873.05

Normal
83.01 Coolant Level 2434.83 52.66 42.73 04,04,2014 27,625 879.73

Normal
83.01 Coolant Level 2450.7 52.66 42.73 01,03,1981 27,672 878.22

Normal
83 Coolant Level 2434.83 52.66 42.73 04,04,2014 27,672 870.68

Normal
83.01 Coolant Level 2446.73 52.66 42.73 01,03,1995 27,672 872.08

Normal
83.01 Coolant Level 2462.61 52.66 42.73 01,04,2013 27,672 874.66

Normal
83.01 Coolant Level 2446.73 52.66 42.73 04,09,2014 27,625 881.23

Normal
83.01 Coolant Level 2457.45 52.66 42.73 04,09,2014 27,672 871.86

Normal
83.01 Coolant Level 2487.61 52.66 42.73 01,04,2023 27,672 875.42

Normal
83.01 Coolant Level 2458.64 52.66 42.73 01,03,1999 27,672 876.39

Normal
83.01 Coolant Level 2488.4 52.66 42.73 04,09,2014 27,672 878.33

Normal
83.01 Coolant Level 2453.88 52.66 42.73 01,03,1999 27,672 881.67

Normal
83.01 Coolant Level 2453.88 52.66 42.73 01,03,1999 27,672 881.67

Normal
83.01 Coolant Level 2453.88 52.66 42.73 01,03,1999 27,672 881.67

Normal
83.01 Coolant Level 2492.77 52.66 42.73 01,03,1995 27,672 868.95

Normal
83.01 Coolant Level 2492.77 52.77 42.73 01,04,2027 27,672 875.52
Normal
83.01 Coolant Level 2470.94 52.66 42.73 01,04,2023 27,672 865.18

Normal
82.98 Coolant Level 2488.01 52.66 42.73 01,03,1991 27,625 867.01

Normal
83.01 Coolant Level 2470.15 52.66 42.66 01,04,2013 27,672 866.58

Normal
83.01 Coolant Level 2454.67 52.66 42.73 01,03,1999 27,672 870.68

Normal
83 Coolant Level 2488.8 52.66 42.66 01,03,1995 27,672 880.91

Normal
83.01 Coolant Level 2488.4 52.66 42.7 01,04,2018 27,625 881.34

Normal
83.01 Coolant Level 2489.6 52.66 42.63 01,03,1999 27,672 874.12

Normal
83.01 Coolant Level 2489.2 52.66 42.63 01,03,1999 27,625 876.93

Normal
83.01 Coolant Level 2480.47 52.66 42.63 04,09,2014 27,672 866.91

Normal
83.01 Coolant Level 2489.2 52.66 42.63 01,03,1995 27,672 876.6

Normal
83.01 Coolant Level 2478.48 52.66 42.63 01,03,1991 27,672 866.04

Normal
82.91 Coolant Level 2460.23 52.66 42.53 01,03,1995 27,672 868.2

Normal
83.01 Coolant Level 2437.21 52.66 42.55 01,04,2018 27,672 882.85

Normal
83.01 Coolant Level 2437.21 52.66 42.55 01,04,2018 27,672 882.85

Normal
83 Coolant Level 2463 52.66 42.62 01,04,2023 27,672 884.14

Normal
82.98 Coolant Level 2441.18 52.66 42.53 04,04,2014 27,672 870.68

Normal
83 Coolant Level 2436.81 52.66 42.55 01,04,2018 27,672 870.89

Normal
82.91 Coolant Level 2436.81 52.66 42.53 01,03,1999 27,672 869.06

Normal
82.98 Coolant Level 2467.37 52.66 42.53 01,04,2013 27,672 884.14
Normal
83 Coolant Level 2436.02 52.66 42.53 01,03,1977 27,672 870.25

Normal
82.98 Coolant Level 2435.62 52.66 42.53 01,03,1995 27,672 870.46

Normal
83.01 Coolant Level 2440.78 52.66 42.53 04,09,2014 27,672 866.04

Normal
82.91 Coolant Level 2434.83 52.56 42.53 04,04,2014 27,672 871.11

Normal
82.91 Coolant Level 2440.78 52.56 42.53 01,04,2013 27,672 879.94

Normal
82.98 Coolant Level 2438.8 52.56 42.53 01,04,2018 27,672 874.99

Normal
83.01 Coolant Level 2446.73 52.56 42.53 04,09,2014 27,672 874.12

Normal
82.91 Coolant Level 2466.18 52.56 42.46 04,04,2014 27,672 874.77

Normal
82.87 Coolant Level 2447.53 52.56 42.51 04,09,2014 27,672 874.34

Normal
83.01 Coolant Level 2462.21 52.56 42.53 01,04,2018 27,625 875.42

Normal
83.01 Coolant Level 2496.74 52.56 42.53 01,03,1991 27,625 871.22

Normal
83.01 Coolant Level 2496.74 52.56 42.53 01,03,1991 27,625 871.22

Normal
82.91 Coolant Level 2440.78 52.56 42.46 01,04,2027 27,672 871.22

Normal
83.01 Coolant Level 2439.19 52.56 42.51 04,09,2014 27,672 878

Normal
83 Coolant Level 2444.75 52.56 42.52 01,03,1999 27,625 874.56

Normal
83.01 Coolant Level 2438.4 52.56 42.53 01,04,2013 27,672 871.43

Normal
83.01 Coolant Level 2446.73 52.56 42.53 04,09,2014 27,672 864.86

Normal
83.01 Coolant Level 2462.61 52.56 42.53 01,03,1999 27,672 874.34

Normal
83.01 Coolant Level 2447.53 52.56 42.53 01,03,1999 27,672 875.31
Normal
83.01 Coolant Level 2462.61 52.56 42.51 01,04,2023 27,672 880.16

Normal
83.01 Coolant Level 2488.8 52.56 42.53 04,04,2014 27,672 871.32

Normal
83.01 Coolant Level 2459.04 52.56 42.53 04,04,2014 27,672 880.16

Normal
83.01 Coolant Level 2488.4 52.56 42.53 04,09,2014 27,672 878.65

Normal
83.01 Coolant Level 2489.2 52.56 42.53 04,04,2014 27,672 875.85

Normal
83.01 Coolant Level 2489.6 52.56 42.53 04,04,2014 27,672 872.83

Normal
82.91 Coolant Level 2489.2 52.56 42.53 01,03,1991 27,672 881.13

Normal
83 Coolant Level 2480.47 52.56 42.53 01,04,2013 27,672 878.76

Normal
83.01 Coolant Level 2489.2 52.56 42.53 01,04,2013 27,625 877.79

Normal
83.01 Coolant Level 2437.6 52.56 42.6 04,04,2014 27,672 876.28

Normal
83 Coolant Level 2447.13 52.56 42.61 04,09,2014 27,672 867.45

Normal
82.91 Coolant Level 2438 52.56 42.55 01,03,1995 27,625 879.4

Normal
82.91 Coolant Level 2441.57 52.66 42.62 01,03,1999 27,672 882.1

Normal
83.01 Coolant Level 2455.07 52.66 42.61 01,04,2013 27,672 872.83

Normal
83.01 Coolant Level 2441.57 52.66 42.63 01,04,2018 27,672 879.08

Normal
82.98 Coolant Level 2450.3 52.66 42.63 04,04,2014 27,672 876.93

Normal
83.01 Coolant Level 2481.26 52.66 42.63 04,09,2014 27,672 880.91

Normal
83.01 Coolant Level 2493.96 52.66 42.63 01,03,1995 27,672 872.51

Normal
83.01 Coolant Level 2478.88 52.66 42.63 04,09,2014 27,672 868.09
Normal
83.01 Coolant Level 2494.36 52.66 42.63 04,09,2014 27,625 875.96

Normal
83.01 Coolant Level 2478.88 52.66 42.63 01,04,2018 27,672 880.26

Normal
83.01 Coolant Level 2489.99 52.66 42.63 01,03,1986 27,672 881.77

Normal
83.01 Coolant Level 2483.64 52.66 42.63 01,03,1995 27,625 871.75

Normal
83.01 Coolant Level 2499.91 52.66 42.63 01,04,2018 27,672 863.89

Normal
82.91 Coolant Level 2488.01 52.66 42.63 01,04,2013 27,672 874.34

Normal
83.01 Coolant Level 2496.34 52.66 42.7 01,03,1995 27,672 883.5

Normal
83.01 Coolant Level 2488.01 52.66 42.63 01,03,1999 27,672 870.14

Normal
83.01 Coolant Level 2500.31 52.66 42.63 04,04,2014 27,672 872.62

Normal
83.01 Coolant Level 2500.31 52.66 42.63 04,04,2014 27,672 872.62

Normal
82.87 Coolant Level 2488.01 52.66 42.63 01,03,1999 27,625 865.29

Normal
82.98 Coolant Level 2471.34 52.66 42.65 04,09,2014 27,672 862.7

Normal
83 Coolant Level 2483.64 52.66 42.63 01,04,2027 27,672 873.48

Normal
83.01 Coolant Level 2470.55 52.66 42.63 01,04,2018 27,672 881.34

Normal
83.01 Coolant Level 2444.75 52.66 42.65 01,03,1999 27,672 872.72

Normal
83.01 Coolant Level 2439.19 52.66 42.63 01,03,1999 27,672 870.03

Normal
82.91 Coolant Level 2443.95 52.66 42.63 04,04,2014 27,672 871.86

Normal
83.01 Coolant Level 2439.19 52.66 42.63 04,04,2014 27,672 883.82

Normal
83.01 Coolant Level 2443.95 52.66 42.63 01,03,1999 27,672 876.17
Normal
83.01 Coolant Level 2434.03 52.66 42.7 01,04,2018 27,672 877.36

Normal
83 Coolant Level 2443.56 52.66 42.7 01,04,2013 27,672 874.99

Normal
83.01 Coolant Level 2434.03 52.66 42.65 01,03,1999 27,672 874.12

Normal
83 Coolant Level 2447.53 52.66 42.72 04,09,2014 27,672 879.83

Normal
83.01 Coolant Level 2433.24 52.66 42.73 01,04,2023 27,625 872.4

Normal
83.01 Coolant Level 2455.46 52.66 42.7 01,03,1991 27,672 878.54

Normal
83.01 Coolant Level 2433.24 52.66 42.64 04,04,2014 27,672 878.43

Normal
83.01 Coolant Level 2438 52.66 42.7 01,04,2023 27,672 879.19

Normal
83.01 Coolant Level 2436.81 52.66 42.66 01,03,1999 27,672 875.31

Normal
83.01 Coolant Level 2441.57 52.77 42.7 01,03,1995 27,672 875.96

Normal
83.01 Coolant Level 2454.67 52.66 42.66 01,04,2013 27,625 872.29

Normal
83.01 Coolant Level 2437.6 52.66 42.73 01,04,2023 27,672 886.08

Normal
83.01 Coolant Level 2451.1 52.77 42.7 04,09,2014 27,672 874.66

Normal
83.01 Coolant Level 2477.29 52.77 42.73 01,03,1999 27,672 870.46

Normal
83.01 Coolant Level 2489.99 52.77 42.7 01,04,2013 27,672 871.22

Normal
83.01 Coolant Level 2478.88 52.66 42.73 01,03,1999 27,672 876.71

Normal
83.01 Coolant Level 2495.15 52.66 42.73 01,03,1995 27,672 868.52

Normal
83.01 Coolant Level 2482.85 52.66 42.73 04,04,2014 27,625 864

Normal
83.01 Coolant Level 2495.55 52.66 42.73 01,03,1995 27,672 871
Normal
83.01 Coolant Level 2495.55 52.66 42.73 01,03,1995 27,672 871

Normal
83.01 Coolant Level 2436.81 52.66 42.73 04,04,2014 27,672 870.14

Normal
83.01 Coolant Level 2436.81 52.66 42.73 01,04,2013 27,672 881.99

Normal
83.01 Coolant Level 2451.5 52.66 42.74 04,04,2014 27,672 872.83

Normal
82.98 Coolant Level 2473.72 52.66 42.73 01,03,1999 27,672 868.41

Normal
83.01 Coolant Level 2446.73 52.77 42.73 04,09,2014 27,672 872.4

Normal
83.01 Coolant Level 2446.73 52.77 42.73 04,09,2014 27,672 872.4

Normal
83.01 Coolant Level 2468.96 52.77 42.74 01,04,1932 27,672 874.12

Normal
83.01 Coolant Level 2451.5 52.77 42.73 04,04,2014 27,672 880.05

Normal
83.01 Coolant Level 2465.78 52.77 42.74 01,03,1999 27,672 871.54

Normal
82.98 Coolant Level 2495.55 52.77 42.81 01,04,2018 27,625 866.8

Normal
83.01 Coolant Level 2478.88 52.77 42.74 04,09,2014 27,625 872.08

Normal
83.01 Coolant Level 2496.34 52.77 42.82 04,09,2014 27,672 878.22

Normal
82.98 Coolant Level 2483.64 52.77 42.81 01,03,1999 27,672 872.83

Normal
83.01 Coolant Level 2466.18 52.77 42.74 01,03,1995 27,672 867.98

Normal
83.01 Coolant Level 2484.04 52.66 42.74 04,04,2014 27,672 877.57

Normal
83.01 Coolant Level 2487.61 52.77 42.83 01,03,1986 27,672 873.48

Normal
83.01 Coolant Level 2484.04 52.77 42.82 01,04,2018 27,625 871.86

Normal
83.01 Coolant Level 2470.15 52.77 42.83 01,04,2023 27,672 864.11
Normal
83.01 Coolant Level 2484.04 52.77 42.83 04,04,2014 27,672 871

Normal
83.01 Coolant Level 2478.88 52.77 42.83 04,09,2014 27,672 869.82

Normal
83.01 Coolant Level 2489.2 52.77 42.83 04,09,2014 27,672 864.86

Normal
83.01 Coolant Level 2474.51 52.77 42.83 01,04,2023 27,672 868.31

Normal
83.01 Coolant Level 2451.5 52.77 42.83 04,09,2014 27,672 869.38

Normal
83.01 Coolant Level 2433.24 52.77 42.83 04,04,2014 27,672 877.25

Normal
83.01 Coolant Level 2441.57 52.77 42.83 01,04,2018 27,672 885.44

Normal
82.98 Coolant Level 2432.45 52.77 42.86 04,04,2014 27,672 871.43

Normal
82.91 Coolant Level 2441.18 52.77 42.86 04,04,2014 27,672 868.63

Normal
83.01 Coolant Level 2450.3 52.77 42.93 01,04,2018 27,672 872.29

Normal
83.01 Coolant Level 2436.81 52.77 42.93 04,04,2014 27,672 876.82

Normal
83.01 Coolant Level 2432.05 52.77 42.93 01,03,1995 27,672 875.31

Normal
83.01 Coolant Level 2432.05 52.77 42.93 01,04,2018 27,672 872.94

Normal
83.01 Coolant Level 2450.3 52.77 42.93 04,04,2014 27,672 877.57

Normal
83.01 Coolant Level 2468.16 52.77 42.93 04,09,2014 27,672 876.06

Normal
83.01 Coolant Level 2449.91 52.77 42.93 01,04,2023 27,672 884.57

Normal
83.01 Coolant Level 2472.93 52.77 42.93 04,09,2014 27,672 884.79

Normal
83.01 Coolant Level 2489.99 52.77 42.96 04,04,2014 27,672 878.43

Normal
83.01 Coolant Level 2464.99 52.77 43.03 01,03,1995 27,672 881.34
Normal
83.01 Coolant Level 2495.55 52.77 43.03 04,09,2014 27,672 870.03

Normal
83.01 Coolant Level 2482.85 52.77 43.03 04,09,2014 27,672 870.46

Normal
83.01 Coolant Level 2466.58 52.77 43 01,04,2013 27,672 868.95

Normal
83.01 Coolant Level 2478.88 52.77 43.03 01,03,1995 27,672 871.86

Normal
83.01 Coolant Level 2465.78 52.77 43.03 04,04,2014 27,672 872.19

Normal
83.01 Coolant Level 2444.75 52.77 43.03 04,09,2014 27,672 865.29

Normal
83.01 Coolant Level 2470.15 52.77 43.03 01,04,2013 27,672 865.4

Normal
83.01 Coolant Level 2470.15 52.77 43.03 01,04,2013 27,672 865.4

Normal
83.01 Coolant Level 2483.64 52.77 43.03 04,09,2014 27,672 872.94

Normal
83.01 Coolant Level 2470.55 52.87 43.03 01,03,1999 27,672 886.94

Normal
83.01 Coolant Level 2446.73 52.87 43.03 01,03,1999 27,672 875.85

Normal
83.01 Coolant Level 2446.73 52.87 43.03 01,03,1999 27,672 875.85

Normal
83.01 Coolant Level 2457.05 52.87 43.03 01,04,2027 27,672 882.1

Normal
83.01 Coolant Level 2442.76 52.87 43.03 01,04,2023 27,672 878.76

Normal
83.01 Coolant Level 2457.45 52.87 43.03 01,03,1981 27,672 877.89

Normal
83.01 Coolant Level 2496.34 52.87 43.03 04,04,2014 27,672 879.19

Normal
83.01 Coolant Level 2483.64 52.87 43.03 01,04,2018 27,625 874.34

Normal
83.01 Coolant Level 2470.15 52.87 43.03 01,03,1991 27,672 869.06

Normal
83.01 Coolant Level 2488.8 52.87 43.03 04,09,2014 27,672 877.89
Normal
83.01 Coolant Level 2465.78 52.87 43.03 01,04,2018 27,672 879.4

Normal
83.01 Coolant Level 2447.92 52.98 43.03 01,04,2013 27,672 874.88

Normal
83.01 Coolant Level 2474.91 52.98 43.03 04,09,2014 27,672 860.87

Normal
83.01 Coolant Level 2488.4 52.87 43.03 01,04,2023 27,672 869.6

Normal
83.01 Coolant Level 2478.48 52.98 43.04 01,04,2013 27,672 876.39

Normal
83.01 Coolant Level 2456.26 52.98 43.03 04,09,2014 27,672 871.22

Normal
83.01 Coolant Level 2478.88 52.98 43.13 01,04,2018 27,672 869.06

Normal
83.01 Coolant Level 2455.46 52.98 43.03 04,04,2014 27,672 861.3

Normal
83.01 Coolant Level 2474.51 52.98 43.11 01,04,2023 27,672 869.28

Normal
83.01 Coolant Level 2474.51 52.98 43.11 01,04,2023 27,672 869.28

Normal
83.01 Coolant Level 2454.67 52.98 43.05 01,03,1995 27,672 875.96

Normal
83.01 Coolant Level 2472.93 52.98 43.03 04,09,2014 27,672 887.7

Normal
83.01 Coolant Level 2446.73 52.98 43.11 01,04,2018 27,672 881.23

Normal
83.01 Coolant Level 2469.75 52.98 43.03 01,03,1999 27,672 876.6

Normal
83.01 Coolant Level 2490.79 52.87 43.03 01,04,2013 27,672 874.23

Normal
83.01 Coolant Level 2478.09 52.87 43.03 01,04,2018 27,672 875.74

Normal
83.01 Coolant Level 2495.55 52.98 43.03 01,04,2013 27,672 871.22

Normal
83.01 Coolant Level 2483.64 52.98 43.03 01,03,1999 27,672 868.63

Normal
83.01 Coolant Level 2491.58 52.87 43.03 01,04,2013 27,672 864.21
Normal
83.01 Coolant Level 2488.01 52.98 43.03 01,04,2018 27,672 876.39

Normal
83.01 Coolant Level 2470.55 52.87 43.03 01,04,2013 27,672 868.85

Normal
83.01 Coolant Level 2439.99 52.98 43.03 01,04,2018 27,672 873.37

Normal
83.01 Coolant Level 2438.4 52.98 43.03 01,04,2018 27,672 884.47

Normal
83.01 Coolant Level 2446.73 52.98 43.03 01,03,1986 27,672 879.19

Normal
83.01 Coolant Level 2446.73 52.98 43.03 01,03,1986 27,672 879.19

Normal
83.01 Coolant Level 2461.42 52.87 43.03 01,03,1991 27,672 873.8

Normal
83.01 Coolant Level 2446.73 52.98 43.03 04,04,2014 27,672 867.66

Normal
83.01 Coolant Level 2434.03 52.98 43.03 01,04,2027 27,672 871.65

Normal
83.01 Coolant Level 2447.92 52.98 43.03 01,03,1999 27,672 878.86

Normal
83.01 Coolant Level 2438 52.87 43.03 04,09,2014 27,625 879.3

Normal
83.01 Coolant Level 2438.8 52.87 43.12 01,04,2018 27,672 867.45

Normal
83.01 Coolant Level 2454.27 52.87 43.12 01,04,2013 27,672 874.34

Normal
83.01 Coolant Level 2446.34 52.98 43.13 04,04,2014 27,672 871.32

Normal
83.01 Coolant Level 2455.07 52.98 43.13 04,09,2014 27,672 881.23

Normal
83.01 Coolant Level 2441.57 52.98 43.13 01,04,2013 27,672 876.71

Normal
83.01 Coolant Level 2454.67 52.98 43.13 04,09,2014 27,672 871.86

Normal
83.01 Coolant Level 2485.63 52.98 43.13 01,04,2013 27,672 867.45

Normal
83.01 Coolant Level 2489.99 52.98 43.13 04,09,2014 27,672 874.77
Normal
83.01 Coolant Level 2481.26 53.07 43.13 04,04,2014 27,672 870.35

Normal
83.01 Coolant Level 2494.36 52.98 43.06 01,04,2013 27,672 868.74

Normal
83.01 Coolant Level 2478.88 52.98 43.06 01,04,2013 27,672 865.83

Normal
83.01 Coolant Level 2489.99 52.98 43.05 01,04,2013 27,672 879.62

Normal
83.01 Coolant Level 2488.4 53.07 43.05 01,04,2013 27,672 880.37

Normal
83.01 Coolant Level 2495.95 53.07 43.12 04,04,2014 27,672 862.92

Normal
83.01 Coolant Level 2483.64 52.98 43.04 01,04,2018 27,672 867.88

Normal
83.01 Coolant Level 2483.64 52.98 43.04 01,04,2018 27,672 867.88

Normal
83.01 Coolant Level 2472.13 52.98 43.04 04,04,2014 27,672 867.12

Normal
83.01 Coolant Level 2492.77 52.98 43.12 01,04,2013 27,672 871.32

Normal
83.01 Coolant Level 2496.34 52.98 43.03 04,09,2014 27,672 864.32

Normal
83.01 Coolant Level 2487.61 52.98 43.03 01,04,2018 27,672 872.51

Normal
83.01 Coolant Level 2475.31 52.98 43.03 04,04,2014 27,625 867.55

Normal
83.01 Coolant Level 2444.75 52.98 43.03 01,04,1932 27,672 875.96

Normal
83.01 Coolant Level 2479.28 52.98 43.05 01,04,1932 27,672 881.88

Normal
83.01 Coolant Level 2492.77 52.98 43.05 01,04,2013 27,672 870.03

Normal
83.01 Coolant Level 2474.91 52.98 43.03 04,09,2014 27,672 861.95

Normal
83.01 Coolant Level 2488.8 52.98 43.03 01,04,2023 27,672 865.4

Normal
83.01 Coolant Level 2478.88 52.98 43.03 01,04,2023 27,672 874.34
Normal
83.01 Coolant Level 2447.92 52.98 43.03 01,03,1999 27,672 872.4

Normal
83.01 Coolant Level 2474.91 52.98 43.03 01,04,2018 27,672 866.58

Normal
83.01 Coolant Level 2456.26 52.98 43.11 01,04,2018 27,672 869.71

Normal
83.01 Coolant Level 2478.88 52.98 43.03 04,09,2014 27,672 869.28

Normal
83.01 Coolant Level 2460.23 52.98 43.05 01,03,1999 27,672 879.83

Normal
83.01 Coolant Level 2438 52.98 43.03 01,04,1932 27,672 873.48

Normal
83.01 Coolant Level 2459.43 52.98 43.03 01,04,2023 27,672 871.22

Normal
83.01 Coolant Level 2441.18 52.98 43.03 01,04,2013 27,672 870.68

Normal
83.01 Coolant Level 2459.04 52.98 43.05 04,09,2014 27,672 866.69

Normal
83.01 Coolant Level 2482.85 52.98 43.11 01,04,2013 27,672 878.54

Normal
83.01 Coolant Level 2463.4 52.98 43.03 01,04,2023 27,625 876.17

Normal
83.01 Coolant Level 2436.81 52.98 43.03 04,04,2014 27,672 868.63

Normal
83.01 Coolant Level 2462.61 52.98 43.03 04,09,2014 27,672 875.74

Normal
83.01 Coolant Level 2440.78 53.07 43.11 01,04,2027 27,625 875.31

Normal
83.01 Coolant Level 2471.34 52.98 43.03 01,04,2018 27,672 877.57

Normal
83.01 Coolant Level 2440.78 52.98 43.03 01,04,2018 27,672 871.32

Normal
83.01 Coolant Level 2439.99 52.98 43.03 01,04,2023 27,672 875.09

Normal
83.01 Coolant Level 2455.46 52.98 43.05 01,04,2018 27,672 873.8

Normal
83.01 Coolant Level 2470.15 52.98 43.03 01,03,1999 27,672 873.15
Normal
83.01 Coolant Level 2495.55 52.98 43.03 01,04,2013 27,672 872.19

Normal
83.01 Coolant Level 2488.01 52.98 43.03 01,03,1986 27,625 876.17

Normal
83.01 Coolant Level 2496.34 52.98 43.03 01,03,1999 27,672 876.71

Normal
83.01 Coolant Level 2496.34 52.98 43.03 01,03,1999 27,672 876.71

Normal
83.01 Coolant Level 2488.8 52.98 43.03 01,03,1995 27,672 878.65

Normal
83.01 Coolant Level 2496.34 52.98 43.04 01,03,1991 27,672 872.4

Normal
83.01 Coolant Level 2488.01 52.98 43.04 01,03,1999 27,672 883.93

Normal
83.01 Coolant Level 2492.77 52.98 43.04 04,09,2014 27,672 872.51

Normal
83.01 Coolant Level 2488.8 52.98 43.03 01,04,1932 27,672 872.94

Normal
83.01 Coolant Level 2483.64 52.98 43.03 04,04,2014 27,672 869.49

Normal
83.01 Coolant Level 2493.17 52.98 43.03 01,03,1999 27,672 863.14

Normal
83.01 Coolant Level 2478.88 52.98 43.03 01,04,2018 27,625 867.01

Normal
83.01 Coolant Level 2452.29 52.98 43.03 01,03,1999 27,672 865.61

Normal
83.01 Coolant Level 2478.48 52.98 43.03 01,04,2013 27,672 865.51

Normal
83.01 Coolant Level 2456.26 52.98 43.03 04,09,2014 27,672 867.77

Normal
83.01 Coolant Level 2478.48 52.98 43.03 01,04,2013 27,672 865.08

Normal
83.01 Coolant Level 2459.43 52.98 43.03 04,09,2014 27,672 878.22

Normal
83.01 Coolant Level 2459.43 52.98 43.03 04,09,2014 27,672 878.22

Normal
83.01 Coolant Level 2478.88 52.98 42.96 04,09,2014 27,672 875.96
Normal
83.01 Coolant Level 2494.36 52.98 43.03 01,04,2018 27,672 869.71

Normal
83.01 Coolant Level 2483.64 52.98 43 04,04,2014 27,672 864.11

Normal
83.01 Coolant Level 2483.64 52.98 43 04,04,2014 27,672 864.11

Normal
83.01 Coolant Level 2495.15 52.98 43.03 01,04,2023 27,672 876.17

Normal
83.01 Coolant Level 2483.64 52.98 43.03 01,03,1999 27,672 866.8

Normal
83.01 Coolant Level 2495.55 53.07 43.02 04,04,2014 27,672 864.21

Normal
83.01 Coolant Level 2487.61 52.98 42.96 01,04,2013 27,672 862.49

Normal
83.01 Coolant Level 2471.34 52.98 43 01,03,1995 27,672 864.64

Normal
83.01 Coolant Level 2471.34 52.98 43 01,03,1995 27,672 864.64

Normal
83.01 Coolant Level 2441.18 52.98 42.96 01,04,2013 27,672 878.22

Normal
83.01 Coolant Level 2478.09 52.98 42.93 01,04,1932 27,672 876.28

Normal
83.01 Coolant Level 2489.99 53.07 42.93 01,04,2018 27,672 875.63

Normal
83.01 Coolant Level 2469.75 52.98 42.93 04,09,2014 27,672 876.6

Normal
83.01 Coolant Level 2495.55 52.98 42.93 01,04,2013 27,672 875.52

Normal
83.01 Coolant Level 2474.51 52.98 42.93 01,03,1986 27,672 880.48

Normal
83.01 Coolant Level 2495.95 52.98 42.93 01,04,2023 27,625 876.71

Normal
83.01 Coolant Level 2466.18 52.98 42.93 01,04,1937 27,672 872.62

Normal
83.01 Coolant Level 2496.34 52.98 42.93 01,04,2018 27,672 875.2

Normal
83.01 Coolant Level 2483.64 52.98 42.93 01,03,1995 27,672 876.28
Normal
83.01 Coolant Level 2496.34 52.98 42.86 01,04,2018 27,672 867.01

Normal
83.01 Coolant Level 2483.64 52.98 42.93 01,04,2013 27,672 871.54

Normal
83.01 Coolant Level 2470.55 52.98 42.83 01,03,1999 27,625 864

Normal
83.01 Coolant Level 2470.55 52.98 42.83 01,03,1999 27,625 864

Normal
83.01 Coolant Level 2448.72 52.87 42.86 01,04,2018 27,672 876.17

Normal
83.01 Coolant Level 2434.83 52.87 42.83 01,04,2023 27,672 886.08

Normal
83.01 Coolant Level 2447.92 52.87 42.83 04,09,2014 27,672 878.33

Normal
83.01 Coolant Level 2474.91 52.87 42.83 04,09,2014 27,625 866.48

Normal
83.01 Coolant Level 2447.53 52.87 42.93 01,04,1932 27,672 867.88

Normal
83.01 Coolant Level 2478.88 52.87 42.86 01,04,1937 27,672 877.57

Normal
83.01 Coolant Level 2447.53 52.87 42.93 01,04,2013 27,625 881.13

Normal
83.01 Coolant Level 2436.81 52.87 42.93 01,04,2018 27,672 874.56

Normal
83.01 Coolant Level 2446.34 52.77 42.84 01,04,2018 27,672 869.49

Normal
83.01 Coolant Level 2454.67 52.77 42.93 04,04,2014 27,672 878.86

Normal
83.01 Coolant Level 2446.34 52.77 42.93 01,04,2018 27,672 873.37

Normal
83.01 Coolant Level 2459.83 52.77 42.93 01,04,2013 27,672 877.46

Normal
83.01 Coolant Level 2437.21 52.87 42.93 01,04,2023 27,672 879.19

Normal
83.01 Coolant Level 2455.07 52.87 42.93 01,03,1995 27,672 873.37

Normal
83.01 Coolant Level 2481.26 52.87 42.86 01,03,1995 27,672 879.62
Normal
83.01 Coolant Level 2451.1 52.77 42.93 01,04,2013 27,672 872.51

Normal
83.01 Coolant Level 2473.32 52.77 42.93 04,04,2014 27,672 868.2

Normal
83.01 Coolant Level 2495.15 52.77 42.86 01,03,1995 27,672 877.25

Normal
83.01 Coolant Level 2474.12 52.77 42.93 01,04,2013 27,672 881.67

Normal
83.01 Coolant Level 2446.73 52.87 42.93 01,04,2018 27,672 877.89

Normal
83.01 Coolant Level 2446.73 52.87 42.93 01,04,2018 27,672 877.89

Normal
83.01 Coolant Level 2464.99 52.87 42.93 01,04,2018 27,672 874.02

Normal
83.01 Coolant Level 2495.55 52.87 42.93 01,04,2023 27,672 876.71

Normal
83.01 Coolant Level 2478.88 52.87 42.93 04,04,2014 27,672 872.51

Normal
83.01 Coolant Level 2466.58 52.87 42.93 01,04,2018 27,625 872.83

Normal
83.01 Coolant Level 2482.85 52.87 42.93 01,03,1986 27,625 865.61

Normal
83.01 Coolant Level 2470.55 52.87 43.02 04,04,2014 27,672 858.07

Normal
83.01 Coolant Level 2483.64 52.87 43.02 01,04,2013 27,672 873.59

Normal
83.01 Coolant Level 2470.94 52.87 42.95 01,03,1991 27,672 873.26

Normal
83.01 Coolant Level 2443.95 52.87 42.96 01,03,1999 27,672 876.6

Normal
83.01 Coolant Level 2443.95 52.87 42.96 01,03,1999 27,672 876.6

Normal
83.01 Coolant Level 2465.78 52.87 43.03 01,03,1999 27,672 876.39

Normal
83.01 Coolant Level 2491.58 52.87 43.03 01,03,1999 27,672 876.6

Normal
83.01 Coolant Level 2491.58 52.87 43.03 01,03,1999 27,672 876.6
Normal
83.01 Coolant Level 2461.42 52.87 43.03 04,09,2014 27,672 878.97

Normal
83.12 Coolant Level 2491.58 52.87 43.03 01,03,1999 27,672 883.07

Normal
83.01 Coolant Level 2462.21 52.87 43.03 01,03,1999 27,672 878.54

Normal
83.01 Coolant Level 2496.74 52.87 43.03 04,09,2014 27,672 873.15

Normal
83.05 Coolant Level 2487.61 52.87 42.96 01,04,2027 27,672 884.57

Normal
83.01 Coolant Level 2488.01 52.87 43.03 01,04,2013 27,625 881.88

Normal
83.01 Coolant Level 2483.64 52.87 43.03 01,04,2013 27,672 884.36

Normal
83.01 Coolant Level 2493.56 52.98 43.03 04,09,2014 27,672 867.34

Normal
83.01 Coolant Level 2493.56 52.98 43.03 04,09,2014 27,672 873.15

Normal
83.01 Coolant Level 2488.01 52.87 43.03 01,03,1999 27,672 873.15

Normal
83.01 Coolant Level 2434.83 52.87 43.03 01,04,2013 27,672 872.4

Normal
83.01 Coolant Level 2447.53 52.87 43.03 01,04,2023 27,672 873.91

Normal
83.01 Coolant Level 2447.53 52.87 43.03 01,04,2023 27,672 873.91

Normal
83.01 Coolant Level 2434.03 52.87 43.03 01,04,2023 27,672 879.83

Normal
83.01 Coolant Level 2447.53 52.87 43.03 01,04,2013 27,672 871.32

Normal
83.01 Coolant Level 2474.51 52.87 43.03 04,09,2014 27,672 862.6

Normal
83.01 Coolant Level 2451.5 52.87 43.03 01,04,2013 27,625 866.04

Normal
83.05 Coolant Level 2436.81 52.87 43.03 04,09,2014 27,672 878.33

Normal
83.05 Coolant Level 2436.81 52.87 43.03 04,04,2014 27,672 871.86
Normal
83.01 Coolant Level 2450.7 52.87 43.03 04,04,2014 27,672 871.86

Normal
83.01 Coolant Level 2436.81 52.87 43.03 01,04,2023 27,625 881.67

Normal
83.01 Coolant Level 2437.21 52.87 43.03 01,04,2027 27,625 880.8

Normal
83.01 Coolant Level 2454.67 52.87 43.03 04,04,2014 27,672 875.74

Normal
83.01 Coolant Level 2481.26 52.98 43.03 01,04,2013 27,672 870.89

Normal
83.01 Coolant Level 2445.94 52.98 43.03 04,09,2014 27,672 869.6

Normal
83.01 Coolant Level 2476.5 52.98 43.03 04,09,2014 27,625 875.42

Normal
83.01 Coolant Level 2445.94 52.98 43.03 01,03,1999 27,672 875.96

Normal
83.01 Coolant Level 2436.81 52.98 43.03 01,04,2018 27,672 881.45

Normal
83.01 Coolant Level 2445.94 52.98 43.03 04,04,2014 27,625 872.29

Normal
83.01 Coolant Level 2468.16 52.98 43 04,04,2014 27,672 879.51

Normal
83.02 Coolant Level 2489.99 52.98 43.03 01,04,2018 27,672 876.06

Normal
83.01 Coolant Level 2478.88 52.98 43.03 01,04,2018 27,672 886.19

Normal
83.01 Coolant Level 2490.79 52.98 43.03 01,04,2013 27,672 874.66

Normal
83.01 Coolant Level 2482.85 52.98 43 01,03,1999 27,672 872.72

Normal
83.01 Coolant Level 2486.82 52.98 43.03 01,04,2027 27,672 874.23

Normal
83.05 Coolant Level 2482.85 52.98 42.95 04,04,2014 27,672 881.02

Normal
83.01 Coolant Level 2471.34 52.98 42.93 04,04,2014 27,625 871

Normal
83.01 Coolant Level 2483.64 52.98 42.93 04,09,2014 27,672 862.6
Normal
83.12 Coolant Level 2466.18 52.98 42.93 01,04,2023 27,672 872.29

Normal
83.01 Coolant Level 2439.19 52.98 42.93 04,09,2014 27,672 880.16

Normal
83.12 Coolant Level 2434.43 52.98 42.93 01,03,1999 27,672 872.29

Normal
83.15 Coolant Level 2443.56 52.98 42.93 01,04,1932 27,672 878.76

Normal
83.05 Coolant Level 2429.27 52.98 42.86 01,04,2027 27,672 873.48

Normal
83.12 Coolant Level 2443.56 52.98 42.83 01,03,1999 27,625 888.78

Normal
83.05 Coolant Level 2433.24 52.98 42.83 04,04,2014 27,672 876.71

Normal
83.15 Coolant Level 2437.6 52.98 42.83 04,04,2014 27,672 876.28

Normal
83.16 Coolant Level 2432.45 52.98 42.83 04,09,2014 27,672 880.59

Normal
83.13 Coolant Level 2446.73 52.87 42.83 01,03,1995 27,672 880.8

Normal
83.15 Coolant Level 2428.48 52.98 42.83 01,04,2013 27,672 890.71

Normal
83.05 Coolant Level 2437.21 52.98 42.83 04,09,2014 27,672 882.64

Normal
83.16 Coolant Level 2450.3 52.98 42.83 01,03,1991 27,672 873.69

Normal
83.05 Coolant Level 2437.21 52.87 42.83 04,09,2014 27,672 873.26

Normal
83.05 Coolant Level 2454.67 52.87 42.83 01,04,2013 27,672 872.72

Normal
83.16 Coolant Level 2476.9 52.87 42.82 01,04,2018 27,672 879.94

Normal
83.01 Coolant Level 2446.34 52.87 42.83 01,03,1991 27,625 879.08

Normal
83.06 Coolant Level 2472.53 52.87 42.74 01,03,1999 27,672 878.54

Normal
83.15 Coolant Level 2445.94 52.87 42.73 01,04,2018 27,672 881.56
Normal
83.15 Coolant Level 2468.96 52.87 42.8 01,03,1995 27,672 878

Normal
83.15 Coolant Level 2494.75 52.87 42.8 01,04,2018 27,672 871.32

Normal
83.15 Coolant Level 2464.99 52.87 42.73 01,04,1932 27,672 872.4

Normal
83.13 Coolant Level 2464.99 52.87 42.73 01,04,1932 27,672 872.4

Normal
83.16 Coolant Level 2486.82 52.87 42.73 01,04,2018 27,672 875.2

Normal
83.15 Coolant Level 2461.02 52.87 42.75 01,03,1999 27,672 882.85

Normal
83.16 Coolant Level 2491.58 52.87 42.73 01,03,1999 27,672 875.96

Normal
83.15 Coolant Level 2482.85 52.87 42.83 04,04,2014 27,672 871.65

Normal
83.16 Coolant Level 2496.34 52.87 42.8 01,03,1999 27,672 870.35

Normal
83.16 Coolant Level 2483.64 52.87 42.75 01,03,1995 27,672 874.88

Normal
83.16 Coolant Level 2466.58 52.87 42.82 01,03,1991 27,625 878.11

Normal
83.13 Coolant Level 2488.01 52.87 42.83 01,03,1999 27,625 874.34

Normal
83.15 Coolant Level 2492.77 52.87 42.83 04,09,2014 27,672 866.48

Normal
83.02 Coolant Level 2483.64 52.87 42.83 01,04,2027 27,672 875.85

Normal
83.06 Coolant Level 2474.51 52.87 42.83 01,04,2013 27,672 874.23

Normal
83.15 Coolant Level 2492.77 52.87 42.83 01,04,2013 27,672 878.97

Normal
83.13 Coolant Level 2474.51 52.87 42.83 01,04,2013 27,672 862.17

Normal
83.16 Coolant Level 2493.17 52.87 42.83 04,04,2014 27,672 865.51

Normal
83.12 Coolant Level 2474.51 52.87 42.83 01,03,1999 27,672 870.57
Normal
83.16 Coolant Level 2451.5 52.77 42.83 01,03,1999 27,672 876.6

Normal
83.16 Coolant Level 2433.24 52.87 42.83 01,04,2013 27,672 872.72

Normal
83.16 Coolant Level 2450.7 52.87 42.83 04,09,2014 27,672 870.68

Normal
83.15 Coolant Level 2436.81 52.77 42.83 01,03,1999 27,672 880.59

Normal
83.15 Coolant Level 2459.43 52.87 42.83 01,04,2018 27,672 877.79

Normal
83.16 Coolant Level 2483.25 52.87 42.83 04,09,2014 27,672 873.26

Normal
83.16 Coolant Level 2458.64 52.77 42.83 04,09,2014 27,672 872.72

Normal
83.13 Coolant Level 2436.81 52.77 42.83 04,04,2014 27,672 872.08

Normal
83.13 Coolant Level 2441.18 52.77 42.83 04,04,2014 27,672 882.74

Normal
83.13 Coolant Level 2441.18 52.77 42.83 01,03,1999 27,672 872.29

Normal
83.15 Coolant Level 2436.81 52.77 42.83 01,03,1999 27,672 872.29

Normal
83.06 Coolant Level 2466.58 52.77 42.83 01,03,1999 27,672 875.74

Normal
Coolant Level 752.08 60.73 38.27 0 25.578 100.62 110.21

Normal
Coolant Level 752.08 60.73 38.29 0 25.578 100.62 110.21

Normal
Coolant Level 752.08 60.73 38.34 0 25.547 100.62 110.21

Normal
Coolant Level 752.08 60.73 38.36 0 25.578 100.62 110.21

Normal
Coolant Level 752.08 60.73 38.29 0 25.578 100.62 110.21

Normal
Coolant Level 752.08 60.73 38.37 0 25.547 100.62 110.21

Normal
Coolant Level 752.08 60.73 38.37 0 25.547 100.62 110.21
Normal
Coolant Level 752.08 60.73 38.37 0 25.578 100.62 110.21

Normal
Coolant Level 752.08 60.73 38.37 0 25.578 100.62 110.21

Normal
Coolant Level 752.08 60.73 38.37 0 25.578 100.62 110.21

Normal
Coolant Level 752.08 60.73 38.37 0 25.578 100.62 110.21

Normal
Coolant Level 752.08 60.73 38.37 0 25.547 100.62 110.21

Normal
Coolant Level 752.08 60.73 38.37 0 25.547 100.62 110.21

Normal
Coolant Level 752.08 60.73 38.37 0 25.547 100.62 110.21

Normal
Coolant Level 752.08 60.73 38.37 0 25.578 100.62 110.21

Normal
Coolant Level 752.08 60.73 38.37 0 25.547 100.62 110.21

Normal
Coolant Level 752.08 60.73 38.37 0 25.547 100.62 110.21

Normal
Coolant Level 752.08 60.73 38.37 0 25.547 100.62 110.21

Normal
Coolant Level 752.08 60.73 38.37 0 25.578 100.62 110.21

Normal
Coolant Level 752.08 60.73 38.37 0 25.547 100.62 110.21

Normal
Coolant Level 752.08 60.73 38.37 0 25.547 100.62 110.21

Normal
Coolant Level 752.08 60.73 38.37 0 25.547 100.62 110.21

Normal
Coolant Level 752.08 60.73 38.37 0 25.578 100.62 110.21

Normal
Coolant Level 752.08 60.73 38.37 0 25.547 100.62 110.21

Normal
Coolant Level 752.08 60.73 38.37 0 25.547 100.62 110.21

Normal
Coolant Level 752.08 60.73 38.37 0 25.578 100.62 110.21
Normal
Coolant Level 752.08 60.73 38.37 0 25.547 100.62 110.21

Normal
Coolant Level 752.08 60.73 38.37 0 25.547 100.62 110.21

Normal
Coolant Level 752.08 60.73 38.37 0 25.547 100.62 110.21

Normal
Coolant Level 752.08 60.73 38.37 0 25.578 100.62 110.21

Normal
Coolant Level 751.28 60.73 38.37 0 25.578 100.62 110.21

Normal
Coolant Level 752.08 60.73 38.37 0 25.578 100.62 110.21

Normal
Coolant Level 752.08 60.73 38.37 0 25.547 100.62 110.21

Normal
Coolant Level 752.08 60.73 38.45 0 25.547 100.62 110.21

Normal
Coolant Level 752.08 60.73 38.39 0 25.547 100.62 110.21

Normal
Coolant Level 752.08 60.73 38.38 0 25.578 100.62 110.21

Normal
Coolant Level 752.08 60.73 38.47 0 25.547 100.62 110.21

Normal
Coolant Level 752.08 60.73 38.38 0 25.547 100.62 110.21

Normal
Coolant Level 752.08 60.73 38.39 0 25.578 100.62 110.21

Normal
Coolant Level 752.08 60.73 38.47 0 25.578 100.62 110.21

Normal
Coolant Level 752.08 60.73 38.47 0 25.547 100.62 110.21

Normal
Coolant Level 752.08 60.73 38.45 0 25.547 100.62 110.21

Normal
Coolant Level 752.08 60.73 38.47 0 25.547 100.62 110.21

Normal
Coolant Level 752.08 60.73 38.47 0 25.547 100.62 110.21

Normal
Coolant Level 752.08 60.73 38.47 0 25.547 100.62 110.21
Normal
Coolant Level 752.08 60.73 38.47 0 25.547 100.62 110.21

Normal
Coolant Level 752.08 60.73 38.47 0 25.578 100.62 110.21

Normal
Coolant Level 752.08 60.73 38.47 0 25.547 100.62 110.21

Normal
Coolant Level 752.08 60.73 38.47 0 25.578 100.62 110.21

Normal
Coolant Level 752.08 60.73 38.47 0 25.547 100.62 110.21

Normal
Coolant Level 752.08 60.73 38.47 0 25.547 100.62 110.21

Normal
Coolant Level 752.08 60.63 38.47 0 25.578 100.62 110.21

Normal
Coolant Level 752.08 60.73 38.47 0 25.547 100.62 110.21

Normal
Coolant Level 752.08 60.73 38.47 0 25.578 100.62 110.21

Normal
Coolant Level 752.08 60.63 38.47 0 25.547 100.62 110.21

Normal
Coolant Level 752.08 60.73 38.47 0 25.547 100.62 110.21

Normal
Coolant Level 752.08 60.63 38.47 0 25.578 100.62 110.21

Normal
Coolant Level 752.08 60.73 38.47 0 25.547 100.62 110.21

Normal
Coolant Level 752.08 60.63 38.47 0 25.547 100.62 110.21

Normal
Coolant Level 752.08 60.73 38.47 0 25.547 100.62 110.21

Normal
Coolant Level 752.08 60.73 38.47 0 25.547 100.62 110.21

Normal
Coolant Level 752.08 60.63 38.47 0 25.578 100.62 110.21

Normal
Coolant Level 752.08 60.63 38.47 0 25.547 100.62 110.21

Normal
Coolant Level 752.08 60.63 38.47 0 25.547 100.62 110.21
Normal
Coolant Level 752.08 60.63 38.47 0 25.578 100.62 110.21

Normal
Coolant Level 752.08 60.63 38.47 0 25.547 100.62 110.21

Normal
Coolant Level 752.08 60.63 38.48 0 25.578 100.62 110.21

Normal
Coolant Level 752.08 60.63 38.47 0 25.578 100.62 110.21

Normal
Coolant Level 752.08 60.63 38.48 0 25.547 100.62 110.21

Normal
Coolant Level 752.08 60.63 38.47 0 25.578 100.62 110.21

Normal
Coolant Level 752.08 60.63 38.47 0 25.578 100.62 110.21

Normal
Coolant Level 752.08 60.63 38.47 0 25.547 100.62 110.21

Normal
Coolant Level 752.08 60.63 38.47 0 25.547 100.62 110.21

Normal
Coolant Level 752.08 60.63 38.47 0 25.547 100.62 110.21

Normal
Coolant Level 752.08 60.63 38.47 0 25.547 100.62 110.21

Normal
Coolant Level 752.08 60.63 38.55 0 25.547 100.62 110.21

Normal
Coolant Level 752.08 60.63 38.49 0 25.547 100.62 110.21

Normal
Coolant Level 752.08 60.63 38.55 0 25.547 100.62 110.21

Normal
Coolant Level 752.08 60.63 38.55 0 25.547 100.62 110.21

Normal
Coolant Level 752.08 60.63 38.55 0 25.547 100.62 110.21

Normal
Coolant Level 752.08 60.63 38.55 0 25.547 100.62 110.21

Normal
Coolant Level 752.08 60.63 38.49 0 25.547 100.62 110.21

Normal
Coolant Level 752.08 60.63 38.58 0 25.578 100.62 110.21
Normal
Coolant Level 752.08 60.63 38.56 0 25.578 100.62 110.21

Normal
Coolant Level 752.08 60.63 38.56 0 25.547 100.62 110.21

Normal
Coolant Level 752.08 60.63 38.56 0 25.547 100.62 110.21

Normal
Coolant Level 752.08 60.63 38.55 0 25.578 100.62 110.21

Normal
Coolant Level 752.08 60.63 38.58 0 25.547 100.62 110.21

Normal
Coolant Level 752.08 60.63 38.58 0 25.547 100.62 110.21

Normal
Coolant Level 752.08 60.63 38.57 0 25.547 100.62 110.21

Normal
Coolant Level 752.08 60.63 38.58 0 25.547 100.62 110.21

Normal
Coolant Level 752.08 60.63 38.58 0 25.578 100.62 110.21

Normal
Coolant Level 752.08 60.63 38.58 0 25.578 100.62 110.21

Normal
Coolant Level 752.08 60.63 38.58 0 25.578 100.62 110.21

Normal
Coolant Level 752.08 60.63 38.58 0 25.578 100.62 110.21

Normal
Coolant Level 752.08 60.63 38.58 0 25.578 100.62 110.21

Normal
Coolant Level 752.08 60.63 38.58 0 25.547 100.62 110.21

Normal
Coolant Level 752.08 60.63 38.58 0 25.578 100.62 110.21

Normal
Coolant Level 752.08 60.63 38.58 0 25.547 100.62 110.21

Normal
Coolant Level 752.08 60.63 38.58 0 25.547 100.62 110.21

Normal
Coolant Level 752.08 60.63 38.58 0 25.547 100.62 110.21

Normal
Coolant Level 752.08 60.63 38.58 0 25.547 100.62 110.21
Normal
Coolant Level 752.08 60.63 38.58 0 25.547 100.62 110.21

Normal
Coolant Level 752.08 60.63 38.58 0 25.547 100.62 110.21

Normal
Coolant Level 752.08 60.63 38.58 0 25.547 100.62 110.21

Normal
Coolant Level 752.08 60.63 38.58 0 25.547 100.62 110.21

Normal
Coolant Level 752.08 60.63 38.58 0 25.547 100.62 110.21

Normal
Coolant Level 752.08 60.63 38.58 0 25.547 100.62 110.21

Normal
Coolant Level 752.08 60.63 38.58 0 25.547 100.62 110.21

Normal
Coolant Level 752.08 60.63 38.58 0 25.578 100.62 110.21

Normal
Coolant Level 752.08 60.63 38.58 0 25.578 100.62 110.21

Normal
Coolant Level 752.08 60.63 38.58 0 25.547 100.62 110.21

Normal
Coolant Level 752.08 60.63 38.58 0 25.547 100.62 110.21

Normal
Coolant Level 752.08 60.63 38.58 0 25.547 100.62 110.21

Normal
Coolant Level 752.08 60.63 38.58 0 25.547 100.62 110.21

Normal
Coolant Level 752.08 60.63 38.58 0 25.547 100.62 110.21

Normal
Coolant Level 752.08 60.63 38.58 0 25.547 100.62 110.21

Normal
Coolant Level 752.08 60.63 38.65 0 25.547 100.62 110.21

Normal
Coolant Level 752.08 60.63 38.59 0 25.547 100.62 110.21

Normal
Coolant Level 752.08 60.63 38.59 0 25.547 100.62 110.21

Normal
Coolant Level 752.08 60.63 38.59 0 25.547 100.62 110.21
Normal
Coolant Level 752.08 60.52 38.6 0 25.547 100.62 110.21

Normal
Coolant Level 752.08 60.52 38.68 0 25.547 100.62 110.21

Normal
Coolant Level 752.08 60.63 38.68 0 25.547 100.62 110.21

Normal
Coolant Level 752.08 60.52 38.67 0 25.547 100.62 110.21

Normal
Coolant Level 752.08 60.52 38.67 0 25.547 100.62 110.21

Normal
Coolant Level 752.08 60.63 38.67 0 25.547 100.62 110.21

Normal
Coolant Level 751.28 60.52 38.67 0 25.578 100.62 110.21

Normal
Coolant Level 752.08 60.63 38.58 0 25.547 100.62 110.21

Normal
Coolant Level 752.08 60.52 38.59 0 25.547 100.62 110.21

Normal
Coolant Level 752.08 60.52 38.68 0 25.547 100.62 110.21

Normal
Coolant Level 752.08 60.52 38.6 0 25.547 100.62 110.21

Normal
Coolant Level 752.08 60.52 38.67 0 25.578 100.62 110.21

Normal
Coolant Level 752.08 60.52 38.68 0 25.547 100.62 110.21

Normal
Coolant Level 752.08 60.52 38.67 0 25.547 100.62 110.21

Normal
Coolant Level 752.08 60.52 38.67 0 25.547 100.62 110.21

Normal
Coolant Level 752.08 60.52 38.68 0 25.547 100.62 110.21

Normal
Coolant Level 752.08 60.52 38.68 0 25.547 100.62 110.21

Normal
Coolant Level 752.08 60.52 38.68 0 25.547 100.62 110.21

Normal
Coolant Level 752.08 60.52 38.68 0 25.578 100.62 110.21
Normal
Coolant Level 752.08 60.52 38.68 0 25.578 100.62 110.21

Normal
Coolant Level 752.08 60.52 38.68 0 25.547 100.62 110.21

Normal
Coolant Level 752.08 60.52 38.68 0 25.578 100.62 110.21

Normal
Coolant Level 752.08 60.52 38.68 0 25.547 100.62 110.21

Normal
Coolant Level 752.08 60.52 38.68 0 25.547 100.62 110.21

Normal
Coolant Level 752.08 60.52 38.68 0 25.547 100.62 110.21

Normal
Coolant Level 752.08 60.52 38.68 0 25.547 100.62 110.21

Normal
Coolant Level 752.08 60.52 38.68 0 25.578 100.62 110.21

Normal
Coolant Level 752.08 60.52 38.68 0 25.547 100.62 110.21

Normal
Coolant Level 752.08 60.52 38.68 0 25.547 100.62 110.21

Normal
Coolant Level 752.08 60.52 38.68 0 25.547 100.62 110.21

Normal
Coolant Level 752.08 60.52 38.67 0 25.547 100.62 110.21

Normal
Coolant Level 752.08 60.52 38.68 0 25.547 100.62 110.21

Normal
Coolant Level 752.08 60.52 38.68 0 25.547 100.62 110.21

Normal
Coolant Level 752.08 60.52 38.68 0 25.547 100.62 110.21

Normal
Coolant Level 752.08 60.52 38.68 0 25.547 100.62 110.21

Normal
Coolant Level 752.08 60.52 38.68 0 25.547 100.62 110.21

Normal
Coolant Level 752.08 60.52 38.68 0 25.547 100.62 110.21

Normal
Coolant Level 752.08 60.52 38.68 0 25.547 100.62 110.21
Normal
Coolant Level 752.08 60.52 38.68 0 25.547 100.62 110.21

Normal
Coolant Level 752.08 60.52 38.68 0 25.547 100.62 110.21

Normal
Coolant Level 752.08 60.52 38.75 0 25.547 100.62 110.21

Normal
Coolant Level 752.08 60.52 38.68 0 25.547 100.62 110.21

Normal
Coolant Level 752.08 60.52 38.68 0 25.578 100.62 110.21

Normal
Coolant Level 752.08 60.52 38.68 0 25.547 100.62 110.21

Normal
Coolant Level 752.08 60.52 38.68 0 25.547 100.62 110.21

Normal
Coolant Level 752.08 60.52 38.68 0 25.547 100.62 110.21

Normal
Coolant Level 752.08 60.52 38.68 0 25.578 100.62 110.21

Normal
Coolant Level 752.08 60.52 38.68 0 25.547 100.62 110.21

Normal
Coolant Level 752.08 60.52 38.68 0 25.547 100.62 110.21

Normal
Coolant Level 752.08 60.52 38.68 0 25.547 100.62 110.21

Normal
Coolant Level 752.08 60.52 38.69 0 25.547 100.62 110.21

Normal
Coolant Level 752.08 60.52 38.68 0 25.547 100.62 110.21

Normal
Coolant Level 752.08 60.52 38.78 0 25.578 100.62 110.21

Normal
Coolant Level 752.08 60.52 38.71 0 25.547 100.62 110.21

Normal
Coolant Level 752.08 60.52 38.78 0 25.547 100.62 110.21

Normal
Coolant Level 752.08 60.52 38.78 0 25.547 100.62 110.21

Normal
Coolant Level 752.08 60.52 38.78 0 25.547 100.62 110.21
Normal
Coolant Level 752.08 60.52 38.78 0 25.547 100.62 110.21

Normal
Coolant Level 752.08 60.52 38.78 0 25.547 100.62 110.21

Normal
Coolant Level 752.08 60.52 38.75 0 25.547 100.62 110.21

Normal
Coolant Level 752.08 60.52 38.71 0 25.547 100.62 110.21

Normal
Coolant Level 752.08 60.52 38.71 0 25.547 100.62 110.21

Normal
Coolant Level 752.08 60.52 38.78 0 25.547 100.62 110.21

Normal
Coolant Level 752.08 60.52 38.78 0 25.547 100.62 110.21

Normal
Coolant Level 752.08 60.52 38.78 0 25.547 100.62 110.21

Normal
Coolant Level 752.08 60.52 38.78 0 25.547 100.62 110.21

Normal
Coolant Level 752.08 60.42 38.78 0 25.547 100.62 110.21

Normal
Coolant Level 752.08 60.52 38.75 0 25.547 100.62 110.21

Normal
Coolant Level 752.08 60.52 38.76 0 25.547 100.62 110.21

Normal
Coolant Level 752.08 60.52 38.68 0 25.547 100.62 110.21

Normal
Coolant Level 752.08 60.52 38.78 0 25.547 100.62 110.21

Normal
Coolant Level 752.08 60.42 38.78 0 25.547 100.62 110.21

Normal
Coolant Level 752.08 60.52 38.69 0 25.547 100.62 110.21

Normal
Coolant Level 752.08 60.52 38.78 0 25.547 100.62 110.21

Normal
Coolant Level 752.08 60.52 38.78 0 25.547 100.62 110.21

Normal
Coolant Level 752.08 60.42 38.78 0 25.547 100.62 110.21
Normal
Coolant Level 752.08 60.52 38.78 0 25.547 100.62 110.21

Normal
Coolant Level 752.08 60.52 38.76 0 25.578 100.62 110.21

Normal
Coolant Level 752.08 60.52 38.78 0 25.547 100.62 110.21

Normal
Coolant Level 752.08 60.42 38.71 0 25.547 100.62 110.21

Normal
Coolant Level 752.08 60.42 38.78 0 25.547 100.62 110.21

Normal
Coolant Level 752.08 60.42 38.69 0 25.547 100.62 110.21

Normal
Coolant Level 752.08 60.42 38.78 0 25.547 100.62 110.21

Normal
Coolant Level 752.08 60.42 38.78 0 25.578 100.62 110.21

Normal
Coolant Level 752.08 60.52 38.75 0 25.547 100.62 110.21

Normal
Coolant Level 752.08 60.42 38.78 0 25.547 100.62 110.21

Normal
Coolant Level 752.08 60.42 38.78 0 25.547 100.62 110.21

Normal
Coolant Level 752.08 60.42 38.78 0 25.547 100.62 110.21

Normal
Coolant Level 752.08 60.42 38.71 0 25.547 100.62 110.21

Normal
Coolant Level 752.08 60.42 38.78 0 25.547 100.62 110.21

Normal
Coolant Level 752.08 60.42 38.78 0 25.547 100.62 110.21

Normal
Coolant Level 752.08 60.42 38.78 0 25.547 100.62 110.21

Normal
Coolant Level 752.08 60.42 38.78 0 25.547 100.62 110.21

Normal
Coolant Level 752.08 60.42 38.78 0 25.547 100.62 110.21

Normal
Coolant Level 752.08 60.42 38.78 0 25.547 100.62 110.21
Normal
Coolant Level 752.08 60.42 38.78 0 25.547 100.62 110.21

Normal
Coolant Level 752.08 60.42 38.78 0 25.547 100.62 110.21

Normal
Coolant Level 752.08 60.42 38.78 0 25.547 100.62 110.21

Normal
Coolant Level 752.08 60.42 38.78 0 25.547 100.62 110.21

Normal
Coolant Level 752.08 60.42 38.78 0 25.547 100.62 110.21

Normal
Coolant Level 752.08 60.42 38.78 0 25.547 100.62 110.21

Normal
Coolant Level 752.08 60.42 38.78 0 25.547 100.62 110.21

Normal
Coolant Level 752.08 60.42 38.78 0 25.578 100.62 110.21

Normal
Coolant Level 752.08 60.42 38.78 0 25.547 100.62 110.21

Normal
Coolant Level 752.08 60.42 38.78 0 25.547 100.62 110.21

Normal
Coolant Level 752.08 60.42 38.78 0 25.547 100.62 110.21

Normal
Coolant Level 752.08 60.42 38.78 0 25.547 100.62 110.21

Normal
Coolant Level 752.08 60.42 38.78 0 25.547 100.62 110.21

Normal
Coolant Level 752.08 60.42 38.78 0 25.547 100.62 110.21

Normal
Coolant Level 752.08 60.42 38.78 0 25.578 100.62 110.21

Normal
Coolant Level 752.08 60.42 38.78 0 25.547 100.62 110.21

Normal
Coolant Level 752.08 60.42 38.78 0 25.547 100.62 110.21

Normal
Coolant Level 752.08 60.42 38.78 0 25.547 100.62 110.21

Normal
Coolant Level 752.08 60.42 38.78 0 25.547 100.62 110.21
Normal
Coolant Level 752.08 60.42 38.78 0 25.547 100.62 110.21

Normal
Coolant Level 752.08 60.42 38.78 0 25.547 100.62 110.21

Normal
Coolant Level 752.08 60.42 38.78 0 25.547 100.62 110.21

Normal
Coolant Level 752.08 60.42 38.78 0 25.547 100.62 110.21

Normal
Coolant Level 752.08 60.42 38.78 0 25.547 100.62 110.21

Normal
Coolant Level 752.08 60.42 38.78 0 25.547 100.62 110.21

Normal
Coolant Level 752.08 60.42 38.78 0 25.547 100.62 110.21

Normal
Coolant Level 752.08 60.42 38.78 0 25.547 100.62 110.21

Normal
Coolant Level 752.08 60.42 38.78 0 25.547 100.62 110.21

Normal
Coolant Level 752.08 60.42 38.78 0 25.547 100.62 110.21

Normal
Coolant Level 752.08 60.42 38.78 0 25.547 100.62 110.21

Normal
Coolant Level 752.08 60.42 38.78 0 25.547 100.62 110.21

Normal
Coolant Level 752.08 60.42 38.78 0 25.547 100.62 110.21

Normal
Coolant Level 752.08 60.42 38.78 0 25.547 100.62 110.21

Normal
Coolant Level 752.08 60.42 38.78 0 25.547 100.62 110.21

Normal
Coolant Level 752.08 60.42 38.78 0 25.547 100.62 110.21

Normal
Coolant Level 752.08 60.42 38.78 0 25.547 100.62 110.21

Normal
Coolant Level 752.08 60.42 38.78 0 25.547 100.62 110.21

Normal
Coolant Level 752.08 60.42 38.78 0 25.547 100.62 110.21
Normal
Coolant Level 752.08 60.42 38.78 0 25.547 100.62 110.21

Normal
Coolant Level 752.08 60.42 38.78 0 25.547 100.62 110.21

Normal
Coolant Level 752.08 60.42 38.78 0 25.547 100.62 110.21

Normal
Coolant Level 752.08 60.42 38.78 0 25.578 100.62 110.21

Normal
Coolant Level 752.08 60.42 38.88 0 25.547 100.62 110.21

Normal
Coolant Level 752.08 60.42 38.78 0 25.547 100.62 110.21

Normal
Coolant Level 752.08 60.42 38.78 0 25.547 100.62 110.21

Normal
Coolant Level 752.08 60.42 38.78 0 25.547 100.62 110.21

Normal
Coolant Level 752.08 60.42 38.78 0 25.547 100.62 110.21

Normal
Coolant Level 752.08 60.42 38.78 0 25.547 100.62 110.21

Normal
Coolant Level 752.08 60.42 38.78 0 25.547 100.62 110.21

Normal
Coolant Level 752.08 60.42 38.78 0 25.547 100.62 110.21

Normal
Coolant Level 752.08 60.42 38.78 0 25.547 100.62 110.21

Normal
Coolant Level 752.08 60.42 38.78 0 25.547 100.62 110.21

Normal
Coolant Level 752.08 60.42 38.79 0 25.547 100.62 110.21

Normal
Coolant Level 752.08 60.42 38.79 0 25.547 100.62 110.21

Normal
Coolant Level 752.08 60.42 38.78 0 25.547 100.62 110.21

Normal
Coolant Level 752.08 60.42 38.78 0 25.578 100.62 110.21

Normal
Coolant Level 752.08 60.42 38.78 0 25.547 100.62 110.21
Normal
Coolant Level 752.08 60.31 38.78 0 25.547 100.62 110.21

Normal
Coolant Level 752.08 60.42 38.78 0 25.547 100.62 110.21

Normal
Coolant Level 752.08 60.42 38.86 0 25.547 100.62 110.21

Normal
Coolant Level 752.08 60.42 38.78 0 25.547 100.62 110.21

Normal
Coolant Level 752.08 60.31 38.78 0 25.547 100.62 110.21

Normal
Coolant Level 752.08 60.42 38.79 0 25.547 100.62 110.21

Normal
Coolant Level 752.08 60.42 38.78 0 25.547 100.62 110.21

Normal
Coolant Level 752.08 60.31 38.88 0 25.547 100.62 110.21

Normal
Coolant Level 752.08 60.31 38.86 0 25.547 100.62 110.21

Normal
Coolant Level 752.08 60.31 38.86 0 25.547 100.62 110.21

Normal
Coolant Level 752.08 60.31 38.88 0 25.547 100.62 110.21

Normal
Coolant Level 752.08 60.31 38.78 0 25.547 100.62 110.21

Normal
Coolant Level 752.08 60.31 38.78 0 25.547 100.62 110.21

Normal
Coolant Level 752.08 60.31 38.82 0 25.547 100.62 110.21

Normal
Coolant Level 752.08 60.42 38.78 0 25.547 100.62 110.21

Normal
Coolant Level 752.08 60.31 38.82 0 25.547 100.62 110.21

Normal
Coolant Level 752.08 60.31 38.82 0 25.547 100.62 110.21

Normal
Coolant Level 752.08 60.31 38.88 0 25.547 100.62 110.21

Normal
Coolant Level 752.08 60.31 38.78 0 25.547 100.62 110.21
Normal
Coolant Level 752.08 60.31 38.79 0 25.547 100.62 110.21

Normal
Coolant Level 752.08 60.31 38.89 0 25.547 100.62 110.21

Normal
Coolant Level 752.08 60.31 38.89 0 25.547 100.62 110.21

Normal
Coolant Level 752.08 60.31 38.88 0 25.547 100.62 110.21

Normal
Coolant Level 752.08 60.31 38.88 0 25.547 100.62 110.21

Normal
Coolant Level 752.08 60.31 38.88 0 25.547 100.62 110.21

Normal
Coolant Level 752.08 60.31 38.86 0 25.547 100.62 110.21

Normal
Coolant Level 752.08 60.31 38.86 0 25.547 100.62 110.21

Normal
Coolant Level 752.08 60.31 38.79 0 25.547 100.62 110.21

Normal
Coolant Level 752.08 60.31 38.86 0 25.547 100.62 110.21

Normal
Coolant Level 752.08 60.31 38.88 0 25.547 100.62 110.21

Normal
Coolant Level 752.08 60.31 38.78 0 25.547 100.62 110.21

Normal
Coolant Level 752.08 60.31 38.86 0 25.547 100.62 110.21

Normal
Coolant Level 752.08 60.31 38.86 0 25.547 100.62 110.21

Normal
Coolant Level 752.08 60.31 38.86 0 25.547 100.62 110.21

Normal
Coolant Level 752.08 60.31 38.89 0 25.547 100.62 110.21

Normal
Coolant Level 752.08 60.31 38.82 0 25.547 100.62 110.21

Normal
Coolant Level 752.08 60.31 38.89 0 25.578 100.62 110.21

Normal
Coolant Level 752.08 60.31 38.89 0 25.578 100.62 110.21
Normal
Coolant Level 752.08 60.31 38.82 0 25.547 100.62 110.21

Normal
Coolant Level 752.08 60.31 38.79 0 25.547 100.62 110.21

Normal
Coolant Level 752.08 60.31 38.78 0 25.547 100.62 110.21

Normal
Coolant Level 752.08 60.31 38.88 0 25.547 100.62 110.21

Normal
Coolant Level 752.08 60.31 38.82 0 25.547 100.62 110.21

Normal
Coolant Level 752.08 60.31 38.79 0 25.547 100.62 110.21

Normal
Coolant Level 752.08 60.31 38.78 0 25.547 100.62 110.21

Normal
Coolant Level 752.08 60.31 38.8 0 25.547 100.62 110.21

Normal
Coolant Level 752.08 60.31 38.86 0 25.547 100.62 110.21

Normal
Coolant Level 752.08 60.31 38.86 0 25.547 100.62 110.21

Normal
Coolant Level 752.08 60.31 38.88 0 25.547 100.62 110.21

Normal
Coolant Level 752.08 60.31 38.79 0 25.547 100.62 110.21

Normal
Coolant Level 752.08 60.31 38.78 0 25.547 100.62 110.21

Normal
Coolant Level 752.08 60.31 38.78 0 25.547 100.62 110.21

Normal
Coolant Level 752.08 60.31 38.8 0 25.547 100.62 110.21

Normal
Coolant Level 752.08 60.31 38.86 0 25.547 100.62 110.21

Normal
Coolant Level 752.08 60.31 38.79 0 25.547 100.62 110.21

Normal
Coolant Level 752.08 60.31 38.78 0 25.547 100.62 110.21

Normal
Coolant Level 752.08 60.31 38.88 0 25.547 100.62 110.21
Normal
Coolant Level 752.08 60.31 38.88 0 25.547 100.62 110.21

Normal
Coolant Level 752.08 60.2 38.79 0 25.547 100.62 110.21

Normal
Coolant Level 752.08 60.31 38.78 0 25.547 100.62 110.21

Normal
Coolant Level 752.08 60.31 38.79 0 25.547 100.62 110.21

Normal
Coolant Level 752.08 60.31 38.79 0 25.547 100.62 110.21

Normal
Coolant Level 752.08 60.31 38.78 0 25.547 100.62 110.21

Normal
Coolant Level 752.08 60.2 38.78 0 25.547 100.62 110.21

Normal
Coolant Level 752.08 60.31 38.86 0 25.547 100.62 110.21

Normal
Coolant Level 752.08 60.31 38.78 0 25.547 100.62 110.21

Normal
Coolant Level 752.08 60.2 38.86 0 25.547 100.62 110.21

Normal
Coolant Level 752.08 60.31 38.78 0 25.547 100.62 110.21

Normal
Coolant Level 752.08 60.31 38.78 0 25.547 100.62 110.21

Normal
Coolant Level 752.08 60.31 38.79 0 25.547 100.62 110.21

Normal
Coolant Level 752.08 60.31 38.79 0 25.547 100.62 110.21

Normal
Coolant Level 752.08 60.2 38.88 0 25.547 100.62 110.21

Normal
Coolant Level 752.08 60.31 38.79 0 25.547 100.62 110.21

Normal
Coolant Level 752.08 60.2 38.88 0 25.547 100.62 110.21

Normal
Coolant Level 752.08 60.2 38.79 0 25.547 100.62 110.21

Normal
Coolant Level 752.08 60.31 38.78 0 25.547 100.62 110.21
Normal
Coolant Level 752.08 60.2 38.79 0 25.547 100.62 110.21

Normal
Coolant Level 752.08 60.31 38.78 0 25.547 100.62 110.21

Normal
Coolant Level 752.08 60.2 38.78 0 25.547 100.62 110.21

Normal
Coolant Level 752.08 60.2 38.78 0 25.547 100.62 110.21

Normal
Coolant Level 752.08 60.2 38.78 0 25.547 100.62 110.21

Normal
Coolant Level 752.08 60.2 38.79 0 25.547 100.62 110.21

Normal
Coolant Level 752.08 60.2 38.78 0 25.547 100.62 110.21

Normal
Coolant Level 752.08 60.2 38.8 0 25.547 100.62 110.21

Normal
Coolant Level 752.08 60.2 38.78 0 25.547 100.62 110.21

Normal
Coolant Level 752.08 60.2 38.78 0 25.547 100.62 110.21

Normal
Coolant Level 752.08 60.2 38.78 0 25.547 100.62 110.21

Normal
Coolant Level 752.08 60.2 38.78 0 25.547 100.62 110.21

Normal
Coolant Level 752.08 60.2 38.78 0 25.547 100.62 110.21

Normal
Coolant Level 752.08 60.2 38.78 0 25.547 100.62 110.21

Normal
Coolant Level 752.08 60.2 38.78 0 25.547 100.62 110.21

Normal
Coolant Level 752.08 60.2 38.78 0 25.547 100.62 110.21

Normal
Coolant Level 752.08 60.2 38.78 0 25.547 100.62 110.21

Normal
Coolant Level 752.08 60.2 38.78 0 25.547 100.62 110.21

Normal
Coolant Level 752.08 60.2 38.79 0 25.547 100.62 110.21
Normal
Coolant Level 752.08 60.2 38.78 0 25.547 100.62 110.21

Normal
Coolant Level 752.08 60.2 38.78 0 25.547 100.62 110.21

Normal
Coolant Level 752.08 60.2 38.78 0 25.547 100.62 110.21

Normal
Coolant Level 752.08 60.2 38.78 0 25.547 100.62 110.21

Normal
Coolant Level 752.08 60.2 38.78 0 25.547 100.62 110.21

Normal
Coolant Level 752.08 60.2 38.78 0 25.547 100.62 110.21

Normal
Coolant Level 752.08 60.2 38.78 0 25.547 100.62 110.21

Normal
Coolant Level 752.08 60.2 38.78 0 25.547 100.62 110.21

Normal
Coolant Level 752.08 60.2 38.78 0 25.547 100.62 110.21

Normal
Coolant Level 752.08 60.2 38.78 0 25.547 100.62 110.21

Normal
Coolant Level 752.08 60.2 38.78 0 25.547 100.62 110.21

Normal
Coolant Level 752.08 60.2 38.78 0 25.547 100.62 110.21

Normal
Coolant Level 752.08 60.2 38.78 0 25.547 100.62 110.21

Normal
Coolant Level 752.08 60.2 38.78 0 25.547 100.62 110.21

Normal
Coolant Level 752.08 60.2 38.78 0 25.547 100.62 110.21

Normal
Coolant Level 752.08 60.2 38.78 0 25.547 100.62 110.21

Normal
Coolant Level 752.08 60.2 38.78 0 25.547 100.62 110.21

Normal
Coolant Level 752.08 60.2 38.78 0 25.547 100.62 110.21

Normal
Coolant Level 752.08 60.2 38.78 0 25.547 100.62 110.21
Normal
Coolant Level 752.08 60.2 38.78 0 25.547 100.62 110.21

Normal
Coolant Level 752.08 60.2 38.78 0 25.547 100.62 110.21

Normal
Coolant Level 752.08 60.2 38.78 0 25.547 100.62 110.21

Normal
Coolant Level 752.08 60.2 38.78 0 25.547 100.62 110.21

Normal
Coolant Level 752.08 60.2 38.78 0 25.547 100.62 110.21

Normal
Coolant Level 752.08 60.2 38.78 0 25.547 100.62 110.21

Normal
Coolant Level 752.08 60.2 38.78 0 25.547 100.62 110.21

Normal
Coolant Level 752.08 60.2 38.78 0 25.547 100.62 110.21

Normal
Coolant Level 752.08 60.2 38.78 0 25.547 100.62 110.21

Normal
Coolant Level 752.08 60.1 38.78 0 25.547 100.62 110.21

Normal
Coolant Level 752.08 60.2 38.78 0 25.547 100.62 110.21

Normal
Coolant Level 752.08 60.2 38.78 0 25.547 100.62 110.21

Normal
Coolant Level 752.08 60.2 38.78 0 25.547 100.62 110.21

Normal
Coolant Level 752.08 60.2 38.78 0 25.547 100.62 110.21

Normal
Coolant Level 752.08 60.1 38.78 0 25.547 100.62 110.21

Normal
Coolant Level 752.08 60.2 38.78 0 25.547 100.62 110.21

Normal
Coolant Level 752.08 60.2 38.78 0 25.547 100.62 110.21

Normal
Coolant Level 752.08 60.2 38.77 0 25.547 100.62 110.21

Normal
Coolant Level 752.08 60.2 38.78 0 25.547 100.62 110.21
Normal
Coolant Level 752.08 60.2 38.78 0 25.547 100.62 110.21

Normal
Coolant Level 752.08 60.2 38.78 0 25.547 100.62 110.21

Normal
Coolant Level 752.08 60.1 38.78 0 25.547 100.62 109.99

Normal
Coolant Level 752.08 60.1 38.78 0 25.547 100.62 109.99

Normal
Coolant Level 752.08 60.1 38.78 0 25.547 100.62 110.21

Normal
Coolant Level 752.08 60.1 38.78 0 25.547 100.62 110.21

Normal
Coolant Level 752.08 60.1 38.71 0 25.547 100.62 110.21

Normal
Coolant Level 752.08 60.1 38.78 0 25.547 100.62 110.21

Normal
Coolant Level 752.08 60.2 38.78 0 25.547 100.62 110.21

Normal
Coolant Level 752.08 60.1 38.77 0 25.547 100.62 110.21

Normal
Coolant Level 752.08 60.1 38.76 0 25.547 100.62 110.21

Normal
Coolant Level 752.08 60.1 38.69 0 25.547 100.62 109.99

Normal
Coolant Level 752.08 60.1 38.78 0 25.547 100.62 109.99

Normal
Coolant Level 752.08 60.1 38.75 0 25.547 100.62 110.21

Normal
Coolant Level 752.08 60.1 38.75 0 25.547 100.62 110.21

Normal
Coolant Level 752.08 60.1 38.76 0 25.547 100.62 110.21

Normal
Coolant Level 752.08 60.1 38.68 0 25.547 100.62 110.21

Normal
Coolant Level 752.08 60.1 38.68 0 25.547 100.62 110.21

Normal
Coolant Level 752.08 60.1 38.68 0 25.547 100.62 110.21
Normal
Coolant Level 752.08 60.1 38.68 0 25.547 100.62 109.88

Normal
Coolant Level 752.08 60.1 38.68 0 25.547 100.62 110.21

Normal
Coolant Level 752.08 60.1 38.68 0 25.547 100.62 109.99

Normal
Coolant Level 752.08 60.1 38.68 0 25.547 100.62 110.21

Normal
Coolant Level 752.08 60.1 38.68 0 25.547 100.62 110.21

Normal
Coolant Level 752.08 60.1 38.68 0 25.547 100.62 110.21

Normal
Coolant Level 752.08 60.1 38.68 0 25.547 100.62 110.21

Normal
Coolant Level 752.08 60.1 38.68 0 25.547 100.62 109.88

Normal
Coolant Level 752.08 60.1 38.68 0 25.547 100.62 109.78

Normal
Coolant Level 752.08 60.1 38.68 0 25.547 100.62 110.21

Normal
Coolant Level 752.08 60.1 38.68 0 25.547 100.62 110.21

Normal
Coolant Level 752.08 60.1 38.68 0 25.547 100.62 109.45

Normal
Coolant Level 752.08 60.1 38.68 0 25.547 100.62 109.45

Normal
Coolant Level 752.08 60.1 38.68 0 25.547 100.62 110.21

Normal
Coolant Level 752.08 60.1 38.68 0 25.547 100.62 109.99

Normal
Coolant Level 752.08 60.1 38.68 0 25.547 100.62 110.21

Normal
Coolant Level 752.08 60.1 38.68 0 25.547 100.62 108.92

Normal
Coolant Level 752.08 60.1 38.68 0 25.547 100.62 109.99

Normal
Coolant Level 752.08 60.1 38.68 0 25.547 100.62 109.99
Normal
Coolant Level 752.08 60.1 38.67 0 25.547 100.62 110.21

Normal
Coolant Level 752.08 60.1 38.6 0 25.547 100.62 110.21

Normal
Coolant Level 752.08 60.1 38.68 0 25.547 100.62 109.56

Normal
Coolant Level 752.08 60.1 38.68 0 25.547 100.62 110.1

Normal
Coolant Level 752.08 60.1 38.68 0 25.547 100.62 109.56

Normal
Coolant Level 752.08 60.1 38.66 0 25.547 100.62 108.48

Normal
Coolant Level 752.08 60.1 38.6 0 25.547 100.62 109.02

Normal
Coolant Level 752.08 60.1 38.6 0 25.547 100.62 107.95

Normal
Coolant Level 752.08 60.1 38.58 0 25.547 100.62 108.16

Normal
Coolant Level 752.08 60.1 38.6 0 25.547 100.62 109.02

Normal
Coolant Level 752.08 60.1 38.6 0 25.547 100.62 107.08

Normal
Coolant Level 752.08 60.1 38.6 0 25.547 100.62 107.19

Normal
Coolant Level 752.08 60.1 38.58 0 25.547 100.62 107.19

Normal
Coolant Level 752.08 60.1 38.58 0 25.547 100.62 108.48

Normal
Coolant Level 752.08 60.1 38.58 0 25.547 100.62 108.38

Normal
Coolant Level 752.08 60.1 38.58 0 25.547 100.62 107.08

Normal
Coolant Level 752.08 60.1 38.58 0 25.547 100.62 107.08

Normal
Coolant Level 752.08 60.1 38.58 0 25.547 100.62 107.19

Normal
Coolant Level 752.08 60.1 38.58 0 25.547 100.62 107.08
Normal
Coolant Level 752.08 60.1 38.58 0 25.547 100.62 107.08

Normal
Coolant Level 752.08 60.1 38.58 0 25.547 100.62 107.08

Normal
Coolant Level 752.08 60.1 38.58 0 25.547 100.62 107.08

Normal
Coolant Level 752.08 60.1 38.58 0 25.547 100.62 107.08

Normal
Coolant Level 752.08 60.1 38.58 0 25.547 100.62 107.08

Normal
Coolant Level 752.08 60.1 38.58 0 25.547 100.62 107.08

Normal
Coolant Level 752.08 60.1 38.58 0 25.547 100.62 107.08

Normal
Coolant Level 752.08 60.1 38.51 0 25.547 100.62 107.08

Normal
Coolant Level 752.08 60.1 38.58 0 25.547 100.62 107.08

Normal
Coolant Level 752.08 60.1 38.58 0 25.547 100.62 107.08

Normal
Coolant Level 752.08 60.1 38.5 0 25.547 100.62 107.08

Normal
Coolant Level 752.08 59.99 38.5 0 25.547 100.62 107.08

Normal
Coolant Level 752.08 60.1 38.56 0 25.547 100.62 107.08

Normal
Coolant Level 752.08 60.1 38.56 0 25.547 100.62 107.08

Normal
Coolant Level 752.08 59.99 38.49 0 25.547 100.62 107.08

Normal
Coolant Level 752.08 60.1 38.48 0 25.547 100.62 107.08

Normal
Coolant Level 752.08 60.1 38.47 0 25.547 100.62 107.08

Normal
Coolant Level 752.08 60.1 38.47 0 25.547 100.62 107.08

Normal
Coolant Level 752.08 59.99 38.47 0 25.547 100.62 107.08
Normal
Coolant Level 752.08 60.1 38.47 0 25.547 100.62 107.08

Normal
Coolant Level 752.08 59.99 38.47 0 25.547 100.62 107.08

Normal
Coolant Level 752.08 60.1 38.47 0 25.547 100.62 107.08

Normal
Coolant Level 752.08 59.99 38.47 0 25.547 100.62 107.08

Normal
Coolant Level 752.08 60.1 38.47 0 25.547 100.62 107.08

Normal
Coolant Level 752.08 60.1 38.47 0 25.547 100.62 107.08

Normal
Coolant Level 752.08 60.1 38.47 0 25.547 100.62 107.08

Normal
Coolant Level 752.08 59.99 38.47 0 25.547 100.62 107.08

Normal
Coolant Level 752.08 59.99 38.47 0 25.547 100.62 107.08

Normal
Coolant Level 752.08 59.99 38.47 0 25.547 100.62 107.08

Normal
Coolant Level 752.08 59.99 38.47 0 25.547 100.62 107.08

Normal
Coolant Level 752.08 59.99 38.45 0 25.547 100.62 107.08

Normal
Coolant Level 752.08 59.99 38.38 0 25.547 100.62 107.08

Normal
Coolant Level 752.08 59.99 38.45 0 25.547 100.62 107.08

Normal
Coolant Level 752.08 59.99 38.37 0 25.547 100.62 107.08

Normal
Coolant Level 752.08 59.99 38.37 0 25.547 100.62 107.08

Normal
Coolant Level 752.08 59.99 38.37 0 25.547 100.62 107.08

Normal
Coolant Level 752.08 59.99 38.37 0 25.547 100.62 107.08

Normal
Coolant Level 752.08 59.99 38.37 0 25.547 100.62 107.08
Normal
Coolant Level 752.08 59.99 38.37 0 25.547 100.62 107.08

Normal
Coolant Level 752.08 59.99 38.37 0 25.547 100.62 107.08

Normal
Coolant Level 752.08 59.99 38.37 0 25.547 100.62 107.08

Normal
Coolant Level 752.08 59.99 38.35 0 25.547 100.62 107.08

Normal
Coolant Level 752.08 59.99 38.37 0 25.547 100.62 107.08

Normal
Coolant Level 752.08 59.99 38.34 0 25.547 100.62 107.08

Normal
Coolant Level 752.08 59.99 38.27 0 25.547 100.62 107.08

Normal
Coolant Level 752.08 59.99 38.27 0 25.547 100.62 107.08

Normal
Coolant Level 752.08 59.99 38.26 0 25.547 100.62 107.08

Normal
Coolant Level 752.08 59.99 38.26 0 25.547 100.62 107.08

Normal
Coolant Level 752.08 59.99 38.26 0 25.547 100.62 107.08

Normal
Coolant Level 752.08 59.99 38.26 0 25.547 100.62 107.08

Normal
Coolant Level 752.08 59.99 38.26 0 25.547 100.62 107.08

Normal
Coolant Level 752.08 59.99 38.26 0 25.547 100.62 107.08

Normal
Coolant Level 752.08 59.99 38.26 0 25.547 100.62 107.08

Normal
Coolant Level 752.08 59.99 38.26 0 25.547 100.62 107.08

Normal
Coolant Level 752.08 59.99 38.16 0 25.547 100.62 107.08

Normal
Coolant Level 752.08 59.99 38.26 0 25.547 100.62 107.08

Normal
Coolant Level 752.08 59.99 38.24 0 25.547 100.62 107.08
Normal
Coolant Level 752.08 59.99 38.19 0 25.547 100.62 107.08

Normal
Coolant Level 752.08 59.99 38.16 0 25.547 100.62 107.08

Normal
Coolant Level 752.08 59.99 38.16 0 25.547 100.62 107.08

Normal
Coolant Level 752.08 59.99 38.16 0 25.547 100.62 107.08

Normal
Coolant Level 752.08 59.99 38.16 0 25.547 100.62 107.08

Normal
Coolant Level 752.08 59.99 38.16 0 25.547 100.62 107.08

Normal
Coolant Level 752.08 59.99 38.16 0 25.547 100.62 107.08

Normal
Coolant Level 752.08 59.99 38.16 0 25.547 100.62 107.08

Normal
Coolant Level 752.08 59.99 38.06 0 25.547 100.62 107.08

Normal
Coolant Level 752.08 59.99 38.14 0 25.547 100.62 107.08

Normal
Coolant Level 752.08 59.99 38.06 0 25.547 100.62 107.08

Normal
Coolant Level 752.08 59.99 38.06 0 25.547 100.62 107.08

Normal
Coolant Level 752.08 59.99 38.06 0 25.547 100.62 107.08

Normal
Coolant Level 752.08 59.99 38.06 0 25.547 100.62 107.08

Normal
Coolant Level 752.08 59.99 38.06 0 25.547 100.62 107.08

Normal
Coolant Level 752.08 59.99 38.06 0 25.547 100.62 107.08

Normal
Coolant Level 752.08 59.99 38.03 0 25.547 100.62 107.08

Normal
Coolant Level 752.08 59.99 38.03 0 25.547 100.62 107.08

Normal
Coolant Level 752.08 59.99 37.95 0 25.547 100.62 107.08
Normal
Coolant Level 752.08 59.99 37.95 0 25.547 100.62 107.08

Normal
Coolant Level 752.08 59.99 37.95 0 25.547 100.62 107.08

Normal
Coolant Level 752.08 59.99 37.95 0 25.547 100.62 107.08

Normal
Coolant Level 752.08 59.99 37.95 0 25.547 100.62 107.19

Normal
Coolant Level 752.08 59.99 37.95 0 25.547 100.62 107.08

Normal
Coolant Level 752.08 59.99 37.95 0 25.547 100.62 107.08

Normal
Coolant Level 752.08 59.99 37.88 0 25.547 100.62 107.08

Normal
Coolant Level 752.08 59.99 37.88 0 25.547 100.62 107.08

Normal
Coolant Level 752.08 59.99 37.85 0 25.547 100.62 107.08

Normal
Coolant Level 752.08 59.99 37.85 0 25.547 100.62 107.08

Normal
Coolant Level 752.08 59.99 37.85 0 25.547 100.62 107.08

Normal
Coolant Level 752.08 59.99 37.85 0 25.547 100.62 107.08

Normal
Coolant Level 752.08 59.99 37.85 0 25.547 100.62 107.41

Normal
Coolant Level 752.08 59.99 37.85 0 25.547 100.62 107.41

Normal
Coolant Level 752.08 59.99 37.85 0 25.547 100.62 107.08

Normal
Coolant Level 752.08 59.99 37.75 0 25.547 100.62 107.08

Normal
Coolant Level 752.08 59.99 37.74 0 25.547 100.62 107.08

Normal
Coolant Level 752.08 59.99 37.74 0 25.547 100.62 107.08

Normal
Coolant Level 752.08 59.99 37.74 0 25.547 100.62 107.08
Normal
Coolant Level 752.08 59.89 37.74 0 25.547 100.62 107.08

Normal
Coolant Level 752.08 59.99 37.74 0 25.547 100.62 107.08

Normal
Coolant Level 752.08 59.99 37.66 0 25.547 100.62 107.08

Normal
Coolant Level 752.08 59.99 37.65 0 25.547 100.62 107.08

Normal
Coolant Level 752.08 59.89 37.64 0 25.547 100.62 107.08

Normal
Coolant Level 752.08 59.89 37.64 0 25.547 100.62 107.08

Normal
Coolant Level 752.08 59.89 37.64 0 25.547 100.62 107.08

Normal
Coolant Level 752.08 59.99 37.64 0 25.547 100.62 107.08

Normal
Coolant Level 752.08 59.89 37.62 0 25.547 100.62 107.08

Normal
Coolant Level 752.08 59.99 37.61 0 25.547 100.62 107.08

Normal
Coolant Level 752.08 59.99 37.53 0 25.547 100.62 107.19

Normal
Coolant Level 752.08 59.89 37.53 0 25.547 100.62 107.19

Normal
Coolant Level 752.08 59.89 37.53 0 25.547 100.62 107.08

Normal
Coolant Level 752.08 59.99 37.51 0 25.547 100.62 107.19

Normal
Coolant Level 752.08 59.89 37.51 0 25.547 100.62 107.08

Normal
Coolant Level 752.08 59.89 37.43 0 25.547 100.62 107.41

Normal
Coolant Level 752.08 59.89 37.43 0 25.547 100.62 107.95

Normal
Coolant Level 752.08 59.89 37.43 0 25.547 100.62 107.84

Normal
Coolant Level 752.08 59.89 37.4 0 25.547 100.62 107.08
Normal
Coolant Level 752.08 59.89 37.33 0 25.547 100.62 107.51

Normal
Coolant Level 752.08 59.89 37.33 0 25.547 100.62 107.19

Normal
Coolant Level 752.08 59.89 37.33 0 25.547 100.62 108.05

Normal
Coolant Level 752.08 59.89 37.33 0 25.547 100.62 107.08

Normal
Coolant Level 752.08 59.89 37.33 0 25.547 100.62 108.38

Normal
Coolant Level 752.08 59.89 37.25 0 25.547 100.62 107.19

Normal
Coolant Level 752.08 59.89 37.22 0 25.547 100.62 107.08

Normal
Coolant Level 752.08 59.89 37.22 0 25.547 100.62 107.08

Normal
Coolant Level 752.08 59.89 37.22 0 25.547 100.62 107.08

Normal
Coolant Level 752.08 59.89 37.21 0 25.547 100.62 107.08

Normal
Coolant Level 752.08 59.89 37.12 0 25.547 100.62 107.08

Normal
Coolant Level 752.08 59.89 37.12 0 25.547 100.62 107.19

Normal
Coolant Level 752.08 59.89 37.12 0 25.547 100.62 107.08

Normal
Coolant Level 752.08 59.89 37.02 0 25.547 100.62 107.08

Normal
Coolant Level 752.08 59.89 37.03 0 25.547 100.62 107.08

Normal
Coolant Level 752.08 59.89 37.01 0 25.547 100.62 107.08

Normal
Coolant Level 752.08 59.89 37.01 0 25.547 100.62 107.08

Normal
Coolant Level 752.08 59.89 36.94 0 25.547 100.62 107.08

Normal
Coolant Level 752.08 59.89 36.94 0 25.547 100.62 107.08
Normal
Coolant Level 752.08 59.89 36.94 0 25.547 100.62 107.08

Normal
Coolant Level 752.08 59.89 36.91 0 25.547 100.62 107.08

Normal
Coolant Level 752.08 59.89 36.91 0 25.547 100.62 107.08

Normal
Coolant Level 752.08 59.89 36.91 0 25.547 100.62 107.08

Normal
Coolant Level 752.08 59.89 36.83 0 25.547 100.62 107.08

Normal
Coolant Level 752.08 59.89 36.9 0 25.547 100.62 107.08

Normal
Coolant Level 752.08 59.89 36.81 0 25.547 100.62 107.08

Normal
Coolant Level 752.08 59.89 36.81 0 25.547 100.62 107.08

Normal
Coolant Level 752.08 59.89 36.81 0 25.547 100.62 107.08

Normal
Coolant Level 752.08 59.89 36.71 0 25.547 100.62 107.08

Normal
Coolant Level 752.08 59.89 36.7 0 25.547 100.62 107.08

Normal
Coolant Level 752.08 59.89 36.7 0 25.547 100.62 107.08

Normal
Coolant Level 752.08 59.89 36.7 0 25.547 100.62 107.08

Normal
Coolant Level 752.08 59.89 36.63 0 25.547 100.62 107.08

Normal
Coolant Level 752.08 59.89 36.6 0 25.547 100.62 107.08

Normal
Coolant Level 752.08 59.89 36.6 0 25.547 100.62 107.08

Normal
Coolant Level 752.08 59.79 36.6 0 25.547 100.62 107.19

Normal
Coolant Level 752.08 59.89 36.59 0 25.547 100.62 107.08

Normal
Coolant Level 752.08 59.89 36.49 0 25.547 100.62 107.08
Normal
Coolant Level 752.08 59.89 36.49 0 25.547 100.62 107.08

Normal
Coolant Level 752.08 59.89 36.49 0 25.547 100.62 107.08

Normal
Coolant Level 752.08 59.89 36.41 0 25.547 100.62 107.08

Normal
Coolant Level 752.08 59.89 36.41 0 25.547 100.62 107.08

Normal
Coolant Level 752.08 59.79 36.39 0 25.547 100.62 107.08

Normal
Coolant Level 752.08 59.89 36.39 0 25.547 100.62 107.08

Normal
Coolant Level 752.08 59.79 36.39 0 25.547 100.62 107.08

Normal
Coolant Level 752.08 59.89 36.31 0 25.547 100.62 107.08

Normal
Coolant Level 752.08 59.88 36.28 0 25.547 100.62 107.08

Normal
Coolant Level 752.08 59.79 36.28 0 25.547 100.62 107.08

Normal
Coolant Level 752.08 59.88 36.28 0 25.547 100.62 107.08

Normal
Coolant Level 752.08 59.89 36.28 0 25.547 100.62 107.08

Normal
Coolant Level 752.08 59.79 36.21 0 25.547 100.62 107.08

Normal
Coolant Level 752.08 59.88 36.18 0 25.547 100.62 107.08

Normal
Coolant Level 752.08 59.88 36.18 0 25.547 100.62 107.08

Normal
Coolant Level 752.08 59.79 36.18 0 25.547 100.62 107.08

Normal
Coolant Level 752.08 59.88 36.11 0 25.547 100.62 107.08

Normal
Coolant Level 752.08 59.79 36.1 0 25.547 100.62 107.08

Normal
Coolant Level 752.08 59.88 36.08 0 25.547 100.62 107.08
Normal
Coolant Level 752.08 59.78 36.08 0 25.547 100.62 107.08

Normal
Coolant Level 752.08 59.89 36.08 0 25.547 100.62 107.08

Normal
Coolant Level 752.08 59.78 36.05 0 25.547 100.62 107.08

Normal
Coolant Level 752.08 59.78 36.01 0 25.547 100.62 107.08

Normal
Coolant Level 752.08 59.78 35.97 0 25.547 100.62 107.08

Normal
Coolant Level 752.08 59.79 35.97 0 25.547 100.62 107.08

Normal
Coolant Level 752.08 59.78 35.89 0 25.547 100.62 107.08

Normal
Coolant Level 752.08 59.78 35.96 0 25.547 100.62 107.08

Normal
Coolant Level 752.08 59.78 35.87 0 25.547 100.62 107.08

Normal
Coolant Level 752.08 59.78 35.87 0 25.547 100.62 107.08

Normal
Coolant Level 752.08 59.78 35.87 0 25.547 100.62 107.08

Normal
Coolant Level 752.08 59.78 35.87 0 25.547 100.62 107.08

Normal
Coolant Level 752.08 59.78 35.87 0 25.547 100.62 107.08

Normal
Coolant Level 752.08 59.78 35.76 0 25.547 100.62 107.08

Normal
Coolant Level 752.08 59.78 35.76 0 25.547 100.62 107.08

Normal
Coolant Level 752.08 59.78 35.76 0 25.547 100.62 107.08

Normal
Coolant Level 752.08 59.78 35.76 0 25.547 100.62 107.08

Normal
Coolant Level 752.08 59.78 35.69 0 25.547 100.62 107.08

Normal
Coolant Level 752.08 59.78 35.69 0 25.547 100.62 107.08
Normal
Coolant Level 752.08 59.78 35.66 0 25.547 100.62 107.08

Normal
Coolant Level 752.08 59.78 35.66 0 25.547 100.62 107.08

Normal
Coolant Level 752.08 59.78 35.63 0 25.547 100.62 107.08

Normal
Coolant Level 752.08 59.78 35.56 0 25.547 100.62 107.08

Normal
Coolant Level 752.08 59.78 35.56 0 25.547 100.62 107.08

Normal
Coolant Level 752.08 59.78 35.55 0 25.547 100.62 107.08

Normal
Coolant Level 752.08 59.78 35.55 0 25.547 100.62 107.08

Normal
Coolant Level 752.08 59.78 35.52 0 25.547 100.62 107.08

Normal
Coolant Level 752.08 59.78 35.43 0 25.547 100.62 107.08

Normal
Coolant Level 752.08 59.78 35.43 0 25.547 100.62 107.08

Normal
Coolant Level 752.08 59.78 35.43 0 25.547 100.62 107.08

Normal
Coolant Level 752.08 59.78 35.43 0 25.547 100.62 107.08

Normal
Coolant Level 752.08 59.78 35.32 0 25.547 100.62 107.08

Normal
Coolant Level 752.08 59.78 35.32 0 25.547 100.62 107.08

Normal
Coolant Level 752.08 59.78 35.32 0 25.547 100.62 107.08

Normal
Coolant Level 752.08 59.78 35.32 0 25.547 100.62 107.08

Normal
Coolant Level 752.08 59.78 35.31 0 25.547 100.62 107.08

Normal
Coolant Level 752.08 59.78 35.31 0 25.547 100.62 107.08

Normal
Coolant Level 752.08 59.78 35.23 0 25.547 100.62 107.08
Normal
Coolant Level 752.08 59.78 35.21 0 25.547 100.62 107.08

Normal
Coolant Level 752.08 59.78 35.21 0 25.547 100.62 107.08

Normal
Coolant Level 752.08 59.78 35.21 0 25.547 100.62 107.08

Normal
Coolant Level 752.08 59.78 35.13 0 25.547 100.62 107.08

Normal
Coolant Level 752.08 59.78 35.13 0 25.547 100.62 107.08

Normal
Coolant Level 752.08 59.78 35.1 0 25.547 100.62 107.08

Normal
Coolant Level 752.08 59.78 35.1 0 25.547 100.62 107.08

Normal
Coolant Level 752.08 59.78 35.1 0 25.547 100.62 107.08

Normal
Coolant Level 752.08 59.78 35.07 0 25.547 100.62 107.08

Normal
Coolant Level 752.08 59.78 35.1 0 25.547 100.62 107.08

Normal
Coolant Level 752.08 59.78 35.1 0 25.547 100.62 107.08

Normal
Coolant Level 752.08 59.78 34.98 0 25.547 100.62 107.08

Normal
Coolant Level 752.08 59.78 34.98 0 25.547 100.62 107.08

Normal
Coolant Level 752.08 59.78 34.98 0 25.547 100.62 107.08

Normal
Coolant Level 752.08 59.78 34.98 0 25.547 100.62 107.08

Normal
Coolant Level 752.08 59.78 34.87 0 25.547 100.62 107.08

Normal
Coolant Level 752.08 59.67 34.87 0 25.547 100.62 107.08

Normal
Coolant Level 752.08 59.78 34.87 0 25.547 100.62 107.08

Normal
Coolant Level 752.08 59.78 34.78 0 25.547 100.62 107.08
Normal
Coolant Level 752.08 59.78 34.76 0 25.547 100.62 107.08

Normal
Coolant Level 752.08 59.78 34.76 0 25.547 100.62 107.08

Normal
Coolant Level 752.08 59.67 34.69 0 25.547 100.62 107.08

Normal
Coolant Level 752.08 59.78 34.66 0 25.547 100.62 107.08

Normal
Coolant Level 752.08 59.67 34.65 0 25.547 100.62 107.08

Normal
Coolant Level 752.08 59.78 34.65 0 25.547 100.62 107.08

Normal
Coolant Level 752.08 59.78 34.63 0 25.547 100.62 107.08

Normal
Coolant Level 752.08 59.67 34.57 0 25.547 100.62 107.08

Normal
Coolant Level 752.08 59.67 34.57 0 25.547 100.62 107.08

Normal
Coolant Level 752.08 59.67 34.54 0 25.547 100.62 107.08

Normal
Coolant Level 752.08 59.67 34.54 0 25.547 100.62 107.08

Normal
Coolant Level 752.08 59.67 34.54 0 25.547 100.62 107.08

Normal
Coolant Level 752.08 59.67 34.54 0 25.547 100.62 107.08

Normal
Coolant Level 752.08 59.67 34.54 0 25.547 100.62 107.08

Normal
Coolant Level 752.08 59.67 34.43 0 25.547 100.62 107.08

Normal
Coolant Level 752.08 59.67 34.43 0 25.547 100.62 107.08

Normal
Coolant Level 752.08 59.67 34.43 0 25.547 100.62 107.08

Normal
Coolant Level 752.08 59.67 34.43 0 25.547 100.62 107.08

Normal
Coolant Level 752.08 59.67 34.43 0 25.547 100.62 107.08
Normal
Coolant Level 752.08 59.67 34.35 0 25.547 100.62 107.08

Normal
Coolant Level 752.08 59.67 34.35 0 25.547 100.62 107.08

Normal
Coolant Level 752.08 59.67 34.31 0 25.547 100.62 107.08

Normal
Coolant Level 752.08 59.67 34.31 0 25.547 100.62 107.08

Normal
Coolant Level 752.08 59.67 34.31 0 25.547 100.62 107.08

Normal
Coolant Level 752.08 59.67 34.31 0 25.547 100.62 107.08

Normal
Coolant Level 752.08 59.67 34.29 0 25.547 100.62 107.08

Normal
Coolant Level 752.08 59.67 34.31 0 25.547 100.62 107.08

Normal
Coolant Level 752.08 59.67 34.24 0 25.547 100.62 107.08

Normal
Coolant Level 752.08 59.67 34.21 0 25.547 100.62 107.08

Normal
Coolant Level 752.08 59.67 34.2 0 25.547 100.62 107.08

Normal
Coolant Level 752.08 59.67 34.2 0 25.547 100.62 107.08

Normal
Coolant Level 752.08 59.67 34.2 0 25.547 100.62 107.08

Normal
Coolant Level 752.08 59.67 34.12 0 25.547 100.62 107.08

Normal
Coolant Level 752.08 59.67 34.09 0 25.547 100.62 107.08

Normal
Coolant Level 752.08 59.67 34.09 0 25.547 100.62 107.08

Normal
Coolant Level 752.08 59.67 34.09 0 25.547 100.62 107.08

Normal
Coolant Level 752.08 59.67 34.09 0 25.547 100.62 107.08

Normal
Coolant Level 752.08 59.67 34.09 0 25.547 100.62 107.08
Normal
Coolant Level 752.08 59.67 34.06 0 25.547 100.62 107.08

Normal
Coolant Level 752.08 59.67 34.08 0 25.547 100.62 107.08

Normal
Coolant Level 752.08 59.67 33.98 0 25.547 100.62 107.08

Normal
Coolant Level 752.08 59.67 33.98 0 25.547 100.62 107.08

Normal
Coolant Level 752.08 59.67 34.06 0 25.547 100.62 107.08

Normal
Coolant Level 752.08 59.67 33.98 0 25.547 100.62 107.08

Normal
Coolant Level 752.08 59.67 33.98 0 25.547 100.62 107.08

Normal
Coolant Level 752.08 59.67 33.95 0 25.547 100.62 107.08

Normal
Coolant Level 752.08 59.67 33.86 0 25.547 100.62 107.08

Normal
Coolant Level 752.08 59.67 33.78 0 25.547 100.62 107.08

Normal
Coolant Level 752.08 59.67 33.84 0 25.547 100.62 107.08

Normal
Coolant Level 752.08 59.67 33.75 0 25.547 100.62 107.08

Normal
Coolant Level 752.08 59.67 33.75 0 25.547 100.62 107.08

Normal
Coolant Level 752.08 59.67 33.72 0 25.547 100.62 107.08

Normal
Coolant Level 752.08 59.67 33.64 0 25.547 100.62 107.08

Normal
Coolant Level 752.08 59.67 33.64 0 25.547 100.62 107.08

Normal
Coolant Level 752.08 59.67 33.64 0 25.547 100.62 107.08

Normal
Coolant Level 752.08 59.67 33.64 0 25.547 100.62 107.08

Normal
Coolant Level 752.08 59.67 33.53 0 25.547 100.62 107.08
Normal
Coolant Level 752.08 59.67 33.52 0 25.547 100.62 107.08

Normal
Coolant Level 752.08 59.67 33.52 0 25.547 100.62 107.08

Normal
Coolant Level 752.08 59.67 33.52 0 25.547 100.62 107.08

Normal
Coolant Level 752.08 59.67 33.45 0 25.547 100.62 107.08

Normal
Coolant Level 752.08 59.67 33.45 0 25.547 100.62 107.08

Normal
Coolant Level 752.08 59.57 33.41 0 25.547 100.62 107.08

Normal
Coolant Level 752.08 59.57 33.41 0 25.547 100.62 107.08

Normal
Coolant Level 752.08 59.67 33.41 0 25.547 100.62 107.08

Normal
Coolant Level 752.08 59.57 33.41 0 25.547 100.62 107.08

Normal
Coolant Level 752.08 59.57 33.41 0 25.547 100.62 107.08

Normal
Coolant Level 752.08 59.67 33.41 0 25.547 100.62 107.08

Normal
Coolant Level 752.08 59.57 33.41 0 25.547 100.62 107.08

Normal
Coolant Level 752.08 59.57 33.41 0 25.547 100.62 107.08

Normal
Coolant Level 752.08 59.57 33.41 0 25.547 100.62 107.08

Normal
Coolant Level 752.08 59.57 33.4 0 25.547 100.62 107.08

Normal
Coolant Level 752.08 59.57 33.41 0 25.547 100.62 107.08

Normal
Coolant Level 752.08 59.57 33.3 0 25.547 100.62 107.08

Normal
Coolant Level 752.08 59.57 33.3 0 25.547 100.62 107.08

Normal
Coolant Level 752.08 59.57 33.3 0 25.547 100.62 107.08
Normal
Coolant Level 752.08 59.57 33.3 0 25.547 100.62 107.08

Normal
Coolant Level 752.08 59.57 33.19 0 25.547 100.62 107.08

Normal
Coolant Level 752.08 59.57 33.21 0 25.547 100.62 107.08

Normal
Coolant Level 752.08 59.57 33.19 0 25.547 100.62 107.08

Normal
Coolant Level 752.08 59.57 33.19 0 25.547 100.62 107.08

Normal
Coolant Level 752.08 59.57 33.19 0 25.547 100.62 107.08

Normal
Coolant Level 752.08 59.57 33.1 0 25.547 100.62 107.08

Normal
Coolant Level 752.08 59.57 33.1 0 25.547 100.62 107.08

Normal
Coolant Level 752.08 59.57 33.1 0 25.547 100.62 107.08

Normal
Coolant Level 752.08 59.57 33.07 0 25.547 100.62 107.08

Normal
Coolant Level 752.08 59.57 33.07 0 25.547 100.62 107.08

Normal
Coolant Level 752.08 59.57 33.07 0 25.547 100.62 107.08

Normal
Coolant Level 752.08 59.57 33.07 0 25.547 100.62 107.08

Normal
Coolant Level 752.08 59.57 33.07 0 25.547 100.62 107.08

Normal
Coolant Level 752.08 59.57 33.07 0 25.547 100.62 107.08

Normal
Coolant Level 752.08 59.57 33.07 0 25.547 100.62 107.08

Normal
Coolant Level 752.08 59.57 33.07 0 25.547 100.62 107.08

Normal
Coolant Level 752.08 59.57 33.04 0 25.547 100.62 107.08

Normal
Coolant Level 752.08 59.57 33.07 0 25.547 100.62 107.08
Normal
Coolant Level 752.08 59.57 33.07 0 25.547 100.62 107.08

Normal
Coolant Level 752.08 59.57 32.96 0 25.547 100.62 107.08

Normal
Coolant Level 752.08 59.57 32.96 0 25.547 100.62 107.08

Normal
Coolant Level 752.08 59.57 32.96 0 25.547 100.62 107.08

Normal
Coolant Level 752.08 59.57 32.96 0 25.547 100.62 107.08

Normal
Coolant Level 752.08 59.57 32.96 0 25.547 100.62 107.08

Normal
Coolant Level 752.08 59.57 32.94 0 25.547 100.62 107.08

Normal
Coolant Level 752.08 59.57 32.88 0 25.547 100.62 107.08

Normal
Coolant Level 752.08 59.57 32.86 0 25.547 100.62 107.08

Normal
Coolant Level 752.08 59.57 32.86 0 25.547 100.62 107.08

Normal
Coolant Level 752.08 59.57 32.86 0 25.547 100.62 107.08

Normal
Coolant Level 752.08 59.57 32.86 0 25.547 100.62 107.08

Normal
Coolant Level 752.08 59.57 32.86 0 25.547 100.62 107.08

Normal
Coolant Level 752.08 59.57 32.77 0 25.547 100.62 107.08

Normal
Coolant Level 752.08 59.57 32.86 0 25.547 100.62 107.08

Normal
Coolant Level 752.08 59.57 32.86 0 25.547 100.62 107.08

Normal
Coolant Level 752.08 59.57 32.74 0 25.547 100.62 107.08

Normal
Coolant Level 752.08 59.57 32.74 0 25.547 100.62 107.08

Normal
Coolant Level 752.08 59.57 32.74 0 25.547 100.62 107.08
Normal
Coolant Level 752.08 59.57 32.74 0 25.547 100.62 107.08

Normal
Coolant Level 752.08 59.57 32.74 0 25.547 100.62 107.08

Normal
Coolant Level 752.08 59.57 32.74 0 25.547 100.62 107.08

Normal
Coolant Level 752.08 59.46 32.74 0 25.547 100.62 107.08

Normal
Coolant Level 752.08 59.46 32.74 0 25.547 100.62 107.08

Normal
Coolant Level 752.08 59.46 32.74 0 25.547 100.62 107.08

Normal
Coolant Level 752.08 59.57 32.74 0 25.547 100.62 107.08

Normal
Coolant Level 752.08 59.57 32.66 0 25.547 100.62 107.08

Normal
Coolant Level 752.08 59.57 32.63 0 25.547 100.62 107.08

Normal
Coolant Level 752.08 59.57 32.66 0 25.547 100.62 107.08

Normal
Coolant Level 752.08 59.46 32.63 0 25.547 100.62 107.08

Normal
Coolant Level 752.08 59.46 32.63 0 25.547 100.62 107.08

Normal
Coolant Level 752.08 59.46 32.63 0 25.547 100.62 107.08

Normal
Coolant Level 752.08 59.46 32.63 0 25.547 100.62 107.08

Normal
Coolant Level 752.08 59.46 32.63 0 25.547 100.62 107.08

Normal
Coolant Level 752.08 59.46 32.52 0 25.547 100.62 107.08

Normal
Coolant Level 752.08 59.46 32.52 0 25.547 100.62 107.08

Normal
Coolant Level 752.08 59.46 32.52 0 25.547 100.62 107.08

Normal
Coolant Level 752.08 59.46 32.52 0 25.547 100.62 107.08
Normal
Coolant Level 752.08 59.46 32.52 0 25.547 100.62 107.08

Normal
Coolant Level 752.08 59.46 32.52 0 25.547 100.62 107.08

Normal
Coolant Level 752.08 59.46 32.44 0 25.547 100.62 107.08

Normal
Coolant Level 752.08 59.46 32.42 0 25.547 100.62 107.08

Normal
Coolant Level 752.08 59.46 32.42 0 25.547 100.62 107.08

Normal
Coolant Level 752.08 59.46 32.4 0 25.547 100.62 107.08

Normal
Coolant Level 752.08 59.46 32.42 0 25.547 100.62 107.08

Normal
Coolant Level 752.08 59.46 32.51 0 25.547 100.62 107.08

Normal
Coolant Level 752.08 59.46 32.44 0 25.547 100.62 107.08

Normal
Coolant Level 752.08 59.46 32.49 0 25.547 100.62 107.08

Normal
Coolant Level 752.08 59.46 32.43 0 25.547 100.62 107.08

Normal
Coolant Level 752.08 59.46 32.42 0 25.547 100.62 107.08

Normal
Coolant Level 752.08 59.46 32.52 0 25.547 100.62 107.08

Normal
Coolant Level 752.08 59.46 32.49 0 25.547 100.62 107.08

Normal
Coolant Level 752.08 59.46 32.4 0 25.547 100.62 107.08

Normal
Coolant Level 752.08 59.46 32.4 0 25.547 100.62 107.08

Normal
Coolant Level 752.08 59.46 32.4 0 25.547 100.62 107.08

Normal
Coolant Level 752.08 59.46 32.4 0 25.547 100.62 107.08

Normal
Coolant Level 752.08 59.46 32.4 0 25.547 100.62 107.08
Normal
Coolant Level 752.08 59.46 32.4 0 25.547 100.62 107.08

Normal
Coolant Level 752.08 59.46 32.4 0 25.547 100.62 107.08

Normal
Coolant Level 752.08 59.46 32.29 0 25.547 100.62 107.08

Normal
Coolant Level 752.08 59.46 32.38 0 25.547 100.62 107.08

Normal
Coolant Level 752.08 59.46 32.29 0 25.547 100.62 107.08

Normal
Coolant Level 752.08 59.46 32.29 0 25.547 100.62 107.08

Normal
Coolant Level 752.08 59.46 32.29 0 25.547 100.62 107.08

Normal
Coolant Level 752.08 59.46 32.29 0 25.547 100.62 107.08

Normal
Coolant Level 752.08 59.46 32.38 0 25.547 100.62 107.08

Normal
Coolant Level 752.08 59.46 32.29 0 25.547 100.62 107.08

Normal
Coolant Level 752.08 59.46 32.29 0 25.547 100.62 107.08

Normal
Coolant Level 752.08 59.46 32.29 0 25.547 100.62 107.08

Normal
Coolant Level 752.08 59.46 32.29 0 25.547 100.62 107.08

Normal
Coolant Level 752.08 59.46 32.29 0 25.547 100.62 107.08

Normal
Coolant Level 752.08 59.46 32.29 0 25.547 100.62 107.08

Normal
Coolant Level 752.08 59.46 32.29 0 25.547 100.62 107.08

Normal
Coolant Level 752.08 59.46 32.29 0 25.547 100.62 107.08

Normal
Coolant Level 752.08 59.46 32.29 0 25.547 100.62 107.08

Normal
Coolant Level 752.08 59.46 32.38 0 25.547 100.62 107.08
Normal
Coolant Level 752.08 59.36 32.29 0 25.547 100.62 107.08

Normal
Coolant Level 752.08 59.46 32.29 0 25.547 100.62 107.08

Normal
Coolant Level 752.08 59.36 32.29 0 25.547 100.62 107.08

Normal
Coolant Level 752.08 59.46 32.29 0 25.547 100.62 107.08

Normal
Coolant Level 752.08 59.36 32.29 0 25.547 100.62 107.08

Normal
Coolant Level 752.08 59.46 32.29 0 25.547 100.62 107.08

Normal
Coolant Level 752.08 59.46 32.29 0 25.547 100.62 107.08

Normal
Coolant Level 752.08 59.36 32.29 0 25.547 100.62 107.08

Normal
Coolant Level 752.08 59.36 32.29 0 25.547 100.62 107.08

Normal
Coolant Level 752.08 59.36 32.29 0 25.547 100.62 107.08

Normal
Coolant Level 752.08 59.36 32.29 0 25.547 100.62 107.08

Normal
Coolant Level 752.08 59.36 32.29 0 25.547 100.62 107.08

Normal
Coolant Level 752.08 59.36 32.29 0 25.547 100.62 107.08

Normal
Coolant Level 752.08 59.36 32.29 0 25.547 100.62 107.08

Normal
Coolant Level 752.08 59.36 32.29 0 25.547 100.62 107.08

Normal
Coolant Level 752.08 59.46 32.29 0 25.547 100.62 107.08

Normal
Coolant Level 752.08 59.36 32.2 0 25.547 100.62 107.08

Normal
Coolant Level 752.08 59.46 32.29 0 25.547 100.62 107.08

Normal
Coolant Level 752.08 59.36 32.2 0 25.547 100.62 107.08
Normal
Coolant Level 752.08 59.36 32.29 0 25.547 100.62 107.08

Normal
Coolant Level 752.08 59.36 32.29 0 25.547 100.62 107.08

Normal
Coolant Level 752.08 59.36 32.2 0 25.547 100.62 107.08

Normal
Coolant Level 752.08 59.36 32.27 0 25.547 100.62 107.08

Normal
Coolant Level 752.08 59.36 32.29 0 25.547 100.62 107.08

Normal
Coolant Level 752.08 59.36 32.27 0 25.547 100.62 107.08

Normal
Coolant Level 752.08 59.36 32.27 0 25.547 100.62 107.08

Normal
Coolant Level 752.08 59.36 32.29 0 25.547 100.62 107.08

Normal
Coolant Level 752.08 59.36 32.28 0 25.547 100.62 107.08

Normal
Coolant Level 752.08 59.36 32.19 0 25.547 100.62 107.08

Normal
Coolant Level 752.08 59.36 32.29 0 25.547 100.62 107.08

Normal
Coolant Level 752.08 59.36 32.28 0 25.547 100.62 107.08

Normal
Coolant Level 752.08 59.36 32.28 0 25.547 100.62 107.08

Normal
Coolant Level 752.08 59.36 32.29 0 25.547 100.62 107.08

Normal
Coolant Level 752.08 59.36 32.28 0 25.547 100.62 107.08

Normal
Coolant Level 752.08 59.36 32.2 0 25.547 100.62 107.08

Normal
Coolant Level 752.08 59.36 32.2 0 25.547 100.62 107.08

Normal
Coolant Level 752.08 59.36 32.29 0 25.547 100.62 107.08

Normal
Coolant Level 752.08 59.36 32.19 0 25.547 100.62 107.08
Normal
Coolant Level 752.08 59.36 32.29 0 25.547 100.62 107.08

Normal
Coolant Level 752.08 59.36 32.29 0 25.547 100.62 107.08

Normal
Coolant Level 752.08 59.36 32.29 0 25.547 100.62 107.08

Normal
Coolant Level 752.08 59.36 32.29 0 25.547 100.62 107.08

Normal
Coolant Level 752.08 59.36 32.29 0 25.547 100.62 107.08

Normal
Coolant Level 752.08 59.36 32.27 0 25.547 100.62 107.08

Normal
Coolant Level 752.08 59.36 32.27 0 25.547 100.62 107.08

Normal
Coolant Level 752.08 59.36 32.19 0 25.547 100.62 107.08

Normal
Coolant Level 752.08 59.36 32.19 0 25.547 100.62 107.08

Normal
Coolant Level 752.08 59.36 32.18 0 25.547 100.62 107.08

Normal
Coolant Level 752.08 59.25 32.18 0 25.547 100.62 107.08

Normal
Coolant Level 752.08 59.36 32.18 0 25.547 100.62 107.08

Normal
Coolant Level 752.08 59.36 32.18 0 25.547 100.62 107.08

Normal
Coolant Level 752.08 59.36 32.18 0 25.547 100.62 107.08

Normal
Coolant Level 752.08 59.36 32.18 0 25.547 100.62 107.08

Normal
Coolant Level 752.08 59.36 32.18 0 25.547 100.62 107.08

Normal
Coolant Level 752.08 59.36 32.18 0 25.547 100.62 107.08

Normal
Coolant Level 752.08 59.25 32.18 0 25.547 100.62 107.08

Normal
Coolant Level 752.08 59.36 32.18 0 25.547 100.62 107.08
Normal
Coolant Level 752.08 59.25 32.18 0 25.547 100.62 107.08

Normal
Coolant Level 752.08 59.25 32.18 0 25.547 100.62 107.08

Normal
Coolant Level 752.08 59.25 32.18 0 25.547 100.62 107.08

Normal
Coolant Level 752.08 59.25 32.18 0 25.547 100.62 107.08

Normal
Coolant Level 752.08 59.25 32.18 0 25.547 100.62 107.08

Normal
Coolant Level 752.08 59.25 32.18 0 25.547 100.62 107.08

Normal
Coolant Level 752.08 59.25 32.18 0 25.547 100.62 107.08

Normal
Coolant Level 752.08 59.25 32.18 0 25.547 100.62 107.08

Normal
Coolant Level 752.08 59.25 32.18 0 25.547 100.62 107.08

Normal
Coolant Level 752.08 59.25 32.18 0 25.547 100.62 107.08

Normal
Coolant Level 752.08 59.25 32.18 0 25.547 100.62 107.08

Normal
Coolant Level 752.08 59.25 32.18 0 25.547 100.62 107.08

Normal
Coolant Level 752.08 59.25 32.18 0 25.547 100.62 107.08

Normal
Coolant Level 752.08 59.25 32.18 0 25.547 100.62 107.08

Normal
Coolant Level 752.08 59.25 32.18 0 25.547 100.62 107.08

Normal
Coolant Level 752.08 59.25 32.18 0 25.547 100.62 107.08

Normal
Coolant Level 752.08 59.25 32.18 0 25.547 100.62 107.08

Normal
Coolant Level 752.08 59.25 32.18 0 25.547 100.62 107.08

Normal
Coolant Level 752.08 59.25 32.18 0 25.547 100.62 107.08
Normal
Coolant Level 752.08 59.25 32.18 0 25.547 100.62 107.08

Normal
Coolant Level 752.08 59.25 32.18 0 25.547 100.62 107.08

Normal
Coolant Level 752.08 59.25 32.18 0 25.547 100.62 107.08

Normal
Coolant Level 752.08 59.25 32.18 0 25.547 100.62 107.08

Normal
Coolant Level 752.08 59.25 32.18 0 25.547 100.62 107.08

Normal
Coolant Level 752.08 59.25 32.18 0 25.547 100.62 107.08

Normal
Coolant Level 752.08 59.25 32.18 0 25.547 100.62 107.08

Normal
Coolant Level 752.08 59.25 32.18 0 25.547 100.62 107.08

Normal
Coolant Level 752.08 59.25 32.18 0 25.547 100.62 107.08

Normal
Coolant Level 752.08 59.25 32.18 0 25.547 100.62 107.08

Normal
Coolant Level 752.08 59.25 32.18 0 25.547 100.62 107.08

Normal
Coolant Level 752.08 59.25 32.18 0 25.547 100.62 107.08

Normal
Coolant Level 752.08 59.25 32.18 0 25.547 100.62 107.08

Normal
Coolant Level 752.08 59.25 32.18 0 25.547 100.62 107.08

Normal
Coolant Level 752.08 59.25 32.18 0 25.516 100.62 107.08

Normal
Coolant Level 752.08 59.25 32.18 0 25.547 100.62 107.08

Normal
Coolant Level 752.08 59.25 32.18 0 25.547 100.62 107.08

Normal
Coolant Level 752.08 59.14 32.18 0 25.547 100.62 107.08

Normal
Coolant Level 752.08 59.25 32.18 0 25.547 100.62 107.08
Normal
Coolant Level 752.08 59.25 32.18 0 25.547 100.62 107.08

Normal
Coolant Level 752.08 59.25 32.18 0 25.547 100.62 107.08

Normal
Coolant Level 752.08 59.25 32.18 0 25.547 100.62 107.08

Normal
Coolant Level 752.08 59.25 32.18 0 25.547 100.62 107.08

Normal
Coolant Level 752.08 59.25 32.15 0 25.547 100.62 107.08

Normal
Coolant Level 752.08 59.25 32.1 0 25.547 100.62 107.08

Normal
Coolant Level 752.08 59.14 32.18 0 25.547 100.62 107.08

Normal
Coolant Level 752.08 59.14 32.18 0 25.547 100.62 107.08

Normal
Coolant Level 752.08 59.14 32.14 0 25.547 100.62 107.08

Normal
Coolant Level 752.08 59.14 32.14 0 25.547 100.62 107.08

Normal
Coolant Level 752.08 59.25 32.18 0 25.547 100.62 107.08

Normal
Coolant Level 752.08 59.25 32.18 0 25.547 100.62 107.08

Normal
Coolant Level 752.08 59.14 32.15 0 25.547 100.62 107.08

Normal
Coolant Level 752.08 59.14 32.18 0 25.547 100.62 107.08

Normal
Coolant Level 752.08 59.25 32.07 0 25.547 100.62 107.08

Normal
Coolant Level 752.08 59.14 32.18 0 25.547 100.62 107.08

Normal
Coolant Level 752.08 59.14 32.14 0 25.547 100.62 107.08

Normal
Coolant Level 752.08 59.14 32.07 0 25.547 100.62 107.08

Normal
Coolant Level 752.08 59.14 32.07 0 25.547 100.62 107.08
Normal
Coolant Level 752.08 59.14 32.1 0 25.547 100.62 107.08

Normal
Coolant Level 752.08 59.14 32.14 0 25.547 100.62 107.08

Normal
Coolant Level 752.08 59.14 32.14 0 25.547 100.62 107.08

Normal
Coolant Level 752.08 59.14 32.14 0 25.547 100.62 107.08

Normal
Coolant Level 752.08 59.14 32.17 0 25.547 100.62 107.08

Normal
Coolant Level 752.08 59.14 32.17 0 25.547 100.62 107.08

Normal
Coolant Level 752.08 59.14 32.15 0 25.547 100.62 107.08

Normal
Coolant Level 752.08 59.14 32.07 0 25.547 100.62 107.08

Normal
Coolant Level 752.08 59.14 32.1 0 25.547 100.62 107.08

Normal
Coolant Level 752.08 59.14 32.14 0 25.547 100.62 107.08

Normal
Coolant Level 752.08 59.14 32.14 0 25.547 100.62 107.08

Normal
Coolant Level 752.08 59.14 32.15 0 25.547 100.62 107.08

Normal
Coolant Level 752.08 59.14 32.15 0 25.547 100.62 107.08

Normal
Coolant Level 752.08 59.14 32.18 0 25.547 100.62 107.08

Normal
Coolant Level 752.08 59.14 32.14 0 25.547 100.62 107.08

Normal
Coolant Level 752.08 59.14 32.18 0 25.516 100.62 107.08

Normal
Coolant Level 752.08 59.14 32.18 0 25.547 100.62 107.08

Normal
Coolant Level 752.08 59.14 32.17 0 25.547 100.62 107.08

Normal
Coolant Level 752.08 59.14 32.18 0 25.547 100.62 107.08
Normal
Coolant Level 752.08 59.14 32.18 0 25.547 100.62 107.08

Normal
Coolant Level 752.08 59.14 32.17 0 25.547 100.62 107.08

Normal
Coolant Level 752.08 59.14 32.18 0 25.547 100.62 107.08

Normal
Coolant Level 752.08 59.14 32.17 0 25.547 100.62 107.08

Normal
Coolant Level 752.08 59.14 32.07 0 25.547 100.62 107.08

Normal
Coolant Level 752.08 59.14 32.14 0 25.516 100.62 107.08

Normal
Coolant Level 752.08 59.14 32.07 0 25.547 100.62 107.08

Normal
Coolant Level 752.08 59.14 32.07 0 25.547 100.62 107.08

Normal
Coolant Level 752.08 59.14 32.07 0 25.547 100.62 107.08

Normal
Coolant Level 752.08 59.14 32.07 0 25.547 100.62 107.08

Normal
Coolant Level 752.08 59.04 32.07 0 25.547 100.62 107.08

Normal
Coolant Level 752.08 59.14 32.07 0 25.547 100.62 107.08

Normal
Coolant Level 752.08 59.04 32.07 0 25.547 100.62 107.08

Normal
Coolant Level 752.08 59.14 32.07 0 25.547 100.62 107.08

Normal
Coolant Level 752.08 59.14 32.07 0 25.547 100.62 107.08

Normal
Coolant Level 752.08 59.14 32.07 0 25.547 100.62 107.08

Normal
Coolant Level 752.08 59.14 32.07 0 25.547 100.62 107.08

Normal
Coolant Level 752.08 59.14 32.07 0 25.547 100.62 107.08

Normal
Coolant Level 752.08 59.14 32.07 0 25.516 100.62 107.08
Normal
Coolant Level 752.08 59.04 32.07 0 25.547 100.62 107.08

Normal
Coolant Level 752.08 59.04 32.07 0 25.547 100.62 107.08

Normal
Coolant Level 752.08 59.14 32.07 0 25.547 100.62 107.08

Normal
Coolant Level 752.08 59.04 32.07 0 25.547 100.62 107.08

Normal
Coolant Level 752.08 59.04 32.07 0 25.547 100.62 107.08

Normal
Coolant Level 752.08 59.04 32.07 0 25.547 100.62 107.08

Normal
Coolant Level 752.08 59.04 32.07 0 25.547 100.62 107.08

Normal
Coolant Level 752.08 59.04 32.07 0 25.547 100.62 107.08

Normal
Coolant Level 752.08 59.04 32.07 0 25.547 100.62 107.08

Normal
Coolant Level 752.08 59.04 32.07 0 25.547 100.62 107.08

Normal
Coolant Level 752.08 59.04 32.07 0 25.547 100.62 107.08

Normal
Coolant Level 752.08 59.04 32.07 0 25.547 100.62 107.08

Normal
Coolant Level 752.08 59.04 32.07 0 25.516 100.62 107.08

Normal
Coolant Level 752.08 59.04 32.07 0 25.547 100.62 107.08

Normal
Coolant Level 752.08 59.04 32.07 0 25.547 100.62 107.08

Normal
Coolant Level 752.08 59.04 32.07 0 25.547 100.62 107.08

Normal
Coolant Level 752.08 59.04 32.07 0 25.547 100.62 107.08

Normal
Coolant Level 752.08 59.04 32.07 0 25.547 100.62 107.08

Normal
Coolant Level 752.08 59.04 32.07 0 25.547 100.62 107.08
Normal
Coolant Level 752.08 59.04 32.07 0 25.547 100.62 107.08

Normal
Coolant Level 752.08 59.04 32.07 0 25.547 100.62 107.08

Normal
Coolant Level 752.08 59.04 32.07 0 25.547 100.62 107.08

Normal
Coolant Level 752.08 59.04 32.07 0 25.547 100.62 107.08

Normal
Coolant Level 752.08 59.04 32.07 0 25.547 100.62 107.08

Normal
Coolant Level 752.08 59.04 32.07 0 25.547 100.62 107.08

Normal
Coolant Level 752.08 59.04 32.07 0 25.547 100.62 107.08

Normal
Coolant Level 752.08 59.04 32.07 0 25.547 100.62 107.08

Normal
Coolant Level 752.08 59.04 31.99 0 25.547 100.62 107.08

Normal
Coolant Level 752.08 59.04 32.07 0 25.547 100.62 107.08

Normal
Coolant Level 752.08 59.04 32.07 0 25.547 100.62 107.08

Normal
Coolant Level 752.08 59.04 32.07 0 25.547 100.62 107.08

Normal
Coolant Level 752.08 59.04 32.07 0 25.516 100.62 107.08

Normal
Coolant Level 752.08 59.04 32.07 0 25.547 100.62 107.08

Normal
Coolant Level 752.08 59.04 32.07 0 25.547 100.62 107.08

Normal
Coolant Level 752.08 59.04 32.07 0 25.547 100.62 107.08

Normal
Coolant Level 752.08 58.93 32.07 0 25.547 100.62 107.08

Normal
Coolant Level 752.08 59.04 32.07 0 25.547 100.62 107.08

Normal
Coolant Level 752.08 59.04 32.07 0 25.547 100.62 107.08
Normal
Coolant Level 752.08 59.04 32.04 0 25.516 100.62 107.08

Normal
Coolant Level 752.08 58.93 32.07 0 25.547 100.62 107.08

Normal
Coolant Level 752.08 59.04 32.07 0 25.547 100.62 107.08

Normal
Coolant Level 752.08 59.04 32.07 0 25.547 100.62 107.08

Normal
Coolant Level 752.08 58.93 31.99 0 25.547 100.62 107.08

Normal
Coolant Level 752.08 58.93 31.99 0 25.547 100.62 107.08

Normal
Coolant Level 752.08 59.04 32.03 0 25.547 100.62 107.08

Normal
Coolant Level 752.08 59.04 32.03 0 25.516 100.62 107.08

Normal
Coolant Level 752.08 58.93 32.03 0 25.547 100.62 107.08

Normal
Coolant Level 752.08 58.93 32.07 0 25.547 100.62 107.08

Normal
Coolant Level 752.08 58.93 32.07 0 25.547 100.62 107.08

Normal
Coolant Level 752.08 58.93 31.99 0 25.547 100.62 107.08

Normal
Coolant Level 752.08 58.93 31.95 0 25.547 100.62 107.08

Normal
Coolant Level 752.08 58.93 31.96 0 25.547 100.62 107.08

Normal
Coolant Level 752.08 58.93 31.95 0 25.547 100.62 107.08

Normal
Coolant Level 752.08 58.93 31.95 0 25.547 100.62 107.08

Normal
Coolant Level 752.08 58.93 31.95 0 25.547 100.62 107.08

Normal
Coolant Level 752.08 58.93 31.95 0 25.516 100.62 107.08

Normal
Coolant Level 752.08 58.93 31.95 0 25.516 100.62 107.08
Normal
Coolant Level 752.08 58.93 31.95 0 25.547 100.62 107.08

Normal
Coolant Level 752.08 58.93 31.95 0 25.516 100.62 107.08

Normal
Coolant Level 752.08 58.93 31.95 0 25.547 100.62 107.08

Normal
Coolant Level 752.08 58.93 31.95 0 25.547 100.62 107.08

Normal
Coolant Level 752.08 58.93 31.95 0 25.516 100.62 107.08

Normal
Coolant Level 752.08 58.93 31.95 0 25.547 100.62 107.08

Normal
Coolant Level 752.08 58.93 31.95 0 25.516 100.62 107.08

Normal
Coolant Level 752.08 58.93 31.95 0 25.516 100.62 107.08

Normal
Coolant Level 752.08 58.93 31.95 0 25.547 100.62 107.08

Normal
Coolant Level 752.08 58.93 31.95 0 25.547 100.62 107.08

Normal
Coolant Level 752.08 58.93 31.95 0 25.547 100.62 107.08

Normal
Coolant Level 752.08 58.93 31.95 0 25.547 100.62 107.08

Normal
Coolant Level 752.08 58.93 31.95 0 25.516 100.62 107.08

Normal
Coolant Level 752.08 58.93 31.95 0 25.516 100.62 107.08

Normal
Coolant Level 752.08 58.93 31.95 0 25.547 100.62 107.08

Normal
Coolant Level 752.08 58.93 31.95 0 25.547 100.62 107.08

Normal
Coolant Level 752.08 58.93 31.94 0 25.547 100.62 107.08

Normal
Coolant Level 752.08 58.92 31.94 0 25.547 100.62 107.08

Normal
Coolant Level 752.08 58.93 31.95 0 25.516 100.62 107.08
Normal
Coolant Level 752.08 58.93 31.94 0 25.516 100.62 107.08

Normal
Coolant Level 752.08 58.84 31.95 0 25.547 100.62 107.08

Normal
Coolant Level 752.08 58.92 31.94 0 25.547 100.62 107.08

Normal
Coolant Level 752.08 58.83 31.94 0 25.547 100.62 107.08

Normal
Coolant Level 752.08 58.92 31.94 0 25.547 100.62 107.08

Normal
Coolant Level 752.08 58.92 31.94 0 25.547 100.62 107.08

Normal
Coolant Level 752.08 58.83 31.88 0 25.547 100.62 107.08

Normal
Coolant Level 752.08 58.83 31.88 0 25.547 100.62 107.08

Normal
Coolant Level 752.08 58.84 31.88 0 25.516 100.62 107.08

Normal
Coolant Level 752.08 58.83 31.88 0 25.547 100.62 107.08

Normal
Coolant Level 752.08 58.83 31.84 0 25.516 100.62 107.08

Normal
Coolant Level 752.08 58.83 31.95 0 25.547 100.62 107.08

Normal
Coolant Level 752.08 58.83 31.87 0 25.547 100.62 107.08

Normal
Coolant Level 752.08 58.83 31.87 0 25.547 100.62 107.08

Normal
Coolant Level 752.08 58.83 31.93 0 25.547 100.62 107.08

Normal
Coolant Level 752.08 58.83 31.93 0 25.547 100.62 107.08

Normal
Coolant Level 752.08 58.83 31.87 0 25.547 100.62 107.08

Normal
Coolant Level 752.08 58.83 31.88 0 25.547 100.62 107.08

Normal
Coolant Level 752.08 58.83 31.88 0 25.547 100.62 107.08
Normal
Coolant Level 752.08 58.83 31.93 0 25.547 100.62 107.08

Normal
Coolant Level 752.08 58.83 31.93 0 25.516 100.62 107.08

Normal
Coolant Level 752.08 58.83 31.88 0 25.547 100.62 107.08

Normal
Coolant Level 752.08 58.83 31.93 0 25.547 100.62 107.08

Normal
Coolant Level 752.08 58.83 31.95 0 25.547 100.62 107.08

Normal
Coolant Level 752.08 58.83 31.93 0 25.547 100.62 107.08

Normal
Coolant Level 752.08 58.83 31.85 0 25.547 100.62 107.08

Normal
Coolant Level 752.08 58.83 31.85 0 25.547 100.62 107.08

Normal
Coolant Level 752.08 58.83 31.93 0 25.547 100.62 107.08
COM1\dvc1 COM1\dvc1 COM1\dvc1 COM1\dvc1 COM1\dvc1 COM1\dvc1 COM1\dvc1 COM1\dvc1
(absolute) (absolute) Temperature Current Current Current Current Driver
(kPa) (kPa) (degC) (amps) (amps) (amps) (amps) Command

107.08 94.48 59.46 0.04443 0.04443 0.04126 0.07617 Of

107.08 94.48 59.46 0.04443 0.04443 0.04126 0.07617 Of

107.08 94.48 59.46 0.04443 0.04443 0.04126 0.07617 Of

107.08 94.48 59.46 0.04443 0.04443 0.04126 0.07617 Of

107.08 94.48 59.46 0.04443 0.04443 0.04126 0.07617 Of

107.08 94.48 59.36 0.04443 0.66382 0.65088 0.07617 Of

107.08 94.48 59.36 0.04443 0.67017 0.65405 0.07617 Of

107.08 94.48 59.36 0.04443 0.66699 0.65137 0.07617 Of

107.08 94.48 59.36 0.04443 0.67017 0.65747 0.07617 Of

107.08 94.48 59.36 0.04443 0.67017 0.6543 0.07617 Of

107.08 94.48 59.36 0.04443 0.66992 0.65405 0.07617 Of

107.08 94.48 59.36 0.04443 0.67017 0.6543 0.07617 Of

107.08 94.48 59.36 0.04443 0.66992 0.65405 0.07617 Of

363.16 772.97 59.25 0.77808 0.75928 0.74341 107,984 Of

1921.26 2447.42 53.79 0.72095 0.91431 0.90137 0.76221 Of

2009.28 2459.59 51.13 0.7207 0.9436 0.92725 0.76196 Of

1985.15 2431.04 49.59 0.7146 0.93726 0.9209 0.75928 Of

1974.7 2430.07 48.17 0.71777 0.93701 0.9209 0.75928 Of


1973.08 2436.97 47.07 0.71802 0.93091 0.91455 0.75928 Of

1947.33 2445.8 46.26 0.7207 0.92725 0.91406 0.76196 Of

1935.38 2400.02 45.35 0.72095 0.93701 0.9209 0.76538 Of

1970.82 2432.12 44.54 0.71777 0.93701 0.91773 0.76221 Of

1979.11 2430.18 43.84 0.71484 0.9375 0.92114 0.75928 Of

1985.69 2440.74 43.23 0.7146 0.93408 0.92114 0.75928 Of

1984.07 2424.9 42.73 0.7146 0.94409 0.93067 0.76538 Of

1980.3 2442.68 42.01 0.7207 0.94019 0.92383 0.76196 Of

1986.33 2440.31 41.49 0.71484 0.93726 0.92114 0.75928 Of

1567.26 2475.54 40.97 0.81641 0.89942 0.88648 0.75 Of

1328.75 2403.57 39.51 0.82276 0.83618 0.82276 0.76563 Of

1147.76 2370.71 38.47 0.87158 0.81958 0.8064 0.76831 Of

1178.46 2382.46 37.85 0.86206 0.81958 0.80371 0.76245 Of

1921.69 2410.04 37.53 0.72095 0.92774 0.91431 0.76563 Of

1150.45 2342.71 37.01 0.86182 0.82251 0.80982 0.77442 Of

927.45 2295.3 36.39 0.93384 0.79053 0.7749 0.77197 Of

768.12 2274.94 35.43 0.96069 0.76563 0.75269 0.7749 Of

800.44 2259.32 34.76 0.96655 0.77783 0.76196 0.78394 Of

805.93 2321.91 34.43 0.96631 0.77515 0.76196 0.7749 Of


741.29 2307.69 33.98 0.97998 0.77173 0.75586 0.7749 Of

765.53 2254.26 33.75 0.98267 0.76831 0.75562 0.77808 Of

776.09 2214.83 33.41 0.98267 0.77149 0.75586 0.77808 Of

775.55 2264.92 33.19 0.97681 0.76563 0.75269 0.77515 Of

763.59 2277.53 33.07 0.98316 0.77173 0.75903 0.78101 Of

760.36 2301.66 32.86 0.98291 0.77466 0.76196 0.77832 Of

769.41 2281.08 32.74 0.98584 0.77173 0.75879 0.78101 Of

773.83 2273.97 32.63 0.97681 0.76856 0.75293 0.77515 Of

766.82 2283.02 32.4 0.97998 0.76856 0.7561 0.77832 Of

756.59 2269.02 32.29 0.98584 0.77173 0.75879 0.77832 Of

769.95 2284.75 32.18 0.98609 0.77466 0.75879 0.77808 Of

768.12 2260.61 32.18 0.97681 0.76831 0.75269 0.77808 Of

773.18 2282.05 32.07 0.97339 0.76856 0.7561 0.7749 Of

747.11 2256.31 31.95 0.98291 0.77466 0.75903 0.77808 Of

767.58 2247.79 31.95 0.97949 0.76831 0.75586 0.77832 Of

770.16 2260.51 31.95 0.97949 0.77149 0.75586 0.78101 Of

766.93 2267.51 31.84 0.97339 0.76563 0.75293 0.77515 Of

762.73 2271.06 31.84 0.97974 0.77173 0.75879 0.78101 Of

763.05 2257.27 31.73 0.97974 0.77173 0.75903 0.78125 Of


761.33 2278.82 31.73 0.97949 0.77149 0.75879 0.78101 Of

766.93 2264.06 31.73 0.97339 0.76563 0.75269 0.77515 Of

767.47 2269.77 31.61 0.98291 0.77197 0.75903 0.77832 Of

766.39 2277.96 31.61 0.98267 0.77173 0.75879 0.78101 Of

775.44 2265.03 31.61 0.98267 0.77173 0.75879 0.78076 Of

776.2 2269.56 31.61 0.97656 0.76856 0.75586 0.7749 Of

773.18 2281.95 31.61 0.97681 0.7688 0.7561 0.7749 Of

759.28 2294.44 31.5 0.97339 0.76856 0.7561 0.7749 Of

768.33 2269.99 31.5 0.97949 0.77173 0.75879 0.78101 Of

772.21 2269.99 31.5 0.98291 0.77173 0.75879 0.78101 Of

775.01 2264.92 31.5 0.97949 0.77149 0.75879 0.77808 Of

766.29 2248.55 31.5 0.97339 0.76563 0.75293 0.77515 Of

753.68 2252.43 31.5 0.97339 0.76563 0.75293 0.77832 Of

757.24 2273.22 31.5 0.97974 0.77173 0.75903 0.78101 Of

765.21 2254.69 31.5 0.97949 0.77149 0.75586 0.77808 Of

777.71 2268.59 31.5 0.98267 0.77149 0.75879 0.78101 Of

754.11 2239.5 31.5 0.97656 0.76563 0.75293 0.77832 Of

762.52 2261.26 31.5 0.97681 0.76856 0.7561 0.78125 Of

777.6 2243.49 31.5 0.98267 0.76563 0.75879 0.78101 Of


777.38 2278.5 31.5 0.97656 0.76856 0.75586 0.7749 Of

751.74 2307.05 31.5 0.97339 0.77173 0.75293 0.77808 Of

772.97 2266.11 31.5 0.97949 0.76563 0.75879 0.78101 Of

761.98 2303.17 31.5 0.97681 0.76856 0.7561 0.7749 Of

758.53 2256.41 31.5 0.97339 0.76563 0.75293 0.77515 Of

766.72 2277.53 31.5 0.97974 0.77173 0.75903 0.77808 Of

764.13 2247.79 31.5 0.97949 0.76831 0.75586 0.78125 Of

765.86 2238.21 31.5 0.97656 0.76831 0.75586 0.77808 Of

771.78 2279.36 31.5 0.97339 0.76563 0.75293 0.77515 Of

772.97 2315.56 31.5 0.97681 0.76563 0.75293 0.77197 Of

748.62 2285.18 31.5 0.97681 0.76856 0.75586 0.77808 Of

757.99 2264.82 31.5 0.97949 0.77149 0.75879 0.77783 Of

773.72 2290.99 31.5 0.97681 0.76563 0.75293 0.77197 Of

768.44 2258.89 31.61 0.97022 0.76563 0.75269 0.77197 Of

761.98 2266.11 31.61 0.97681 0.76856 0.7561 0.77808 Of

768.01 2257.6 31.61 0.98267 0.77149 0.75879 0.78101 Of

778.57 2275.91 31.61 0.97315 0.76563 0.75879 0.77783 Of

775.12 2268.91 31.61 0.97656 0.76856 0.75586 0.7749 Of

759.18 2245.1 31.61 0.97339 0.76563 0.75293 0.77832 Of


768.76 2283.45 31.61 0.98291 0.77173 0.75879 0.77783 Of

772.1 2266.54 31.61 0.97656 0.76831 0.75586 0.7749 Of

775.23 2274.51 31.61 0.97339 0.76563 0.75293 0.77515 Of

753.25 2224.42 31.61 0.97974 0.77173 0.75879 0.78101 Of

764.56 2256.31 31.61 0.97925 0.76831 0.75879 0.77808 Of

757.24 2274.19 31.61 0.97339 0.76563 0.75293 0.77515 Of

763.38 2279.9 31.61 0.97681 0.77173 0.75903 0.77808 Of

770.16 2262.55 31.61 0.98267 0.77149 0.75879 0.78101 Of

761.65 2258.78 31.61 0.97339 0.76563 0.75293 0.77197 Of

762.3 2278.17 31.61 0.97681 0.76856 0.7561 0.77197 Of

761.87 2281.3 31.73 0.97681 0.76856 0.75903 0.77808 Of

765.53 2255.98 31.73 0.98267 0.77173 0.75879 0.78101 Of

768.12 2252.97 31.73 0.97656 0.76563 0.75269 0.77197 Of

760.25 2264.92 31.73 0.97949 0.76856 0.75586 0.77808 Of

764.89 2268.69 31.73 0.97339 0.76856 0.75293 0.7749 Of

759.71 2264.28 31.73 0.97949 0.77173 0.75879 0.78076 Of

774.37 2271.17 31.73 0.97949 0.76831 0.75879 0.7749 Of

775.12 2258.68 31.73 0.97632 0.76831 0.75586 0.77808 Of

759.07 2251.35 31.73 0.97046 0.76563 0.75293 0.7749 Of


749.8 2260.72 31.84 0.97339 0.76563 0.75293 0.7749 Of

752.71 2294.55 31.84 0.97681 0.77173 0.75879 0.77808 Of

766.5 2260.83 31.84 0.97949 0.77149 0.75879 0.77783 Of

774.69 2257.81 31.84 0.97339 0.76563 0.75293 0.77808 Of

781.8 2290.46 31.84 0.97315 0.76563 0.75269 0.77197 Of

748.62 2255.98 31.84 0.97339 0.76856 0.75903 0.77808 Of

770.38 2280.98 31.73 0.97949 0.77173 0.75879 0.77783 Of

763.16 2269.02 31.84 0.97656 0.76563 0.75269 0.7749 Of

762.41 2282.7 31.84 0.97681 0.76856 0.7561 0.77832 Of

760.9 2301.34 31.84 0.97974 0.77173 0.75879 0.77808 Of

771.78 2281.51 31.84 0.97656 0.76831 0.75586 0.77197 Of

768.33 2282.05 31.84 0.97949 0.76856 0.75586 0.7749 Of

758.75 2256.84 31.84 0.97339 0.76856 0.75293 0.77515 Of

760.36 2253.18 31.84 0.97974 0.77173 0.75879 0.77808 Of

767.69 2292.18 31.84 0.97974 0.77173 0.75903 0.77808 Of

769.84 2274.62 31.95 0.98267 0.76831 0.75586 0.77783 Of

766.29 2284.1 31.84 0.97339 0.76563 0.75269 0.77197 Of

759.82 2254.15 31.84 0.97974 0.77173 0.75903 0.77808 Of

757.88 2281.73 31.84 0.97681 0.76831 0.75586 0.77832 Of


772.32 2308.66 31.95 0.98267 0.77149 0.75879 0.77783 Of

762.52 2271.6 31.95 0.97315 0.76563 0.75269 0.7749 Of

764.13 2286.69 31.95 0.97681 0.76856 0.7561 0.7749 Of

759.18 2261.05 31.95 0.97949 0.77149 0.75879 0.77783 Of

772 2262.01 32.07 0.97656 0.76856 0.75586 0.7749 Of

766.72 2264.82 32.07 0.97339 0.76563 0.75293 0.77515 Of

768.12 2277.53 32.07 0.98291 0.77173 0.75879 0.77808 Of

765.1 2290.24 32.07 0.98291 0.77173 0.75903 0.77808 Of

777.27 2265.03 31.95 0.97949 0.76831 0.75562 0.77808 Of

781.69 2290.46 32.07 0.97949 0.76563 0.75879 0.77808 Of

761.01 2278.82 32.07 0.97339 0.76245 0.75293 0.77197 Of

761.76 2260.29 32.07 0.97974 0.76856 0.75879 0.77808 Of

773.83 2244.02 32.07 0.97949 0.77149 0.75879 0.77808 Of

770.16 2278.71 32.07 0.97315 0.76563 0.75293 0.77783 Of

783.85 2273.33 32.07 0.97315 0.76563 0.75269 0.77197 Of

762.08 2305.75 32.07 0.97681 0.76856 0.7561 0.77808 Of

765.53 2287.22 32.07 0.97949 0.77149 0.75879 0.7749 Of

760.25 2267.83 32.18 0.98267 0.77149 0.75879 0.78076 Of

770.38 2236.48 32.18 0.97656 0.76831 0.75586 0.7749 Of


766.29 2305.97 32.18 0.97681 0.76563 0.75293 0.7749 Of

766.07 2281.41 32.18 0.97949 0.77149 0.75879 0.78101 Of

770.06 2248.76 32.18 0.97632 0.76831 0.75586 0.7749 Of

768.33 2260.72 32.18 0.97339 0.76563 0.75293 0.77808 Of

765.1 2265.14 32.18 0.97974 0.76856 0.75586 0.78101 Of

772.21 2278.71 32.18 0.97949 0.77149 0.75879 0.77808 Of

763.38 2282.91 32.18 0.97339 0.76563 0.75293 0.77222 Of

758.1 2268.59 32.18 0.97681 0.76856 0.75586 0.77808 Of

752.39 2257.49 32.29 0.97949 0.77149 0.75879 0.77808 Of

765.64 2288.09 32.29 0.97949 0.76831 0.75879 0.77783 Of

761.44 2255.98 32.29 0.97315 0.76563 0.75269 0.77197 Of

757.02 2234.01 32.29 0.97315 0.76856 0.75269 0.77515 Of

746.25 2256.52 32.29 0.97339 0.76563 0.75293 0.77832 Of

761.12 2280.54 32.29 0.97949 0.77149 0.75879 0.77783 Of

762.19 2272.46 32.29 0.97949 0.77173 0.75879 0.77783 Of

776.31 2275.16 32.29 0.97656 0.76538 0.75269 0.7749 Of

767.47 2265.03 32.29 0.97339 0.76563 0.7561 0.77515 Of

761.87 2272.36 32.29 0.97705 0.76563 0.75293 0.7749 Of

759.71 2242.19 32.29 0.98291 0.77173 0.75879 0.78101 Of


780.29 2292.18 32.29 0.98609 0.77149 0.75879 0.7749 Of

770.6 2279.04 32.29 0.97705 0.76563 0.75293 0.77515 Of

772.53 2271.93 32.29 0.97974 0.76563 0.75269 0.77197 Of

768.44 2273.87 32.29 0.98633 0.76856 0.7561 0.77808 Of

775.98 2259.97 32.29 0.98609 0.77149 0.75879 0.77783 Of

761.44 2266.22 32.29 0.98316 0.76563 0.75586 0.77808 Of

761.65 2288.73 32.29 0.98902 0.77149 0.75879 0.77783 Of

765.53 2256.95 32.29 0.98291 0.76563 0.75269 0.7749 Of

774.69 2270.96 32.29 0.98291 0.76538 0.75269 0.7749 Of

765.53 2273.65 32.4 0.97998 0.76856 0.7561 0.77832 Of

756.81 2261.69 32.4 0.97998 0.76563 0.75293 0.7749 Of

764.89 2288.84 32.4 0.98609 0.77149 0.75879 0.77783 Of

768.01 2261.91 32.4 0.98291 0.76831 0.75586 0.7749 Of

768.76 2266 32.4 0.97998 0.76563 0.75293 0.77515 Of

753.04 2276.24 32.4 0.98316 0.77173 0.75879 0.77808 Of

759.39 2266.86 32.4 0.98584 0.76831 0.75586 0.77808 Of

766.07 2261.58 32.4 0.98291 0.76831 0.75562 0.77808 Of

773.29 2268.91 32.4 0.97681 0.76245 0.75269 0.77197 Of

768.01 2277.42 32.4 0.98633 0.76856 0.75903 0.77197 Of


754.54 2298.32 32.4 0.98316 0.76856 0.75586 0.7749 Of

761.98 2292.07 32.4 0.98609 0.77149 0.75879 0.77783 Of

769.52 2278.39 32.52 0.97974 0.76563 0.75293 0.77783 Of

776.41 2290.67 32.52 0.97974 0.76538 0.75269 0.77197 Of

755.3 2261.37 32.52 0.97998 0.76856 0.7561 0.7749 Of

758.64 2264.92 32.52 0.97998 0.77173 0.75293 0.7749 Of

767.15 2239.5 32.52 0.98291 0.76538 0.75269 0.7749 Of

770.49 2268.91 32.52 0.97998 0.76563 0.75293 0.77515 Of

756.48 2273.11 32.52 0.98609 0.77173 0.75879 0.77808 Of

767.9 2267.4 32.52 0.98609 0.76831 0.75586 0.77466 Of

761.12 2248.33 32.52 0.97681 0.76563 0.75586 0.77783 Of

754.87 2262.01 32.52 0.97998 0.76245 0.75293 0.7749 Of

751.74 2286.47 32.52 0.98316 0.76856 0.75586 0.77808 Of

764.78 2273.87 32.52 0.98609 0.76831 0.75879 0.77466 Of

768.44 2289.49 32.63 0.98609 0.76831 0.75586 0.77783 Of

777.6 2284.64 32.63 0.97974 0.76221 0.74976 0.7749 Of

757.02 2261.05 32.63 0.98316 0.76856 0.75586 0.77808 Of

756.91 2273.43 32.63 0.97998 0.76563 0.7561 0.7749 Of

766.82 2284.32 32.63 0.98609 0.77149 0.75879 0.77783 Of


767.79 2265.35 32.63 0.98291 0.76563 0.75269 0.77197 Of

771.57 2282.16 32.63 0.98023 0.76563 0.75293 0.7749 Of

771.57 2289.16 32.63 0.97998 0.76563 0.7561 0.7749 Of

767.9 2287.01 32.63 0.98633 0.77173 0.75879 0.7749 Of

762.84 2270.2 32.63 0.98291 0.76856 0.75586 0.78101 Of

782.88 2301.01 32.74 0.98609 0.76831 0.75586 0.77173 Of

766.93 2263.31 32.74 0.97705 0.76563 0.75293 0.7749 Of

761.44 2238.21 32.74 0.98316 0.76856 0.75586 0.77197 Of

759.18 2225.06 32.74 0.98267 0.76831 0.75586 0.77808 Of

773.83 2241.33 32.74 0.97974 0.76245 0.74976 0.77197 Of

766.29 2267.94 32.74 0.98316 0.76856 0.75586 0.78101 Of

755.73 2273 32.74 0.98023 0.76856 0.75903 0.77808 Of

769.73 2280.11 32.74 0.98609 0.77149 0.75879 0.77783 Of

778.89 2290.67 32.86 0.98291 0.76538 0.75269 0.77197 Of

772.1 2273.33 32.86 0.98291 0.76563 0.75586 0.7749 Of

757.78 2248.01 32.74 0.97974 0.76563 0.75293 0.77808 Of

760.58 2239.5 32.86 0.98609 0.76831 0.75879 0.78101 Of

764.78 2259.32 32.86 0.98609 0.77173 0.75879 0.78101 Of

774.8 2259.54 32.86 0.97974 0.76831 0.75586 0.7749 Of


772.86 2268.91 32.86 0.97998 0.76563 0.75293 0.7749 Of

760.9 2261.91 32.86 0.97705 0.76245 0.75 0.7749 Of

761.22 2270.74 32.86 0.98316 0.76856 0.75586 0.77808 Of

765.64 2271.28 32.96 0.98609 0.77149 0.75879 0.77808 Of

770.7 2267.83 32.86 0.97974 0.76245 0.75293 0.77197 Of

768.55 2275.37 32.96 0.9834 0.76856 0.7561 0.77808 Of

765.21 2259 32.96 0.98609 0.76831 0.75562 0.77808 Of

773.5 2237.13 32.96 0.98902 0.77149 0.75879 0.78101 Of

775.77 2263.31 32.96 0.97974 0.76538 0.75269 0.7749 Of

764.67 2267.72 32.96 0.9834 0.76856 0.7561 0.77808 Of

767.26 2277.96 32.96 0.98609 0.77149 0.75879 0.77808 Of

770.6 2275.27 32.96 0.97974 0.76538 0.75269 0.7749 Of

763.59 2248.66 32.96 0.98609 0.76563 0.75586 0.77808 Of

762.08 2265.03 32.96 0.97705 0.76563 0.75293 0.77515 Of

755.94 2260.51 33.07 0.98609 0.76856 0.75586 0.78101 Of

777.92 2276.88 33.07 0.98584 0.76831 0.75586 0.7749 Of

768.98 2258.35 33.07 0.98609 0.76245 0.75562 0.77466 Of

771.89 2269.45 33.07 0.97974 0.76563 0.75269 0.77515 Of

758.85 2272.03 33.07 0.98316 0.76856 0.75903 0.77808 Of


770.27 2241.98 33.07 0.98584 0.76831 0.75586 0.77783 Of

777.81 2287.01 33.07 0.97974 0.76245 0.74976 0.7749 Of

769.63 2285.61 33.07 0.97974 0.76563 0.75269 0.77197 Of

760.15 2255.87 33.07 0.97998 0.76856 0.7561 0.77832 Of

769.95 2279.79 33.07 0.98902 0.77149 0.75879 0.78076 Of

775.98 2293.9 33.19 0.98291 0.76563 0.75586 0.77197 Of

765.86 2274.08 33.07 0.97998 0.76563 0.75293 0.77832 Of

768.98 2310.39 33.19 0.98316 0.76856 0.7561 0.7749 Of

755.3 2274.94 33.19 0.98609 0.77173 0.75879 0.78101 Of

770.38 2282.27 33.19 0.98291 0.76831 0.75586 0.7749 Of

759.71 2256.84 33.19 0.97705 0.76563 0.75293 0.7749 Of

753.9 2247.47 33.19 0.98316 0.77173 0.75879 0.78101 Of

775.66 2290.35 33.3 0.98609 0.76831 0.75586 0.7749 Of

784.92 2278.71 33.3 0.98291 0.76563 0.75269 0.77197 Of

767.58 2286.04 33.3 0.97705 0.76563 0.75293 0.77197 Of

760.15 2253.61 33.3 0.97974 0.76856 0.75586 0.77808 Of

763.49 2278.71 33.3 0.98609 0.76831 0.75586 0.77783 Of

771.78 2263.95 33.3 0.98609 0.76831 0.75879 0.78101 Of

769.52 2268.69 33.3 0.97974 0.76563 0.75269 0.7749 Of


763.59 2249.73 33.3 0.98316 0.76856 0.7561 0.77808 Of

761.87 2270.85 33.3 0.98023 0.76563 0.75293 0.77808 Of

774.04 2274.19 33.3 0.98609 0.77149 0.75879 0.78101 Of

771.03 2287.87 33.3 0.98291 0.76856 0.75586 0.7749 Of

768.76 2249.52 33.3 0.97705 0.76563 0.75293 0.77832 Of

768.98 2274.62 33.3 0.97974 0.76563 0.75293 0.77832 Of

760.47 2269.56 33.3 0.98633 0.77173 0.75879 0.78101 Of

769.3 2261.91 33.41 0.98584 0.76831 0.75586 0.77808 Of

775.77 2290.24 33.41 0.97998 0.76245 0.75269 0.77515 Of

769.52 2287.44 33.41 0.97974 0.77173 0.75293 0.77515 Of

763.38 2264.71 33.41 0.98633 0.76856 0.75586 0.77808 Of

768.12 2287.87 33.41 0.98609 0.77149 0.75879 0.77783 Of

777.49 2246.72 33.41 0.98609 0.76831 0.75586 0.77783 Of

768.01 2275.16 33.41 0.97974 0.76245 0.74976 0.7749 Of

755.62 2265.25 33.41 0.98316 0.76856 0.7561 0.78125 Of

779.64 2271.71 33.41 0.98609 0.77149 0.75879 0.78101 Of

767.47 2282.91 33.41 0.97974 0.76538 0.75269 0.7749 Of

764.45 2267.62 33.41 0.97998 0.76563 0.7561 0.7749 Of

753.47 2283.78 33.41 0.9773 0.76563 0.75293 0.77832 Of


769.52 2245.75 33.52 0.98609 0.77173 0.75879 0.78101 Of

773.4 2266.65 33.52 0.98267 0.76831 0.75586 0.77808 Of

775.12 2274.83 33.52 0.98584 0.76831 0.75586 0.77466 Of

767.9 2256.74 33.52 0.97998 0.76563 0.75293 0.77515 Of

761.55 2257.49 33.52 0.98316 0.77173 0.75903 0.77808 Of

768.98 2290.99 33.52 0.98584 0.76831 0.75586 0.77783 Of

775.66 2269.23 33.52 0.98609 0.76245 0.75879 0.77783 Of

772.53 2259.32 33.52 0.97998 0.76563 0.75293 0.77222 Of

764.35 2270.74 33.52 0.98316 0.76856 0.7561 0.7749 Of

772.32 2268.37 33.52 0.98609 0.77149 0.75879 0.78101 Of

773.61 2263.31 33.52 0.97974 0.76563 0.75269 0.77197 Of

767.58 2245.96 33.64 0.97974 0.76563 0.75269 0.7749 Of

760.25 2236.59 33.64 0.97998 0.76856 0.7561 0.7749 Of

769.73 2297.03 33.64 0.98609 0.77173 0.75879 0.78101 Of

772.21 2275.27 33.64 0.98291 0.76831 0.75269 0.77808 Of

763.81 2270.74 33.64 0.97705 0.76856 0.7561 0.7749 Of

766.18 2246.72 33.64 0.97998 0.76563 0.75293 0.77197 Of

758.64 2283.13 33.64 0.98609 0.76856 0.75586 0.77808 Of

776.2 2285.5 33.64 0.98609 0.77149 0.75879 0.77466 Of


771.57 2277.96 33.64 0.98609 0.76831 0.75586 0.77466 Of

766.39 2290.02 33.75 0.97974 0.76245 0.75269 0.77197 Of

769.3 2287.22 33.75 0.98316 0.76856 0.75903 0.77808 Of

763.05 2279.9 33.75 0.97998 0.76856 0.7561 0.77808 Of

761.65 2247.47 33.75 0.98584 0.76831 0.75879 0.78101 Of

776.31 2276.24 33.75 0.98609 0.77149 0.75879 0.78101 Of

772.21 2283.99 33.75 0.97974 0.76563 0.75269 0.7749 Of

762.95 2277.53 33.86 0.98316 0.76563 0.7561 0.77832 Of

751.31 2274.62 33.75 0.97998 0.76563 0.75293 0.77832 Of

773.07 2292.61 33.86 0.98609 0.77149 0.75879 0.78101 Of

774.47 2256.74 33.86 0.98267 0.76831 0.75586 0.77808 Of

757.34 2274.4 33.86 0.97998 0.76563 0.75293 0.77515 Of

764.78 2256.41 33.86 0.98291 0.77173 0.75879 0.77808 Of

771.24 2260.83 33.86 0.98609 0.76831 0.75586 0.77808 Of

760.36 2291.53 33.86 0.97705 0.76856 0.75269 0.77515 Of

759.82 2240.79 33.86 0.98291 0.76831 0.75562 0.77808 Of

776.31 2289.49 33.98 0.98609 0.77149 0.75879 0.77808 Of

771.13 2288.52 33.98 0.97974 0.76563 0.75293 0.77197 Of

778.24 2285.5 33.98 0.97681 0.76563 0.75269 0.77197 Of


768.44 2287.87 33.98 0.98316 0.76856 0.7561 0.77808 Of

772.32 2301.88 33.98 0.98902 0.77149 0.75879 0.77783 Of

771.78 2264.49 34.09 0.98609 0.77149 0.75879 0.78101 Of

771.78 2281.73 34.09 0.98291 0.76563 0.75586 0.77515 Of

768.33 2265.46 34.09 0.97705 0.76563 0.75293 0.7749 Of

750.99 2265.46 34.09 0.97998 0.76563 0.7561 0.77515 Of

768.01 2271.39 34.09 0.98633 0.77173 0.75879 0.78101 Of

777.49 2260.94 34.09 0.98584 0.76831 0.75586 0.77808 Of

774.47 2301.66 34.09 0.98291 0.76563 0.75586 0.7749 Of

761.65 2264.49 34.2 0.97681 0.76563 0.75293 0.77515 Of

758.42 2250.6 34.2 0.98291 0.76856 0.75586 0.78101 Of

775.55 2272.68 34.2 0.98584 0.77149 0.75879 0.78101 Of

765.96 2258.46 34.2 0.97681 0.76563 0.75293 0.77515 Of

749.7 2274.73 34.2 0.98316 0.76856 0.7561 0.78125 Of

771.24 2285.18 34.31 0.98609 0.77149 0.75879 0.77783 Of

766.07 2270.85 34.31 0.97974 0.76563 0.75269 0.7749 Of

753.9 2268.8 34.31 0.97998 0.77149 0.7561 0.77808 Of

764.99 2260.08 34.31 0.98609 0.76831 0.75586 0.78101 Of

774.37 2279.9 34.31 0.98291 0.76856 0.75586 0.7749 Of


762.95 2261.8 34.31 0.97705 0.76563 0.75293 0.77515 Of

764.67 2276.88 34.31 0.97998 0.76563 0.75293 0.77832 Of

754.87 2281.19 34.31 0.98609 0.77173 0.75879 0.78101 Of

756.7 2259.11 34.31 0.98291 0.76856 0.75879 0.78101 Of

765.96 2278.93 34.43 0.98584 0.76831 0.75586 0.77808 Of

761.76 2224.74 34.43 0.97998 0.76563 0.75293 0.77515 Of

755.51 2263.74 34.31 0.98633 0.76856 0.75586 0.78101 Of

754.33 2278.93 34.43 0.98584 0.77149 0.75879 0.78101 Of

769.52 2290.02 34.43 0.98902 0.77149 0.75879 0.77783 Of

779 2303.38 34.43 0.97974 0.76563 0.75269 0.7749 Of

755.84 2266.32 34.43 0.98316 0.76856 0.75903 0.77808 Of

774.37 2309.31 34.43 0.98609 0.77149 0.75879 0.78101 Of

773.18 2247.15 34.54 0.97974 0.76538 0.75269 0.7749 Of

769.09 2265.89 34.43 0.97998 0.76563 0.7561 0.77832 Of

764.35 2289.92 34.43 0.98609 0.77173 0.75879 0.78101 Of

768.01 2249.2 34.54 0.98291 0.76831 0.75269 0.7749 Of

772.75 2294.55 34.54 0.97998 0.76563 0.7561 0.77515 Of

758.75 2252.75 34.54 0.9773 0.77173 0.75293 0.77515 Of

759.61 2275.59 34.54 0.98633 0.76856 0.75586 0.78101 Of


766.39 2266.43 34.65 0.98584 0.76831 0.75586 0.77808 Of

772.64 2258.24 34.65 0.97974 0.76563 0.75269 0.77515 Of

758.21 2260.61 34.65 0.98316 0.76856 0.75586 0.77515 Of

765.96 2277.1 34.65 0.98316 0.76856 0.75903 0.78101 Of

773.72 2268.37 34.65 0.98609 0.77149 0.75879 0.77808 Of

772.1 2257.6 34.65 0.98609 0.77149 0.75879 0.78101 Of

772.43 2256.31 34.65 0.97974 0.76538 0.75269 0.77515 Of

757.45 2242.62 34.65 0.97998 0.76563 0.75293 0.77808 Of

757.78 2268.8 34.65 0.98902 0.77149 0.75879 0.77832 Of

759.61 2258.46 34.65 0.98926 0.77173 0.75879 0.78101 Of

776.2 2288.19 34.76 0.98291 0.76831 0.75269 0.77197 Of

773.18 2259.75 34.76 0.97998 0.76563 0.7561 0.77515 Of

767.9 2265.25 34.76 0.98609 0.77173 0.75879 0.78101 Of

764.67 2252.1 34.76 0.98267 0.76831 0.75586 0.77808 Of

783.42 2299.18 34.76 0.98609 0.77149 0.75879 0.77808 Of

766.61 2264.92 34.76 0.97974 0.76563 0.75293 0.77222 Of

760.9 2257.81 34.76 0.98316 0.76856 0.75586 0.78101 Of

774.58 2270.74 34.87 0.98609 0.76831 0.75562 0.77808 Of

770.6 2274.08 34.87 0.97974 0.76563 0.75293 0.7749 Of


749.05 2244.02 34.87 0.97998 0.76856 0.7561 0.77832 Of

747.22 2253.94 34.87 0.98584 0.76831 0.75586 0.78125 Of

761.65 2268.69 34.87 0.98609 0.77149 0.75879 0.77783 Of

771.13 2256.95 34.87 0.97974 0.76538 0.75269 0.7749 Of

773.72 2301.44 34.87 0.98291 0.76563 0.75586 0.77197 Of

761.33 2277.74 34.87 0.97998 0.76563 0.75293 0.77515 Of

765.1 2296.27 34.98 0.97705 0.76563 0.75293 0.77515 Of

763.38 2276.13 34.87 0.98633 0.77173 0.75879 0.78101 Of

767.58 2270.42 34.98 0.98291 0.76831 0.75586 0.7749 Of

769.84 2270.96 34.98 0.98267 0.76563 0.75586 0.77808 Of

768.12 2277.1 34.98 0.97998 0.76563 0.75293 0.77222 Of

774.04 2279.68 34.98 0.98316 0.76856 0.75586 0.77808 Of

758.75 2269.88 34.98 0.98609 0.77149 0.75879 0.78101 Of

771.24 2276.77 34.98 0.97998 0.76563 0.75293 0.77222 Of

763.92 2273.54 34.98 0.98316 0.76856 0.75586 0.77808 Of

765.32 2253.4 34.98 0.98584 0.77149 0.75879 0.78076 Of

774.8 2282.59 35.1 0.98291 0.76563 0.75269 0.7749 Of

754.54 2274.4 35.1 0.98316 0.76856 0.75586 0.78101 Of

771.13 2255.66 35.1 0.98609 0.77149 0.75855 0.78101 Of


771.46 2291.1 35.1 0.98291 0.76538 0.75269 0.7749 Of

755.08 2253.18 35.1 0.97705 0.76563 0.75293 0.77515 Of

757.88 2264.6 35.1 0.98291 0.76856 0.75586 0.78101 Of

759.28 2277.31 35.1 0.98633 0.76856 0.75879 0.78101 Of

759.28 2277.31 35.1 0.98633 0.76856 0.75879 0.78101 Of

771.57 2286.04 35.1 0.98902 0.77149 0.75879 0.77808 Of

772.75 2286.15 35.1 0.98291 0.76563 0.75269 0.7749 Of

770.27 2282.16 35.1 0.97998 0.76563 0.7561 0.77832 Of

752.93 2294.33 35.1 0.97998 0.76245 0.75293 0.77515 Of

760.47 2287.33 35.1 0.98316 0.76856 0.75586 0.78101 Of

760.47 2287.33 35.1 0.98316 0.76856 0.75586 0.77783 Of

768.87 2281.41 35.1 0.98609 0.77149 0.75879 0.77783 Of

771.67 2257.06 35.1 0.98291 0.76563 0.75269 0.77197 Of

771.46 2272.79 35.1 0.97998 0.76563 0.75293 0.77832 Of

765.1 2255.12 35.1 0.98609 0.77149 0.75879 0.78394 Of

762.84 2262.66 35.1 0.98609 0.76831 0.75586 0.77808 Of

770.7 2262.66 35.1 0.98609 0.76831 0.75562 0.77808 Of

771.24 2271.28 35.1 0.97974 0.76245 0.74976 0.77197 Of

758.1 2265.14 35.1 0.97998 0.76856 0.7561 0.77832 Of


764.02 2269.77 35.1 0.98609 0.77149 0.75879 0.78101 Of

769.3 2283.99 35.1 0.98291 0.76538 0.75269 0.78101 Of

769.3 2283.99 35.1 0.98291 0.76538 0.75269 0.78101 Of

771.89 2270.42 35.1 0.98291 0.76831 0.75586 0.77808 Of

766.5 2282.16 35.1 0.97974 0.76563 0.75293 0.77222 Of

752.28 2270.74 35.1 0.98023 0.76856 0.7561 0.77808 Of

753.47 2266.43 35.1 0.98609 0.76831 0.75879 0.78101 Of

761.65 2230.45 35.1 0.98267 0.76538 0.75269 0.77808 Of

765.1 2262.23 35.1 0.97681 0.76245 0.74976 0.77515 Of

755.94 2282.38 35.1 0.97974 0.76563 0.75293 0.77515 Of

750.13 2269.99 35.1 0.98316 0.76856 0.75879 0.78125 Of

761.22 2259.11 35.1 0.98609 0.77149 0.75879 0.77783 Of

765.75 2267.08 35.1 0.97974 0.76538 0.75269 0.7749 Of

764.45 2267.51 35.1 0.97705 0.76563 0.7561 0.77515 Of

754.87 2262.01 35.1 0.97998 0.77173 0.75293 0.77515 Of

762.41 2280.44 35.1 0.98316 0.76856 0.75879 0.77808 Of

773.5 2270.31 35.1 0.98609 0.76831 0.75586 0.77783 Of

767.69 2243.38 35.1 0.97974 0.76563 0.75269 0.77515 Of

761.65 2268.16 35.1 0.97998 0.76563 0.75293 0.77808 Of


763.27 2253.29 35.1 0.98609 0.76831 0.75879 0.78101 Of

777.06 2270.09 35.1 0.98584 0.76831 0.75586 0.77808 Of

775.23 2274.62 35.1 0.97998 0.76563 0.75293 0.77808 Of

769.95 2266.54 35.1 0.97681 0.76563 0.75269 0.77197 Of

769.95 2266.54 35.1 0.97681 0.76563 0.75269 0.77197 Of

763.7 2288.41 35.1 0.98316 0.76856 0.75903 0.77832 Of

766.39 2286.47 35.1 0.98609 0.77149 0.75879 0.77783 Of

782.66 2273.65 35.1 0.98267 0.76538 0.75269 0.7749 Of

768.12 2268.91 35.1 0.97998 0.76563 0.75293 0.77832 Of

752.28 2282.7 35.1 0.98633 0.76856 0.75879 0.77515 Of

770.16 2287.98 35.1 0.97998 0.76856 0.75586 0.77808 Of

772.21 2269.23 35.1 0.98584 0.77149 0.75879 0.77783 Of

766.61 2277.74 35.1 0.97974 0.76563 0.75269 0.7749 Of

759.82 2270.63 35.1 0.97998 0.76563 0.75293 0.77808 Of

762.62 2282.38 35.1 0.98609 0.77149 0.75879 0.78101 Of

776.31 2273.76 35.1 0.98609 0.76831 0.75879 0.77808 Of

770.38 2289.38 35.1 0.97998 0.76563 0.75293 0.77197 Of

761.65 2262.45 35.1 0.97998 0.76856 0.75586 0.78125 Of

757.13 2283.35 35.1 0.98316 0.76856 0.7561 0.77808 Of


762.41 2272.46 35.1 0.98902 0.76831 0.75586 0.78101 Of

773.07 2281.3 35.1 0.98291 0.76538 0.75269 0.7749 Of

755.62 2284.21 35.1 0.97705 0.76563 0.75293 0.77515 Of

759.93 2270.2 35.1 0.98316 0.76856 0.75903 0.78101 Of

764.13 2283.56 35.1 0.98609 0.77149 0.75879 0.77783 Of

774.15 2264.82 35.1 0.97974 0.76563 0.75269 0.78076 Of

769.52 2269.13 35.1 0.98291 0.76856 0.75269 0.7749 Of

754 2258.14 35.1 0.97705 0.76563 0.75293 0.77832 Of

766.93 2251.78 35.1 0.98291 0.77173 0.75879 0.78101 Of

771.46 2276.88 35.1 0.98584 0.76831 0.75586 0.77808 Of

770.92 2261.05 35.1 0.97974 0.76563 0.75293 0.77197 Of

763.81 2288.3 35.1 0.98316 0.76856 0.7561 0.77808 Of

764.45 2273.22 35.1 0.98902 0.77149 0.75879 0.78076 Of

761.22 2267.94 35.1 0.98291 0.76831 0.75586 0.78101 Of

776.74 2281.51 35.1 0.97949 0.76831 0.75586 0.77808 Of

773.5 2273.87 35.1 0.97681 0.76563 0.75293 0.77515 Of

764.35 2287.76 35.21 0.98316 0.76856 0.75586 0.77808 Of

768.87 2301.77 35.1 0.98902 0.76831 0.75586 0.77783 Of

772.97 2253.07 35.21 0.98609 0.77149 0.75879 0.78101 Of


767.58 2274.4 35.21 0.98291 0.76831 0.75586 0.7749 Of

762.95 2262.12 35.1 0.97998 0.76563 0.75293 0.77515 Of

761.12 2276.24 35.21 0.98291 0.76856 0.75879 0.78101 Of

776.09 2256.84 35.21 0.98609 0.77149 0.75879 0.77808 Of

778.68 2294.66 35.21 0.97974 0.76563 0.75269 0.7749 Of

775.66 2261.58 35.21 0.97974 0.76538 0.75269 0.77197 Of

770.92 2251.24 35.1 0.98291 0.76831 0.75586 0.7749 Of

766.07 2302.74 35.1 0.97705 0.76563 0.75293 0.7749 Of

763.49 2284.75 35.21 0.98316 0.77173 0.75879 0.77808 Of

769.63 2290.78 35.21 0.98609 0.77149 0.75879 0.77466 Of

779.75 2279.14 35.21 0.97974 0.76563 0.75293 0.77222 Of

762.19 2259.64 35.21 0.97974 0.76563 0.75269 0.77832 Of

762.19 2259.64 35.21 0.97974 0.76563 0.75269 0.77832 Of

759.28 2284.96 35.21 0.98609 0.77149 0.75879 0.7749 Of

769.63 2276.67 35.1 0.98633 0.77173 0.75879 0.78101 Of

763.38 2259.11 35.21 0.98267 0.76831 0.75562 0.77808 Of

766.29 2247.47 35.21 0.97681 0.76563 0.75269 0.77197 Of

759.93 2269.23 35.21 0.98316 0.76856 0.7561 0.77832 Of

754.22 2250.81 35.21 0.98316 0.76831 0.75293 0.77808 Of


770.16 2277.85 35.21 0.98609 0.76538 0.75879 0.78101 Of

774.15 2269.23 35.21 0.98291 0.76831 0.75586 0.7749 Of

774.15 2269.23 35.21 0.98291 0.76831 0.75586 0.7749 Of

769.95 2292.83 35.21 0.97998 0.76563 0.75293 0.7749 Of

766.93 2273.76 35.21 0.9834 0.76856 0.75586 0.77808 Of

769.41 2273.22 35.21 0.98609 0.77149 0.75879 0.77783 Of

770.6 2259.64 35.21 0.98291 0.76563 0.75269 0.7749 Of

776.2 2280.98 35.21 0.97705 0.76563 0.75293 0.7749 Of

764.56 2271.28 35.21 0.97998 0.76563 0.75269 0.77515 Of

763.27 2263.95 35.21 0.98633 0.77173 0.75903 0.77808 Of

763.7 2275.16 35.21 0.98609 0.76831 0.75562 0.78101 Of

771.35 2250.81 35.21 0.97974 0.76538 0.74976 0.77197 Of

759.71 2246.39 35.21 0.97998 0.76856 0.7561 0.77832 Of

741.51 2266.11 35.21 0.97998 0.77173 0.75293 0.77515 Of

758.96 2254.69 35.21 0.98633 0.76856 0.75586 0.78101 Of

773.4 2269.34 35.21 0.98609 0.76831 0.75562 0.77808 Of

773.4 2269.34 35.21 0.98609 0.76831 0.75562 0.77808 Of

762.95 2290.99 35.21 0.97998 0.76563 0.75293 0.7749 Of

758.42 2235.08 35.21 0.97998 0.76856 0.75586 0.78125 Of


768.33 2270.96 35.21 0.98609 0.77149 0.75879 0.78076 Of

776.84 2275.7 35.21 0.98609 0.76831 0.75586 0.7749 Of

768.98 2283.24 35.21 0.97998 0.76563 0.75293 0.77515 Of

757.24 2242.41 35.21 0.97705 0.76563 0.75269 0.77515 Of

764.24 2270.09 35.21 0.98316 0.76856 0.75586 0.78125 Of

770.6 2276.99 35.21 0.98902 0.77149 0.75879 0.78101 Of

780.72 2276.02 35.21 0.97949 0.76538 0.75269 0.7749 Of

769.3 2270.2 35.21 0.97998 0.76563 0.7561 0.77832 Of

764.02 2292.93 35.21 0.98609 0.77173 0.75879 0.78101 Of

762.19 2271.71 35.21 0.98291 0.76831 0.75586 0.78101 Of

774.04 2264.82 35.21 0.98584 0.76831 0.75879 0.78076 Of

775.66 2264.71 35.21 0.97974 0.76563 0.75269 0.77515 Of

756.7 2248.87 35.21 0.97998 0.76856 0.7561 0.77832 Of

767.9 2262.55 35.21 0.98609 0.77149 0.75879 0.78101 Of

770.7 2284.75 35.21 0.98609 0.76831 0.75586 0.7749 Of

774.58 2276.67 35.21 0.98584 0.76831 0.75562 0.7749 Of

769.3 2262.23 35.21 0.97681 0.76245 0.74976 0.77515 Of

762.41 2284.64 35.21 0.98316 0.76856 0.7561 0.77808 Of

768.66 2283.02 35.21 0.98902 0.76831 0.75586 0.77808 Of


780.51 2293.36 35.21 0.98291 0.76538 0.75269 0.7749 Of

771.67 2291.96 35.21 0.97998 0.76563 0.75293 0.77808 Of

765.42 2268.48 35.21 0.97998 0.77173 0.75293 0.77515 Of

760.68 2275.8 35.21 0.98291 0.76856 0.75586 0.77808 Of

776.52 2291.32 35.21 0.98609 0.77149 0.75879 0.77783 Of

778.78 2273.22 35.21 0.97974 0.76563 0.75269 0.7749 Of

760.9 2293.8 35.21 0.9773 0.76563 0.75293 0.7749 Of

769.95 2275.05 35.21 0.98633 0.77173 0.75879 0.78101 Of

769.95 2275.05 35.21 0.98633 0.77173 0.75879 0.78101 Of

763.49 2281.95 35.21 0.98609 0.76831 0.75586 0.7749 Of

768.76 2250.6 35.21 0.98609 0.76245 0.75 0.77808 Of

774.04 2282.48 35.21 0.97974 0.76245 0.74976 0.77197 Of

754.22 2240.79 35.21 0.98316 0.76856 0.7561 0.78125 Of

756.81 2272.57 35.21 0.98609 0.76831 0.75879 0.77783 Of

763.92 2269.99 35.21 0.98267 0.76538 0.75269 0.7749 Of

764.99 2262.77 35.21 0.97974 0.76245 0.75269 0.77515 Of

763.16 2293.26 35.21 0.97998 0.76856 0.75293 0.7749 Of

752.07 2259.97 35.21 0.98316 0.76856 0.7561 0.78125 Of

769.95 2270.2 35.21 0.98609 0.77149 0.75879 0.77808 Of


775.87 2275.27 35.21 0.98291 0.76856 0.75586 0.7749 Of

766.72 2258.78 35.21 0.97705 0.76563 0.75293 0.7749 Of

758.1 2283.13 35.21 0.98609 0.76856 0.75879 0.77808 Of

773.5 2270.63 35.21 0.98584 0.76831 0.75586 0.7749 Of

783.52 2281.08 35.21 0.98609 0.76563 0.75269 0.77808 Of

765.42 2270.2 35.32 0.97681 0.76563 0.75269 0.77197 Of

757.88 2261.91 35.21 0.97974 0.76563 0.75269 0.7749 Of

759.82 2289.27 35.21 0.98316 0.76563 0.75293 0.77515 Of

756.7 2254.26 35.32 0.98633 0.76856 0.75879 0.78101 Of

767.04 2274.4 35.32 0.98609 0.76831 0.75586 0.77808 Of

770.7 2271.28 35.32 0.97998 0.76563 0.75269 0.77222 Of

754.11 2257.81 35.32 0.98316 0.76856 0.7561 0.77832 Of

766.5 2270.96 35.32 0.98609 0.77149 0.75879 0.78101 Of

777.17 2287.22 35.32 0.98267 0.76831 0.75586 0.7749 Of

769.52 2271.17 35.21 0.97998 0.76563 0.75293 0.77515 Of

755.73 2274.73 35.32 0.98633 0.76856 0.75586 0.78101 Of

774.15 2281.41 35.32 0.98609 0.77149 0.75855 0.77808 Of

766.61 2265.14 35.32 0.98609 0.76831 0.75586 0.77783 Of

775.12 2291.96 35.32 0.97974 0.76563 0.75269 0.7749 Of


773.18 2280.65 35.32 0.97998 0.76563 0.7561 0.77832 Of

773.18 2280.65 35.32 0.97998 0.76563 0.7561 0.77832 Of

753.36 2261.26 35.32 0.98633 0.77173 0.75879 0.78101 Of

772.75 2292.83 35.32 0.98291 0.76831 0.75586 0.77466 Of

775.66 2264.6 35.32 0.97681 0.76563 0.75269 0.77808 Of

761.65 2246.93 35.32 0.97974 0.76856 0.75269 0.77197 Of

769.52 2279.14 35.32 0.98316 0.76563 0.75269 0.77832 Of

765.86 2268.8 35.32 0.98609 0.77149 0.75879 0.78101 Of

774.15 2271.82 35.32 0.98609 0.76831 0.75586 0.77808 Of

758.85 2263.74 35.32 0.97705 0.76563 0.75293 0.77515 Of

758.64 2260.29 35.32 0.98316 0.76856 0.75586 0.78101 Of

765.21 2256.41 35.32 0.98584 0.77149 0.75879 0.77783 Of

780.94 2271.06 35.32 0.97974 0.76563 0.75269 0.77197 Of

769.63 2285.18 35.32 0.97998 0.76563 0.7561 0.77832 Of

754.22 2261.26 35.32 0.98609 0.76831 0.75586 0.78394 Of

763.59 2269.02 35.43 0.98316 0.76856 0.75586 0.78101 Of

768.12 2254.15 35.32 0.98584 0.76831 0.75562 0.77808 Of

778.46 2274.51 35.32 0.97974 0.76563 0.75269 0.77515 Of

767.26 2282.16 35.32 0.98316 0.76856 0.7561 0.77832 Of


760.25 2284.64 35.32 0.98902 0.76831 0.75879 0.77808 Of

776.84 2281.51 35.32 0.98609 0.77149 0.75879 0.77808 Of

773.29 2237.02 35.32 0.98291 0.76831 0.75586 0.77808 Of

772.32 2284.64 35.32 0.97974 0.76245 0.75 0.7749 Of

764.67 2274.08 35.32 0.98316 0.76856 0.75586 0.77808 Of

773.07 2284.75 35.32 0.98902 0.77149 0.75879 0.77783 Of

772.86 2276.34 35.32 0.98291 0.76538 0.75269 0.7749 Of

762.52 2288.09 35.32 0.97705 0.76563 0.75293 0.7749 Of

761.65 2270.63 35.32 0.98291 0.77173 0.75879 0.77515 Of

761.01 2284.32 35.32 0.98633 0.77173 0.75903 0.78101 Of

777.71 2275.7 35.32 0.98902 0.76831 0.75855 0.78101 Of

782.34 2280.11 35.32 0.97974 0.76538 0.75269 0.7749 Of

755.51 2267.83 35.32 0.97998 0.76856 0.7561 0.77832 Of

753.47 2253.29 35.32 0.98291 0.77173 0.75879 0.78101 Of

763.27 2249.3 35.32 0.98267 0.76831 0.75586 0.7749 Of

762.19 2238.53 35.32 0.98584 0.76245 0.75586 0.77808 Of

764.13 2266.43 35.32 0.97974 0.76563 0.75269 0.77515 Of

751.74 2288.52 35.32 0.97998 0.76856 0.7561 0.77808 Of

765.53 2270.63 35.32 0.98609 0.77149 0.75879 0.78101 Of


766.07 2290.67 35.32 0.98291 0.76856 0.75586 0.7749 Of

769.09 2276.67 35.32 0.97705 0.76563 0.75293 0.7749 Of

757.34 2255.77 35.32 0.98291 0.76856 0.75586 0.77515 Of

753.04 2281.3 35.32 0.9834 0.76856 0.75903 0.78101 Of

764.56 2267.83 35.32 0.98609 0.76831 0.75586 0.78101 Of

765.86 2251.35 35.32 0.97974 0.76538 0.75269 0.77515 Of

765.1 2270.42 35.32 0.97974 0.76563 0.7561 0.77832 Of

759.07 2265.89 35.32 0.97998 0.77173 0.75293 0.77515 Of

765.21 2278.71 35.32 0.98316 0.76831 0.75586 0.78101 Of

769.95 2243.49 35.32 0.98609 0.76831 0.75586 0.78101 Of

774.58 2276.99 35.32 0.97974 0.76563 0.75269 0.77222 Of

764.24 2267.29 35.32 0.97998 0.76856 0.7561 0.77832 Of

771.78 2266.86 35.32 0.98609 0.77149 0.75879 0.77783 Of

781.05 2266.97 35.32 0.98584 0.76831 0.75586 0.7749 Of

769.95 2265.89 35.32 0.97998 0.76563 0.75293 0.77515 Of

759.28 2290.56 35.32 0.98316 0.76856 0.75586 0.77808 Of

772.43 2268.26 35.32 0.98609 0.77149 0.75879 0.78101 Of

772.43 2273.33 35.32 0.97974 0.76563 0.75269 0.77808 Of

772.43 2273.33 35.32 0.97974 0.76563 0.75269 0.77808 Of


777.17 2282.59 35.32 0.98291 0.76538 0.75269 0.7749 Of

769.41 2277.85 35.32 0.97681 0.76563 0.75293 0.77515 Of

759.28 2284.64 35.32 0.98316 0.77173 0.75903 0.78101 Of

759.28 2284.64 35.32 0.98584 0.76831 0.75586 0.77783 Of

757.78 2276.56 35.32 0.98584 0.76831 0.75586 0.77783 Of

767.9 2299.29 35.32 0.98609 0.77149 0.75879 0.77808 Of

773.29 2278.71 35.32 0.98291 0.76563 0.75269 0.7749 Of

762.62 2294.33 35.32 0.97705 0.76563 0.75293 0.77197 Of

757.34 2268.59 35.43 0.98291 0.77173 0.75879 0.77808 Of

763.81 2275.37 35.32 0.98584 0.76831 0.75879 0.77808 Of

773.83 2264.82 35.32 0.97974 0.76245 0.75269 0.78101 Of

766.5 2251.57 35.32 0.97681 0.76245 0.75269 0.7749 Of

758.21 2269.77 35.43 0.97998 0.76563 0.7561 0.77832 Of

761.55 2277.74 35.32 0.98609 0.77173 0.75879 0.78101 Of

772.75 2255.98 35.43 0.98267 0.76831 0.75586 0.7749 Of

767.36 2264.49 35.43 0.97974 0.76245 0.74976 0.77515 Of

763.49 2287.01 35.43 0.98633 0.76856 0.75903 0.77515 Of

752.6 2275.59 35.32 0.97998 0.76856 0.7561 0.77808 Of

785.03 2290.46 35.43 0.98609 0.77149 0.75879 0.78101 Of


775.98 2281.41 35.43 0.98291 0.76856 0.75586 0.7749 Of

760.15 2287.33 35.32 0.97998 0.76563 0.75293 0.77515 Of

764.67 2273.22 35.43 0.98633 0.76856 0.75586 0.78101 Of

767.69 2287.12 35.32 0.98609 0.76831 0.75562 0.77808 Of

774.37 2285.82 35.32 0.97974 0.76563 0.75269 0.77515 Of

769.63 2275.48 35.32 0.97998 0.76563 0.75269 0.7749 Of

758.1 2272.9 35.43 0.98291 0.76563 0.7561 0.77808 Of

774.8 2262.55 35.43 0.98609 0.77173 0.75879 0.78101 Of

770.16 2282.59 35.43 0.98291 0.76831 0.75586 0.77808 Of

770.16 2282.59 35.43 0.98291 0.76831 0.75586 0.77808 Of

768.55 2261.15 35.43 0.98609 0.77149 0.75879 0.78101 Of

778.57 2267.29 35.32 0.98609 0.77149 0.75879 0.77808 Of

774.47 2259.97 35.43 0.98291 0.76538 0.75269 0.7749 Of

766.07 2274.3 35.32 0.97998 0.76563 0.75293 0.77832 Of

763.05 2262.66 35.43 0.98633 0.76856 0.75879 0.78125 Of

769.73 2265.35 35.43 0.98609 0.76831 0.75586 0.78101 Of

776.84 2271.39 35.43 0.98584 0.77149 0.75879 0.77808 Of

776.84 2271.39 35.43 0.98584 0.76563 0.75269 0.7749 Of

772.64 2279.9 35.43 0.97974 0.76563 0.75269 0.7749 Of


772 2278.28 35.32 0.97998 0.76563 0.75293 0.77515 Of

766.93 2278.39 35.43 0.98609 0.77149 0.75879 0.78101 Of

778.68 2289.59 35.43 0.98584 0.76831 0.75586 0.77808 Of

784.06 2316.42 35.43 0.97998 0.76563 0.75269 0.77222 Of

758.1 2253.94 35.32 0.9834 0.76856 0.7561 0.77808 Of

775.01 2301.23 35.43 0.98316 0.76856 0.75903 0.7749 Of

768.12 2249.2 35.43 0.98902 0.77149 0.75879 0.78101 Of

777.17 2291.53 35.43 0.98609 0.76831 0.75269 0.7749 Of

766.5 2258.14 35.43 0.97998 0.76563 0.75293 0.77832 Of

755.51 2281.95 35.43 0.98316 0.76856 0.75879 0.77808 Of

761.87 2231.74 35.43 0.98609 0.76831 0.75586 0.78101 Of

777.06 2261.48 35.43 0.97974 0.76221 0.74976 0.7749 Of

759.39 2267.72 35.43 0.98609 0.76856 0.75586 0.7749 Of

751.2 2268.91 35.32 0.97998 0.76563 0.75293 0.77832 Of

751.53 2240.47 35.43 0.98633 0.77173 0.75879 0.78394 Of

770.7 2252.21 35.43 0.98609 0.76831 0.75562 0.77808 Of

759.61 2243.49 35.43 0.97681 0.76245 0.74976 0.77515 Of

760.36 2256.2 35.43 0.97998 0.76563 0.75269 0.78125 Of

769.73 2280.65 35.43 0.9834 0.77149 0.75879 0.77808 Of


760.25 2287.44 35.43 0.98633 0.77173 0.75879 0.77783 Of

760.25 2287.44 35.43 0.98633 0.77173 0.75879 0.77783 Of

767.9 2265.14 35.43 0.98291 0.76538 0.75244 0.77808 Of

767.9 2263.95 35.43 0.97998 0.76563 0.75269 0.7749 Of

763.16 2269.02 35.43 0.98316 0.76856 0.75586 0.78125 Of

763.38 2258.03 35.43 0.98609 0.76831 0.75586 0.78101 Of

776.09 2295.41 35.43 0.98609 0.77149 0.75879 0.77808 Of

770.92 2275.37 35.43 0.98291 0.76831 0.75586 0.7749 Of

764.56 2283.78 35.43 0.97705 0.76563 0.75293 0.77515 Of

751.2 2248.98 35.43 0.98609 0.76856 0.75586 0.78101 Of

773.5 2276.02 35.43 0.98902 0.76831 0.75562 0.77808 Of

776.2 2276.77 35.43 0.97974 0.76563 0.75269 0.77515 Of

770.49 2281.19 35.43 0.98023 0.76563 0.75293 0.7749 Of

754.87 2275.48 35.43 0.98609 0.77149 0.75879 0.78101 Of

773.4 2270.85 35.43 0.98291 0.76831 0.75586 0.78101 Of

773.61 2270.2 35.43 0.98584 0.76831 0.75586 0.77808 Of

763.16 2271.82 35.43 0.97974 0.76245 0.74976 0.7749 Of

766.93 2299.29 35.43 0.98316 0.76856 0.7561 0.78125 Of

760.79 2297.78 35.43 0.98902 0.76831 0.75879 0.78101 Of


772.64 2256.95 35.43 0.98291 0.76538 0.75269 0.7749 Of

757.34 2247.69 35.43 0.97998 0.76563 0.75269 0.77832 Of

748.3 2255.23 35.43 0.98633 0.76856 0.75 0.77832 Of

759.07 2264.6 35.43 0.98633 0.76856 0.75586 0.78101 Of

769.73 2257.81 35.43 0.98609 0.77149 0.75879 0.77808 Of

765.53 2287.01 35.43 0.97974 0.76563 0.75269 0.77197 Of

748.19 2263.09 35.43 0.9773 0.76563 0.75269 0.77832 Of

754.22 2246.18 35.43 0.98291 0.76831 0.75586 0.78101 Of

778.03 2289.38 35.43 0.98584 0.76831 0.75586 0.77808 Of

770.27 2265.25 35.43 0.98609 0.76831 0.75562 0.77808 Of

772.64 2318.25 35.43 0.97681 0.76563 0.75269 0.77197 Of

755.41 2268.37 35.43 0.9834 0.76856 0.7561 0.77832 Of

764.45 2284.42 35.43 0.98609 0.77173 0.75879 0.77783 Of

764.45 2284.42 35.43 0.98609 0.77173 0.75269 0.7749 Of

774.04 2272.57 35.43 0.98291 0.76831 0.75269 0.7749 Of

767.69 2264.28 35.43 0.98609 0.76831 0.75586 0.77808 Of

764.67 2270.09 35.43 0.97705 0.76563 0.75293 0.77222 Of

747.22 2244.89 35.43 0.97998 0.76856 0.75586 0.78101 Of

768.01 2254.8 35.43 0.98609 0.77149 0.75879 0.78101 Of


768.01 2254.8 35.43 0.97949 0.76856 0.75586 0.7749 Of

770.7 2271.82 35.43 0.97949 0.76856 0.75586 0.7749 Of

769.84 2272.25 35.43 0.97998 0.76563 0.75269 0.77832 Of

769.3 2265.68 35.43 0.98633 0.77173 0.75879 0.78101 Of

764.56 2287.87 35.43 0.98609 0.76831 0.75586 0.78101 Of

776.84 2267.08 35.43 0.98584 0.76831 0.75586 0.77808 Of

770.49 2270.42 35.43 0.97681 0.76563 0.75269 0.77515 Of

762.84 2283.56 35.43 0.98316 0.76856 0.7561 0.77832 Of

754.65 2287.01 35.43 0.98902 0.76856 0.75879 0.77808 Of

754.65 2287.01 35.43 0.98902 0.76856 0.75879 0.77808 Of

774.04 2295.3 35.43 0.98609 0.76831 0.75586 0.7749 Of

775.44 2259 35.43 0.98584 0.76563 0.75586 0.77808 Of

767.9 2278.28 35.43 0.97681 0.76245 0.75269 0.7749 Of

759.5 2287.01 35.43 0.97998 0.76856 0.7561 0.77808 Of

770.92 2292.18 35.43 0.98609 0.77149 0.75879 0.78101 Of

775.34 2243.7 35.43 0.98291 0.76831 0.75586 0.7749 Of

769.84 2270.96 35.43 0.97998 0.76245 0.74976 0.77515 Of

754.97 2278.71 35.43 0.98316 0.76856 0.75586 0.78101 Of

770.92 2268.69 35.43 0.98609 0.77149 0.75855 0.77808 Of


772.1 2256.63 35.43 0.97974 0.76563 0.75269 0.77515 Of

762.41 2246.39 35.43 0.97974 0.76563 0.75293 0.78125 Of

754.65 2242.84 35.43 0.98609 0.77149 0.75879 0.78125 Of

754.76 2301.01 35.43 0.98633 0.77173 0.75879 0.78101 Of

772.1 2276.24 35.43 0.98267 0.76831 0.75586 0.7749 Of

769.84 2247.47 35.43 0.97681 0.76563 0.75269 0.77515 Of

769.84 2247.47 35.43 0.97681 0.76563 0.75269 0.77515 Of

759.82 2246.39 35.43 0.98316 0.76856 0.7561 0.78125 Of

770.06 2287.87 35.43 0.98609 0.77149 0.75879 0.78101 Of

771.46 2251.89 35.43 0.98267 0.76538 0.75269 0.7749 Of

771.46 2251.89 35.43 0.98267 0.76538 0.75269 0.7749 Of

768.33 2271.82 35.43 0.97998 0.76563 0.75269 0.77832 Of

753.04 2254.58 35.43 0.97705 0.76856 0.75 0.77515 Of

768.76 2276.13 35.43 0.98316 0.76856 0.75586 0.77808 Of

773.18 2285.93 35.43 0.98902 0.77149 0.75879 0.77783 Of

767.26 2266.97 35.43 0.98291 0.76563 0.75269 0.77515 Of

759.93 2287.01 35.43 0.97705 0.76563 0.75293 0.77808 Of

756.27 2278.71 35.43 0.98291 0.77173 0.75879 0.78101 Of

768.12 2260.94 35.43 0.98291 0.76831 0.75586 0.77808 Of


766.07 2241.12 35.43 0.97681 0.76563 0.75293 0.77515 Of

760.36 2245.96 35.43 0.97974 0.76856 0.75586 0.77515 Of

751.74 2269.88 35.43 0.98316 0.76856 0.7561 0.78125 Of

761.87 2274.94 35.43 0.98902 0.76831 0.75586 0.78101 Of

764.78 2234.11 35.43 0.98291 0.76538 0.75269 0.7749 Of

753.68 2223.02 35.43 0.97681 0.76245 0.75269 0.77832 Of

762.3 2264.82 35.43 0.98633 0.76856 0.75586 0.78101 Of

765.1 2264.06 35.43 0.98609 0.76831 0.75586 0.78101 Of

777.81 2269.99 35.43 0.97974 0.76563 0.75269 0.7749 Of

766.72 2259.21 35.43 0.97974 0.76563 0.75269 0.7749 Of

755.62 2274.51 35.43 0.97705 0.76563 0.75293 0.7749 Of

762.73 2259.97 35.43 0.98291 0.77173 0.75879 0.78101 Of

768.76 2275.59 35.43 0.98584 0.76831 0.75586 0.77808 Of

770.49 2266.65 35.43 0.97974 0.76563 0.75269 0.77515 Of

762.08 2289.81 35.43 0.98316 0.76563 0.75269 0.77832 Of

768.44 2285.18 35.43 0.98609 0.77149 0.75879 0.78101 Of

774.9 2277.74 35.43 0.98291 0.76831 0.75586 0.7749 Of

758.96 2260.51 35.43 0.97681 0.76563 0.75293 0.7749 Of

758.96 2260.51 35.43 0.97681 0.76563 0.75293 0.7749 Of


756.59 2256.95 35.43 0.97974 0.76245 0.74976 0.77515 Of

761.01 2279.04 35.43 0.98316 0.76856 0.75586 0.77808 Of

772.1 2263.42 35.43 0.98609 0.77149 0.75586 0.77783 Of

773.29 2262.55 35.55 0.97974 0.76538 0.75269 0.7749 Of

761.22 2248.33 35.55 0.9773 0.76856 0.7561 0.77515 Of

760.15 2265.25 35.43 0.98291 0.77173 0.75879 0.77832 Of

761.01 2293.8 35.55 0.98316 0.76831 0.75586 0.78101 Of

774.26 2271.39 35.55 0.98584 0.76831 0.75586 0.77808 Of

769.41 2266.76 35.55 0.97974 0.76563 0.75269 0.77515 Of

748.3 2242.73 35.55 0.97998 0.76856 0.7561 0.77832 Of

764.67 2226.68 35.55 0.98609 0.77149 0.75879 0.78101 Of

770.06 2272.79 35.55 0.98584 0.76831 0.75586 0.77808 Of

765.96 2263.31 35.55 0.97705 0.76563 0.75293 0.7749 Of

770.6 2261.58 35.55 0.97974 0.76563 0.75269 0.77515 Of

746.57 2251.67 35.55 0.98316 0.76856 0.75586 0.78125 Of

767.47 2258.68 35.55 0.98609 0.77149 0.75879 0.77808 Of

778.89 2255.66 35.55 0.97974 0.76538 0.75269 0.7749 Of

768.44 2268.37 35.55 0.97974 0.76563 0.75293 0.77515 Of

759.61 2251.57 35.55 0.97705 0.76856 0.75 0.77515 Of


759.07 2243.49 35.55 0.97998 0.76856 0.75586 0.78101 Of

775.98 2278.61 35.55 0.98609 0.77149 0.75879 0.77783 Of

775.77 2237.34 35.55 0.97974 0.76563 0.75269 0.77197 Of

765.32 2267.19 35.43 0.97998 0.76563 0.75293 0.77808 Of

765.32 2267.19 35.43 0.97998 0.76563 0.75293 0.77808 Of

754.22 2284.42 35.55 0.98291 0.77173 0.75879 0.7749 Of

761.55 2225.6 35.55 0.98609 0.76856 0.75879 0.78125 Of

763.49 2298.32 35.55 0.98584 0.76831 0.75562 0.77783 Of

768.76 2254.47 35.55 0.97974 0.76563 0.75269 0.7749 Of

768.76 2254.47 35.55 0.97974 0.76563 0.75269 0.7749 Of

760.47 2268.16 35.55 0.97998 0.76856 0.7561 0.77832 Of

742.59 2264.49 35.55 0.98291 0.77173 0.75879 0.78101 Of

766.93 2275.91 35.55 0.98609 0.76831 0.75586 0.77808 Of

770.27 2257.27 35.55 0.98609 0.76831 0.75586 0.77808 Of

767.69 2288.52 35.55 0.97974 0.76245 0.74976 0.77515 Of

760.79 2275.59 35.55 0.98023 0.76563 0.75269 0.78125 Of

760.79 2275.59 35.55 0.98023 0.76563 0.75269 0.78125 Of

762.41 2274.19 35.55 0.98609 0.77149 0.75879 0.78101 Of

768.33 2269.88 35.55 0.97974 0.76831 0.75586 0.7749 Of


767.58 2283.02 35.55 0.97705 0.76563 0.75293 0.7749 Of

757.78 2263.42 35.55 0.97681 0.76563 0.75293 0.77515 Of

760.36 2273 35.55 0.98316 0.76856 0.75586 0.78101 Of

760.15 2256.31 35.55 0.98609 0.77149 0.75879 0.78101 Of

770.81 2243.59 35.55 0.98291 0.76538 0.75269 0.7749 Of

768.33 2269.56 35.55 0.97998 0.76563 0.75586 0.77832 Of

752.17 2267.62 35.55 0.98609 0.77173 0.75293 0.77515 Of

758.96 2286.15 35.55 0.98316 0.76856 0.75586 0.78101 Of

766.29 2265.14 35.55 0.98609 0.76831 0.75586 0.77808 Of

775.01 2281.51 35.55 0.97974 0.76563 0.75269 0.77808 Of

772.32 2288.3 35.55 0.98291 0.76563 0.75269 0.77197 Of

759.82 2282.16 35.55 0.97998 0.76563 0.7561 0.77832 Of

763.38 2267.08 35.55 0.98633 0.76856 0.75879 0.78101 Of

769.41 2288.19 35.55 0.98291 0.76831 0.75586 0.7749 Of

770.7 2273.22 35.55 0.97974 0.76563 0.75269 0.77197 Of

761.65 2282.38 35.55 0.97974 0.76563 0.75269 0.77197 Of

762.52 2282.38 35.55 0.97998 0.76563 0.75293 0.77808 Of

763.49 2264.49 35.55 0.98609 0.77149 0.75879 0.78101 Of

772.53 2280.87 35.55 0.98584 0.76831 0.75586 0.7749 Of


774.58 2274.19 35.55 0.97998 0.76563 0.75269 0.77515 Of

752.39 2286.79 35.55 0.9834 0.76856 0.75586 0.77808 Of

767.58 2275.16 35.55 0.98609 0.76831 0.75586 0.78101 Of

760.79 2267.62 35.55 0.98291 0.76563 0.75269 0.7749 Of

763.16 2241.33 35.55 0.97705 0.76563 0.75293 0.77832 Of

763.16 2241.33 35.55 0.97705 0.76563 0.75293 0.77832 Of

765.96 2291.21 35.55 0.97998 0.76563 0.75293 0.7749 Of

759.18 2283.45 35.55 0.98316 0.77173 0.75903 0.78101 Of

770.7 2259 35.55 0.98902 0.76831 0.75586 0.77808 Of

775.77 2241.65 35.55 0.97974 0.76538 0.75269 0.7749 Of

765.86 2238.42 35.55 0.97974 0.76856 0.7561 0.77832 Of

758.85 2270.96 35.55 0.98926 0.77173 0.75879 0.77808 Of

769.95 2238.85 35.55 0.98609 0.76538 0.75879 0.78101 Of

779.43 2263.42 35.55 0.98609 0.76563 0.75879 0.77808 Of

779.43 2263.42 35.55 0.98609 0.76563 0.75269 0.77197 Of

776.2 2292.5 35.55 0.97998 0.76563 0.75269 0.77197 Of

766.61 2302.63 35.55 0.97998 0.76856 0.7561 0.77808 Of

766.72 2280.11 35.55 0.98609 0.77149 0.75879 0.77783 Of

781.48 2262.12 35.55 0.98609 0.76538 0.75269 0.77808 Of


769.73 2254.26 35.55 0.97998 0.76563 0.75293 0.77515 Of

759.18 2263.74 35.55 0.98633 0.76856 0.75586 0.77808 Of

775.98 2270.09 35.55 0.98609 0.77149 0.75879 0.77808 Of

770.6 2277.1 35.55 0.98609 0.76831 0.75586 0.77808 Of

773.5 2256.09 35.55 0.98291 0.76538 0.75269 0.7749 Of

772 2274.4 35.55 0.9834 0.76563 0.7561 0.7749 Of

760.9 2287.98 35.55 0.98609 0.77173 0.75879 0.78101 Of

773.29 2291.75 35.55 0.98609 0.76831 0.75586 0.77808 Of

770.27 2270.2 35.55 0.98584 0.76831 0.75586 0.77808 Of

760.79 2250.6 35.55 0.97974 0.76245 0.74976 0.7749 Of

761.44 2257.27 35.55 0.97998 0.76563 0.75293 0.77832 Of

762.08 2295.73 35.55 0.98609 0.77149 0.75879 0.78101 Of

775.01 2270.63 35.55 0.98609 0.76831 0.75586 0.7749 Of

776.31 2271.6 35.55 0.97705 0.76563 0.75293 0.77808 Of

764.24 2270.53 35.55 0.97974 0.76245 0.74976 0.77515 Of

762.3 2260.83 35.55 0.98316 0.76856 0.7561 0.78125 Of

764.56 2283.13 35.55 0.98902 0.76831 0.75586 0.77808 Of

766.29 2269.88 35.55 0.98291 0.76538 0.75269 0.7749 Of

766.29 2269.88 35.55 0.98291 0.76538 0.75269 0.7749 Of


766.29 2269.88 35.55 0.98291 0.76538 0.75269 0.7749 Of

766.82 2285.39 35.55 0.98609 0.76831 0.75586 0.77808 Of

768.23 2288.62 35.55 0.97998 0.76563 0.75293 0.77222 Of

771.89 2293.26 35.55 0.97974 0.76856 0.75269 0.77197 Of

755.94 2292.5 35.55 0.98316 0.76856 0.7561 0.77808 Of

774.58 2276.45 35.55 0.98609 0.77149 0.75879 0.77808 Of

774.58 2276.45 35.55 0.98609 0.77149 0.75879 0.77808 Of

771.67 2273 35.55 0.98291 0.76538 0.75269 0.7749 Of

757.67 2250.92 35.55 0.97705 0.76245 0.75269 0.77832 Of

759.18 2246.18 35.55 0.9834 0.76856 0.75879 0.77515 Of

752.71 2274.3 35.55 0.98316 0.76831 0.75586 0.77808 Of

765.75 2246.72 35.55 0.98902 0.76831 0.75586 0.78101 Of

770.16 2279.68 35.55 0.98291 0.76538 0.75269 0.7749 Of

756.59 2249.73 35.55 0.97705 0.76563 0.75293 0.77832 Of

755.94 2264.71 35.66 0.98633 0.76856 0.75586 0.78101 Of

768.33 2269.99 35.55 0.98609 0.76831 0.75586 0.77808 Of

768.33 2261.8 35.55 0.97974 0.76563 0.75269 0.77197 Of

759.71 2263.52 35.55 0.97998 0.76856 0.7561 0.77808 Of

767.9 2286.15 35.66 0.98902 0.77149 0.75879 0.77832 Of


761.22 2242.95 35.55 0.98633 0.77173 0.75879 0.78101 Of

776.09 2276.24 35.66 0.98267 0.76831 0.75586 0.77808 Of

776.09 2276.24 35.66 0.98267 0.76831 0.75586 0.77808 Of

766.93 2233.79 35.66 0.97974 0.76245 0.75269 0.77515 Of

763.27 2284.64 35.66 0.98633 0.76856 0.75586 0.78101 Of

776.74 2279.36 35.55 0.98902 0.77149 0.75879 0.78101 Of

769.63 2267.72 35.66 0.98609 0.76563 0.75586 0.78101 Of

772.32 2298.32 35.55 0.98609 0.76831 0.75586 0.7749 Of

755.08 2246.07 35.55 0.97998 0.76563 0.75293 0.77515 Of

750.99 2276.88 35.66 0.98316 0.76856 0.75586 0.78101 Of

776.41 2250.38 35.66 0.98902 0.76831 0.75879 0.78101 Of

781.26 2275.8 35.66 0.97974 0.76563 0.75269 0.7749 Of

761.33 2274.94 35.55 0.98023 0.76856 0.7561 0.77832 Of

764.35 2295.41 35.66 0.98609 0.77149 0.75879 0.78101 Of

765.86 2291.64 35.55 0.98609 0.76831 0.75586 0.78101 Of

771.24 2250.7 35.66 0.98584 0.76831 0.75586 0.77808 Of

762.84 2272.46 35.55 0.97974 0.76245 0.74976 0.77515 Of

754.87 2275.16 35.66 0.98657 0.76856 0.75586 0.77808 Of

768.01 2296.27 35.55 0.98609 0.77149 0.75879 0.77783 Of


771.67 2271.6 35.66 0.97974 0.76831 0.75269 0.77197 Of

769.95 2247.69 35.66 0.97705 0.76563 0.75293 0.7749 Of

761.12 2263.74 35.66 0.97998 0.76563 0.75293 0.77515 Of

760.47 2265.14 35.55 0.98316 0.76856 0.75586 0.77808 Of

768.33 2248.23 35.66 0.98609 0.77149 0.75855 0.78101 Of

781.58 2272.79 35.66 0.97974 0.76563 0.75586 0.77197 Of

760.36 2235.3 35.66 0.97998 0.76563 0.75293 0.77832 Of

750.23 2255.87 35.66 0.98609 0.76831 0.75586 0.78101 Of

755.41 2265.03 35.66 0.98633 0.76856 0.75879 0.78101 Of

769.3 2272.14 35.66 0.98291 0.76831 0.75586 0.77808 Of

765.64 2252.21 35.66 0.97681 0.76563 0.75269 0.7749 Of

765.96 2264.49 35.66 0.97998 0.76856 0.75903 0.77808 Of

757.34 2265.25 35.66 0.98609 0.77149 0.75879 0.78101 Of

766.39 2259 35.66 0.98267 0.76538 0.75269 0.78101 Of

775.66 2264.92 35.66 0.98609 0.76831 0.75586 0.77808 Of

765.32 2260.4 35.66 0.97705 0.76245 0.74976 0.77515 Of

760.58 2273.43 35.66 0.9834 0.76856 0.75586 0.77808 Of

768.12 2286.25 35.66 0.98609 0.76831 0.75586 0.78101 Of

778.24 2261.05 35.66 0.98291 0.76563 0.75269 0.7749 Of


761.76 2269.23 35.66 0.97998 0.76563 0.75293 0.77832 Of

761.12 2283.88 35.66 0.98633 0.77173 0.75879 0.78101 Of

762.84 2244.67 35.66 0.98609 0.76831 0.75586 0.78101 Of

770.06 2278.5 35.66 0.98609 0.76831 0.75586 0.77783 Of

778.03 2264.49 35.66 0.97974 0.76563 0.75269 0.77197 Of

764.02 2260.61 35.66 0.98316 0.76856 0.7561 0.77832 Of

764.02 2276.24 35.66 0.98902 0.77173 0.75879 0.78101 Of

775.66 2271.28 35.66 0.98609 0.76831 0.75586 0.77808 Of

775.77 2259.64 35.66 0.98609 0.76831 0.75586 0.77808 Of

775.77 2259.64 35.66 0.98609 0.76831 0.75586 0.77808 Of

767.79 2275.05 35.66 0.97974 0.76563 0.75269 0.77515 Of

752.17 2272.36 35.66 0.97998 0.76856 0.7561 0.7749 Of

759.61 2250.6 35.66 0.98609 0.77149 0.75879 0.78101 Of

759.61 2250.6 35.66 0.98609 0.77149 0.75879 0.78101 Of

762.62 2268.16 35.66 0.98584 0.76831 0.75586 0.7749 Of

764.13 2273 35.66 0.97681 0.76563 0.75293 0.77808 Of

768.33 2269.13 35.66 0.97681 0.76245 0.75269 0.7749 Of

749.26 2261.26 35.66 0.9834 0.76856 0.7561 0.77832 Of

764.45 2280.22 35.66 0.98609 0.76831 0.75586 0.78101 Of


777.81 2266.32 35.66 0.97974 0.76538 0.74976 0.7749 Of

774.69 2266.65 35.66 0.97974 0.76563 0.75269 0.77832 Of

762.3 2276.56 35.66 0.98633 0.76856 0.75586 0.77515 Of

759.93 2280.01 35.66 0.98316 0.76856 0.75586 0.78101 Of

768.23 2256.2 35.66 0.98584 0.76831 0.75586 0.78101 Of

774.15 2282.7 35.66 0.98291 0.76563 0.75269 0.77197 Of

774.15 2282.7 35.66 0.98291 0.76563 0.75269 0.77197 Of

762.52 2245.64 35.66 0.97998 0.76563 0.75293 0.77832 Of

761.22 2248.12 35.66 0.98609 0.77149 0.75879 0.78101 Of

772.64 2287.65 35.66 0.98609 0.76831 0.75586 0.77808 Of

767.9 2247.26 35.66 0.98584 0.76831 0.75586 0.77808 Of

771.67 2259.86 35.66 0.97681 0.76563 0.75269 0.77197 Of

761.44 2276.02 35.66 0.98316 0.76856 0.7561 0.77832 Of

769.52 2277.1 35.66 0.98609 0.77149 0.75879 0.77808 Of

775.44 2278.17 35.66 0.98267 0.76538 0.75269 0.7749 Of

778.89 2259.86 35.66 0.98609 0.76563 0.75586 0.77808 Of

762.84 2284.75 35.66 0.97705 0.76563 0.75293 0.77197 Of

763.49 2266.86 35.66 0.98291 0.76856 0.75586 0.78101 Of

766.07 2279.04 35.66 0.98584 0.76831 0.75879 0.78101 Of


777.38 2274.73 35.66 0.98291 0.76856 0.75586 0.7749 Of

772 2272.25 35.66 0.97705 0.76563 0.75293 0.77832 Of

757.24 2262.12 35.66 0.98316 0.76856 0.75586 0.7749 Of

767.58 2278.71 35.66 0.98633 0.77173 0.75879 0.78101 Of

776.52 2278.39 35.66 0.98609 0.77149 0.75879 0.77808 Of

776.41 2268.05 35.66 0.98291 0.76563 0.75269 0.77515 Of

768.33 2270.42 35.66 0.98316 0.76563 0.7561 0.77832 Of

756.7 2295.41 35.66 0.98633 0.77173 0.75879 0.77808 Of

765.32 2260.94 35.66 0.98291 0.76831 0.75586 0.78101 Of

774.47 2280.11 35.66 0.98584 0.76831 0.75586 0.77808 Of

770.27 2288.09 35.66 0.98291 0.76563 0.75269 0.77222 Of

763.49 2281.3 35.66 0.98316 0.76563 0.75586 0.77808 Of

767.69 2260.83 35.66 0.98609 0.77149 0.75855 0.78101 Of

766.18 2254.47 35.66 0.98291 0.76538 0.75586 0.7749 Of

767.26 2267.83 35.66 0.97705 0.76563 0.75293 0.77515 Of

755.19 2228.51 35.66 0.98609 0.76856 0.75586 0.78101 Of

766.82 2269.02 35.66 0.98584 0.76831 0.75855 0.78101 Of

760.25 2274.94 35.66 0.98609 0.76831 0.75586 0.78101 Of

772 2268.16 35.66 0.97974 0.76538 0.75269 0.77197 Of


769.41 2263.63 35.66 0.97974 0.76563 0.75586 0.77832 Of

758.42 2260.08 35.66 0.98609 0.77173 0.75879 0.77808 Of

766.18 2280.98 35.66 0.98633 0.76831 0.75879 0.77808 Of

780.61 2280.33 35.66 0.98609 0.77149 0.75879 0.77808 Of

780.61 2280.33 35.66 0.98609 0.77149 0.75879 0.77808 Of

774.26 2270.09 35.66 0.97974 0.76563 0.75269 0.77197 Of

762.41 2277.2 35.66 0.97998 0.76856 0.7561 0.77808 Of

766.29 2275.7 35.66 0.98609 0.77149 0.75879 0.78101 Of

782.66 2273 35.76 0.98584 0.76831 0.75586 0.77808 Of

758.96 2285.07 35.66 0.97998 0.76563 0.75293 0.77222 Of

761.12 2265.14 35.66 0.98316 0.76856 0.75586 0.78101 Of

762.19 2267.94 35.66 0.98609 0.77149 0.75879 0.77808 Of

784.17 2305.97 35.66 0.97974 0.76563 0.75269 0.77197 Of

772.86 2272.03 35.66 0.97974 0.76563 0.75269 0.77197 Of

756.59 2286.15 35.66 0.97998 0.76563 0.75293 0.77832 Of

766.07 2297.35 35.66 0.98633 0.77173 0.75879 0.77808 Of

768.01 2268.59 35.66 0.98609 0.76831 0.75586 0.77808 Of

774.47 2288.41 35.66 0.97974 0.76245 0.75269 0.7749 Of

763.7 2266.11 35.76 0.97998 0.76856 0.7561 0.77515 Of


759.18 2262.23 35.66 0.97998 0.77149 0.75293 0.77808 Of

771.46 2275.91 35.76 0.98609 0.77149 0.75879 0.78101 Of

772.1 2264.17 35.76 0.98609 0.76831 0.75586 0.77808 Of

764.35 2273.43 35.76 0.97705 0.76245 0.74976 0.77515 Of

755.94 2286.58 35.66 0.97998 0.76856 0.75586 0.77808 Of

754.44 2260.29 35.76 0.98609 0.77149 0.75879 0.78101 Of

777.06 2284.85 35.66 0.98267 0.76538 0.75269 0.7749 Of

763.59 2259 35.66 0.97705 0.76563 0.75293 0.7749 Of

769.95 2255.98 35.76 0.97998 0.76563 0.75293 0.77515 Of

757.67 2255.01 35.76 0.98316 0.76856 0.75879 0.78101 Of

761.01 2248.33 35.66 0.98609 0.76831 0.75562 0.77808 Of

761.01 2248.33 35.66 0.98609 0.76831 0.75562 0.77808 Of

772.32 2266.76 35.76 0.97974 0.76563 0.75269 0.77197 Of

762.3 2252.53 35.76 0.97998 0.76563 0.7561 0.77832 Of

764.67 2257.27 35.76 0.97705 0.77149 0.75293 0.77832 Of

767.47 2260.51 35.76 0.98291 0.76831 0.75586 0.78101 Of

778.24 2287.87 35.76 0.98584 0.76831 0.75586 0.77808 Of

773.94 2286.15 35.76 0.97681 0.76563 0.75293 0.77197 Of

763.81 2273.87 35.76 0.97998 0.76856 0.75586 0.77808 Of


771.24 2292.83 35.76 0.98609 0.77149 0.75879 0.77783 Of

776.63 2257.81 35.76 0.98609 0.76831 0.75586 0.7749 Of

769.84 2272.25 35.76 0.97705 0.76245 0.74976 0.77515 Of

756.7 2254.58 35.76 0.98316 0.76856 0.75586 0.77515 Of

764.99 2261.69 35.76 0.98316 0.76856 0.75586 0.78125 Of

769.95 2272.79 35.76 0.98609 0.76831 0.75586 0.77783 Of

779.43 2288.52 35.76 0.98291 0.76538 0.75269 0.77197 Of

768.98 2272.57 35.76 0.98023 0.76563 0.7561 0.77832 Of

754.54 2268.91 35.76 0.98633 0.77173 0.75879 0.78101 Of

772.64 2274.51 35.76 0.98609 0.76831 0.75586 0.77466 Of

766.93 2276.67 35.76 0.97681 0.76563 0.75269 0.77808 Of

754.44 2267.72 35.76 0.97974 0.76856 0.75269 0.77515 Of

761.76 2256.31 35.76 0.97998 0.76563 0.75269 0.77832 Of

754.54 2272.79 35.76 0.98609 0.77149 0.75879 0.78101 Of

771.89 2268.37 35.76 0.98291 0.76831 0.75586 0.77808 Of

769.95 2272.68 35.76 0.97705 0.76563 0.75293 0.77222 Of

755.84 2242.41 35.76 0.98316 0.76856 0.75586 0.78101 Of

756.59 2243.7 35.76 0.98584 0.76831 0.75562 0.78125 Of

764.24 2271.39 35.76 0.98609 0.76831 0.75586 0.78101 Of


772.75 2265.35 35.76 0.97974 0.76538 0.75269 0.7749 Of

763.81 2265.03 35.76 0.97705 0.76563 0.75293 0.7749 Of

748.08 2281.08 35.76 0.98633 0.76856 0.75879 0.77515 Of

762.52 2256.2 35.76 0.98316 0.76856 0.75586 0.78125 Of

770.92 2267.83 35.76 0.98902 0.77149 0.75879 0.78101 Of

770.38 2264.06 35.76 0.97974 0.76563 0.75269 0.7749 Of

754.97 2258.14 35.76 0.97998 0.76563 0.75293 0.77808 Of

762.08 2264.06 35.76 0.98609 0.76831 0.75586 0.78101 Of

778.46 2271.6 35.76 0.98584 0.76831 0.75586 0.7749 Of

772.32 2270.42 35.76 0.97974 0.76563 0.75293 0.77515 Of

760.25 2252.97 35.76 0.98316 0.76856 0.75586 0.77808 Of

765.96 2275.59 35.87 0.97998 0.76856 0.7561 0.77808 Of

765.21 2273 35.76 0.98609 0.77149 0.75879 0.78101 Of

777.27 2276.34 35.76 0.98267 0.76538 0.75269 0.77808 Of

773.4 2254.47 35.76 0.97974 0.76563 0.75293 0.7749 Of

766.07 2264.06 35.76 0.98633 0.77173 0.75293 0.77197 Of

764.89 2291.96 35.76 0.98316 0.76856 0.75586 0.77808 Of

769.09 2264.82 35.76 0.98609 0.77149 0.75879 0.78076 Of

770.38 2263.85 35.76 0.98291 0.76563 0.75269 0.7749 Of


757.67 2260.08 35.76 0.97705 0.76245 0.74976 0.77832 Of

757.88 2245.21 35.76 0.98609 0.76831 0.75586 0.78101 Of

761.65 2259.75 35.76 0.98316 0.76831 0.75879 0.78101 Of

780.4 2261.15 35.76 0.98609 0.77149 0.75879 0.77783 Of

778.68 2272.25 35.76 0.97974 0.76563 0.75269 0.77515 Of

766.72 2278.82 35.76 0.97998 0.76856 0.7561 0.7749 Of

758.75 2259 35.76 0.98926 0.76856 0.75879 0.78101 Of

770.7 2278.82 35.87 0.98584 0.76831 0.75244 0.78101 Of

778.46 2296.6 35.76 0.98609 0.76831 0.75586 0.77808 Of

775.98 2261.8 35.76 0.97974 0.76563 0.75293 0.77515 Of

754.44 2274.73 35.76 0.97998 0.76856 0.75586 0.77808 Of

767.58 2269.34 35.76 0.98609 0.77149 0.75879 0.78101 Of

767.58 2269.34 35.76 0.98609 0.77149 0.75879 0.78101 Of

769.84 2274.19 35.76 0.98291 0.76831 0.75586 0.7749 Of

770.06 2277.2 35.76 0.97705 0.76245 0.75293 0.77515 Of

769.09 2236.16 35.87 0.97681 0.76563 0.75269 0.77515 Of

763.7 2246.72 35.76 0.98316 0.76856 0.75879 0.77808 Of

766.39 2283.78 35.76 0.98609 0.76831 0.75586 0.78101 Of

781.8 2295.73 35.87 0.97974 0.76538 0.75269 0.77197 Of


767.58 2292.5 35.76 0.98023 0.76856 0.7561 0.77515 Of

763.7 2260.29 35.76 0.98633 0.77173 0.75879 0.78101 Of

764.13 2255.66 35.87 0.98291 0.76831 0.75586 0.78101 Of

770.81 2265.35 35.76 0.98902 0.76831 0.75562 0.78101 Of

770.49 2268.59 35.87 0.98291 0.76563 0.75269 0.77515 Of

749.48 2267.94 35.76 0.97998 0.76563 0.75293 0.78125 Of

769.52 2254.04 35.76 0.98609 0.77149 0.75879 0.78101 Of

773.83 2292.83 35.87 0.98609 0.76831 0.75586 0.7749 Of

763.05 2265.14 35.87 0.97705 0.76563 0.75 0.77515 Of

759.93 2262.12 35.87 0.98291 0.76856 0.75586 0.77515 Of

751.31 2279.79 35.87 0.98316 0.76856 0.75586 0.77808 Of

767.79 2272.68 35.76 0.98902 0.76831 0.75586 0.78101 Of

765.75 2262.12 35.87 0.97974 0.76538 0.75269 0.7749 Of

769.52 2275.48 35.87 0.97705 0.76563 0.75293 0.77515 Of

754.65 2251.13 35.87 0.98316 0.76856 0.75879 0.78101 Of

771.35 2282.81 35.87 0.98584 0.76831 0.75586 0.77808 Of

769.95 2259.97 35.87 0.98609 0.76245 0.75586 0.77808 Of

766.29 2266.54 35.87 0.97974 0.76563 0.75269 0.7749 Of

763.59 2265.89 35.87 0.97998 0.76563 0.75293 0.77808 Of


763.49 2259.97 35.87 0.98609 0.77149 0.75879 0.78101 Of

770.16 2246.39 35.87 0.98584 0.76831 0.75586 0.77808 Of

767.69 2275.7 35.87 0.97974 0.76245 0.75 0.77222 Of

763.38 2290.02 35.87 0.98316 0.76856 0.75586 0.77808 Of

775.77 2266.11 35.87 0.97998 0.77149 0.75879 0.77808 Of

775.77 2266.11 35.87 0.97998 0.77149 0.75879 0.77808 Of

754 2263.31 35.87 0.98609 0.77173 0.75879 0.78101 Of

762.95 2261.69 35.87 0.98291 0.76538 0.75269 0.77808 Of

762.08 2256.2 35.87 0.97681 0.76245 0.75269 0.7749 Of

754.22 2248.55 35.87 0.98316 0.76856 0.75586 0.78125 Of

761.44 2273 35.87 0.98902 0.76831 0.75586 0.77783 Of

769.52 2280.33 35.87 0.98291 0.76538 0.75269 0.78101 Of

777.49 2265.35 35.87 0.98291 0.76831 0.75586 0.7749 Of

758.75 2255.98 35.87 0.97998 0.76563 0.75293 0.77515 Of

758.1 2265.35 35.87 0.98291 0.76856 0.75586 0.77808 Of

765.86 2273.87 35.87 0.98584 0.76831 0.75586 0.77783 Of

769.41 2280.01 35.87 0.98291 0.76563 0.75269 0.77197 Of

775.77 2283.24 35.87 0.98291 0.76563 0.75269 0.7749 Of

761.76 2269.23 35.87 0.97998 0.76563 0.7561 0.7749 Of


764.24 2262.88 35.87 0.98633 0.77173 0.75879 0.77808 Of

775.66 2272.9 35.87 0.98584 0.76831 0.75586 0.77808 Of

775.66 2272.9 35.87 0.98584 0.76831 0.75586 0.77808 Of

768.98 2266 35.87 0.97974 0.76245 0.74976 0.77197 Of

772.43 2298.64 35.87 0.98633 0.76856 0.75586 0.77808 Of

764.02 2272.68 35.87 0.98902 0.77149 0.75879 0.77808 Of

770.06 2269.77 35.87 0.98609 0.77149 0.75879 0.77783 Of

773.61 2264.28 35.87 0.98584 0.76831 0.75586 0.77808 Of

759.71 2246.29 35.87 0.97681 0.76245 0.75 0.77515 Of

763.7 2273.76 35.87 0.98633 0.76856 0.75586 0.78101 Of

756.16 2266.54 35.87 0.98609 0.76831 0.75879 0.77783 Of

774.26 2271.06 35.87 0.97974 0.76563 0.75269 0.77808 Of

773.61 2270.42 35.87 0.98291 0.76538 0.75269 0.7749 Of

762.52 2265.46 35.87 0.97998 0.76563 0.75293 0.77832 Of

760.9 2286.15 35.87 0.98633 0.76856 0.75879 0.77808 Of

768.55 2280.22 35.87 0.98584 0.76831 0.75562 0.77808 Of

765.53 2268.26 35.87 0.98584 0.76245 0.75562 0.78101 Of

768.98 2264.71 35.87 0.97974 0.76563 0.75269 0.77197 Of

756.81 2278.93 35.87 0.97998 0.76563 0.75293 0.7749 Of


768.66 2305.21 35.87 0.98609 0.77173 0.75879 0.77808 Of

768.66 2305.21 35.87 0.98609 0.77173 0.75879 0.77808 Of

779.21 2288.19 35.87 0.98609 0.76831 0.75586 0.77808 Of

768.87 2276.45 35.87 0.97681 0.76245 0.75269 0.7749 Of

761.76 2276.99 35.87 0.98316 0.76563 0.75269 0.77808 Of

764.35 2280.44 35.87 0.98609 0.77149 0.75855 0.77783 Of

778.78 2279.79 35.87 0.98609 0.76831 0.75586 0.77197 Of

774.37 2259.64 35.87 0.98267 0.76831 0.75586 0.7749 Of

758.1 2274.51 35.87 0.97681 0.76245 0.75293 0.7749 Of

763.59 2287.12 35.87 0.98633 0.76856 0.75903 0.77808 Of

772.21 2277.74 35.87 0.98902 0.77149 0.75879 0.77783 Of

767.69 2241.44 35.87 0.97974 0.76538 0.75269 0.7749 Of

772.86 2250.7 35.87 0.98291 0.76563 0.75586 0.7749 Of

754.87 2236.91 35.87 0.97998 0.76563 0.75269 0.77832 Of

768.33 2283.13 35.87 0.98609 0.76856 0.75586 0.77808 Of

768.98 2285.93 35.87 0.98584 0.77149 0.75879 0.77783 Of

762.19 2290.89 35.87 0.98291 0.76563 0.75269 0.7749 Of

762.3 2263.74 35.87 0.98023 0.76563 0.75293 0.77808 Of

762.3 2263.74 35.87 0.98023 0.76563 0.75293 0.77808 Of


763.49 2269.13 35.87 0.97998 0.76563 0.7561 0.77832 Of

763.92 2287.55 35.87 0.98633 0.77173 0.75879 0.77808 Of

776.31 2288.95 35.87 0.98609 0.76831 0.75562 0.77808 Of

764.13 2271.71 35.87 0.97974 0.76245 0.74976 0.7749 Of

762.3 2269.99 35.87 0.98316 0.76856 0.75586 0.77832 Of

759.5 2260.51 35.87 0.98609 0.77149 0.75879 0.77808 Of

771.57 2272.46 35.87 0.98609 0.77149 0.75879 0.78076 Of

776.09 2254.15 35.87 0.98584 0.76831 0.75586 0.77808 Of

766.18 2277.74 35.87 0.97998 0.76563 0.75293 0.77515 Of

768.87 2270.53 35.87 0.98316 0.76856 0.75586 0.77808 Of

757.24 2278.93 35.87 0.98609 0.77149 0.75855 0.77783 Of

767.15 2261.26 35.87 0.98291 0.76538 0.75269 0.77197 Of

762.95 2263.85 35.87 0.97998 0.76563 0.75293 0.77832 Of

749.48 2257.49 35.87 0.98291 0.76563 0.75293 0.77832 Of

749.48 2257.49 35.87 0.98291 0.76563 0.75293 0.77832 Of

760.36 2261.48 35.87 0.98633 0.77173 0.75879 0.78101 Of

764.67 2270.31 35.87 0.98609 0.76831 0.75562 0.77783 Of

761.55 2262.88 35.87 0.97681 0.76245 0.75269 0.77197 Of

758.1 2254.8 35.87 0.98291 0.76856 0.75269 0.77515 Of


747.11 2237.67 35.87 0.97998 0.76563 0.75269 0.77808 Of

772.86 2269.13 35.87 0.98609 0.76831 0.75879 0.78101 Of

766.5 2240.25 35.87 0.98291 0.76831 0.75586 0.77808 Of

758.96 2266.32 35.87 0.97998 0.76563 0.75269 0.77222 Of

758.42 2239.39 35.87 0.98316 0.76856 0.75586 0.78125 Of

772.1 2297.24 35.87 0.98609 0.76831 0.75879 0.78076 Of

774.69 2257.49 35.87 0.98291 0.76538 0.75586 0.7749 Of

774.69 2257.49 35.87 0.98291 0.76538 0.75586 0.7749 Of

776.74 2261.69 35.87 0.98609 0.76831 0.75586 0.7749 Of

767.9 2279.57 35.87 0.97974 0.76245 0.75269 0.77222 Of

756.81 2264.39 35.87 0.98316 0.76856 0.75586 0.78101 Of

770.49 2256.74 35.87 0.98609 0.76831 0.75586 0.77808 Of

773.18 2269.02 35.87 0.98609 0.77149 0.75879 0.77783 Of

773.61 2277.2 35.87 0.98609 0.76831 0.75586 0.7749 Of

771.46 2282.27 35.87 0.97998 0.76563 0.75293 0.77515 Of

771.46 2282.27 35.87 0.97998 0.76563 0.75293 0.77515 Of

750.34 2273.87 35.87 0.98316 0.76856 0.75586 0.78101 Of

778.89 2281.73 35.87 0.98902 0.77149 0.75879 0.77783 Of

768.33 2277.53 35.87 0.97974 0.76563 0.75269 0.77222 Of


757.78 2269.56 35.87 0.97998 0.76563 0.75293 0.77832 Of

753.04 2275.7 35.87 0.98609 0.77149 0.75879 0.77832 Of

760.36 2277.74 35.87 0.98609 0.77173 0.75879 0.78101 Of

775.44 2272.9 35.97 0.98609 0.76831 0.75586 0.77808 Of

756.27 2249.95 35.87 0.97681 0.76245 0.74976 0.77515 Of

759.28 2266.86 35.87 0.97998 0.76856 0.7561 0.77197 Of

755.19 2233.47 35.87 0.98316 0.76563 0.75269 0.7815 Of

766.07 2283.67 35.97 0.98609 0.77149 0.75879 0.78101 Of

769.63 2228.3 35.97 0.98609 0.76831 0.75586 0.77808 Of

769.63 2228.3 35.97 0.98609 0.76831 0.75586 0.77808 Of

767.26 2283.02 35.87 0.97705 0.76563 0.75293 0.77515 Of

771.13 2279.68 35.97 0.98316 0.76856 0.75586 0.77808 Of

762.08 2276.67 35.97 0.98609 0.77149 0.75879 0.78101 Of

769.09 2257.49 35.87 0.98609 0.77149 0.75879 0.78101 Of

770.06 2270.63 35.97 0.98267 0.76538 0.75244 0.7749 Of

760.79 2264.06 35.97 0.98316 0.76563 0.75269 0.7749 Of

765.75 2262.45 35.97 0.98609 0.76856 0.75879 0.78101 Of

762.52 2260.29 35.87 0.98609 0.76831 0.75562 0.77808 Of

778.24 2273.87 35.97 0.98609 0.76538 0.75879 0.77783 Of


767.69 2259.64 35.97 0.98291 0.76538 0.75269 0.7749 Of

761.12 2271.82 35.87 0.97998 0.76563 0.75293 0.77832 Of

764.13 2282.16 35.97 0.98609 0.76831 0.75586 0.78101 Of

771.78 2283.78 35.97 0.98609 0.76831 0.75586 0.77808 Of

767.15 2256.74 35.97 0.97705 0.76245 0.74976 0.77515 Of

754.65 2275.05 35.97 0.98316 0.76563 0.75269 0.77808 Of

753.36 2278.82 35.97 0.98609 0.77149 0.75879 0.77832 Of

773.29 2288.41 35.87 0.98902 0.77173 0.75879 0.77808 Of

768.76 2266.65 35.97 0.98267 0.76538 0.75244 0.7749 Of

764.67 2268.16 35.97 0.97974 0.76245 0.75269 0.77515 Of

764.67 2268.16 35.97 0.97974 0.76245 0.75269 0.77515 Of

763.81 2267.19 35.97 0.98316 0.76856 0.75586 0.78101 Of

759.71 2255.55 35.87 0.97998 0.77149 0.7561 0.77808 Of

779.54 2272.25 35.97 0.98902 0.77149 0.75879 0.77808 Of

775.66 2286.9 35.97 0.98609 0.76831 0.75586 0.77197 Of

755.3 2283.45 35.87 0.97998 0.76563 0.75293 0.77515 Of

754 2253.07 35.97 0.98316 0.76856 0.75586 0.78101 Of

767.47 2226.46 35.97 0.98584 0.76831 0.75562 0.77808 Of

778.35 2262.88 35.97 0.97974 0.76563 0.75269 0.7749 Of


755.94 2277.53 35.97 0.97705 0.76563 0.75293 0.77808 Of

758.96 2279.57 35.97 0.98609 0.77149 0.75879 0.78076 Of

756.16 2263.95 35.97 0.98316 0.76856 0.75586 0.78101 Of

772.64 2266.97 35.97 0.98291 0.76831 0.75562 0.77808 Of

773.29 2269.56 35.97 0.97681 0.76245 0.75269 0.77197 Of

758.75 2257.81 35.97 0.98316 0.76856 0.7561 0.77808 Of

769.3 2264.49 35.97 0.98902 0.76831 0.75879 0.77783 Of

781.58 2303.38 35.97 0.98291 0.76538 0.75269 0.7749 Of

774.15 2287.98 35.97 0.97998 0.76563 0.75293 0.7749 Of

764.13 2272.68 35.97 0.97681 0.76245 0.75 0.77515 Of

751.74 2260.72 35.97 0.98291 0.76856 0.75586 0.77808 Of

768.12 2269.45 35.97 0.98902 0.76831 0.75879 0.77783 Of

777.81 2282.16 35.97 0.98291 0.76563 0.75269 0.7749 Of

779.54 2252.32 35.97 0.98291 0.76538 0.75269 0.7749 Of

762.08 2262.77 35.97 0.97998 0.76563 0.75293 0.77515 Of

753.04 2278.28 35.97 0.98633 0.76856 0.75879 0.78101 Of

772.64 2275.48 35.97 0.98584 0.76831 0.75586 0.77783 Of

783.74 2301.12 35.97 0.97974 0.76563 0.75269 0.77197 Of

768.33 2283.67 35.97 0.97974 0.76856 0.75269 0.77197 Of


762.62 2255.23 35.97 0.97998 0.76563 0.75293 0.77832 Of

759.5 2273.43 35.97 0.98609 0.76831 0.75586 0.78101 Of

771.03 2255.01 35.97 0.98584 0.76831 0.75586 0.77808 Of

770.16 2291.86 35.97 0.97998 0.76245 0.75269 0.77197 Of

770.16 2291.86 35.97 0.97998 0.76245 0.75269 0.77197 Of

762.84 2290.35 35.97 0.98316 0.76856 0.75586 0.77808 Of

760.58 2271.93 35.97 0.98609 0.77149 0.75879 0.77808 Of

768.87 2271.06 35.97 0.98926 0.77173 0.75879 0.78101 Of

773.07 2269.34 35.97 0.98291 0.76831 0.75586 0.7749 Of

770.92 2265.03 35.97 0.97681 0.76563 0.75269 0.7749 Of

764.13 2270.09 35.97 0.98316 0.76856 0.7561 0.77808 Of

760.68 2292.61 35.97 0.98023 0.77149 0.75586 0.77808 Of

778.46 2302.41 35.97 0.98609 0.76563 0.75879 0.77783 Of

780.51 2280.01 35.97 0.98291 0.76856 0.75586 0.7749 Of

759.93 2278.07 35.97 0.97705 0.76563 0.75293 0.77197 Of

762.73 2281.84 35.97 0.98291 0.76856 0.75586 0.78101 Of

770.49 2279.36 35.97 0.98609 0.77149 0.75855 0.77783 Of

777.06 2258.57 35.97 0.97974 0.76563 0.75269 0.78101 Of

773.72 2272.9 35.97 0.97974 0.76538 0.75269 0.77197 Of


759.18 2236.81 35.97 0.97705 0.76563 0.7561 0.7749 Of

765.86 2286.79 35.97 0.98609 0.77173 0.75879 0.77808 Of

770.06 2263.31 35.97 0.98267 0.76831 0.75562 0.7749 Of

773.94 2262.01 35.97 0.98609 0.76245 0.75562 0.77783 Of

771.24 2282.38 35.97 0.97974 0.76245 0.75293 0.77197 Of

757.13 2246.72 35.97 0.97998 0.76563 0.75269 0.77832 Of

768.33 2258.57 35.97 0.98291 0.77149 0.75879 0.78101 Of

775.23 2264.49 35.97 0.98267 0.76831 0.75586 0.77808 Of

779.64 2262.45 35.97 0.97974 0.76563 0.75269 0.77515 Of

764.89 2254.58 35.97 0.97681 0.76563 0.75269 0.77197 Of

752.28 2237.13 35.97 0.97998 0.76856 0.75586 0.78101 Of

763.27 2250.7 35.97 0.98291 0.77149 0.75879 0.78101 Of

778.57 2259.64 35.97 0.97949 0.76538 0.75269 0.7749 Of

779.54 2287.87 35.97 0.97974 0.76563 0.75293 0.77515 Of

773.18 2283.13 35.97 0.97705 0.77173 0.75293 0.77197 Of

755.84 2286.04 35.97 0.98316 0.76856 0.75586 0.77808 Of

775.77 2269.56 35.97 0.98584 0.76831 0.75562 0.77783 Of

777.06 2259.75 35.97 0.97974 0.76563 0.75269 0.7749 Of

761.65 2259 35.97 0.97974 0.76563 0.75293 0.7749 Of


763.7 2251.67 35.97 0.98609 0.76831 0.75586 0.78101 Of

763.27 2295.41 35.97 0.98584 0.76831 0.75586 0.77466 Of

776.09 2269.99 35.97 0.97705 0.76245 0.75269 0.77783 Of

774.26 2256.41 35.97 0.97681 0.76563 0.75269 0.77197 Of

754.44 2253.83 35.97 0.98316 0.76563 0.75586 0.77808 Of

766.61 2295.84 35.97 0.98609 0.76831 0.75879 0.78101 Of

772.32 2267.94 35.97 0.98267 0.76538 0.75269 0.7749 Of

777.71 2260.29 35.97 0.98584 0.76563 0.75586 0.7749 Of

769.19 2267.08 35.97 0.97681 0.76245 0.75 0.77197 Of

742.91 2257.27 35.97 0.98316 0.76856 0.75586 0.77808 Of

769.3 2276.13 35.97 0.98902 0.77149 0.75879 0.77466 Of

774.37 2274.3 35.97 0.98291 0.76563 0.75586 0.77197 Of

761.33 2284.32 35.97 0.97998 0.76563 0.75293 0.7749 Of

761.33 2284.32 35.97 0.97998 0.76563 0.75586 0.77466 Of

760.25 2289.38 35.97 0.98316 0.76856 0.75586 0.77466 Of

764.78 2294.12 35.97 0.98609 0.76831 0.75586 0.77808 Of

778.78 2286.25 35.97 0.98609 0.76831 0.75586 0.77466 Of

785.14 2274.4 35.97 0.98291 0.76221 0.74976 0.7688 Of

763.7 2279.68 35.97 0.97998 0.76856 0.7561 0.77808 Of


762.41 2237.34 35.97 0.98609 0.77173 0.75879 0.77515 Of

767.04 2261.91 35.97 0.98609 0.76831 0.75586 0.77783 Of

784.38 2292.07 35.97 0.98584 0.76831 0.75586 0.77173 Of

766.29 2275.16 35.97 0.97974 0.76563 0.75269 0.77197 Of

755.73 2273.33 35.97 0.9834 0.76856 0.75586 0.7749 Of

762.95 2263.95 35.97 0.98609 0.77149 0.75879 0.77783 Of

770.7 2267.4 35.97 0.98291 0.76831 0.75586 0.77197 Of

766.29 2266 35.97 0.97705 0.76563 0.75293 0.77515 Of

758.85 2283.56 35.97 0.98291 0.76856 0.75586 0.77808 Of

768.44 2241.65 35.97 0.98584 0.76831 0.75562 0.78101 Of

776.2 2277.53 35.97 0.98609 0.76831 0.75586 0.77808 Of

769.19 2263.09 35.97 0.97974 0.76538 0.75269 0.77197 Of

766.5 2265.25 35.97 0.97705 0.76563 0.7561 0.7749 Of

754.54 2255.98 35.97 0.98633 0.77173 0.75879 0.78101 Of

770.27 2268.59 36.08 0.98584 0.76538 0.75244 0.77808 Of

774.47 2240.36 35.97 0.98609 0.76245 0.75562 0.77808 Of

764.67 2268.59 36.08 0.97974 0.76245 0.75269 0.77197 Of

767.47 2288.62 35.97 0.97998 0.76563 0.75293 0.77808 Of

762.73 2257.6 36.08 0.98609 0.77149 0.75879 0.77783 Of


774.15 2275.8 35.97 0.98267 0.76831 0.75586 0.77808 Of

766.29 2264.06 36.08 0.97998 0.76563 0.75293 0.77515 Of

759.71 2291.21 35.97 0.98316 0.76856 0.75586 0.77808 Of

765.64 2290.89 36.08 0.98609 0.77149 0.75879 0.77783 Of

777.38 2272.9 36.08 0.97974 0.76563 0.75269 0.77197 Of

777.38 2272.9 36.08 0.97974 0.76563 0.75269 0.77197 Of

772.53 2274.08 35.97 0.97998 0.76563 0.75293 0.7749 Of

761.87 2272.03 36.08 0.97998 0.77149 0.75879 0.77808 Of

770.06 2251.57 36.08 0.98633 0.77173 0.75879 0.77808 Of

771.89 2278.07 36.08 0.98609 0.76831 0.75586 0.77783 Of

763.7 2284.21 36.08 0.97974 0.76245 0.74976 0.7749 Of

765.32 2257.81 36.08 0.98316 0.76563 0.7561 0.7749 Of

751.53 2279.36 36.08 0.97998 0.76563 0.75293 0.77515 Of

759.39 2248.87 36.08 0.98291 0.76856 0.75586 0.78101 Of

769.84 2261.15 36.08 0.98584 0.76831 0.75586 0.77808 Of

769.19 2247.79 36.08 0.97974 0.76245 0.74976 0.77515 Of

761.12 2280.87 36.08 0.98316 0.76856 0.75586 0.77808 Of

754.87 2258.68 36.08 0.98902 0.77149 0.75879 0.77832 Of

767.9 2255.87 36.08 0.98291 0.77173 0.75879 0.77783 Of


777.49 2272.03 36.08 0.98584 0.76831 0.75586 0.7749 Of

773.07 2276.02 36.08 0.97974 0.76563 0.75269 0.77515 Of

758.85 2267.94 36.08 0.97974 0.76563 0.75269 0.7749 Of

765.42 2278.28 36.08 0.98316 0.76563 0.75293 0.77832 Of

768.66 2264.06 36.08 0.98609 0.77149 0.75879 0.78101 Of

767.58 2247.69 36.08 0.98609 0.76831 0.75586 0.77808 Of

765.96 2262.66 36.08 0.97998 0.76563 0.75293 0.77515 Of

748.94 2253.83 36.08 0.98316 0.76856 0.75586 0.78101 Of

760.36 2282.91 36.08 0.98316 0.76856 0.7561 0.77808 Of

771.46 2293.15 36.08 0.98609 0.77149 0.75879 0.77808 Of

773.18 2276.13 36.08 0.98291 0.76538 0.75269 0.7749 Of

769.3 2256.63 36.08 0.97705 0.76563 0.75269 0.77832 Of

748.73 2274.4 36.08 0.98633 0.76856 0.75879 0.77808 Of

761.44 2267.19 36.08 0.98291 0.76831 0.75586 0.77808 Of

770.38 2258.03 36.08 0.98609 0.77149 0.75879 0.78101 Of

760.68 2271.5 36.08 0.97974 0.76563 0.75269 0.7749 Of

756.27 2257.06 36.08 0.97705 0.76563 0.75269 0.7749 Of

757.34 2252.32 36.08 0.98609 0.76831 0.75586 0.78101 Of

770.49 2258.78 36.08 0.98584 0.76831 0.75586 0.77808 Of


773.07 2267.4 36.08 0.97974 0.76245 0.75269 0.77197 Of

764.99 2292.39 36.08 0.98316 0.76856 0.75586 0.77808 Of

767.9 2279.57 36.08 0.98902 0.77149 0.75879 0.78101 Of

768.33 2276.67 36.08 0.98609 0.77149 0.75879 0.77783 Of

778.46 2276.02 36.08 0.98267 0.76538 0.75269 0.7749 Of

767.58 2280.01 36.08 0.97705 0.76563 0.75269 0.77515 Of

758.31 2270.42 36.08 0.98633 0.76856 0.75586 0.78101 Of

771.24 2281.08 36.08 0.98902 0.76831 0.75586 0.77808 Of

779.54 2264.71 36.08 0.97974 0.76563 0.75269 0.77197 Of

769.41 2269.34 36.08 0.98291 0.76856 0.75586 0.7749 Of

751.63 2262.34 36.08 0.97681 0.77173 0.75293 0.7749 Of

765.1 2270.09 36.08 0.98609 0.76856 0.75586 0.78101 Of

774.58 2269.45 36.08 0.98609 0.76831 0.75562 0.77808 Of

771.13 2264.82 36.08 0.97974 0.76563 0.75269 0.77515 Of

776.31 2300.26 36.08 0.9834 0.76856 0.75586 0.7749 Of

776.31 2300.26 36.08 0.9834 0.76856 0.75586 0.7749 Of

776.31 2300.26 36.08 0.9834 0.76856 0.75586 0.7749 Of

761.12 2259.86 36.08 0.97998 0.76563 0.7561 0.77808 Of

751.85 2237.13 36.08 0.98609 0.77173 0.75879 0.77808 Of


754.44 2260.72 36.08 0.98267 0.76831 0.75244 0.77466 Of

766.18 2258.24 36.08 0.98584 0.77149 0.75879 0.77783 Of

766.82 2271.39 36.08 0.97974 0.76563 0.75269 0.77808 Of

768.98 2246.5 36.08 0.98291 0.76538 0.75269 0.77808 Of

766.82 2293.15 36.08 0.97998 0.76563 0.75269 0.77808 Of

757.56 2263.52 36.08 0.98316 0.77173 0.75879 0.78101 Of

754.33 2257.71 36.08 0.97998 0.76831 0.75586 0.78101 Of

779.64 2284.96 36.08 0.98609 0.77149 0.75879 0.77783 Of

777.92 2281.62 36.08 0.98291 0.76563 0.75269 0.77197 Of

762.52 2287.65 36.08 0.97998 0.76563 0.75293 0.77515 Of

757.56 2282.38 36.08 0.98633 0.77149 0.75879 0.78101 Of

769.95 2262.34 36.08 0.98584 0.76831 0.75586 0.7749 Of

773.61 2260.72 36.08 0.97681 0.76245 0.75 0.77515 Of

773.61 2260.72 36.08 0.97681 0.76245 0.75 0.77515 Of

759.5 2265.03 36.08 0.98316 0.76856 0.75586 0.77808 Of

771.24 2270.09 36.08 0.98609 0.77149 0.75855 0.78101 Of

768.87 2277.2 36.18 0.98291 0.76563 0.75269 0.77808 Of

780.61 2261.26 36.18 0.97949 0.76538 0.75269 0.7749 Of

769.73 2285.18 36.18 0.97705 0.76563 0.75269 0.7749 Of


757.67 2264.49 36.18 0.98633 0.76856 0.75879 0.78101 Of

763.05 2271.5 36.08 0.98609 0.76831 0.75562 0.77783 Of

771.78 2275.7 36.18 0.98291 0.76245 0.75562 0.78076 Of

772.53 2260.72 36.18 0.97974 0.76538 0.75269 0.7749 Of

764.56 2280.01 36.08 0.97705 0.76563 0.75293 0.7749 Of

756.91 2279.04 36.08 0.98609 0.76831 0.75586 0.78101 Of

768.76 2259.21 36.18 0.98584 0.76831 0.75586 0.77808 Of

772.1 2304.57 36.18 0.97974 0.76563 0.75293 0.77197 Of

765.32 2266.76 36.18 0.98023 0.76563 0.75269 0.78125 Of

760.68 2267.29 36.18 0.98609 0.76831 0.75879 0.77783 Of

770.38 2270.63 36.18 0.98291 0.76831 0.75586 0.78101 Of

770.38 2270.63 36.18 0.98291 0.76831 0.75586 0.78101 Of

768.44 2268.48 36.18 0.98291 0.76831 0.75586 0.7749 Of

771.67 2270.42 36.18 0.97681 0.76563 0.75269 0.77197 Of

762.52 2274.3 36.18 0.98316 0.76856 0.7561 0.77832 Of

769.09 2276.13 36.18 0.98902 0.76831 0.75586 0.78101 Of

771.57 2279.47 36.18 0.98291 0.76538 0.75269 0.7749 Of

770.6 2258.78 36.18 0.97998 0.76563 0.75293 0.77832 Of

769.41 2274.83 36.18 0.97681 0.77173 0.75293 0.77222 Of


762.62 2252.21 36.18 0.98316 0.76856 0.75586 0.77808 Of

776.52 2260.72 36.18 0.98902 0.76831 0.75562 0.77783 Of

773.4 2267.94 36.18 0.98291 0.76538 0.75269 0.7749 Of

750.34 2262.12 36.18 0.97998 0.76563 0.75269 0.77832 Of

766.72 2272.25 36.18 0.98316 0.76831 0.75586 0.78101 Of

763.81 2280.54 36.18 0.98584 0.76831 0.75586 0.77808 Of

775.23 2265.68 36.18 0.97974 0.76245 0.75 0.77808 Of

775.55 2279.14 36.18 0.97974 0.76563 0.75269 0.7749 Of

759.5 2260.61 36.18 0.98316 0.76856 0.75586 0.77832 Of

765.64 2283.99 36.18 0.98609 0.77149 0.75879 0.78101 Of

777.49 2275.27 36.18 0.98609 0.76831 0.75244 0.7749 Of

769.52 2277.1 36.18 0.98584 0.76245 0.75562 0.77808 Of

755.94 2266.86 36.18 0.97974 0.76245 0.74976 0.77515 Of

765.42 2273.97 36.08 0.97974 0.76563 0.75269 0.77808 Of

766.5 2259.21 36.18 0.98609 0.76831 0.75562 0.78101 Of

774.8 2268.37 36.18 0.98291 0.76538 0.75586 0.7749 Of

766.5 2266.54 36.18 0.98023 0.76563 0.74976 0.77515 Of

750.45 2251.78 36.18 0.98316 0.76856 0.75586 0.77808 Of

761.12 2266.65 36.18 0.98609 0.76831 0.75562 0.77783 Of


772.75 2278.93 36.18 0.97974 0.76563 0.75269 0.77197 Of

766.93 2257.81 36.18 0.97974 0.76856 0.7561 0.7749 Of

763.7 2272.25 36.18 0.98316 0.76563 0.7561 0.77515 Of

752.5 2279.79 36.18 0.98633 0.76856 0.75586 0.78101 Of

761.65 2250.7 36.18 0.98267 0.76831 0.75586 0.77808 Of

761.33 2261.05 36.18 0.97681 0.76245 0.74976 0.77197 Of

757.67 2227.97 36.18 0.97998 0.76856 0.75269 0.77515 Of

750.13 2263.31 36.18 0.97998 0.76563 0.75293 0.77808 Of

755.19 2270.2 36.18 0.98609 0.76831 0.75586 0.78101 Of

755.19 2270.2 36.18 0.98609 0.76831 0.75586 0.78101 Of

766.82 2266.86 36.18 0.98316 0.77173 0.75879 0.77783 Of

767.26 2256.84 36.18 0.98609 0.76831 0.75586 0.77808 Of

771.78 2263.74 36.18 0.97681 0.76245 0.74976 0.7749 Of

767.58 2299.07 36.18 0.98316 0.76856 0.7561 0.77808 Of

760.25 2262.77 36.18 0.98609 0.76856 0.75879 0.78101 Of

770.7 2260.72 36.18 0.98291 0.76538 0.75269 0.7749 Of

764.35 2286.47 36.18 0.98609 0.76245 0.75562 0.77808 Of

765.42 2279.14 36.18 0.97974 0.76245 0.74976 0.77222 Of

758.21 2258.78 36.18 0.97998 0.76856 0.75586 0.77808 Of


768.98 2275.05 36.18 0.98584 0.76831 0.75586 0.78076 Of

774.9 2269.77 36.18 0.98291 0.76538 0.75269 0.77515 Of

771.78 2280.65 36.18 0.97998 0.76563 0.75293 0.7749 Of

761.44 2276.34 36.18 0.97705 0.76245 0.75269 0.77515 Of

752.71 2235.3 36.18 0.98316 0.76856 0.75586 0.78101 Of

767.69 2273.87 36.18 0.98584 0.76831 0.75562 0.77808 Of

776.41 2271.39 36.18 0.97974 0.76563 0.74976 0.77515 Of

764.13 2302.52 36.18 0.98316 0.76856 0.7561 0.77832 Of

762.62 2277.42 36.18 0.97998 0.77149 0.75293 0.77832 Of

769.41 2274.3 36.18 0.98291 0.76831 0.75879 0.78101 Of

771.13 2257.71 36.18 0.98584 0.76831 0.75562 0.77808 Of

770.27 2272.9 36.18 0.97974 0.76563 0.75293 0.77197 Of

760.79 2286.58 36.18 0.98316 0.76563 0.75269 0.77808 Of

775.01 2285.93 36.18 0.98609 0.77149 0.75879 0.77783 Of

772.53 2305.11 36.18 0.98609 0.76831 0.75586 0.7749 Of

766.07 2273.22 36.18 0.97705 0.76563 0.75293 0.77515 Of

750.34 2274.62 36.18 0.98316 0.76856 0.75586 0.78101 Of

756.48 2274.73 36.18 0.98584 0.76831 0.75586 0.78101 Of

770.7 2283.78 36.18 0.98609 0.76831 0.75586 0.77783 Of


770.7 2283.78 36.18 0.98609 0.76831 0.75586 0.77783 Of

774.26 2267.4 36.18 0.98267 0.76538 0.75269 0.7749 Of

773.18 2275.05 36.18 0.97998 0.76563 0.75293 0.77832 Of

760.68 2278.5 36.18 0.98633 0.76856 0.75879 0.77808 Of

770.27 2285.82 36.18 0.98267 0.76831 0.75562 0.78101 Of

770.81 2286.47 36.18 0.98584 0.76563 0.75879 0.77783 Of

770.81 2286.47 36.18 0.98584 0.76563 0.75879 0.77783 Of

770.49 2268.48 36.18 0.98291 0.76563 0.75269 0.7749 Of

760.25 2285.72 36.18 0.97998 0.76563 0.75293 0.7749 Of

766.18 2284.64 36.18 0.98609 0.77149 0.75879 0.78101 Of

776.63 2286.79 36.18 0.98609 0.76831 0.75879 0.77808 Of

760.58 2276.45 36.18 0.97998 0.76245 0.75 0.77197 Of

755.94 2256.74 36.18 0.98316 0.76856 0.75586 0.78125 Of

746.68 2256.74 36.18 0.98609 0.76831 0.75879 0.78101 Of

769.63 2257.49 36.18 0.98291 0.76538 0.75269 0.78101 Of

768.66 2277.74 36.18 0.98291 0.76538 0.75269 0.7749 Of

758.85 2269.56 36.18 0.97705 0.76563 0.75269 0.77515 Of

759.61 2267.08 36.18 0.98316 0.76856 0.75879 0.78101 Of

765.1 2266.97 36.18 0.98584 0.76831 0.75586 0.77808 Of


776.63 2255.23 36.18 0.97974 0.76563 0.74976 0.77783 Of

775.55 2270.96 36.18 0.98291 0.76538 0.75269 0.7749 Of

747.65 2270.85 36.18 0.9773 0.76563 0.75269 0.77515 Of

766.29 2272.46 36.18 0.98633 0.76856 0.75586 0.77808 Of

768.01 2280.44 36.18 0.98584 0.76831 0.75586 0.77808 Of

767.47 2274.08 36.18 0.97974 0.76245 0.75269 0.77197 Of

763.92 2263.52 36.18 0.97998 0.76856 0.75586 0.77808 Of

760.58 2269.45 36.18 0.98902 0.76831 0.75586 0.77808 Of

774.04 2285.18 36.28 0.98609 0.76831 0.75586 0.7749 Of

774.26 2273.87 36.18 0.97705 0.76563 0.75293 0.7749 Of

766.29 2266.32 36.18 0.97681 0.76245 0.75269 0.77515 Of

757.56 2252.43 36.18 0.98316 0.76856 0.75586 0.77808 Of

772.32 2297.14 36.18 0.98902 0.76831 0.75586 0.77783 Of

775.12 2280.11 36.28 0.98291 0.76221 0.75269 0.77197 Of

767.79 2266.54 36.18 0.97998 0.76563 0.75269 0.77832 Of

758.42 2262.34 36.18 0.98316 0.76856 0.75879 0.77832 Of

755.73 2258.89 36.18 0.98316 0.76856 0.75586 0.78101 Of

775.98 2288.52 36.18 0.98902 0.76831 0.75562 0.78101 Of

771.24 2279.57 36.18 0.97974 0.76563 0.75269 0.7749 Of


750.77 2266.76 36.18 0.98023 0.76563 0.75269 0.77832 Of

766.72 2280.87 36.28 0.98291 0.77149 0.75879 0.77808 Of

775.66 2260.18 36.28 0.98609 0.76831 0.75586 0.7749 Of

768.23 2257.06 36.18 0.97705 0.76563 0.75 0.77515 Of

764.13 2273.43 36.28 0.98291 0.76856 0.75586 0.78101 Of

763.81 2261.69 36.18 0.98902 0.77149 0.75879 0.77832 Of

767.79 2271.5 36.18 0.98609 0.77149 0.75879 0.78101 Of

767.79 2227.65 36.18 0.97974 0.76538 0.75269 0.7749 Of

763.49 2227.65 36.18 0.97974 0.76538 0.75269 0.7749 Of

772.53 2266.43 36.18 0.97705 0.76245 0.75269 0.77808 Of

764.99 2279.04 36.18 0.97681 0.76856 0.75293 0.77222 Of

764.99 2279.04 36.18 0.97681 0.76856 0.75293 0.77808 Of

767.15 2265.35 36.18 0.98316 0.76856 0.75586 0.77808 Of

774.69 2262.23 36.18 0.98902 0.77149 0.75879 0.77783 Of

772.97 2261.05 36.18 0.98609 0.76538 0.75269 0.7749 Of

759.82 2273.76 36.18 0.97998 0.76245 0.75293 0.77832 Of

750.45 2250.27 36.28 0.98633 0.76831 0.75586 0.78101 Of

764.02 2237.78 36.28 0.98609 0.76831 0.75586 0.77808 Of

771.89 2259.21 36.28 0.97974 0.76245 0.75269 0.77222 Of


761.01 2279.68 36.18 0.97998 0.76856 0.75586 0.77808 Of

764.13 2261.48 36.18 0.98609 0.77149 0.75879 0.77832 Of

760.58 2267.19 36.18 0.98633 0.77173 0.75879 0.78101 Of

769.09 2260.29 36.28 0.98291 0.76831 0.75244 0.7749 Of

771.46 2271.17 36.18 0.97705 0.76563 0.75269 0.77515 Of

758.1 2250.38 36.28 0.9834 0.76856 0.75586 0.78101 Of

758.64 2245.1 36.18 0.9834 0.76831 0.75586 0.77808 Of

779.43 2301.88 36.18 0.98291 0.77149 0.75879 0.77783 Of

769.63 2274.4 36.28 0.98291 0.76831 0.75586 0.7749 Of

769.63 2274.4 36.28 0.98291 0.76831 0.75586 0.7749 Of

759.18 2262.34 36.18 0.97705 0.76563 0.75293 0.77515 Of

756.91 2269.02 36.28 0.97998 0.76245 0.75269 0.77197 Of

761.87 2273.65 36.18 0.98633 0.76856 0.75586 0.78101 Of

761.44 2253.4 36.18 0.98609 0.76831 0.75586 0.77783 Of

770.27 2270.42 36.18 0.97974 0.76538 0.75269 0.7749 Of

757.02 2250.6 36.18 0.97998 0.76563 0.7561 0.77808 Of

749.48 2262.88 36.18 0.97998 0.77173 0.75293 0.77515 Of

759.71 2255.55 36.28 0.98316 0.76856 0.75586 0.78101 Of

765.53 2274.51 36.18 0.98609 0.76831 0.75562 0.77808 Of


767.04 2271.82 36.28 0.97974 0.76563 0.75269 0.77515 Of

758.75 2268.69 36.28 0.97705 0.76856 0.7561 0.77832 Of

765.64 2258.57 36.28 0.98609 0.77149 0.75879 0.78101 Of

772.32 2262.66 36.28 0.98267 0.76831 0.75586 0.77808 Of

767.69 2284.32 36.28 0.97998 0.76563 0.75293 0.7749 Of

767.69 2284.32 36.28 0.97998 0.76563 0.75293 0.7749 Of

763.81 2248.87 36.28 0.98316 0.76856 0.75586 0.78101 Of

759.93 2258.14 36.28 0.98609 0.76831 0.75562 0.77808 Of

764.99 2278.39 36.28 0.98609 0.76831 0.75586 0.78101 Of

771.78 2258.03 36.28 0.97974 0.76538 0.75269 0.7749 Of

765.64 2269.56 36.28 0.97974 0.76563 0.75293 0.77515 Of

759.93 2265.68 36.28 0.98633 0.76856 0.75879 0.78101 Of

768.12 2279.36 36.28 0.98609 0.76831 0.75586 0.77808 Of

776.74 2269.56 36.28 0.97974 0.76245 0.75269 0.78101 Of

761.87 2267.62 36.28 0.97974 0.76563 0.75269 0.77197 Of

757.78 2286.25 36.28 0.97998 0.76563 0.75293 0.77808 Of

769.52 2276.13 36.28 0.98609 0.76831 0.75586 0.78101 Of

772.32 2269.34 36.28 0.98291 0.76831 0.75586 0.77808 Of

772.86 2268.16 36.28 0.97705 0.76563 0.75269 0.77515 Of


758.53 2271.6 36.28 0.9834 0.76856 0.75586 0.77808 Of

765.75 2254.58 36.28 0.98609 0.77149 0.75879 0.78101 Of

766.93 2259.75 36.28 0.98291 0.76563 0.75269 0.7749 Of

768.55 2267.83 36.28 0.98609 0.76538 0.75244 0.7749 Of

765.64 2275.91 36.28 0.97998 0.76563 0.75293 0.77515 Of

746.25 2266.54 36.28 0.98316 0.76856 0.75903 0.78101 Of

760.25 2236.16 36.28 0.98584 0.76831 0.75586 0.77783 Of

760.25 2236.16 36.28 0.98584 0.76831 0.75586 0.77783 Of

777.49 2260.51 36.28 0.97974 0.76563 0.75269 0.77197 Of

763.16 2284.64 36.28 0.98291 0.76563 0.75269 0.77197 Of

756.16 2290.99 36.28 0.97998 0.76563 0.75269 0.77515 Of

750.77 2276.88 36.28 0.98316 0.76856 0.75586 0.77808 Of

772.32 2284.32 36.28 0.98609 0.76831 0.75586 0.77808 Of

774.58 2278.17 36.28 0.97974 0.76563 0.75269 0.77222 Of

764.67 2227.43 36.28 0.97998 0.76856 0.75586 0.77808 Of

762.84 2265.35 36.28 0.97998 0.76856 0.7561 0.77832 Of

749.59 2273.43 36.28 0.98609 0.77173 0.75879 0.78101 Of

772 2277.53 36.28 0.98609 0.76831 0.75586 0.7749 Of

767.15 2271.5 36.28 0.97681 0.76563 0.75269 0.77197 Of


759.61 2278.61 36.28 0.98316 0.76856 0.75586 0.77808 Of

770.38 2272.79 36.28 0.98023 0.77149 0.7561 0.77808 Of

775.23 2283.78 36.28 0.98609 0.77149 0.75879 0.77783 Of

766.61 2261.69 36.28 0.98267 0.76538 0.75586 0.7749 Of

770.81 2267.29 36.28 0.97705 0.76563 0.75293 0.77222 Of

760.36 2278.93 36.28 0.98316 0.76856 0.75586 0.77808 Of

768.44 2261.48 36.28 0.98584 0.76831 0.75562 0.77783 Of

778.57 2271.28 36.28 0.97974 0.76245 0.75269 0.78101 Of

760.79 2228.4 36.28 0.97974 0.76538 0.75269 0.7749 Of

761.87 2261.05 36.28 0.97705 0.76563 0.7561 0.77832 Of

757.99 2266.22 36.28 0.98609 0.77173 0.75879 0.78101 Of

768.76 2264.6 36.28 0.98584 0.76831 0.75586 0.77808 Of

784.92 2287.55 36.28 0.97974 0.76245 0.75269 0.77808 Of

767.58 2259.43 36.39 0.97974 0.76563 0.75269 0.77222 Of

767.26 2282.16 36.28 0.98023 0.76856 0.7561 0.77515 Of

770.27 2261.15 36.28 0.98291 0.77149 0.75879 0.78101 Of

778.89 2280.33 36.28 0.98584 0.76831 0.75586 0.77808 Of

767.36 2275.05 36.28 0.97998 0.76563 0.75293 0.77515 Of

769.3 2291.1 36.28 0.98633 0.76856 0.75586 0.77808 Of


770.81 2292.93 36.28 0.98609 0.77149 0.75879 0.77783 Of

774.58 2257.81 36.28 0.97974 0.76563 0.75269 0.7749 Of

761.44 2274.4 36.28 0.97998 0.76563 0.75293 0.77808 Of

761.44 2274.4 36.28 0.97998 0.76563 0.75293 0.77808 Of

749.26 2252.86 36.39 0.98291 0.77149 0.75879 0.7749 Of

764.13 2280.01 36.28 0.98609 0.77173 0.75879 0.78101 Of

764.99 2268.8 36.28 0.98609 0.76831 0.75562 0.77808 Of

770.6 2256.63 36.39 0.97681 0.76563 0.75269 0.77515 Of

757.24 2272.14 36.28 0.98023 0.76856 0.75586 0.77808 Of

757.56 2257.6 36.28 0.98609 0.77149 0.75879 0.78101 Of

765.86 2285.07 36.28 0.98291 0.76538 0.75586 0.78101 Of

765.21 2264.28 36.28 0.98584 0.76245 0.75586 0.77808 Of

761.01 2248.01 36.28 0.97705 0.76245 0.74976 0.77515 Of

766.5 2283.78 36.28 0.98316 0.76856 0.75586 0.77808 Of

772.75 2257.27 36.39 0.98609 0.77149 0.75879 0.77808 Of

766.18 2248.98 36.28 0.98291 0.76563 0.75586 0.7749 Of

765.75 2249.95 36.39 0.97705 0.76563 0.75293 0.7749 Of

765.75 2249.95 36.39 0.97705 0.76563 0.75293 0.7749 Of

753.36 2253.18 36.39 0.97705 0.76563 0.75269 0.77832 Of


757.88 2255.23 36.39 0.98316 0.76856 0.75879 0.78101 Of

765.1 2267.62 36.28 0.98609 0.76831 0.75586 0.77783 Of

765.1 2267.62 36.28 0.98609 0.76563 0.75879 0.77783 Of

769.52 2275.05 36.28 0.98902 0.76563 0.75879 0.77783 Of

766.39 2268.8 36.39 0.98291 0.76563 0.75269 0.7749 Of

749.26 2277.74 36.28 0.97998 0.76563 0.75293 0.77515 Of

767.58 2273.97 36.28 0.98316 0.76831 0.75586 0.78101 Of

771.35 2248.76 36.39 0.98584 0.76831 0.75562 0.77808 Of

771.35 2248.76 36.39 0.97974 0.76563 0.75269 0.77515 Of

773.18 2244.45 36.39 0.97974 0.76563 0.75269 0.77515 Of

768.66 2290.13 36.28 0.97998 0.76856 0.7561 0.77832 Of

756.38 2279.36 36.39 0.98291 0.77149 0.75879 0.78101 Of

756.7 2276.67 36.28 0.98926 0.76856 0.75586 0.78101 Of

774.9 2261.26 36.39 0.98609 0.76831 0.75586 0.77808 Of

774.26 2282.48 36.39 0.97974 0.76245 0.74976 0.7749 Of

757.13 2308.12 36.39 0.9834 0.76856 0.75903 0.7749 Of

764.24 2258.78 36.39 0.98609 0.76831 0.75293 0.77808 Of

771.89 2247.26 36.39 0.98609 0.77149 0.75879 0.78101 Of

775.44 2263.31 36.39 0.98609 0.76831 0.75586 0.7749 Of


768.33 2263.63 36.39 0.97998 0.76563 0.75269 0.77515 Of

751.85 2275.7 36.39 0.98316 0.76856 0.75586 0.78101 Of

759.18 2265.46 36.39 0.98584 0.76831 0.75562 0.78076 Of

759.18 2265.46 36.39 0.98584 0.76831 0.75562 0.78076 Of

772 2251.57 36.39 0.97974 0.76563 0.75269 0.77515 Of

764.02 2250.38 36.39 0.97974 0.76563 0.75293 0.77832 Of

759.61 2265.79 36.39 0.98609 0.76831 0.75586 0.78101 Of

774.04 2261.05 36.39 0.98633 0.77173 0.75879 0.78101 Of

771.24 2266.54 36.39 0.98291 0.76831 0.75562 0.77808 Of

767.04 2272.03 36.39 0.97974 0.76245 0.74976 0.77515 Of

761.44 2273.97 36.39 0.97998 0.76856 0.7561 0.77808 Of

763.49 2266.11 36.39 0.98902 0.76831 0.75879 0.78101 Of

778.68 2298.54 36.39 0.98584 0.76538 0.75244 0.7749 Of

772.64 2262.23 36.39 0.97998 0.76245 0.75269 0.77832 Of

756.38 2275.37 36.39 0.98316 0.76856 0.75 0.77515 Of

764.02 2280.22 36.39 0.97998 0.76856 0.75586 0.77808 Of

760.25 2287.65 36.39 0.98609 0.76831 0.75562 0.77783 Of

777.06 2272.68 36.39 0.98291 0.76563 0.75269 0.7749 Of

766.72 2285.18 36.39 0.97998 0.76563 0.75293 0.77515 Of


761.22 2267.19 36.39 0.98316 0.76831 0.75586 0.78101 Of

772.86 2272.57 36.39 0.98609 0.76831 0.75586 0.77808 Of

771.03 2271.06 36.39 0.97974 0.76563 0.75269 0.77808 Of

775.01 2267.19 36.39 0.97974 0.76221 0.75269 0.77197 Of

764.99 2257.38 36.39 0.97998 0.76563 0.7561 0.78125 Of

764.99 2257.38 36.39 0.97998 0.76563 0.7561 0.78125 Of

765.53 2259 36.39 0.98609 0.77173 0.75879 0.78101 Of

770.06 2274.83 36.39 0.98291 0.76831 0.75586 0.7749 Of

763.27 2280.33 36.39 0.97974 0.76245 0.75269 0.77197 Of

760.47 2270.42 36.39 0.98316 0.76856 0.75586 0.77222 Of

760.68 2277.42 36.39 0.98316 0.77149 0.7561 0.77832 Of

775.44 2295.63 36.39 0.98902 0.77149 0.75879 0.77808 Of

774.8 2259.43 36.39 0.98291 0.76831 0.75586 0.7749 Of

760.36 2259.32 36.39 0.97705 0.76563 0.75293 0.77832 Of

760.47 2267.62 36.39 0.98291 0.76856 0.75586 0.77808 Of

760.47 2267.62 36.39 0.98291 0.76856 0.75586 0.77808 Of

768.44 2271.17 36.39 0.98609 0.77149 0.75879 0.78101 Of

766.07 2255.44 36.39 0.97974 0.76563 0.75269 0.78101 Of

766.07 2255.44 36.39 0.97974 0.76563 0.75269 0.78101 Of


768.87 2281.73 36.39 0.98267 0.76538 0.75269 0.7749 Of

766.93 2265.35 36.39 0.97974 0.76563 0.75269 0.77515 Of

751.85 2264.49 36.39 0.98316 0.76856 0.75879 0.78101 Of

767.04 2268.26 36.39 0.98291 0.76831 0.75562 0.77808 Of

765.32 2272.25 36.39 0.97681 0.76563 0.74976 0.77197 Of

756.81 2269.34 36.39 0.97974 0.76856 0.75269 0.7749 Of

753.68 2240.79 36.39 0.97998 0.76563 0.75293 0.77832 Of

757.02 2258.14 36.39 0.98609 0.76831 0.75586 0.78101 Of

773.94 2248.33 36.39 0.98609 0.76831 0.75586 0.77808 Of

773.94 2248.33 36.39 0.98609 0.76831 0.75586 0.77808 Of

771.24 2267.4 36.39 0.97974 0.76245 0.75269 0.77197 Of

765.32 2252.21 36.39 0.9834 0.76563 0.75269 0.77808 Of

765.32 2279.14 36.39 0.97998 0.76563 0.7561 0.77832 Of

772.64 2279.14 36.39 0.97998 0.76563 0.7561 0.77832 Of

753.04 2274.08 36.39 0.98633 0.77173 0.75879 0.77808 Of

765.53 2286.69 36.39 0.98316 0.76831 0.75586 0.78101 Of

774.37 2269.66 36.39 0.98609 0.76831 0.75562 0.77808 Of

763.49 2245.64 36.39 0.97974 0.76563 0.75269 0.77515 Of

750.56 2259.86 36.39 0.97998 0.76563 0.75269 0.77832 Of


750.56 2259.86 36.39 0.97998 0.76563 0.75269 0.77832 Of

767.04 2276.02 36.39 0.98609 0.76831 0.75879 0.78076 Of

772 2265.35 36.39 0.98267 0.76538 0.75269 0.7749 Of

765.32 2278.39 36.39 0.97974 0.76245 0.75293 0.77515 Of

760.04 2268.48 36.39 0.98316 0.76856 0.75586 0.78101 Of

762.19 2276.67 36.39 0.98609 0.76831 0.75562 0.77808 Of

776.09 2267.19 36.39 0.97974 0.76563 0.75269 0.77808 Of

780.08 2288.52 36.39 0.98291 0.76538 0.75269 0.77197 Of

772.43 2284.1 36.39 0.97998 0.76856 0.7561 0.77832 Of

764.99 2298 36.39 0.98609 0.76856 0.75879 0.78101 Of

769.73 2270.85 36.39 0.98609 0.76831 0.75586 0.77808 Of

772.43 2273 36.39 0.97974 0.76245 0.74976 0.77515 Of

758.53 2257.38 36.39 0.98316 0.76856 0.7561 0.77808 Of

756.38 2278.28 36.39 0.97998 0.76563 0.75293 0.77808 Of

774.37 2287.76 36.39 0.98609 0.77149 0.75879 0.77783 Of

771.35 2292.72 36.39 0.98609 0.76831 0.75586 0.7749 Of

756.16 2247.9 36.39 0.97705 0.76245 0.75 0.77515 Of

757.67 2266.43 36.39 0.98316 0.76856 0.75586 0.78101 Of

764.45 2260.08 36.39 0.98584 0.77149 0.75879 0.77783 Of


772.97 2285.07 36.39 0.98291 0.76563 0.75269 0.7749 Of

769.19 2267.62 36.39 0.97998 0.76563 0.75293 0.7749 Of

757.24 2226.57 36.39 0.98633 0.77149 0.75879 0.77832 Of

764.24 2263.95 36.39 0.98316 0.76856 0.75879 0.77808 Of

774.04 2282.48 36.39 0.98291 0.76831 0.75586 0.77466 Of

779.43 2293.9 36.39 0.97974 0.76563 0.75269 0.77197 Of

769.09 2286.69 36.39 0.98316 0.76856 0.7561 0.77808 Of

771.89 2319.44 36.39 0.98609 0.77149 0.75879 0.7749 Of

775.44 2273 36.39 0.98633 0.77149 0.75879 0.78101 Of

785.35 2281.51 36.39 0.98584 0.76831 0.75586 0.77808 Of

763.59 2275.48 36.39 0.97974 0.76245 0.74976 0.7749 Of

753.04 2276.45 36.39 0.97998 0.76856 0.75586 0.77808 Of

773.07 2290.24 36.49 0.98609 0.76831 0.75855 0.77783 Of

778.68 2281.08 36.39 0.98291 0.76563 0.75269 0.7749 Of

765.96 2266 36.49 0.97998 0.76563 0.75293 0.77832 Of

761.12 2282.91 36.39 0.98316 0.76856 0.75586 0.78101 Of

761.33 2283.78 36.49 0.98633 0.76856 0.75586 0.78101 Of

781.26 2278.07 36.49 0.98902 0.76831 0.75586 0.77783 Of

771.13 2292.72 36.49 0.97974 0.76563 0.75269 0.77515 Of


767.04 2279.04 36.49 0.97998 0.76563 0.7561 0.77832 Of

754.54 2282.59 36.39 0.98609 0.76831 0.75879 0.77808 Of

764.99 2288.19 36.49 0.98267 0.76831 0.75244 0.78101 Of

764.99 2288.19 36.49 0.98267 0.76831 0.75244 0.78101 Of

778.14 2277.31 36.49 0.98584 0.76831 0.75586 0.77808 Of

766.72 2284.53 36.49 0.97974 0.76563 0.75269 0.77197 Of

753.68 2274.83 36.39 0.9834 0.76563 0.75269 0.77808 Of

761.98 2251.67 36.49 0.98609 0.77149 0.75879 0.78101 Of

766.18 2273 36.49 0.98291 0.76538 0.75586 0.7749 Of

760.68 2270.63 36.49 0.97705 0.76245 0.75 0.77515 Of

758.64 2267.29 36.49 0.98291 0.76856 0.75586 0.77515 Of

752.93 2279.36 36.49 0.9834 0.76856 0.75586 0.78101 Of

765.53 2280.54 36.49 0.98609 0.76831 0.75879 0.77808 Of

776.52 2267.19 36.49 0.97974 0.76538 0.75269 0.77197 Of

768.66 2255.23 36.49 0.97974 0.76563 0.7561 0.77832 Of

751.85 2286.69 36.49 0.97998 0.77173 0.75293 0.7749 Of

754.54 2296.81 36.49 0.98633 0.76856 0.75586 0.77808 Of

765.86 2250.6 36.49 0.98609 0.76831 0.75562 0.78101 Of

771.57 2272.36 36.49 0.97974 0.76563 0.75269 0.77197 Of


763.27 2243.49 36.49 0.97998 0.76856 0.75293 0.77832 Of

761.55 2267.19 36.49 0.98609 0.77149 0.75879 0.78101 Of

769.52 2283.24 36.49 0.98291 0.76831 0.75586 0.7749 Of

778.57 2267.94 36.49 0.97998 0.76245 0.75 0.77808 Of

757.02 2266.54 36.49 0.97681 0.76245 0.74976 0.77197 Of

760.25 2241.98 36.49 0.98316 0.76856 0.75586 0.78125 Of

767.47 2272.25 36.49 0.98609 0.76831 0.75586 0.77808 Of

779.86 2291.21 36.49 0.98291 0.76538 0.75269 0.7749 Of

777.6 2274.19 36.49 0.97998 0.76563 0.75293 0.7749 Of

761.98 2285.93 36.49 0.97705 0.76245 0.75 0.77222 Of

761.98 2285.93 36.49 0.97705 0.76245 0.75 0.77222 Of

762.73 2277.85 36.49 0.98316 0.76856 0.75586 0.78101 Of

94.48 57.02 0.04443 0.04443 0.04126 0.07617 Of 0

94.48 57.02 0.04443 0.04443 0.04126 0.07617 Of

94.48 57.02 0.04443 0.04443 0.04126 0.07617 Of

94.48 57.02 0.04443 0.04443 0.04126 0.07617 Of

94.48 57.02 0.04443 0.04443 0.04126 0.07617 Of

94.48 57.02 0.04443 0.04443 0.04126 0.07617 Of

94.48 57.02 0.04443 0.04443 0.04126 0.07617 Of


94.48 57.02 0.04443 0.04443 0.04126 0.07617 Of

94.48 57.02 0.04443 0.04443 0.04126 0.07617 Of

94.48 57.02 0.04443 0.04443 0.04126 0.07617 Of

94.48 57.02 0.04443 0.04443 0.04126 0.07617 Of

94.48 57.02 0.04443 0.04443 0.04126 0.07617 Of

94.48 57.02 0.04443 0.04443 0.04126 0.07617 Of

94.48 57.02 0.04443 0.04443 0.04126 0.07617 Of

94.48 57.02 0.04443 0.04443 0.04126 0.07617 Of

94.48 57.02 0.04443 0.04443 0.04126 0.07617 Of

94.48 57.02 0.04443 0.04443 0.04126 0.07617 Of

94.48 57.02 0.04443 0.04443 0.04126 0.07617 Of

94.48 57.02 0.04443 0.04443 0.04126 0.07617 Of

94.48 57.02 0.04443 0.04443 0.04126 0.07617 Of

94.48 57.02 0.04443 0.04443 0.04126 0.07617 Of

94.48 57.02 0.04443 0.04443 0.04126 0.07617 Of

94.48 57.02 0.04443 0.04443 0.04126 0.07617 Of

94.48 57.02 0.04443 0.04443 0.04126 0.07617 Of

94.48 57.02 0.04443 0.04443 0.04126 0.07617 Of

94.48 57.02 0.04443 0.04443 0.04126 0.07617 Of


94.48 57.02 0.04443 0.04443 0.04126 0.07617 Of

94.48 57.02 0.04443 0.04443 0.04126 0.07617 Of

94.48 57.02 0.04443 0.04443 0.04126 0.07617 Of

94.48 57.02 0.04443 0.04443 0.04126 0.07617 Of

94.48 57.02 0.04443 0.04443 0.04126 0.07617 Of

94.48 57.02 0.04443 0.04443 0.04126 0.07617 Of

94.48 57.02 0.04443 0.04443 0.04126 0.07617 Of

94.48 57.02 0.04443 0.04443 0.04126 0.07617 Of

94.48 57.02 0.04443 0.04443 0.04126 0.07617 Of

94.48 57.02 0.04443 0.04443 0.04126 0.07617 Of

94.48 57.02 0.04443 0.04443 0.04126 0.07617 Of

94.48 57.02 0.04443 0.04443 0.04126 0.07617 Of

94.48 57.02 0.04443 0.04443 0.04126 0.07617 Of

94.48 57.02 0.04443 0.04443 0.04126 0.07617 Of

94.48 57.02 0.04443 0.04443 0.04126 0.07617 Of

94.48 57.02 0.04443 0.04443 0.04126 0.07617 Of

94.48 57.02 0.04443 0.04443 0.04126 0.07617 Of

94.48 57.02 0.04443 0.04443 0.04126 0.07617 Of

94.48 57.13 0.04443 0.04443 0.04126 0.07617 Of


94.48 57.13 0.04443 0.04443 0.04126 0.07617 Of

94.48 57.13 0.04443 0.04443 0.04126 0.07617 Of

94.48 57.13 0.04443 0.04443 0.04126 0.07617 Of

94.48 57.13 0.04443 0.04443 0.04126 0.07617 Of

94.48 57.13 0.04443 0.04443 0.04126 0.07617 Of

94.48 57.13 0.04443 0.04443 0.04126 0.07617 Of

94.48 57.13 0.04443 0.04443 0.04126 0.07617 Of

94.48 57.13 0.04443 0.04443 0.04126 0.07617 Of

94.48 57.13 0.04443 0.04443 0.04126 0.07617 Of

94.48 57.13 0.04443 0.04443 0.04126 0.07617 Of

94.48 57.13 0.04443 0.04443 0.04126 0.07617 Of

94.48 57.13 0.04443 0.04443 0.04126 0.07617 Of

94.48 57.13 0.04443 0.04443 0.04126 0.07617 Of

94.48 57.13 0.04443 0.04443 0.04126 0.07617 Of

94.48 57.13 0.04443 0.04443 0.04126 0.07617 Of

94.48 57.13 0.04443 0.04443 0.04126 0.07617 Of

94.48 57.13 0.04443 0.04443 0.04126 0.07617 Of

94.48 57.13 0.04443 0.04443 0.04126 0.07617 Of

94.48 57.13 0.04443 0.04443 0.04126 0.07617 Of


94.48 57.13 0.04443 0.04443 0.04126 0.07617 Of

94.48 57.13 0.04443 0.04443 0.04126 0.07617 Of

94.48 57.13 0.04443 0.04443 0.04126 0.07617 Of

94.48 57.13 0.04443 0.04443 0.04126 0.07617 Of

94.48 57.13 0.04443 0.04443 0.04126 0.07617 Of

94.48 57.13 0.04443 0.04443 0.04126 0.07617 Of

94.48 57.13 0.04443 0.04443 0.04126 0.07617 Of

94.48 57.13 0.04443 0.04443 0.04126 0.07617 Of

94.16 57.13 0.04443 0.04443 0.04126 0.07617 Of

94.48 57.13 0.04443 0.04443 0.04126 0.07617 Of

94.48 57.13 0.04443 0.04443 0.04126 0.07617 Of

94.48 57.13 0.04443 0.04443 0.04126 0.07617 Of

94.48 57.13 0.04443 0.04443 0.04126 0.07617 Of

94.48 57.13 0.04443 0.04443 0.04126 0.07617 Of

94.48 57.13 0.04443 0.04443 0.04126 0.07617 Of

94.48 57.13 0.04443 0.04443 0.04126 0.07617 Of

94.48 57.13 0.04443 0.04443 0.04126 0.07617 Of

94.48 57.13 0.04443 0.04443 0.04126 0.07617 Of

94.48 57.13 0.04443 0.04443 0.04126 0.07617 Of


94.48 57.13 0.04443 0.04443 0.04126 0.07617 Of

94.48 57.13 0.04443 0.04443 0.04126 0.07617 Of

94.48 57.13 0.04443 0.04443 0.04126 0.07617 Of

94.48 57.13 0.04443 0.04443 0.04126 0.07617 Of

94.48 57.13 0.04443 0.04443 0.04126 0.07617 Of

94.48 57.13 0.04443 0.04443 0.04126 0.07617 Of

94.48 57.13 0.04443 0.04443 0.04126 0.07617 Of

94.48 57.13 0.04443 0.04443 0.04126 0.07617 Of

94.48 57.13 0.04443 0.04443 0.04126 0.07617 Of

94.48 57.13 0.04443 0.04443 0.04126 0.07617 Of

94.48 57.13 0.04443 0.04443 0.04126 0.07617 Of

94.48 57.13 0.04443 0.04443 0.04126 0.07617 Of

94.48 57.13 0.04443 0.04443 0.04126 0.07617 Of

94.48 57.13 0.04443 0.04443 0.04126 0.07617 Of

94.48 57.13 0.04443 0.04443 0.04126 0.07617 Of

94.48 57.13 0.04443 0.04443 0.04126 0.07617 Of

94.48 57.13 0.04443 0.04443 0.04126 0.07617 Of

94.48 57.13 0.04443 0.04443 0.04126 0.07617 Of

94.48 57.13 0.04443 0.04443 0.04126 0.07617 Of


94.48 57.13 0.04443 0.04443 0.04126 0.07617 Of

94.48 57.13 0.04443 0.04443 0.04126 0.07617 Of

94.48 57.13 0.04443 0.04443 0.04126 0.07617 Of

94.48 57.13 0.04443 0.04443 0.04126 0.07617 Of

94.48 57.13 0.04443 0.04443 0.04126 0.07617 Of

94.48 57.13 0.04443 0.04443 0.04126 0.07617 Of

94.48 57.13 0.04443 0.04443 0.04126 0.07617 Of

94.48 57.13 0.04443 0.04443 0.04126 0.07617 Of

94.48 57.13 0.04443 0.04443 0.04126 0.07617 Of

94.48 57.13 0.04443 0.04443 0.04126 0.07617 Of

94.48 57.13 0.04443 0.04443 0.04126 0.07617 Of

94.48 57.13 0.04443 0.04443 0.04126 0.07617 Of

94.48 57.13 0.04443 0.04443 0.04126 0.07617 Of

94.48 57.13 0.04443 0.04443 0.04126 0.07617 Of

94.48 57.13 0.04443 0.04443 0.04126 0.07617 Of

94.48 57.13 0.04443 0.04443 0.04126 0.07617 Of

94.48 57.13 0.04443 0.04443 0.04126 0.07617 Of

94.48 57.13 0.04443 0.04443 0.04126 0.07617 Of

94.48 57.13 0.04443 0.04443 0.04126 0.07617 Of


94.48 57.13 0.04443 0.04443 0.04126 0.07617 Of

93.19 57.13 0.04443 0.04443 0.04126 0.07617 Of

94.48 57.13 0.04443 0.04443 0.04126 0.07617 Of

94.48 57.13 0.04443 0.04443 0.04126 0.07617 Of

94.48 57.13 0.04443 0.04443 0.04126 0.07617 Of

94.48 57.13 0.04443 0.04443 0.04126 0.07617 Of

94.48 57.24 0.04443 0.04443 0.04126 0.07617 Of

94.48 57.13 0.04443 0.04443 0.04126 0.07617 Of

94.48 57.24 0.04443 0.04443 0.04126 0.07617 Of

94.48 57.13 0.04443 0.04443 0.04126 0.07617 Of

94.48 57.24 0.04443 0.04443 0.04126 0.07617 Of

94.48 57.24 0.04443 0.04443 0.04126 0.07617 Of

94.48 57.24 0.04443 0.04443 0.04126 0.07617 Of

94.48 57.24 0.04443 0.04443 0.04126 0.07617 Of

94.48 57.24 0.04443 0.04443 0.04126 0.07617 Of

94.48 57.24 0.04443 0.04443 0.04126 0.07617 Of

94.48 57.24 0.04443 0.04443 0.04126 0.07617 Of

94.48 57.24 0.04443 0.04443 0.04126 0.07617 Of

94.48 57.24 0.04443 0.04443 0.04126 0.07617 Of


94.48 57.24 0.04443 0.04443 0.04126 0.07617 Of

94.48 57.24 0.04443 0.04443 0.04126 0.07617 Of

94.48 57.24 0.04443 0.04443 0.04126 0.07617 Of

94.48 57.24 0.04443 0.04443 0.04126 0.07617 Of

94.48 57.24 0.04443 0.04443 0.04126 0.07617 Of

94.48 57.24 0.04443 0.04443 0.04126 0.07617 Of

94.48 57.24 0.04443 0.04443 0.04126 0.07617 Of

94.48 57.24 0.04443 0.04443 0.04126 0.07617 Of

94.48 57.24 0.04443 0.04443 0.04126 0.07617 Of

94.48 57.24 0.04443 0.04443 0.04126 0.07617 Of

94.48 57.24 0.04443 0.04443 0.04126 0.07617 Of

94.48 57.24 0.04443 0.04443 0.04126 0.07617 Of

94.48 57.24 0.04443 0.04443 0.04126 0.07617 Of

94.48 57.24 0.04443 0.04443 0.04126 0.07617 Of

94.48 57.24 0.04443 0.04443 0.04126 0.07617 Of

94.48 57.24 0.04443 0.04443 0.04126 0.07617 Of

94.48 57.24 0.04443 0.04443 0.04126 0.07617 Of

94.48 57.24 0.04443 0.04443 0.04126 0.07617 Of

94.48 57.24 0.04443 0.04443 0.04126 0.07617 Of


94.48 57.24 0.04443 0.04443 0.04126 0.07617 Of

94.48 57.24 0.04443 0.04443 0.04126 0.07617 Of

94.48 57.24 0.04443 0.04443 0.04126 0.07617 Of

94.48 57.24 0.04443 0.04443 0.04126 0.07617 Of

94.48 57.24 0.04443 0.04443 0.04126 0.07617 Of

94.48 57.24 0.04443 0.04443 0.04126 0.07617 Of

94.48 57.24 0.04443 0.04443 0.04126 0.07617 Of

94.48 57.24 0.04443 0.04443 0.04126 0.07617 Of

94.48 57.24 0.04443 0.04443 0.04126 0.07617 Of

94.48 57.24 0.04443 0.04443 0.04126 0.07617 Of

94.48 57.24 0.04443 0.04443 0.04126 0.07617 Of

94.48 57.24 0.04443 0.04443 0.04126 0.07617 Of

94.48 57.24 0.04443 0.04443 0.04126 0.07617 Of

94.48 57.24 0.04443 0.04443 0.04126 0.07617 Of

94.48 57.24 0.04443 0.04443 0.04126 0.07617 Of

94.48 57.24 0.04443 0.04443 0.04126 0.07617 Of

94.48 57.24 0.04443 0.04443 0.04126 0.07617 Of

94.48 57.24 0.04443 0.04443 0.04126 0.07617 Of

94.48 57.24 0.04443 0.04443 0.04126 0.07617 Of


94.48 57.24 0.04443 0.04443 0.04126 0.07617 Of

94.48 57.24 0.04443 0.04443 0.04126 0.07617 Of

94.48 57.24 0.04443 0.04443 0.04126 0.07617 Of

94.48 57.24 0.04443 0.04443 0.04126 0.07617 Of

94.48 57.24 0.04443 0.04443 0.04126 0.07617 Of

94.48 57.24 0.04443 0.04443 0.04126 0.07617 Of

94.48 57.24 0.04443 0.04443 0.04126 0.07617 Of

94.48 57.24 0.04443 0.04443 0.04126 0.07617 Of

94.48 57.24 0.04443 0.04443 0.04126 0.07617 Of

94.48 57.24 0.04443 0.04443 0.04126 0.07617 Of

94.48 57.24 0.04443 0.04443 0.04126 0.07617 Of

94.48 57.24 0.04443 0.04443 0.04126 0.07617 Of

94.48 57.24 0.04443 0.04443 0.04126 0.07617 Of

94.48 57.24 0.04443 0.04443 0.04126 0.07617 Of

94.48 57.24 0.04443 0.04443 0.04126 0.07617 Of

94.48 57.24 0.04443 0.04443 0.04126 0.07617 Of

94.48 57.24 0.04443 0.04443 0.04126 0.07617 Of

94.37 57.24 0.04443 0.04443 0.04126 0.07617 Of

94.48 57.24 0.04443 0.04443 0.04126 0.07617 Of


94.48 57.24 0.04443 0.04443 0.04126 0.07617 Of

94.48 57.24 0.04443 0.04443 0.04126 0.07617 Of

94.48 57.24 0.04443 0.04443 0.04126 0.07617 Of

94.48 57.24 0.04443 0.04443 0.04126 0.07617 Of

94.48 57.24 0.04443 0.04443 0.04126 0.07617 Of

94.48 57.24 0.04443 0.04443 0.04126 0.07617 Of

94.48 57.24 0.04443 0.04443 0.04126 0.07617 Of

94.48 57.24 0.04443 0.04443 0.04126 0.07617 Of

94.48 57.24 0.04443 0.04443 0.04126 0.07617 Of

94.48 57.24 0.04443 0.04443 0.04126 0.07617 Of

94.48 57.24 0.04443 0.04443 0.04126 0.07617 Of

94.48 57.24 0.04443 0.04443 0.04126 0.07617 Of

94.48 57.24 0.04443 0.04443 0.04126 0.07617 Of

94.48 57.24 0.04443 0.04443 0.04126 0.07617 Of

94.16 57.24 0.04443 0.04443 0.04126 0.07617 Of

94.48 57.24 0.04443 0.04443 0.04126 0.07617 Of

94.48 57.24 0.04443 0.04443 0.04126 0.07617 Of

94.48 57.24 0.04443 0.04443 0.04126 0.07617 Of

94.48 57.24 0.04443 0.04443 0.04126 0.07617 Of


94.48 57.24 0.04443 0.04443 0.04126 0.07617 Of

94.48 57.24 0.04443 0.04443 0.04126 0.07617 Of

94.48 57.24 0.04443 0.04443 0.04126 0.07617 Of

94.48 57.24 0.04443 0.04443 0.04126 0.07617 Of

94.48 57.24 0.04443 0.04443 0.04126 0.07617 Of

94.48 57.24 0.04443 0.04443 0.04126 0.07617 Of

94.48 57.24 0.04443 0.04443 0.04126 0.07617 Of

94.48 57.24 0.04443 0.04443 0.04126 0.07617 Of

94.48 57.24 0.04443 0.04443 0.04126 0.07617 Of

94.48 57.24 0.04443 0.04443 0.04126 0.07617 Of

94.48 57.24 0.04443 0.04443 0.04126 0.07617 Of

94.48 57.24 0.04443 0.04443 0.04126 0.07617 Of

94.48 57.24 0.04443 0.04443 0.04126 0.07617 Of

94.48 57.34 0.04443 0.04443 0.04126 0.07617 Of

94.48 57.24 0.04443 0.04443 0.04126 0.07617 Of

94.48 57.34 0.04443 0.04443 0.04126 0.07617 Of

94.48 57.34 0.04443 0.04443 0.04126 0.07617 Of

94.48 57.34 0.04443 0.04443 0.04126 0.07617 Of

94.48 57.34 0.04443 0.04443 0.04126 0.07617 Of


94.48 57.34 0.04443 0.04443 0.04126 0.07617 Of

94.48 57.34 0.04443 0.04443 0.04126 0.07617 Of

94.48 57.34 0.04443 0.04443 0.04126 0.07617 Of

94.48 57.34 0.04443 0.04443 0.04126 0.07617 Of

94.48 57.34 0.04443 0.04443 0.04126 0.07617 Of

94.48 57.34 0.04443 0.04443 0.04126 0.07617 Of

94.48 57.34 0.04443 0.04443 0.04126 0.07617 Of

94.48 57.34 0.04443 0.04443 0.04126 0.07617 Of

94.48 57.34 0.04443 0.04443 0.04126 0.07617 Of

94.48 57.34 0.04443 0.04443 0.04126 0.07617 Of

94.48 57.34 0.04443 0.04443 0.04126 0.07617 Of

94.48 57.34 0.04443 0.04443 0.04126 0.07617 Of

94.48 57.34 0.04443 0.04443 0.04126 0.07617 Of

94.48 57.34 0.04443 0.04443 0.04126 0.07617 Of

94.48 57.34 0.04443 0.04443 0.04126 0.07617 Of

94.48 57.34 0.04443 0.04443 0.04126 0.07617 Of

94.48 57.34 0.04443 0.04443 0.04126 0.07617 Of

94.48 57.34 0.04443 0.04443 0.04126 0.07617 Of

94.48 57.34 0.04443 0.04443 0.04126 0.07617 Of


94.48 57.34 0.04443 0.04443 0.04126 0.07617 Of

94.48 57.34 0.04443 0.04443 0.04126 0.07617 Of

94.48 57.34 0.04443 0.04443 0.04126 0.07617 Of

94.48 57.34 0.04443 0.04443 0.04126 0.07617 Of

94.48 57.34 0.04443 0.04443 0.04126 0.07617 Of

94.48 57.34 0.04443 0.04443 0.04126 0.07617 Of

94.48 57.34 0.04443 0.04443 0.04126 0.07617 Of

94.48 57.34 0.04443 0.04443 0.04126 0.07617 Of

94.48 57.34 0.04443 0.04443 0.04126 0.07617 Of

94.48 57.34 0.04443 0.04443 0.04126 0.07617 Of

94.48 57.34 0.04443 0.04443 0.04126 0.07617 Of

94.48 57.34 0.04443 0.04443 0.04126 0.07617 Of

94.48 57.34 0.04443 0.04443 0.04126 0.07617 Of

94.48 57.34 0.04443 0.04443 0.04126 0.07617 Of

94.48 57.34 0.04443 0.04443 0.04126 0.07617 Of

94.48 57.34 0.04443 0.04443 0.04126 0.07617 Of

94.48 57.34 0.04443 0.04443 0.04126 0.07617 Of

94.48 57.34 0.04443 0.04443 0.04126 0.07617 Of

94.48 57.34 0.04443 0.04443 0.04126 0.07617 Of


94.48 57.34 0.04443 0.04443 0.04126 0.07617 Of

94.48 57.34 0.04443 0.04443 0.04126 0.07617 Of

94.48 57.34 0.04443 0.04443 0.04126 0.07617 Of

94.48 57.34 0.04443 0.04443 0.04126 0.07617 Of

94.48 57.34 0.04443 0.04443 0.04126 0.07617 Of

94.48 57.34 0.04443 0.04443 0.04126 0.07617 Of

94.48 57.34 0.04443 0.04443 0.04126 0.07617 Of

94.48 57.34 0.04443 0.04443 0.04126 0.07617 Of

94.48 57.34 0.04443 0.04443 0.04126 0.07617 Of

94.48 57.34 0.04443 0.04443 0.04126 0.07617 Of

94.48 57.34 0.04443 0.04443 0.04126 0.07617 Of

94.48 57.34 0.04443 0.04443 0.04126 0.07617 Of

94.48 57.34 0.04443 0.04443 0.04126 0.07617 Of

94.48 57.34 0.04443 0.04443 0.04126 0.07617 Of

94.48 57.34 0.04443 0.04443 0.04126 0.07617 Of

94.48 57.34 0.04443 0.04443 0.04126 0.07617 Of

94.48 57.34 0.04443 0.04443 0.04126 0.07617 Of

94.48 57.34 0.04443 0.04443 0.04126 0.07617 Of

94.48 57.34 0.04443 0.04443 0.04126 0.07617 Of


94.48 57.34 0.04443 0.04443 0.04126 0.07617 Of

94.48 57.34 0.04443 0.04443 0.04126 0.07617 Of

94.48 57.34 0.04443 0.04443 0.04126 0.07617 Of

94.48 57.34 0.04443 0.04443 0.04126 0.07617 Of

94.48 57.34 0.04443 0.04443 0.04126 0.07617 Of

94.48 57.34 0.04443 0.04443 0.04126 0.07617 Of

94.48 57.34 0.04443 0.04443 0.04126 0.07617 Of

94.48 57.34 0.04443 0.04443 0.04126 0.07617 Of

94.48 57.34 0.04443 0.04443 0.04126 0.07617 Of

94.48 57.34 0.04443 0.04443 0.04126 0.07617 Of

94.48 57.34 0.04443 0.04443 0.04126 0.07617 Of

94.48 57.34 0.04443 0.04443 0.04126 0.07617 Of

94.48 57.34 0.04443 0.04443 0.04126 0.07617 Of

94.48 57.34 0.04443 0.04443 0.04126 0.07617 Of

94.48 57.34 0.04443 0.04443 0.04126 0.07617 Of

94.48 57.34 0.04443 0.04443 0.04126 0.07617 Of

94.48 57.34 0.04443 0.04443 0.04126 0.07617 Of

94.48 57.34 0.04443 0.04443 0.04126 0.07617 Of

94.48 57.34 0.04443 0.04443 0.04126 0.07617 Of


94.48 57.34 0.04443 0.04443 0.04126 0.07617 Of

94.48 57.34 0.04443 0.04443 0.04126 0.07617 Of

94.48 57.34 0.04443 0.04443 0.04126 0.07617 Of

94.48 57.34 0.04443 0.04443 0.04126 0.07617 Of

94.48 57.34 0.04443 0.04443 0.04126 0.07617 Of

94.48 57.34 0.04443 0.04443 0.04126 0.07617 Of

94.48 57.34 0.04443 0.04443 0.04126 0.07617 Of

94.48 57.34 0.04443 0.04443 0.04126 0.07617 Of

94.48 57.34 0.04443 0.04443 0.04126 0.07617 Of

94.48 57.34 0.04443 0.04443 0.04126 0.07617 Of

94.48 57.34 0.04443 0.04443 0.04126 0.07617 Of

94.48 57.34 0.04443 0.04443 0.04126 0.07617 Of

94.48 57.34 0.04443 0.04443 0.04126 0.07617 Of

94.48 57.34 0.04443 0.04443 0.04126 0.07617 Of

94.48 57.34 0.04443 0.04443 0.04126 0.07617 Of

94.37 57.34 0.04443 0.04443 0.04126 0.07617 Of

94.48 57.34 0.04443 0.04443 0.04126 0.07617 Of

94.48 57.34 0.04443 0.04443 0.04126 0.07617 Of

94.48 57.34 0.04443 0.04443 0.04126 0.07617 Of


94.48 57.34 0.04443 0.04443 0.04126 0.07617 Of

93.94 57.34 0.04443 0.04443 0.04126 0.07617 Of

94.48 57.34 0.04443 0.04443 0.04126 0.07617 Of

94.48 57.34 0.04443 0.04443 0.04126 0.07617 Of

94.48 57.34 0.04443 0.04443 0.04126 0.07617 Of

94.48 57.34 0.04443 0.04443 0.04126 0.07617 Of

94.48 57.34 0.04443 0.04443 0.04126 0.07617 Of

94.48 57.34 0.04443 0.04443 0.04126 0.07617 Of

94.48 57.34 0.04443 0.04443 0.04126 0.07617 Of

94.48 57.34 0.04443 0.04443 0.04126 0.07617 Of

94.48 57.34 0.04443 0.04443 0.04126 0.07617 Of

94.48 57.34 0.04443 0.04443 0.04126 0.07617 Of

94.48 57.34 0.04443 0.04443 0.04126 0.07617 Of

94.48 57.34 0.04443 0.04443 0.04126 0.07617 Of

94.48 57.34 0.04443 0.04443 0.04126 0.07617 Of

94.48 57.34 0.04443 0.04443 0.04126 0.07617 Of

94.48 57.34 0.04443 0.04443 0.04126 0.07617 Of

94.48 57.34 0.04443 0.04443 0.04126 0.07617 Of

94.48 57.34 0.04443 0.04443 0.04126 0.07617 Of


94.48 57.34 0.04443 0.04443 0.04126 0.07617 Of

94.48 57.34 0.04443 0.04443 0.04126 0.07617 Of

94.48 57.34 0.04443 0.04443 0.04126 0.07617 Of

94.48 57.34 0.04443 0.04443 0.04126 0.07617 Of

94.48 57.34 0.04443 0.04443 0.04126 0.07617 Of

94.48 57.34 0.04443 0.04443 0.04126 0.07617 Of

94.48 57.34 0.04443 0.04443 0.04126 0.07617 Of

94.48 57.34 0.04443 0.04443 0.04126 0.07617 Of

94.48 57.34 0.04443 0.04443 0.04126 0.07617 Of

94.48 57.34 0.04443 0.04443 0.04126 0.07617 Of

94.48 57.34 0.04443 0.04443 0.04126 0.07617 Of

94.48 57.34 0.04443 0.04443 0.04126 0.07617 Of

94.48 57.34 0.04443 0.04443 0.04126 0.07617 Of

94.48 57.34 0.04443 0.04443 0.04126 0.07617 Of

94.48 57.34 0.04443 0.04443 0.04126 0.07617 Of

94.48 57.34 0.04443 0.04443 0.04126 0.07617 Of

94.48 57.34 0.04443 0.04443 0.04126 0.07617 Of

94.48 57.34 0.04443 0.04443 0.04126 0.07617 Of

94.48 57.34 0.04443 0.04443 0.04126 0.07617 Of


94.48 57.45 0.04443 0.04443 0.04126 0.07617 Of

94.48 57.34 0.04443 0.04443 0.04126 0.07617 Of

94.48 57.34 0.04443 0.04443 0.04126 0.07617 Of

94.48 57.45 0.04443 0.04443 0.04126 0.07617 Of

94.48 57.34 0.04443 0.04443 0.04126 0.07617 Of

94.48 57.34 0.04443 0.04443 0.04126 0.07617 Of

94.48 57.45 0.04443 0.04443 0.04126 0.07617 Of

94.48 57.34 0.04443 0.04443 0.04126 0.07617 Of

94.48 57.34 0.04443 0.04443 0.04126 0.07617 Of

94.48 57.34 0.04443 0.04443 0.04126 0.07617 Of

94.48 57.34 0.04443 0.04443 0.04126 0.07617 Of

94.48 57.34 0.04443 0.04443 0.04126 0.07617 Of

94.48 57.34 0.04443 0.04443 0.04126 0.07617 Of

94.48 57.34 0.04443 0.04443 0.04126 0.07617 Of

94.48 57.34 0.04443 0.04443 0.04126 0.07617 Of

94.48 57.34 0.04443 0.04443 0.04126 0.07617 Of

94.48 57.34 0.04443 0.04443 0.04126 0.07617 Of

94.48 57.34 0.04443 0.04443 0.04126 0.07617 Of

94.48 57.34 0.04443 0.04443 0.04126 0.07617 Of


94.48 57.34 0.04443 0.04443 0.04126 0.07617 Of

94.48 57.34 0.04443 0.04443 0.04126 0.07617 Of

94.48 57.45 0.04443 0.04443 0.04126 0.07617 Of

94.48 57.34 0.04443 0.04443 0.04126 0.07617 Of

94.48 57.34 0.04443 0.04443 0.04126 0.07617 Of

94.48 57.34 0.04443 0.04443 0.04126 0.07617 Of

94.48 57.34 0.04443 0.04443 0.04126 0.07617 Of

94.48 57.34 0.04443 0.04443 0.04126 0.07617 Of

94.48 57.34 0.04443 0.04443 0.04126 0.07617 Of

94.48 57.34 0.04443 0.04443 0.04126 0.07617 Of

94.48 57.34 0.04443 0.04443 0.04126 0.07617 Of

94.48 57.45 0.04443 0.04443 0.04126 0.07617 Of

94.48 57.34 0.04443 0.04443 0.04126 0.07617 Of

94.48 57.34 0.04443 0.04443 0.04126 0.07617 Of

94.48 57.34 0.04443 0.04443 0.04126 0.07617 Of

94.48 57.34 0.04443 0.04443 0.04126 0.07617 Of

94.48 57.34 0.04443 0.04443 0.04126 0.07617 Of

94.48 57.34 0.04443 0.04443 0.04126 0.07617 Of

94.48 57.34 0.04443 0.04443 0.04126 0.07617 Of


94.48 57.34 0.04443 0.04443 0.04126 0.07617 Of

94.48 57.34 0.04443 0.04443 0.04126 0.07617 Of

94.48 57.34 0.04443 0.04443 0.04126 0.07617 Of

94.48 57.34 0.04443 0.04443 0.04126 0.07617 Of

94.48 57.34 0.04443 0.04443 0.04126 0.07617 Of

94.48 57.45 0.04443 0.04443 0.04126 0.07617 Of

94.48 57.45 0.04443 0.04443 0.04126 0.07617 Of

94.48 57.45 0.04443 0.04443 0.04126 0.07617 Of

94.48 57.34 0.04443 0.04443 0.04126 0.07617 Of

94.48 57.45 0.04443 0.04443 0.04126 0.07617 Of

94.48 57.45 0.04443 0.04443 0.04126 0.07617 Of

94.48 57.45 0.04443 0.04443 0.04126 0.07617 Of

94.48 57.45 0.04443 0.04443 0.04126 0.07617 Of

94.48 57.45 0.04443 0.04443 0.04126 0.07617 Of

94.48 57.45 0.04443 0.04443 0.04126 0.07617 Of

94.48 57.45 0.04443 0.04443 0.04126 0.07617 Of

94.48 57.45 0.04443 0.04443 0.04126 0.07617 Of

94.48 57.45 0.04443 0.04443 0.04126 0.07617 Of

94.48 57.34 0.04443 0.04443 0.04126 0.07617 Of


94.48 57.45 0.04443 0.04443 0.04126 0.07617 Of

94.48 57.45 0.04443 0.04443 0.04126 0.07617 Of

94.48 57.45 0.04443 0.04443 0.04126 0.07617 Of

94.48 57.45 0.04443 0.04443 0.04126 0.07617 Of

94.48 57.45 0.04443 0.04443 0.04126 0.07617 Of

94.48 57.45 0.04443 0.04443 0.04126 0.07617 Of

94.48 57.45 0.04443 0.04443 0.04126 0.07617 Of

94.48 57.45 0.04443 0.04443 0.04126 0.07617 Of

94.48 57.45 0.04443 0.04443 0.04126 0.07617 Of

94.48 57.45 0.04443 0.04443 0.04126 0.07617 Of

94.48 57.45 0.04443 0.04443 0.04126 0.07617 Of

94.48 57.45 0.04443 0.04443 0.04126 0.07617 Of

94.48 57.45 0.04443 0.04443 0.04126 0.07617 Of

94.48 57.45 0.04443 0.04443 0.04126 0.07617 Of

94.48 57.45 0.04443 0.04443 0.04126 0.07617 Of

94.48 57.45 0.04443 0.04443 0.04126 0.07617 Of

94.48 57.45 0.04443 0.04443 0.04126 0.07617 Of

94.48 57.45 0.04443 0.04443 0.04126 0.07617 Of

94.48 57.45 0.04443 0.04443 0.04126 0.07617 Of


94.48 57.45 0.04443 0.04443 0.04126 0.07617 Of

94.48 57.45 0.04443 0.04443 0.04126 0.07617 Of

94.48 57.45 0.04443 0.04443 0.04126 0.07617 Of

94.48 57.45 0.04443 0.04443 0.04126 0.07617 Of

94.48 57.45 0.04443 0.04443 0.04126 0.07617 Of

94.48 57.45 0.04443 0.04443 0.04126 0.07617 Of

94.48 57.45 0.04443 0.04443 0.04126 0.07617 Of

94.48 57.45 0.04443 0.04443 0.04126 0.07617 Of

94.48 57.45 0.04443 0.04443 0.04126 0.07617 Of

94.48 57.45 0.04443 0.04443 0.04126 0.07617 Of

94.48 57.45 0.04443 0.04443 0.04126 0.07617 Of

94.48 57.45 0.04443 0.04443 0.04126 0.07617 Of

94.48 57.45 0.04443 0.04443 0.04126 0.07617 Of

94.48 57.45 0.04443 0.04443 0.04126 0.07617 Of

94.48 57.45 0.04443 0.04443 0.04126 0.07617 Of

94.48 57.45 0.04443 0.04443 0.04126 0.07617 Of

94.48 57.45 0.04443 0.04443 0.04126 0.07617 Of

94.48 57.45 0.04443 0.04443 0.04126 0.07617 Of

94.48 57.45 0.04443 0.04443 0.04126 0.07617 Of


94.48 57.45 0.04443 0.04443 0.04126 0.07617 Of

94.48 57.45 0.04443 0.04443 0.04126 0.07617 Of

94.48 57.45 0.04443 0.04443 0.04126 0.07617 Of

94.48 57.45 0.04443 0.04443 0.04126 0.07617 Of

94.48 57.45 0.04443 0.04443 0.04126 0.07617 Of

94.48 57.45 0.04443 0.04443 0.04126 0.07617 Of

94.48 57.45 0.04443 0.04443 0.04126 0.07617 Of

94.48 57.45 0.04443 0.04443 0.04126 0.07617 Of

94.48 57.45 0.04443 0.04443 0.04126 0.07617 Of

94.48 57.45 0.04443 0.04443 0.04126 0.07617 Of

94.48 57.45 0.04443 0.04443 0.04126 0.07617 Of

94.48 57.45 0.04443 0.04443 0.04126 0.07617 Of

94.48 57.45 0.04443 0.04443 0.04126 0.07617 Of

94.48 57.45 0.04443 0.04443 0.04126 0.07617 Of

94.48 57.45 0.04443 0.04443 0.04126 0.07617 Of

94.48 57.45 0.04443 0.04443 0.04126 0.07617 Of

94.48 57.45 0.04443 0.04443 0.04126 0.07617 Of

94.48 57.45 0.04443 0.04443 0.04126 0.07617 Of

94.48 57.45 0.04443 0.04443 0.04126 0.07617 Of


94.48 57.45 0.04443 0.04443 0.04126 0.07617 Of

94.48 57.45 0.04443 0.04443 0.04126 0.07617 Of

94.48 57.45 0.04443 0.04443 0.04126 0.07617 Of

94.48 57.45 0.04443 0.04443 0.04126 0.07617 Of

94.48 57.45 0.04443 0.04443 0.04126 0.07617 Of

94.48 57.45 0.04443 0.04443 0.04126 0.07617 Of

94.48 57.45 0.04443 0.04443 0.04126 0.07617 Of

94.48 57.45 0.04443 0.04443 0.04126 0.07617 Of

94.48 57.45 0.04443 0.04443 0.04126 0.07617 Of

94.48 57.45 0.04443 0.04443 0.04126 0.07617 Of

94.48 57.45 0.04443 0.04443 0.04126 0.07617 Of

94.48 57.45 0.04443 0.04443 0.04126 0.07617 Of

94.48 57.45 0.04443 0.04443 0.04126 0.07617 Of

94.48 57.45 0.04443 0.04443 0.04126 0.07617 Of

94.48 57.45 0.04443 0.04443 0.04126 0.07617 Of

94.48 57.45 0.04443 0.04443 0.04126 0.07617 Of

94.48 57.45 0.04443 0.04443 0.04126 0.07617 Of

94.48 57.45 0.04443 0.04443 0.04126 0.07617 Of

94.48 57.45 0.04443 0.04443 0.04126 0.07617 Of


94.48 57.45 0.04443 0.04443 0.04126 0.07617 Of

94.48 57.45 0.04443 0.04443 0.04126 0.07617 Of

94.48 57.45 0.04443 0.04443 0.04126 0.07617 Of

94.48 57.45 0.04443 0.04443 0.04126 0.07617 Of

94.48 57.45 0.04443 0.04443 0.04126 0.07617 Of

94.48 57.45 0.04443 0.04443 0.04126 0.07617 Of

94.48 57.45 0.04443 0.04443 0.04126 0.07617 Of

94.48 57.45 0.04443 0.04443 0.04126 0.07617 Of

94.48 57.45 0.04443 0.04443 0.04126 0.07617 Of

94.48 57.45 0.04443 0.04443 0.04126 0.07617 Of

94.48 57.45 0.04443 0.04443 0.04126 0.07617 Of

94.48 57.45 0.04443 0.04443 0.04126 0.07617 Of

94.48 57.45 0.04443 0.04443 0.04126 0.07617 Of

94.48 57.45 0.04443 0.04443 0.04126 0.07617 Of

94.48 57.45 0.04443 0.04443 0.04126 0.07617 Of

94.48 57.45 0.04443 0.04443 0.04126 0.07617 Of

94.48 57.45 0.04443 0.04443 0.04126 0.07617 Of

94.48 57.45 0.04443 0.04443 0.04126 0.07617 Of

94.48 57.45 0.04443 0.04443 0.04126 0.07617 Of


94.48 57.45 0.04443 0.04443 0.04126 0.07617 Of

94.48 57.45 0.04443 0.04443 0.04126 0.07617 Of

94.48 57.45 0.04443 0.04443 0.04126 0.07617 Of

94.48 57.45 0.04443 0.04443 0.04126 0.07617 Of

94.48 57.45 0.04443 0.04443 0.04126 0.07617 Of

94.48 57.45 0.04443 0.04443 0.04126 0.07617 Of

94.48 57.45 0.04443 0.04443 0.04126 0.07617 Of

94.48 57.45 0.04443 0.04443 0.04126 0.07617 Of

94.48 57.45 0.04443 0.04443 0.04126 0.07617 Of

94.48 57.45 0.04443 0.04443 0.04126 0.07617 Of

94.48 57.45 0.04443 0.04443 0.04126 0.07617 Of

94.48 57.45 0.04443 0.04443 0.04126 0.07617 Of

94.48 57.45 0.04443 0.04443 0.04126 0.07617 Of

94.48 57.45 0.04443 0.04443 0.04126 0.07617 Of

94.48 57.45 0.04443 0.04443 0.04126 0.07617 Of

94.48 57.45 0.04443 0.04443 0.04126 0.07617 Of

94.48 57.45 0.04443 0.04443 0.04126 0.07617 Of

94.48 57.45 0.04443 0.04443 0.04126 0.07617 Of

94.48 57.45 0.04443 0.04443 0.04126 0.07617 Of


94.48 57.45 0.04443 0.04443 0.04126 0.07617 Of

94.48 57.45 0.04443 0.04443 0.04126 0.07617 Of

94.48 57.45 0.04443 0.04443 0.04126 0.07617 Of

94.48 57.45 0.04443 0.04443 0.04126 0.07617 Of

94.48 57.45 0.04443 0.04443 0.04126 0.07617 Of

94.48 57.45 0.04443 0.04443 0.04126 0.07617 Of

94.48 57.45 0.04443 0.04443 0.04126 0.07617 Of

94.48 57.45 0.04443 0.04443 0.04126 0.07617 Of

94.48 57.45 0.04443 0.04443 0.04126 0.07617 Of

94.48 57.45 0.04443 0.04443 0.04126 0.07617 Of

94.48 57.45 0.04443 0.04443 0.04126 0.07617 Of

94.48 57.45 0.04443 0.04443 0.04126 0.07617 Of

94.48 57.45 0.04443 0.04443 0.04126 0.07617 Of

94.48 57.45 0.04443 0.04443 0.04126 0.07617 Of

94.48 57.45 0.04443 0.04443 0.04126 0.07617 Of

94.48 57.45 0.04443 0.04443 0.04126 0.07617 Of

94.48 57.45 0.04443 0.04443 0.04126 0.07617 Of

94.48 57.45 0.04443 0.04443 0.04126 0.07617 Of

94.48 57.45 0.04443 0.04443 0.04126 0.07617 Of


94.48 57.45 0.04443 0.04443 0.04126 0.07617 Of

94.48 57.45 0.04443 0.04443 0.04126 0.07617 Of

94.48 57.45 0.04443 0.04443 0.04126 0.07617 Of

94.48 57.45 0.04443 0.04443 0.04126 0.07617 Of

94.48 57.45 0.04443 0.04443 0.04126 0.07617 Of

94.48 57.45 0.04443 0.04443 0.04126 0.07617 Of

94.48 57.45 0.04443 0.04443 0.04126 0.07617 Of

94.48 57.45 0.04443 0.04443 0.04126 0.07617 Of

94.48 57.45 0.04443 0.04443 0.04126 0.07617 Of

94.48 57.45 0.04443 0.04443 0.04126 0.07617 Of

94.48 57.45 0.04443 0.04443 0.04126 0.07617 Of

94.48 57.45 0.04443 0.04443 0.04126 0.07617 Of

94.48 57.45 0.04443 0.04443 0.04126 0.07617 Of

94.48 57.45 0.04443 0.04443 0.04126 0.07617 Of

94.48 57.45 0.04443 0.04443 0.04126 0.07617 Of

94.48 57.45 0.04443 0.04443 0.04126 0.07617 Of

94.48 57.45 0.04443 0.04443 0.04126 0.07617 Of

94.48 57.45 0.04443 0.04443 0.04126 0.07617 Of

94.48 57.45 0.04443 0.04443 0.04126 0.07617 Of


94.48 57.45 0.04443 0.04443 0.04126 0.07617 Of

94.48 57.45 0.04443 0.04443 0.04126 0.07617 Of

94.48 57.45 0.04443 0.04443 0.04126 0.07617 Of

94.48 57.45 0.04443 0.04443 0.04126 0.07617 Of

94.48 57.45 0.04443 0.04443 0.04126 0.07617 Of

94.48 57.45 0.04443 0.04443 0.04126 0.07617 Of

94.48 57.45 0.04443 0.04443 0.04126 0.07617 Of

94.48 57.45 0.04443 0.04443 0.04126 0.07617 Of

94.48 57.45 0.04443 0.04443 0.04126 0.07617 Of

94.48 57.45 0.04443 0.04443 0.04126 0.07617 Of

94.48 57.45 0.04443 0.04443 0.04126 0.07617 Of

94.48 57.55 0.04443 0.04443 0.04126 0.07617 Of

94.48 57.45 0.04443 0.04443 0.04126 0.07617 Of

94.48 57.45 0.04443 0.04443 0.04126 0.07617 Of

94.48 57.55 0.04443 0.04443 0.04126 0.07617 Of

94.48 57.55 0.04443 0.04443 0.04126 0.07617 Of

94.48 57.55 0.04443 0.04443 0.04126 0.07617 Of

94.48 57.55 0.04443 0.04443 0.04126 0.07617 Of

94.48 57.55 0.04443 0.04443 0.04126 0.07617 Of


94.48 57.55 0.04443 0.04443 0.04126 0.07617 Of

94.48 57.55 0.04443 0.04443 0.04126 0.07617 Of

94.48 57.55 0.04443 0.04443 0.04126 0.07617 Of

94.48 57.55 0.04443 0.04443 0.04126 0.07617 Of

94.48 57.55 0.04443 0.04443 0.04126 0.07617 Of

94.48 57.55 0.04443 0.04443 0.04126 0.07617 Of

94.48 57.55 0.04443 0.04443 0.04126 0.07617 Of

94.48 57.55 0.04443 0.04443 0.04126 0.07617 Of

94.48 57.55 0.04443 0.04443 0.04126 0.07617 Of

94.48 57.55 0.04443 0.04443 0.04126 0.07617 Of

94.48 57.55 0.04443 0.04443 0.04126 0.07617 Of

94.48 57.55 0.04443 0.04443 0.04126 0.07617 Of

94.48 57.55 0.04443 0.04443 0.04126 0.07617 Of

94.48 57.55 0.04443 0.04443 0.04126 0.07617 Of

94.48 57.55 0.04443 0.04443 0.04126 0.07617 Of

94.48 57.55 0.04443 0.04443 0.04126 0.07617 Of

94.48 57.55 0.04443 0.04443 0.04126 0.07617 Of

94.48 57.55 0.04443 0.04443 0.04126 0.07617 Of

94.48 57.55 0.04443 0.04443 0.04126 0.07617 Of


94.48 57.55 0.04443 0.04443 0.04126 0.07617 Of

94.48 57.55 0.04443 0.04443 0.04126 0.07617 Of

94.48 57.55 0.04443 0.04443 0.04126 0.07617 Of

94.48 57.55 0.04443 0.04443 0.04126 0.07617 Of

94.48 57.55 0.04443 0.04443 0.04126 0.07617 Of

94.48 57.55 0.04443 0.04443 0.04126 0.07617 Of

94.48 57.55 0.04443 0.04443 0.04126 0.07617 Of

94.48 57.55 0.04443 0.04443 0.04126 0.07617 Of

94.48 57.55 0.04443 0.04443 0.04126 0.07617 Of

94.48 57.55 0.04443 0.04443 0.04126 0.07617 Of

94.48 57.55 0.04443 0.04443 0.04126 0.07617 Of

94.48 57.55 0.04443 0.04443 0.04126 0.07617 Of

94.48 57.55 0.04443 0.04443 0.04126 0.07617 Of

94.48 57.55 0.04443 0.04443 0.04126 0.07617 Of

94.48 57.55 0.04443 0.04443 0.04126 0.07617 Of

94.48 57.55 0.04443 0.04443 0.04126 0.07617 Of

94.48 57.55 0.04443 0.04443 0.04126 0.07617 Of

94.48 57.55 0.04443 0.04443 0.04126 0.07617 Of

94.48 57.55 0.04443 0.04443 0.04126 0.07617 Of


94.48 57.55 0.04443 0.04443 0.04126 0.07617 Of

94.48 57.55 0.04443 0.04443 0.04126 0.07617 Of

94.48 57.55 0.04443 0.04443 0.04126 0.07617 Of

94.48 57.55 0.04443 0.04443 0.04126 0.07617 Of

94.48 57.55 0.04443 0.04443 0.04126 0.07617 Of

94.48 57.55 0.04443 0.04443 0.04126 0.07617 Of

94.48 57.55 0.04443 0.04443 0.04126 0.07617 Of

94.48 57.55 0.04443 0.04443 0.04126 0.07617 Of

94.48 57.55 0.04443 0.04443 0.04126 0.07617 Of

94.48 57.55 0.04443 0.04443 0.04126 0.07617 Of

94.48 57.55 0.04443 0.04443 0.04126 0.07617 Of

94.48 57.55 0.04443 0.04443 0.04126 0.07617 Of

94.48 57.55 0.04443 0.04443 0.04126 0.07617 Of

94.48 57.55 0.04443 0.04443 0.04126 0.07617 Of

94.48 57.55 0.04443 0.04443 0.04126 0.07617 Of

94.48 57.55 0.04443 0.04443 0.04126 0.07617 Of

94.48 57.55 0.04443 0.04443 0.04126 0.07617 Of

94.48 57.55 0.04443 0.04443 0.04126 0.07617 Of

94.48 57.55 0.04443 0.04443 0.04126 0.07617 Of


94.48 57.55 0.04443 0.04443 0.04126 0.07617 Of

94.48 57.55 0.04443 0.04443 0.04126 0.07617 Of

94.48 57.55 0.04443 0.04443 0.04126 0.07617 Of

94.48 57.55 0.04443 0.04443 0.04126 0.07617 Of

94.48 57.55 0.04443 0.04443 0.04126 0.07617 Of

94.48 57.55 0.04443 0.04443 0.04126 0.07617 Of

94.48 57.55 0.04443 0.04443 0.04126 0.07617 Of

94.48 57.55 0.04443 0.04443 0.04126 0.07617 Of

94.48 57.55 0.04443 0.04443 0.04126 0.07617 Of

94.48 57.55 0.04443 0.04443 0.04126 0.07617 Of

94.48 57.55 0.04443 0.04443 0.04126 0.07617 Of

94.48 57.55 0.04443 0.04443 0.04126 0.07617 Of

94.48 57.55 0.04443 0.04443 0.04126 0.07617 Of

94.48 57.55 0.04443 0.04443 0.04126 0.07617 Of

94.48 57.55 0.04443 0.04443 0.04126 0.07617 Of

94.48 57.55 0.04443 0.04443 0.04126 0.07617 Of

94.48 57.55 0.04443 0.04443 0.04126 0.07617 Of

94.48 57.55 0.04443 0.04443 0.04126 0.07617 Of

94.48 57.55 0.04443 0.04443 0.04126 0.07617 Of


94.48 57.55 0.04443 0.04443 0.04126 0.07617 Of

94.48 57.55 0.04443 0.04443 0.04126 0.07617 Of

94.48 57.55 0.04443 0.04443 0.04126 0.07617 Of

94.48 57.55 0.04443 0.04443 0.04126 0.07617 Of

94.48 57.55 0.04443 0.04443 0.04126 0.07617 Of

94.48 57.55 0.04443 0.04443 0.04126 0.07617 Of

94.48 57.55 0.04443 0.04443 0.04126 0.07617 Of

94.48 57.55 0.04443 0.04443 0.04126 0.07617 Of

94.48 57.55 0.04443 0.04443 0.04126 0.07617 Of

94.48 57.55 0.04443 0.04443 0.04126 0.07617 Of

94.48 57.55 0.04443 0.04443 0.04126 0.07617 Of

94.48 57.55 0.04443 0.04443 0.04126 0.07617 Of

94.48 57.55 0.04443 0.04443 0.04126 0.07617 Of

94.48 57.55 0.04443 0.04443 0.04126 0.07617 Of

94.48 57.55 0.04443 0.04443 0.04126 0.07617 Of

94.48 57.55 0.04443 0.04443 0.04126 0.07617 Of

94.48 57.55 0.04443 0.04443 0.04126 0.07617 Of

94.48 57.55 0.04443 0.04443 0.04126 0.07617 Of

94.48 57.55 0.04443 0.04443 0.04126 0.07617 Of


94.48 57.55 0.04443 0.04443 0.04126 0.07617 Of

94.48 57.55 0.04443 0.04443 0.04126 0.07617 Of

94.48 57.55 0.04443 0.04443 0.04126 0.07617 Of

94.48 57.55 0.04443 0.04443 0.04126 0.07617 Of

94.48 57.55 0.04443 0.04443 0.04126 0.07617 Of

94.48 57.55 0.04443 0.04443 0.04126 0.07617 Of

94.48 57.55 0.04443 0.04443 0.04126 0.07617 Of

94.48 57.55 0.04443 0.04443 0.04126 0.07617 Of

94.48 57.55 0.04443 0.04443 0.04126 0.07617 Of

94.48 57.55 0.04443 0.04443 0.04126 0.07617 Of

94.48 57.55 0.04443 0.04443 0.04126 0.07617 Of

94.48 57.55 0.04443 0.04443 0.04126 0.07617 Of

94.48 57.55 0.04443 0.04443 0.04126 0.07617 Of

94.48 57.55 0.04443 0.04443 0.04126 0.07617 Of

94.48 57.55 0.04443 0.04443 0.04126 0.07617 Of

94.48 57.55 0.04443 0.04443 0.04126 0.07617 Of

94.48 57.55 0.04443 0.04443 0.04126 0.07617 Of

94.48 57.55 0.04443 0.04443 0.04126 0.07617 Of

94.48 57.55 0.04443 0.04443 0.04126 0.07617 Of


94.48 57.55 0.04443 0.04443 0.04126 0.07617 Of

94.48 57.55 0.04443 0.04443 0.04126 0.07617 Of

94.48 57.55 0.04443 0.04443 0.04126 0.07617 Of

94.48 57.55 0.04443 0.04443 0.04126 0.07617 Of

94.48 57.55 0.04443 0.04443 0.04126 0.07617 Of

94.48 57.55 0.04443 0.04443 0.04126 0.07617 Of

94.48 57.55 0.04443 0.04443 0.04126 0.07617 Of

94.48 57.55 0.04443 0.04443 0.04126 0.07617 Of

94.48 57.55 0.04443 0.04443 0.04126 0.07617 Of

94.48 57.55 0.04443 0.04443 0.04126 0.07617 Of

94.48 57.55 0.04443 0.04443 0.04126 0.07617 Of

94.48 57.55 0.04443 0.04443 0.04126 0.07617 Of

94.48 57.55 0.04443 0.04443 0.04126 0.07617 Of

94.48 57.55 0.04443 0.04443 0.04126 0.07617 Of

94.48 57.66 0.04443 0.04443 0.04126 0.07617 Of

94.48 57.55 0.04443 0.04443 0.04126 0.07617 Of

94.48 57.66 0.04443 0.04443 0.04126 0.07617 Of

94.48 57.66 0.04443 0.04443 0.04126 0.07617 Of

94.48 57.55 0.04443 0.04443 0.04126 0.07617 Of


94.48 57.55 0.04443 0.04443 0.04126 0.07617 Of

94.48 57.66 0.04443 0.04443 0.04126 0.07617 Of

94.48 57.66 0.04443 0.04443 0.04126 0.07617 Of

94.48 57.66 0.04443 0.04443 0.04126 0.07617 Of

94.48 57.66 0.04443 0.04443 0.04126 0.07617 Of

94.48 57.66 0.04443 0.04443 0.04126 0.07617 Of

94.48 57.66 0.04443 0.04443 0.04126 0.07617 Of

94.48 57.66 0.04443 0.04443 0.04126 0.07617 Of

94.48 57.66 0.04443 0.04443 0.04126 0.07617 Of

94.48 57.66 0.04443 0.04443 0.04126 0.07617 Of

94.48 57.66 0.04443 0.04443 0.04126 0.07617 Of

94.48 57.66 0.04443 0.04443 0.04126 0.07617 Of

94.48 57.66 0.04443 0.04443 0.04126 0.07617 Of

94.48 57.66 0.04443 0.04443 0.04126 0.07617 Of

94.48 57.66 0.04443 0.04443 0.04126 0.07617 Of

94.48 57.66 0.04443 0.04443 0.04126 0.07617 Of

94.48 57.66 0.04443 0.04443 0.04126 0.07617 Of

94.48 57.66 0.04443 0.04443 0.04126 0.07617 Of

94.48 57.66 0.04443 0.04443 0.04126 0.07617 Of


94.48 57.66 0.04443 0.04443 0.04126 0.07617 Of

94.48 57.66 0.04443 0.04443 0.04126 0.07617 Of

94.48 57.66 0.04443 0.04443 0.04126 0.07617 Of

94.48 57.66 0.04443 0.04443 0.04126 0.07617 Of

94.48 57.66 0.04443 0.04443 0.04126 0.07617 Of

94.48 57.66 0.04443 0.04443 0.04126 0.07617 Of

94.48 57.66 0.04443 0.04443 0.04126 0.07617 Of

94.48 57.66 0.04443 0.04443 0.04126 0.07617 Of

94.48 57.66 0.04443 0.04443 0.04126 0.07617 Of

94.48 57.66 0.04443 0.04443 0.04126 0.07617 Of

94.48 57.66 0.04443 0.04443 0.04126 0.07617 Of

94.48 57.66 0.04443 0.04443 0.04126 0.07617 Of

94.48 57.66 0.04443 0.04443 0.04126 0.07617 Of

94.48 57.66 0.04443 0.04443 0.04126 0.07617 Of

94.48 57.66 0.04443 0.04443 0.04126 0.07617 Of

94.48 57.66 0.04443 0.04443 0.04126 0.07617 Of

94.48 57.66 0.04443 0.04443 0.04126 0.07617 Of

94.48 57.66 0.04443 0.04443 0.04126 0.07617 Of

94.48 57.66 0.04443 0.04443 0.04126 0.07617 Of


94.48 57.66 0.04443 0.04443 0.04126 0.07617 Of

94.48 57.66 0.04443 0.04443 0.04126 0.07617 Of

94.48 57.66 0.04443 0.04443 0.04126 0.07617 Of

94.48 57.66 0.04443 0.04443 0.04126 0.07617 Of

94.48 57.66 0.04443 0.04443 0.04126 0.07617 Of

94.48 57.66 0.04443 0.04443 0.04126 0.07617 Of

94.48 57.66 0.04443 0.04443 0.04126 0.07617 Of

94.48 57.66 0.04443 0.04443 0.04126 0.07617 Of

94.48 57.77 0.04443 0.04443 0.04126 0.07617 Of

94.48 57.77 0.04443 0.04443 0.04126 0.07617 Of

94.48 57.77 0.04443 0.04443 0.04126 0.07617 Of

94.48 57.77 0.04443 0.04443 0.04126 0.07617 Of

94.48 57.77 0.04443 0.04443 0.04126 0.07617 Of

94.48 57.77 0.04443 0.04443 0.04126 0.07617 Of

94.48 57.77 0.04443 0.04443 0.04126 0.07617 Of

94.48 57.77 0.04443 0.04443 0.04126 0.07617 Of

94.48 57.77 0.04443 0.04443 0.04126 0.07617 Of

94.48 57.77 0.04443 0.04443 0.04126 0.07617 Of

94.48 57.77 0.04443 0.04443 0.04126 0.07617 Of


94.48 57.77 0.04443 0.04443 0.04126 0.07617 Of

94.48 57.77 0.04443 0.04443 0.04126 0.07617 Of

94.48 57.77 0.04443 0.04443 0.04126 0.07617 Of

94.48 57.77 0.04443 0.04443 0.04126 0.07617 Of

94.48 57.77 0.04443 0.04443 0.04126 0.07617 Of

94.48 57.77 0.04443 0.04443 0.04126 0.07617 Of

94.48 57.77 0.04443 0.04443 0.04126 0.07617 Of

94.48 57.77 0.04443 0.04443 0.04126 0.07617 Of

94.48 57.77 0.04443 0.04443 0.04126 0.07617 Of

94.48 57.77 0.04443 0.04443 0.04126 0.07617 Of

94.48 57.77 0.04443 0.04443 0.04126 0.07617 Of

94.48 57.77 0.04443 0.04443 0.04126 0.07617 Of

94.48 57.77 0.04443 0.04443 0.04126 0.07617 Of

94.48 57.77 0.04443 0.04443 0.04126 0.07617 Of

94.48 57.77 0.04443 0.04443 0.04126 0.07617 Of

94.48 57.77 0.04443 0.04443 0.04126 0.07617 Of

94.48 57.77 0.04443 0.04443 0.04126 0.07617 Of

94.48 57.77 0.04443 0.04443 0.04126 0.07617 Of

94.48 57.77 0.04443 0.04443 0.04126 0.07617 Of


94.48 57.77 0.04443 0.04443 0.04126 0.07617 Of

94.48 57.87 0.04443 0.04443 0.04126 0.07617 Of

94.48 57.77 0.04443 0.04443 0.04126 0.07617 Of

94.48 57.77 0.04443 0.04443 0.04126 0.07617 Of

94.48 57.77 0.04443 0.04443 0.04126 0.07617 Of

94.48 57.87 0.04443 0.04443 0.04126 0.07617 Of

94.48 57.87 0.04443 0.04443 0.04126 0.07617 Of

94.48 57.87 0.04443 0.04443 0.04126 0.07617 Of

94.48 57.87 0.04443 0.04443 0.04126 0.07617 Of

94.48 57.87 0.04443 0.04443 0.04126 0.07617 Of

94.48 57.87 0.04443 0.04443 0.04126 0.07617 Of

94.48 57.87 0.04443 0.04443 0.04126 0.07617 Of

94.48 57.87 0.04443 0.04443 0.04126 0.07617 Of

94.48 57.87 0.04443 0.04443 0.04126 0.07617 Of

94.48 57.87 0.04443 0.04443 0.04126 0.07617 Of

94.48 57.87 0.04443 0.04443 0.04126 0.07617 Of

94.48 57.87 0.04443 0.04443 0.04126 0.07617 Of

94.48 57.87 0.04443 0.04443 0.04126 0.07617 Of

94.48 57.87 0.04443 0.04443 0.04126 0.07617 Of


94.48 57.87 0.04443 0.04443 0.04126 0.07617 Of

94.48 57.87 0.04443 0.04443 0.04126 0.07617 Of

94.48 57.87 0.04443 0.04443 0.04126 0.07617 Of

94.48 57.87 0.04443 0.04443 0.04126 0.07617 Of

94.48 57.87 0.04443 0.04443 0.04126 0.07617 Of

94.48 57.87 0.04443 0.04443 0.04126 0.07617 Of

94.48 57.87 0.04443 0.04443 0.04126 0.07617 Of

94.48 57.87 0.04443 0.04443 0.04126 0.07617 Of

94.48 57.87 0.04443 0.04443 0.04126 0.07617 Of

94.48 57.87 0.04443 0.04443 0.04126 0.07617 Of

94.48 57.87 0.04443 0.04443 0.04126 0.07617 Of

94.48 57.87 0.04443 0.04443 0.04126 0.07617 Of

94.48 57.87 0.04443 0.04443 0.04126 0.07617 Of

94.48 57.87 0.04443 0.04443 0.04126 0.07617 Of

94.48 57.87 0.04443 0.04443 0.04126 0.07617 Of

94.48 57.87 0.04443 0.04443 0.04126 0.07617 Of

94.48 57.87 0.04443 0.04443 0.04126 0.07617 Of

94.48 57.87 0.04443 0.04443 0.04126 0.07617 Of

94.48 57.87 0.04443 0.04443 0.04126 0.07617 Of


94.48 57.87 0.04443 0.04443 0.04126 0.07617 Of

94.48 57.87 0.04443 0.04443 0.04126 0.07617 Of

94.48 57.87 0.04443 0.04443 0.04126 0.07617 Of

94.48 57.87 0.04443 0.04443 0.04126 0.07617 Of

94.48 57.87 0.04443 0.04443 0.04126 0.07617 Of

94.48 57.87 0.04443 0.04443 0.04126 0.07617 Of

94.48 57.87 0.04443 0.04443 0.04126 0.07617 Of

94.48 57.87 0.04443 0.04443 0.04126 0.07617 Of

94.48 57.87 0.04443 0.04443 0.04126 0.07617 Of

94.48 57.87 0.04443 0.04443 0.04126 0.07617 Of

94.48 57.87 0.04443 0.04443 0.04126 0.07617 Of

94.48 57.87 0.04443 0.04443 0.04126 0.07617 Of

94.48 57.87 0.04443 0.04443 0.04126 0.07617 Of

94.48 57.87 0.04443 0.04443 0.04126 0.07617 Of

94.48 57.87 0.04443 0.04443 0.04126 0.07617 Of

94.48 57.87 0.04443 0.04443 0.04126 0.07617 Of

94.48 57.87 0.04443 0.04443 0.04126 0.07617 Of

94.48 57.87 0.04443 0.04443 0.04126 0.07617 Of

94.48 57.87 0.04443 0.04443 0.04126 0.07617 Of


94.48 57.87 0.04443 0.04443 0.04126 0.07617 Of

94.48 57.87 0.04443 0.04443 0.04126 0.07617 Of

94.48 57.87 0.04443 0.04443 0.04126 0.07617 Of

94.48 57.87 0.04443 0.04443 0.04126 0.07617 Of

94.48 57.87 0.04443 0.04443 0.04126 0.07617 Of

94.48 57.87 0.04443 0.04443 0.04126 0.07617 Of

94.48 57.87 0.04443 0.04443 0.04126 0.07617 Of

94.48 57.87 0.04443 0.04443 0.04126 0.07617 Of

94.48 57.87 0.04443 0.04443 0.04126 0.07617 Of

94.48 57.87 0.04443 0.04443 0.04126 0.07617 Of

94.48 57.87 0.04443 0.04443 0.04126 0.07617 Of

94.48 57.87 0.04443 0.04443 0.04126 0.07617 Of

94.48 57.87 0.04443 0.04443 0.04126 0.07617 Of

94.48 57.87 0.04443 0.04443 0.04126 0.07617 Of

94.48 57.87 0.04443 0.04443 0.04126 0.07617 Of

94.48 57.87 0.04443 0.04443 0.04126 0.07617 Of

94.48 57.87 0.04443 0.04443 0.04126 0.07617 Of

94.48 57.87 0.04443 0.04443 0.04126 0.07617 Of

94.48 57.87 0.04443 0.04443 0.04126 0.07617 Of


94.48 57.87 0.04443 0.04443 0.04126 0.07617 Of

94.48 57.87 0.04443 0.04443 0.04126 0.07617 Of

94.48 57.87 0.04443 0.04443 0.04126 0.07617 Of

94.48 57.87 0.04443 0.04443 0.04126 0.07617 Of

94.48 57.87 0.04443 0.04443 0.04126 0.07617 Of

94.48 57.87 0.04443 0.04443 0.04126 0.07617 Of

94.48 57.87 0.04443 0.04443 0.04126 0.07617 Of

94.48 57.87 0.04443 0.04443 0.04126 0.07617 Of

94.48 57.87 0.04443 0.04443 0.04126 0.07617 Of

94.48 57.87 0.04443 0.04443 0.04126 0.07617 Of

94.48 57.87 0.04443 0.04443 0.04126 0.07617 Of

94.48 57.87 0.04443 0.04443 0.04126 0.07617 Of

94.48 57.87 0.04443 0.04443 0.04126 0.07617 Of

94.48 57.87 0.04443 0.04443 0.04126 0.07617 Of

94.48 57.87 0.04443 0.04443 0.04126 0.07617 Of

94.48 57.87 0.04443 0.04443 0.04126 0.07617 Of

94.48 57.87 0.04443 0.04443 0.04126 0.07617 Of

94.48 57.87 0.04443 0.04443 0.04126 0.07617 Of

94.48 57.87 0.04443 0.04443 0.04126 0.07617 Of


94.48 57.87 0.04443 0.04443 0.04126 0.07617 Of

94.48 57.87 0.04443 0.04443 0.04126 0.07617 Of

94.48 57.87 0.04443 0.04443 0.04126 0.07617 Of

94.48 57.87 0.04443 0.04443 0.04126 0.07617 Of

94.48 57.87 0.04443 0.04443 0.04126 0.07617 Of

94.48 57.87 0.04443 0.04443 0.04126 0.07617 Of

94.48 57.87 0.04443 0.04443 0.04126 0.07617 Of

94.48 57.87 0.04443 0.04443 0.04126 0.07617 Of

94.37 57.87 0.04443 0.04443 0.04126 0.07617 Of

94.48 57.87 0.04443 0.04443 0.04126 0.07617 Of

94.48 57.87 0.04443 0.04443 0.04126 0.07617 Of

94.48 57.87 0.04443 0.04443 0.04126 0.07617 Of

94.48 57.87 0.04443 0.04443 0.04126 0.07617 Of

94.48 57.87 0.04443 0.04443 0.04126 0.07617 Of

94.48 57.87 0.04443 0.04443 0.04126 0.07617 Of

94.48 57.87 0.04443 0.04443 0.04126 0.07617 Of

94.48 57.87 0.04443 0.04443 0.04126 0.07617 Of

94.48 57.87 0.04443 0.04443 0.04126 0.07617 Of

94.48 57.87 0.04443 0.04443 0.04126 0.07617 Of


94.48 57.87 0.04443 0.04443 0.04126 0.07617 Of

94.48 57.87 0.04443 0.04443 0.04126 0.07617 Of

94.48 57.87 0.04443 0.04443 0.04126 0.07617 Of

94.48 57.87 0.04443 0.04443 0.04126 0.07617 Of

94.48 57.87 0.04443 0.04443 0.04126 0.07617 Of

94.48 57.87 0.04443 0.04443 0.04126 0.07617 Of

94.48 57.87 0.04443 0.04443 0.04126 0.07617 Of

94.48 57.87 0.04443 0.04443 0.04126 0.07617 Of

94.48 57.87 0.04443 0.04443 0.04126 0.07617 Of

94.48 57.87 0.04443 0.04443 0.04126 0.07617 Of

94.48 57.87 0.04443 0.04443 0.04126 0.07617 Of

94.48 57.87 0.04443 0.04443 0.04126 0.07617 Of

94.48 57.87 0.04443 0.04443 0.04126 0.07617 Of

94.48 57.87 0.04443 0.04443 0.04126 0.07617 Of

94.48 57.87 0.04443 0.04443 0.04126 0.07617 Of

94.48 57.87 0.04443 0.04443 0.04126 0.07617 Of

94.48 57.87 0.04443 0.04443 0.04126 0.07617 Of

94.48 57.87 0.04443 0.04443 0.04126 0.07617 Of

94.48 57.87 0.04443 0.04443 0.04126 0.07617 Of


94.48 57.87 0.04443 0.04443 0.04126 0.07617 Of

94.48 57.87 0.04443 0.04443 0.04126 0.07617 Of

94.48 57.87 0.04443 0.04443 0.04126 0.07617 Of

94.48 57.87 0.04443 0.04443 0.04126 0.07617 Of

94.48 57.87 0.04443 0.04443 0.04126 0.07617 Of

94.48 57.87 0.04443 0.04443 0.04126 0.07617 Of

94.48 57.87 0.04443 0.04443 0.04126 0.07617 Of

94.48 57.87 0.04443 0.04443 0.04126 0.07617 Of

94.48 57.87 0.04443 0.04443 0.04126 0.07617 Of

94.48 57.87 0.04443 0.04443 0.04126 0.07617 Of

94.48 57.87 0.04443 0.04443 0.04126 0.07617 Of

94.48 57.87 0.04443 0.04443 0.04126 0.07617 Of

94.48 57.87 0.04443 0.04443 0.04126 0.07617 Of

94.48 57.87 0.04443 0.04443 0.04126 0.07617 Of

94.48 57.87 0.04443 0.04443 0.04126 0.07617 Of

94.48 57.87 0.04443 0.04443 0.04126 0.07617 Of

94.48 57.87 0.04443 0.04443 0.04126 0.07617 Of

94.48 57.87 0.04443 0.04443 0.04126 0.07617 Of

94.48 57.87 0.04443 0.04443 0.04126 0.07617 Of


94.48 57.87 0.04443 0.04443 0.04126 0.07617 Of

94.48 57.87 0.04443 0.04443 0.04126 0.07617 Of

94.48 57.87 0.04443 0.04443 0.04126 0.07617 Of

94.48 57.87 0.04443 0.04443 0.04126 0.07617 Of

94.48 57.87 0.04443 0.04443 0.04126 0.07617 Of

94.48 57.87 0.04443 0.04443 0.04126 0.07617 Of

94.48 57.87 0.04443 0.04443 0.04126 0.07617 Of

94.48 57.87 0.04443 0.04443 0.04126 0.07617 Of

94.48 57.87 0.04443 0.04443 0.04126 0.07617 Of

94.48 57.87 0.04443 0.04443 0.04126 0.07617 Of

94.48 57.87 0.04443 0.04443 0.04126 0.07617 Of

94.48 57.87 0.04443 0.04443 0.04126 0.07617 Of

94.48 57.87 0.04443 0.04443 0.04126 0.07617 Of

94.48 57.87 0.04443 0.04443 0.04126 0.07617 Of

94.48 57.87 0.04443 0.04443 0.04126 0.07617 Of

94.48 57.87 0.04443 0.04443 0.04126 0.07617 Of

94.48 57.87 0.04443 0.04443 0.04126 0.07617 Of

94.48 57.87 0.04443 0.04443 0.04126 0.07617 Of

94.48 57.87 0.04443 0.04443 0.04126 0.07617 Of


94.48 57.87 0.04443 0.04443 0.04126 0.07617 Of

94.48 57.87 0.04443 0.04443 0.04126 0.07617 Of

94.48 57.87 0.04443 0.04443 0.04126 0.07617 Of

94.48 57.87 0.04443 0.04443 0.04126 0.07617 Of

94.48 57.87 0.04443 0.04443 0.04126 0.07617 Of

94.48 57.87 0.04443 0.04443 0.04126 0.07617 Of

94.48 57.87 0.04443 0.04443 0.04126 0.07617 Of

94.48 57.87 0.04443 0.04443 0.04126 0.07617 Of

94.48 57.87 0.04443 0.04443 0.04126 0.07617 Of

94.48 57.77 0.04443 0.04443 0.04126 0.07617 Of

94.48 57.87 0.04443 0.04443 0.04126 0.07617 Of

94.48 57.87 0.04443 0.04443 0.04126 0.07617 Of

94.48 57.87 0.04443 0.04443 0.04126 0.07617 Of

94.48 57.87 0.04443 0.04443 0.04126 0.07617 Of

94.48 57.87 0.04443 0.04443 0.04126 0.07617 Of

94.48 57.77 0.04443 0.04443 0.04126 0.07617 Of

94.48 57.77 0.04443 0.04443 0.04126 0.07617 Of

94.48 57.87 0.04443 0.04443 0.04126 0.07617 Of

94.48 57.87 0.04443 0.04443 0.04126 0.07617 Of


94.48 57.87 0.04443 0.04443 0.04126 0.07617 Of

94.48 57.87 0.04443 0.04443 0.04126 0.07617 Of

94.48 57.87 0.04443 0.04443 0.04126 0.07617 Of

94.48 57.77 0.04443 0.04443 0.04126 0.07617 Of

94.48 57.77 0.04443 0.04443 0.04126 0.07617 Of

94.48 57.87 0.04443 0.04443 0.04126 0.07617 Of

94.48 57.77 0.04443 0.04443 0.04126 0.07617 Of

94.48 57.87 0.04443 0.04443 0.04126 0.07617 Of

94.48 57.77 0.04443 0.04443 0.04126 0.07617 Of

94.48 57.77 0.04443 0.04443 0.04126 0.07617 Of

94.48 57.77 0.04443 0.04443 0.04126 0.07617 Of

94.48 57.77 0.04443 0.04443 0.04126 0.07617 Of

94.48 57.77 0.04443 0.04443 0.04126 0.07617 Of

94.48 57.77 0.04443 0.04443 0.04126 0.07617 Of

94.48 57.87 0.04443 0.04443 0.04126 0.07617 Of

94.48 57.77 0.04443 0.04443 0.04126 0.07617 Of

94.48 57.87 0.04443 0.04443 0.04126 0.07617 Of

94.48 57.77 0.04443 0.04443 0.04126 0.07617 Of

94.48 57.87 0.04443 0.04443 0.04126 0.07617 Of


94.48 57.87 0.04443 0.04443 0.04126 0.07617 Of

94.48 57.87 0.04443 0.04443 0.04126 0.07617 Of

94.48 57.77 0.04443 0.04443 0.04126 0.07617 Of

94.48 57.77 0.04443 0.04443 0.04126 0.07617 Of

94.48 57.77 0.04443 0.04443 0.04126 0.07617 Of

94.48 57.87 0.04443 0.04443 0.04126 0.07617 Of

94.48 57.77 0.04443 0.04443 0.04126 0.07617 Of

94.48 57.77 0.04443 0.04443 0.04126 0.07617 Of

94.48 57.77 0.04443 0.04443 0.04126 0.07617 Of

94.48 57.77 0.04443 0.04443 0.04126 0.07617 Of

94.48 57.77 0.04443 0.04443 0.04126 0.07617 Of

94.48 57.77 0.04443 0.04443 0.04126 0.07617 Of

94.48 57.87 0.04443 0.04443 0.04126 0.07617 Of

94.48 57.77 0.04443 0.04443 0.04126 0.07617 Of

94.48 57.87 0.04443 0.04443 0.04126 0.07617 Of

94.48 57.77 0.04443 0.04443 0.04126 0.07617 Of

94.48 57.87 0.04443 0.04443 0.04126 0.07617 Of

94.48 57.87 0.04443 0.04443 0.04126 0.07617 Of

94.48 57.87 0.04443 0.04443 0.04126 0.07617 Of


94.48 57.77 0.04443 0.04443 0.04126 0.07617 Of

94.48 57.77 0.04443 0.04443 0.04126 0.07617 Of

94.48 57.77 0.04443 0.04443 0.04126 0.07617 Of

94.48 57.77 0.04443 0.04443 0.04126 0.07617 Of

94.48 57.77 0.04443 0.04443 0.04126 0.07617 Of

94.48 57.77 0.04443 0.04443 0.04126 0.07617 Of

94.48 57.77 0.04443 0.04443 0.04126 0.07617 Of

94.48 57.87 0.04443 0.04443 0.04126 0.07617 Of

94.48 57.77 0.04443 0.04443 0.04126 0.07617 Of

94.48 57.77 0.04443 0.04443 0.04126 0.07617 Of

94.48 57.77 0.04443 0.04443 0.04126 0.07617 Of

94.48 57.77 0.04443 0.04443 0.04126 0.07617 Of

94.48 57.77 0.04443 0.04443 0.04126 0.07617 Of

94.48 57.77 0.04443 0.04443 0.04126 0.07617 Of

94.48 57.77 0.04443 0.04443 0.04126 0.07617 Of

94.48 57.87 0.04443 0.04443 0.04126 0.07617 Of

94.48 57.77 0.04443 0.04443 0.04126 0.07617 Of

94.48 57.77 0.04443 0.04443 0.04126 0.07617 Of

94.48 57.77 0.04443 0.04443 0.04126 0.07617 Of


94.48 57.87 0.04443 0.04443 0.04126 0.07617 Of

94.48 57.77 0.04443 0.04443 0.04126 0.07617 Of

94.48 57.77 0.04443 0.04443 0.04126 0.07617 Of

94.48 57.77 0.04443 0.04443 0.04126 0.07617 Of

94.48 57.77 0.04443 0.04443 0.04126 0.07617 Of

94.48 57.77 0.04443 0.04443 0.04126 0.07617 Of

94.48 57.77 0.04443 0.04443 0.04126 0.07617 Of

94.48 57.77 0.04443 0.04443 0.04126 0.07617 Of

94.48 57.87 0.04443 0.04443 0.04126 0.07617 Of

94.48 57.77 0.04443 0.04443 0.04126 0.07617 Of

94.48 57.77 0.04443 0.04443 0.04126 0.07617 Of

94.48 57.77 0.04443 0.04443 0.04126 0.07617 Of

94.48 57.77 0.04443 0.04443 0.04126 0.07617 Of

94.48 57.87 0.04443 0.04443 0.04126 0.07617 Of

94.48 57.87 0.04443 0.04443 0.04126 0.07617 Of

94.48 57.77 0.04443 0.04443 0.04126 0.07617 Of

94.48 57.77 0.04443 0.04443 0.04126 0.07617 Of

94.48 57.87 0.04443 0.04443 0.04126 0.07617 Of

94.48 57.87 0.04443 0.04443 0.04126 0.07617 Of


94.48 57.87 0.04443 0.04443 0.04126 0.07617 Of

94.48 57.87 0.04443 0.04443 0.04126 0.07617 Of

94.48 57.87 0.04443 0.04443 0.04126 0.07617 Of

94.48 57.87 0.04443 0.04443 0.04126 0.07617 Of

94.48 57.87 0.04443 0.04443 0.04126 0.07617 Of

94.48 57.87 0.04443 0.04443 0.04126 0.07617 Of

94.48 57.87 0.04443 0.04443 0.04126 0.07617 Of

94.48 57.87 0.04443 0.04443 0.04126 0.07617 Of

94.48 57.87 0.04443 0.04443 0.04126 0.07617 Of

94.48 57.87 0.04443 0.04443 0.04126 0.07617 Of

94.48 57.87 0.04443 0.04443 0.04126 0.07617 Of

94.48 57.87 0.04443 0.04443 0.04126 0.07617 Of

94.48 57.87 0.04443 0.04443 0.04126 0.07617 Of

94.48 57.87 0.04443 0.04443 0.04126 0.07617 Of

94.48 57.87 0.04443 0.04443 0.04126 0.07617 Of

94.48 57.87 0.04443 0.04443 0.04126 0.07617 Of

94.48 57.87 0.04443 0.04443 0.04126 0.07617 Of

94.48 57.87 0.04443 0.04443 0.04126 0.07617 Of

94.48 57.87 0.04443 0.04443 0.04126 0.07617 Of


94.48 57.87 0.04443 0.04443 0.04126 0.07617 Of

94.48 57.87 0.04443 0.04443 0.04126 0.07617 Of

94.48 57.87 0.04443 0.04443 0.04126 0.07617 Of

94.48 57.87 0.04443 0.04443 0.04126 0.07617 Of

94.48 57.87 0.04443 0.04443 0.04126 0.07617 Of

94.48 57.87 0.04443 0.04443 0.04126 0.07617 Of

94.48 57.87 0.04443 0.04443 0.04126 0.07617 Of

94.48 57.87 0.04443 0.04443 0.04126 0.07617 Of

94.48 57.87 0.04443 0.04443 0.04126 0.07617 Of

94.48 57.87 0.04443 0.04443 0.04126 0.07617 Of

94.48 57.87 0.04443 0.04443 0.04126 0.07617 Of

94.48 57.87 0.04443 0.04443 0.04126 0.07617 Of

94.48 57.87 0.04443 0.04443 0.04126 0.07617 Of

94.48 57.87 0.04443 0.04443 0.04126 0.07617 Of

94.48 57.87 0.04443 0.04443 0.04126 0.07617 Of

94.48 57.87 0.04443 0.04443 0.04126 0.07617 Of

94.48 57.87 0.04443 0.04443 0.04126 0.07617 Of

94.48 57.87 0.04443 0.04443 0.04126 0.07617 Of

94.48 57.87 0.04443 0.04443 0.04126 0.07617 Of


94.48 57.87 0.04443 0.04443 0.04126 0.07617 Of

94.48 57.87 0.04443 0.04443 0.04126 0.07617 Of

94.48 57.87 0.04443 0.04443 0.04126 0.07617 Of

94.48 57.87 0.04443 0.04443 0.04126 0.07617 Of

94.48 57.87 0.04443 0.04443 0.04126 0.07617 Of

94.48 57.87 0.04443 0.04443 0.04126 0.07617 Of

94.48 57.87 0.04443 0.04443 0.04126 0.07617 Of

94.48 57.87 0.04443 0.04443 0.04126 0.07617 Of

94.48 57.87 0.04443 0.04443 0.04126 0.07617 Of


COM1\dvc1 COM1\dvc1 COM1\dvc1 25
Valve Driver Pressure Consumption
Command (gauge) (kPa) (L)

0 71.96 491.67

71.96 491.67

71.43 491.67

71.32 491.67

71.32 491.67

71.32 491.67

71.32 491.67

71.32 491.67

71.32 491.67

71.43 491.67

71.43 491.67

70.78 491.67

70.78 491.67

1 101.59 491.67

289.26 491.86

291.2 491.97

290.55 492.09

291.2 492.2
293.03 492.31

289.26 492.43

290.55 492.54

289.9 492.66

291.73 492.77

286.78 492.84

290.55 492.96

294.97 493.11

294.32 493.19

288.61 493.3

291.2 493.56

287.96 493.83

289.9 494.09

292.38 494.36

294.32 494.7

293.03 495.04

288.61 495.53

294.97 496.06

286.78 496.59
283.55 497.16

284.84 497.73

291.2 498.41

286.13 498.98

287.96 499.54

287.96 500.11

286.78 500.79

287.96 501.36

282.9 501.97

286.78 502.53

291.2 503.1

287.32 503.67

289.9 504.35

286.13 504.92

288.61 505.49

287.96 506.09

286.78 506.66

293.03 507.23

289.9 507.8
284.19 508.48

287.32 509.04

290.55 509.61

291.73 510.18

284.19 510.75

287.96 511.43

291.2 512

289.9 512.6

288.61 513.17

284.84 513.74

288.61 514.31

287.32 514.99

286.13 515.55

289.9 516.12

292.38 516.69

288.61 517.26

289.26 517.83

291.09 518.39

287.96 519.07
284.19 519.68

292.38 520.25

292.27 520.82

293.57 521.38

290.55 522.07

292.92 522.63

296.8 523.2

291.73 523.77

289.9 524.34

286.78 524.9

293.03 525.59

288.5 526.15

289.26 526.68

290.55 527.25

294.32 527.82

294.97 528.39

290.55 528.95

292.38 529.64

291.73 530.2
295.61 530.77

289.26 531.34

291.2 532.02

293.03 532.59

293.67 533.12

293.03 533.69

289.26 534.25

292.38 534.82

290.55 535.39

286.13 536.07

288.61 536.64

296.26 537.21

290.55 537.77

291.2 538.34

293.67 538.91

294.21 539.48

290.55 540.2

296.26 540.76

294.32 541.29
294.21 541.86

290.55 542.43

288.61 543

296.8 543.68

290.55 544.25

289.26 544.81

293.03 545.38

293.57 545.95

289.9 546.67

291.2 547.2

292.38 547.77

296.26 548.33

293.67 548.9

295.61 549.58

294.32 550.15

293.67 550.72

289.26 551.29

293.03 551.85

294.97 552.42
295.61 553.1

292.38 553.71

288.61 554.28

294.32 554.81

290.55 555.37

289.9 555.94

291.73 556.51

291.2 557.19

294.32 557.76

291.73 558.33

291.2 558.89

294.97 559.46

294.97 560.03

294.32 560.71

296.26 561.28

292.92 561.85

287.96 562.41

293.03 562.98

294.97 563.66
297.44 564.23

291.09 564.8

292.38 565.37

295.5 565.93

291.73 566.61

291.09 567.18

292.92 567.75

296.8 568.32

287.96 568.89

291.73 569.45

293.67 570.13

298.09 570.7

290.44 571.27

293.03 571.84

295.61 572.41

291.63 572.97

294.32 573.65

295.5 574.22

295.5 574.79
294.32 575.36

293.67 575.96

292.92 576.64

294.97 577.21

292.27 577.82

289.9 578.39

294.97 578.99

293.57 579.56

289.26 580.24

292.92 580.85

291.63 581.41

292.92 581.98

294.21 582.59

287.21 583.15

294.21 583.84

292.27 584.44

292.27 585.01

294.32 585.58

293.57 586.18
292.92 586.75

289.79 587.43

297.34 588.08

291.09 588.64

294.86 589.21

293.57 589.82

295.5 590.38

292.92 590.95

291.63 591.67

294.86 592.24

289.79 592.81

290.44 593.41

291.2 593.98

291.63 594.55

296.69 595.27

291.09 595.83

286.67 596.4

291.63 597.01

295.5 597.58
294.86 598.14

293.67 598.86

294.21 599.43

292.27 600

293.03 600.6

289.9 601.17

289.9 601.74

294.32 602.42

289.79 602.99

287.86 603.59

292.92 604.16

292.27 604.84

294.21 605.45

288.61 606.02

292.92 606.58

291.09 607.19

290.44 607.76

297.44 608.44

294.32 609.04
291.63 609.61

290.55 610.18

286.67 610.79

292.27 611.35

291.63 612.03

292.92 612.64

294.97 613.21

291.2 613.81

291.2 614.38

292.27 614.95

296.26 615.55

297.34 616.27

293.67 616.84

287.86 617.45

295.5 618.01

289.9 618.58

291.63 619.3

295.5 619.87

292.92 620.44
293.57 621.04

288.5 621.61

294.86 622.29

294.21 622.9

292.27 623.47

289.79 624.03

296.15 624.64

294.86 625.21

291.63 625.89

290.55 626.49

292.27 627.06

296.15 627.63

289.15 628.23

288.5 628.8

293.03 629.48

292.92 630.05

287.21 630.62

290.44 631.19

291.63 631.79
291.63 632.36

289.79 633.04

289.26 633.65

294.21 634.21

294.21 634.78

296.26 635.39

289.79 635.96

295.5 636.56

293.57 637.24

292.27 637.81

291.09 638.42

291.09 638.98

289.15 639.55

294.21 640.16

291.09 640.84

290.44 641.41

287.96 642.01

288.5 642.58

288.5 643.15
294.86 643.75

292.27 644.43

287.86 645

292.27 645.61

294.21 646.18

295.5 646.74

290.44 647.35

289.79 648.03

290.44 648.64

293.57 649.2

289.79 649.77

293.57 650.38

295.5 651.06

289.79 651.63

293.57 652.19

291.63 652.8

288.5 653.37

289.79 654.09

290.44 654.65
292.92 655.22

293.57 655.83

291.63 656.39

295.5 656.96

290.44 657.68

289.79 658.25

290.55 658.82

291.63 659.42

296.8 659.99

291.09 660.56

289.79 661.24

292.27 661.85

291.63 662.41

287.86 662.98

289.79 663.59

291.63 664.15

294.21 664.76

288.5 665.44

293.67 666.01
292.27 666.61

292.27 667.18

287.86 667.75

289.15 668.36

294.21 669.04

285.38 669.6

292.92 670.21

292.27 670.78

294.21 671.38

291.63 672.06

289.79 672.63

293.57 673.2

293.03 673.81

289.15 674.37

291.63 675.09

291.63 675.66

293.03 676.23

288.5 676.8

293.03 677.4
292.92 677.97

290.44 678.57

288.61 679.26

292.27 679.82

289.79 680.43

294.21 681

291.09 681.56

291.63 682.17

293.57 682.85

292.27 683.42

293.57 684.03

295.5 684.59

291.09 685.27

286.13 685.84

292.27 686.41

291.2 686.98

294.21 687.58

286.67 688.15

294.32 688.83
289.79 689.44

289.79 690.01

288.5 690.57

291.63 691.18

289.79 691.75

292.92 692.35

291.63 693.03

291.09 693.6

294.21 694.21

288.5 694.77

289.15 695.34

292.92 695.95

291.09 696.63

290.44 697.2

293.57 697.8

288.5 698.37

286.67 698.94

289.79 699.54

287.96 700.11
293.57 700.79

291.09 701.4

288.5 701.97

289.79 702.53

291.63 703.14

289.15 703.82

289.79 704.39

291.63 704.99

292.92 705.56

292.27 706.17

293.57 706.74

290.44 707.42

287.86 708.02

289.15 708.59

291.63 709.16

290.44 709.88

289.79 710.44

290.44 710.9

291.09 710.9
291.63 711.01

294.86 711.01

290.44 711.13

291.73 711.13

291.73 711.13

291.63 711.24

290.44 711.24

289.15 711.35

287.32 711.35

289.15 711.5

292.92 711.5

292.92 711.5

289.79 711.62

289.15 711.62

290.44 711.62

291.09 711.73

289.79 711.73

289.79 711.84

290.44 711.84
291.09 711.84

292.27 711.96

292.27 711.96

289.79 711.96

291.09 712.07

292.92 712.07

291.63 712.19

290.44 712.19

289.9 712.3

290.55 712.3

292.92 712.3

289.15 712.41

288.5 712.41

291.09 712.53

291.63 712.53

290.44 712.53

289.15 712.64

292.92 712.64

286.67 712.75
288.5 712.75

293.67 712.75

288.61 712.87

291.73 712.87

291.73 712.87

291.63 712.98

291.63 712.98

289.9 713.13

288.5 713.13

290.44 713.13

287.21 713.25

290.44 713.25

290.44 713.36

292.92 713.36

292.27 713.36

289.79 713.47

291.09 713.47

292.27 713.59

290.44 713.59
289.79 713.59

293.57 713.7

287.86 713.7

289.15 713.81

290.44 713.81

294.21 713.81

291.09 713.93

291.09 713.93

293.57 714.04

287.21 714.04

287.86 714.04

289.79 714.15

288.5 714.15

292.92 714.27

291.2 714.27

293.03 714.27

287.21 714.38

291.2 714.38

295.5 714.49
290.44 714.49

291.09 714.61

292.27 714.61

292.92 714.61

286.02 714.72

289.15 714.72

291.09 714.84

294.86 714.84

292.27 714.84

289.15 714.99

291.63 714.99

289.9 715.1

289.9 715.1

291.09 715.1

291.63 715.1

286.02 715.21

291.63 715.21

292.92 715.33

292.27 715.33
288.5 715.33

290.44 715.44

290.44 715.44

291.63 715.55

291.09 715.55

290.44 715.55

290.55 715.67

290.44 715.67

287.86 715.78

289.79 715.78

289.15 715.78

292.92 715.89

292.27 715.89

289.79 716.01

291.63 716.01

288.5 716.01

288.5 716.01

289.79 716.12

291.2 716.12
290.44 716.24

291.09 716.24

292.27 716.35

289.15 716.35

289.15 716.35

289.15 716.46

288.5 716.46

291.09 716.58

286.67 716.58

291.09 716.58

287.86 716.69

288.5 716.69

289.79 716.84

292.27 716.84

291.63 716.84

293.57 716.95

293.57 716.95

291.63 717.07

290.44 717.07
291.09 717.07

288.5 717.18

291.63 717.18

291.09 717.3

294.21 717.3

291.09 717.3

287.86 717.41

287.21 717.41

287.21 717.41

293.57 717.52

291.2 717.52

292.92 717.64

292.27 717.64

288.5 717.64

286.02 717.75

291.63 717.75

291.09 717.86

289.79 717.86

291.09 717.86
293.57 717.98

287.21 717.98

289.79 718.09

292.27 718.09

289.79 718.09

290.44 718.2

291.2 718.2

291.09 718.32

289.15 718.32

290.44 718.32

291.63 718.43

290.44 718.43

291.63 718.58

294.86 718.58

292.27 718.58

289.15 718.7

291.09 718.7

289.15 718.81

294.21 718.81
290.44 718.92

290.44 718.92

289.79 718.92

290.44 718.92

290.44 719.04

289.79 719.04

291.73 719.15

294.21 719.15

289.15 719.15

291.63 719.26

292.92 719.26

285.38 719.38

289.26 719.38

291.09 719.38

287.96 719.49

287.86 719.49

292.27 719.6

290.44 719.6

287.21 719.6
287.86 719.72

289.15 719.72

285.38 719.83

294.86 719.83

295.5 719.83

290.44 719.94

292.27 719.94

289.15 720.06

291.09 720.06

292.27 720.06

292.92 720.17

287.86 720.17

292.92 720.29

283.44 720.29

289.15 720.29

289.15 720.4

291.09 720.4

289.79 720.51

290.44 720.51
291.09 720.63

289.15 720.63

289.9 720.63

293.57 720.74

286.67 720.74

293.57 720.85

292.27 720.85

293.03 720.85

288.5 720.97

289.79 720.97

291.09 721.08

287.86 721.08

291.63 721.08

291.63 721.19

292.92 721.19

289.15 721.31

291.09 721.31

292.27 721.31

292.27 721.31
292.38 721.42

292.27 721.53

292.92 721.53

291.63 721.53

291.63 721.53

289.79 721.65

288.5 721.65

289.79 721.76

289.9 721.76

287.86 721.76

289.15 721.88

287.21 721.88

288.5 722.03

290.44 722.03

292.92 722.03

290.44 722.14

286.67 722.14

291.63 722.25

289.26 722.25
289.26 722.37

289.79 722.37

287.21 722.37

291.09 722.48

292.27 722.48

288.5 722.59

288.5 722.59

288.5 722.59

291.09 722.71

291.09 722.71

289.15 722.82

291.63 722.82

288.5 722.82

289.15 722.94

284.84 722.94

289.15 723.05

291.63 723.05

289.15 723.05

289.15 723.05
291.09 723.16

289.15 723.16

293.03 723.28

290.44 723.28

286.67 723.28

291.63 723.39

287.21 723.39

288.5 723.5

295.61 723.5

288.5 723.5

289.15 723.62

288.5 723.62

289.15 723.73

291.09 723.73

287.86 723.84

294.86 723.84

289.79 723.84

288.5 723.99

291.09 723.99
289.79 724.11

289.79 724.11

291.63 724.11

291.09 724.11

290.44 724.22

290.44 724.22

291.09 724.34

291.63 724.34

291.09 724.34

287.21 724.45

291.09 724.45

291.63 724.56

287.21 724.56

289.79 724.56

292.27 724.68

287.86 724.68

290.44 724.79

289.79 724.79

291.09 724.79
286.67 724.9

289.79 724.9

291.09 725.02

289.79 725.02

289.15 725.13

287.96 725.13

291.63 725.13

288.5 725.24

290.44 725.24

287.21 725.36

287.86 725.36

289.79 725.36

292.27 725.47

291.63 725.47

291.63 725.47

289.15 725.62

287.86 725.62

289.15 725.62

289.79 725.74
289.15 725.74

289.15 725.74

289.15 725.85

294.21 725.85

287.21 725.85

288.5 725.96

289.15 725.96

292.27 726.08

287.96 726.08

291.09 726.08

291.09 726.08

293.57 726.19

286.67 726.19

287.21 726.3

289.79 726.3

291.09 726.42

289.15 726.42

290.44 726.42

291.09 726.53
288.5 726.53

287.21 726.64

293.57 726.64

289.79 726.64

291.09 726.76

292.27 726.76

292.27 726.76

291.73 726.87

288.61 726.87

289.15 726.87

287.21 727.02

287.21 727.02

289.79 727.02

290.44 727.14

289.79 727.14

291.2 727.14

292.27 727.25

292.27 727.25

287.86 727.36
291.09 727.36

288.61 727.36

287.21 727.48

293.57 727.48

288.5 727.59

288.5 727.59

288.5 727.59

288.5 727.7

290.44 727.7

288.61 727.82

291.09 727.82

287.86 727.93

289.79 727.93

290.44 727.93

289.79 728.04

287.21 728.04

289.79 728.16

289.79 728.16

289.79 728.16
286.02 728.16

289.79 728.27

290.44 728.27

289.15 728.39

287.86 728.39

290.44 728.39

292.27 728.5

291.09 728.5

287.86 728.61

291.63 728.61

289.79 728.61

288.5 728.73

288.5 728.73

292.92 728.84

282.79 728.84

292.38 728.84

292.92 728.99

289.79 728.99

287.96 729.1
287.21 729.1

291.63 729.22

286.67 729.22

288.5 729.22

288.5 729.22

292.27 729.33

289.15 729.33

289.79 729.45

291.09 729.45

291.09 729.45

288.5 729.56

289.79 729.56

291.09 729.56

291.63 729.67

289.15 729.67

287.86 729.79

287.86 729.79

291.63 729.79

288.5 729.9
287.86 729.9

290.44 729.9

286.67 730.01

289.15 730.01

291.63 730.13

289.79 730.13

291.09 730.13

289.15 730.24

287.21 730.24

292.27 730.35

289.79 730.35

287.86 730.35

291.2 730.47

287.21 730.47

289.79 730.58

294.21 730.58

286.67 730.69

290.44 730.69

291.63 730.85
286.67 730.85

290.44 730.85

291.63 730.96

290.44 730.96

289.15 731.07

289.15 731.07

289.15 731.07

291.63 731.07

287.86 731.19

291.2 731.19

289.15 731.3

286.02 731.3

286.67 731.3

288.5 731.41

292.92 731.41

292.92 731.41

289.79 731.53

290.44 731.53

291.09 731.53
293.57 731.64

288.5 731.64

290.44 731.75

288.5 731.75

289.79 731.87

289.15 731.87

289.79 731.87

289.79 731.98

288.5 731.98

287.86 732.09

292.27 732.09

294.21 732.09

289.79 732.21

289.79 732.21

289.79 732.32

288.5 732.32

288.5 732.32

291.09 732.44

291.09 732.44
291.09 732.44

290.44 732.55

291.63 732.55

290.44 732.55

289.15 732.7

289.15 732.7

289.15 732.7

291.09 732.81

289.79 732.81

291.63 732.81

289.15 732.93

291.09 732.93

290.44 733.04

291.09 733.04

290.44 733.04

288.5 733.15

287.86 733.15

291.09 733.27

291.09 733.27
286.67 733.38

289.26 733.38

289.26 733.38

289.79 733.38

289.79 733.5

289.9 733.5

289.79 733.61

291.63 733.61

286.67 733.61

290.44 733.72

288.61 733.72

292.92 733.84

292.27 733.84

291.09 733.84

289.79 733.99

291.09 733.99

287.21 734.1

288.5 734.1

289.15 734.1
289.79 734.21

292.92 734.21

292.27 734.33

293.03 734.33

289.15 734.33

287.21 734.44

288.5 734.44

287.21 734.55

291.09 734.55

291.2 734.67

286.02 734.67

288.5 734.67

292.27 734.78

289.79 734.78

290.44 734.9

291.63 734.9

293.03 734.9

287.21 735.01

288.5 735.01
291.63 735.12

287.21 735.12

291.73 735.12

291.63 735.24

292.27 735.24

288.5 735.35

289.9 735.35

293.67 735.35

290.55 735.46

290.55 735.46

291.73 735.58

292.92 735.58

291.09 735.58

291.09 735.58

288.5 735.69

289.26 735.69

289.15 735.84

291.63 735.84

290.44 735.84
294.86 735.96

291.2 735.96

289.26 736.07

290.44 736.07

287.86 736.07

289.79 736.18

287.21 736.18

287.21 736.18

292.27 736.3

285.49 736.3

287.21 736.41

284.73 736.41

289.79 736.41

291.63 736.52

289.15 736.52

291.09 736.64

287.86 736.64

290.44 736.64

287.86 736.75
289.79 736.75

293.03 736.86

292.27 736.86

291.09 736.86

288.5 736.98

287.86 736.98

287.86 737.09

292.27 737.09

289.79 737.09

291.63 737.2

292.27 737.2

288.5 737.32

288.5 737.32

290.44 737.32

290.44 737.43

288.5 737.43

290.44 737.55

292.27 737.55

287.21 737.7
289.79 737.7

291.63 737.7

293.57 737.81

288.5 737.81

287.21 737.92

287.21 737.92

289.15 737.92

286.02 737.92

289.79 738.04

288.61 738.04

289.15 738.15

291.63 738.15

291.09 738.15

290.44 738.26

285.49 738.26

287.21 738.38

287.86 738.38

288.5 738.38

288.5 738.49
293.57 738.49

291.09 738.6

289.79 738.6

291.09 738.6

288.5 738.72

288.5 738.72

289.15 738.83

292.27 738.83

292.92 738.83

286.67 738.95

288.5 738.95

288.5 738.95

289.15 739.06

287.21 739.06

289.79 739.17

292.27 739.17

292.92 739.17

284.73 739.29

289.79 739.29
287.86 739.4

287.86 739.4

290.44 739.4

291.63 739.55

292.92 739.55

289.79 739.66

289.15 739.66

287.21 739.66

289.15 739.78

289.79 739.78

293.03 739.89

292.92 739.89

292.27 739.89

287.86 740.01

289.79 740.01

287.21 740.12

290.44 740.12

289.79 740.12

291.63 740.23
287.86 740.23

285.38 740.35

290.44 740.35

290.44 740.46

288.5 740.46

289.15 740.46

294.21 740.57

285.38 740.57

290.44 740.69

291.63 740.69

289.79 740.69

292.92 740.8

291.63 740.8

289.15 740.95

289.15 740.95

291.09 740.95

289.15 741.07

286.02 741.07

289.79 741.18
288.5 741.18

292.92 741.18

286.02 741.29

286.02 741.29

291.09 741.41

291.63 741.41

291.09 741.52

291.09 741.52

293.57 741.52

291.09 741.63

288.5 741.63

291.63 741.75

291.63 741.75

292.38 741.75

290.44 741.75

290.44 741.86

287.86 741.86

289.15 741.97

288.5 741.97
291.63 741.97

286.67 742.09

290.44 742.09

289.79 742.2

291.63 742.2

287.21 742.2

291.09 742.31

291.09 742.31

291.63 742.43

289.79 742.43

292.27 742.43

290.44 742.54

288.5 742.54

288.5 742.65

290.44 742.65

289.26 742.65

291.2 742.81

291.63 742.81

289.79 742.92
288.5 742.92

288.5 743.03

289.79 743.03

287.86 743.03

290.44 743.15

290.44 743.15

292.92 743.15

286.67 743.26

291.09 743.26

291.09 743.37

289.79 743.37

289.15 743.37

287.86 743.49

291.63 743.49

287.86 743.6

289.15 743.6

294.32 743.71

286.02 743.71

288.5 743.71
290.44 743.83

290.44 743.83

290.44 743.83

292.38 743.94

287.21 743.94

289.79 743.94

289.15 744.06

289.15 744.06

291.09 744.17

287.96 744.17

289.26 744.17

288.5 744.28

288.5 744.28

290.55 744.4

294.21 744.4

288.5 744.4

292.27 744.55

287.21 744.55

288.5 744.66
289.15 744.66

289.15 744.66

287.86 744.66

287.32 744.77

289.15 744.89

287.32 744.89

290.44 744.89

287.86 745

291.63 745

290.55 745.12

287.21 745.12

293.57 745.12

289.15 745.23

290.44 745.23

287.32 745.34

292.27 745.34

289.79 745.34

287.86 745.46

287.86 745.46
291.63 745.46

293.57 745.57

290.44 745.57

287.86 745.68

292.92 745.68

289.15 745.68

289.79 745.8

291.63 745.8

292.92 745.91

288.5 745.91

291.63 745.91

291.09 746.02

289.9 746.02

288.61 746.14

292.92 746.14

292.92 746.14

287.21 746.14

289.79 746.29

290.44 746.29
292.27 746.4

289.79 746.4

289.79 746.4

292.92 746.52

288.5 746.52

289.15 746.63

291.09 746.63

291.09 746.63

289.79 746.74

288.5 746.74

291.09 746.86

286.02 746.86

291.63 746.86

291.63 746.97

286.02 746.97

286.02 746.97

292.27 747.08

287.21 747.08

292.27 747.08
291.63 747.2

291.09 747.2

289.15 747.31

289.15 747.31

287.86 747.42

290.44 747.42

289.79 747.42

289.79 747.54

292.27 747.54

291.09 747.65

291.09 747.65

285.38 747.65

287.21 747.76

288.5 747.76

289.79 747.76

291.63 747.92

292.27 747.92

294.21 748.03

286.67 748.03
289.79 748.14

291.09 748.14

287.86 748.14

288.5 748.26

287.21 748.26

291.09 748.37

291.09 748.37

288.5 748.37

289.79 748.48

288.5 748.48

288.5 748.48

289.15 748.6

292.92 748.6

291.2 748.6

289.79 748.71

287.86 748.71

290.44 748.82

290.44 748.82

286.67 748.82
289.79 748.94

291.09 748.94

284.73 749.05

287.21 749.05

287.32 749.05

291.63 749.17

291.09 749.17

289.79 749.28

289.9 749.28

287.86 749.39

290.55 749.39

289.15 749.39

289.79 749.51

292.92 749.51

291.09 749.62

289.79 749.62

289.26 749.62

290.44 749.77

291.63 749.77
288.5 749.88

292.92 749.88

289.15 749.88

294.32 750

291.09 750

291.09 750

289.79 750.11

289.15 750.11

289.79 750.22

286.67 750.22

287.86 750.34

289.15 750.34

288.5 750.34

289.15 750.45

291.63 750.45

287.86 750.57

289.15 750.57

289.79 750.57

286.67 750.68
287.86 750.68

291.63 750.79

289.79 750.79

289.26 750.79

286.02 750.91

293.57 750.91

288.5 751.02

288.5 751.02

290.44 751.13

287.21 751.13

289.15 751.13

291.09 751.25

292.92 751.25

287.21 751.36

291.63 751.36

289.15 751.36

286.02 751.47

290.44 751.47

289.15 751.63
292.27 751.63

283.44 751.63

289.26 751.74

288.5 751.74

290.44 751.85

287.86 751.85

291.63 751.85

294.86 751.97

289.15 751.97

291.63 752.08

290.44 752.08

289.15 752.08

284.09 752.19

289.79 752.19

289.79 752.19

291.73 752.31

288.5 752.31

289.15 752.42

289.79 752.42
288.5 752.42

291.63 752.53

288.5 752.53

290.44 752.65

288.5 752.65

287.86 752.65

287.21 752.76

288.5 752.76

290.44 752.87

290.44 752.87

290.44 752.87

286.02 752.99

291.09 752.99

292.92 753.1

293.57 753.1

291.09 753.1

289.79 753.22

292.92 753.22

285.38 753.33
286.67 753.33

292.27 753.33

291.09 753.48

289.79 753.48

292.92 753.59

292.92 753.59

292.27 753.59

289.79 753.59

289.15 753.71

291.63 753.71

286.67 753.82

286.67 753.82

292.92 753.93

287.21 753.93

290.44 754.05

289.9 754.05

286.02 754.05

290.44 754.16

287.86 754.16
292.27 754.27

291.63 754.27

291.09 754.39

291.63 754.39

289.79 754.5

286.67 754.5

289.15 754.5

296.15 754.62

289.15 754.62

290.44 754.73

289.15 754.73

287.21 754.73

289.15 754.88

287.86 754.88

291.09 754.99

291.63 754.99

289.15 755.11

289.79 755.11

289.79 755.11
289.15 755.22

288.5 755.22

288.5 755.33

291.63 755.33

290.44 755.33

290.44 755.45

291.2 755.45

287.86 755.56

289.15 755.56

289.79 755.56

291.09 755.68

289.79 755.68

291.63 755.79

288.5 755.79

288.5 755.79

288.5 755.79

288.5 755.79

287.86 755.9

289.15 756.02
291.63 756.02

291.09 756.13

289.79 756.13

287.86 756.24

289.15 756.24

289.79 756.24

291.09 756.36

294.21 756.36

291.09 756.47

287.86 756.47

288.5 756.47

290.44 756.58

289.15 756.58

289.15 756.58

287.86 756.74

292.27 756.74

286.67 756.74

287.86 756.85

291.09 756.85
288.5 756.96

288.5 756.96

286.67 756.96

292.92 757.08

288.5 757.08

290.44 757.19

287.86 757.19

289.15 757.3

290.44 757.3

288.5 757.3

292.92 757.42

292.92 757.42

291.63 757.42

292.27 757.53

289.79 757.53

288.61 757.64

287.86 757.64

294.21 757.64

288.61 757.76
289.79 757.76

287.86 757.87

290.44 757.87

287.86 757.98

288.5 757.98

292.92 757.98

291.63 758.1

290.44 758.1

286.67 758.21

291.09 758.21

287.96 758.32

292.27 758.32

287.86 758.32

287.86 758.44

287.86 758.44

292.92 758.59

294.21 758.59

289.15 758.59

287.86 758.7
290.44 758.7

287.86 758.82

286.02 758.82

292.27 758.93

285.38 758.93

289.15 758.93

288.5 759.04

291.63 759.04

287.86 759.16

287.86 759.16

291.63 759.16

287.21 759.27

291.73 759.27

289.15 759.38

289.79 759.38

289.15 759.38

287.86 759.5

291.09 759.5

287.21 759.61
293.57 759.61

291.09 759.61

288.5 759.73

289.79 759.73

291.09 759.84

289.15 759.84

292.27 759.84

289.9 759.95

289.79 759.95

286.02 760.07

285.38 760.07

290.44 760.07

290.44 760.18

291.63 760.18

289.79 760.29

291.09 760.29

289.15 760.29

289.15 760.44

288.5 760.44
288.5 760.44

289.15 760.56

291.63 760.56

290.44 760.67

292.92 760.67

289.15 760.79

289.15 760.79

289.79 760.79

294.21 760.79

288.5 760.9

292.92 760.9

287.21 761.01

288.5 761.01

289.79 761.01

285.38 761.13

291.63 761.13

287.86 761.24

288.5 761.24

287.86 761.35
291.09 761.35

286.67 761.35

289.79 761.47

289.79 761.47

285.38 761.58

287.86 761.58

288.5 761.58

289.79 761.69

285.38 761.69

287.21 761.81

291.09 761.81

292.27 761.81

292.27 761.92

289.15 761.92

293.57 762.03

284.09 762.03

289.79 762.03

287.21 762.15

289.79 762.15
290.44 762.26

286.02 762.26

290.44 762.26

287.86 762.37

288.5 762.37

293.57 762.49

287.86 762.49

294.21 762.6

294.21 762.6

294.21 762.6

288.5 762.72

288.5 762.72

288.5 762.72

291.09 762.72

290.44 762.83

290.44 762.83

285.38 762.94

291.63 762.94

287.86 762.94
289.79 763.06

289.79 763.06

289.15 763.17

284.09 763.17

291.63 763.28

291.09 763.28

290.44 763.28

289.15 763.4

291.63 763.4

289.9 763.55

289.9 763.55

289.15 763.55

290.44 763.55

289.79 763.66

288.5 763.66

287.21 763.78

291.09 763.78

286.67 763.78

289.79 763.89
285.38 763.89

291.09 764

290.44 764

288.5 764

290.44 764.12

290.44 764.12

288.5 764.12

290.44 764.23

291.09 764.23

289.15 764.34

292.27 764.34

284.73 764.34

291.09 764.46

287.21 764.46

289.26 764.57

291.09 764.57

291.09 764.57

292.27 764.68

291.09 764.68
291.63 764.8

291.09 764.8

287.21 764.8

289.15 764.91

292.27 764.91

286.02 765.02

287.86 765.02

287.86 765.02

289.79 765.02

290.44 765.14

291.63 765.14

287.96 765.25

291.63 765.25

286.67 765.25

287.86 765.36

290.44 765.36

288.5 765.52

287.21 765.52

291.63 765.63
290.44 765.63

288.5 765.63

290.44 765.74

289.15 765.74

289.15 765.86

288.5 765.86

290.44 765.86

290.44 765.97

287.21 765.97

290.44 766.08

289.15 766.08

289.15 766.08

291.09 766.2

288.5 766.2

291.09 766.31

289.15 766.31

288.5 766.31

287.21 766.42

287.21 766.42
289.15 766.54

289.15 766.54

292.27 766.54

289.15 766.65

289.15 766.65

287.21 766.65

291.09 766.77

289.9 766.77

291.63 766.88

291.63 766.88

294.21 766.88

287.86 766.99

289.15 766.99

291.63 767.11

287.21 767.11

291.09 767.11

291.09 767.22

291.09 767.22

291.09 767.22
286.67 767.33

289.79 767.33

292.27 767.33

292.27 767.33

286.02 767.48

292.92 767.48

288.5 767.6

292.27 767.6

286.02 767.6

286.02 767.6

290.44 767.71

291.09 767.83

292.27 767.83

287.21 767.83

292.92 767.94

287.21 767.94

291.09 768.05

290.44 768.05

286.02 768.05
288.5 768.17

287.86 768.17

290.44 768.28

290.44 768.28

287.86 768.28

291.09 768.28

294.21 768.39

292.27 768.39

290.44 768.51

289.15 768.51

292.27 768.62

291.09 768.62

287.86 768.62

291.09 768.77

291.09 768.77

285.38 768.88

287.86 768.88

292.92 768.88

289.15 769
289.79 769

290.44 769.11

289.79 769.11

291.09 769.11

288.5 769.23

288.5 769.23

292.92 769.23

286.67 769.34

287.86 769.34

289.15 769.34

293.57 769.45

291.2 769.45

286.67 769.57

290.44 769.57

285.38 769.57

285.38 769.57

291.73 769.68

289.79 769.79

289.79 769.79
289.79 769.79

289.79 769.79

292.92 769.91

287.86 769.91

290.44 770.02

289.15 770.02

292.92 770.02

289.79 770.13

288.5 770.13

288.5 770.13

287.86 770.25

287.86 770.25

290.44 770.36

290.44 770.36

289.15 770.36

289.79 770.47

286.67 770.47

288.5 770.47

287.21 770.63
287.21 770.63

287.86 770.63

292.27 770.74

292.92 770.74

290.44 770.74

289.9 770.85

290.44 770.85

289.79 770.97

290.44 770.97

291.63 770.97

291.09 771.08

284.73 771.08

289.15 771.19

289.79 771.19

289.79 771.31

289.79 771.31

290.44 771.31

289.79 771.42

286.67 771.42
290.44 771.53

294.86 771.53

287.21 771.53

292.27 771.65

286.02 771.65

291.63 771.76

290.44 771.76

289.15 771.76

290.44 771.88

286.02 771.88

285.38 771.99

287.86 771.99

292.92 771.99

291.09 772.1

288.5 772.1

289.15 772.22

289.15 772.22

290.44 772.22

289.79 772.37
291.73 772.37

286.67 772.48

291.09 772.48

291.09 772.48

290.44 772.59

291.63 772.59

292.27 772.59

286.67 772.71

293.57 772.71

291.09 772.82

286.02 772.82

291.09 772.82

286.67 772.93

287.86 772.93

290.44 773.05

291.09 773.05

289.79 773.05

289.79 773.16

292.92 773.16
287.86 773.28

288.5 773.28

291.09 773.28

291.63 773.39

287.86 773.39

289.15 773.5

292.27 773.5

287.86 773.5

292.27 773.62

291.63 773.62

291.63 773.62

291.09 773.73

88.23 415.63

88.23 415.63

88.34 415.63

88.34 415.63

88.23 415.63

88.23 415.63

88.34 415.63
88.23 415.63

88.23 415.63

88.23 415.63

88.23 415.63

88.23 415.63

88.34 415.63

88.23 415.63

88.23 415.63

88.34 415.63

88.34 415.63

88.34 415.63

88.34 415.63

88.23 415.63

88.23 415.63

88.23 415.63

88.23 415.63

88.23 415.63

88.23 415.63

88.23 415.63
88.34 415.63

88.23 415.63

88.23 415.63

88.23 415.63

88.34 415.63

88.34 415.63

88.23 415.63

88.34 415.63

88.23 415.63

88.34 415.63

88.34 415.63

88.23 415.63

88.23 415.63

88.34 415.63

88.23 415.63

88.23 415.63

88.23 415.63

88.34 415.63

88.23 415.63
88.23 415.63

88.23 415.63

87.58 415.63

88.34 415.63

87.69 415.63

87.69 415.63

87.69 415.63

88.34 415.63

87.58 415.63

88.23 415.63

87.69 415.63

87.69 415.63

87.69 415.63

87.69 415.63

87.69 415.63

87.58 415.63

87.69 415.63

87.58 415.63

87.58 415.63
87.58 415.63

87.69 415.63

87.69 415.63

87.58 415.63

87.69 415.63

87.58 415.63

87.69 415.63

87.69 415.63

87.58 415.63

87.58 415.63

87.58 415.63

87.69 415.63

87.69 415.63

87.58 415.63

87.58 415.63

87.58 415.63

87.69 415.63

87.58 415.63

87.58 415.63
87.69 415.63

87.58 415.63

87.58 415.63

87.69 415.63

87.58 415.63

87.69 415.63

87.69 415.63

87.69 415.63

87.69 415.63

87.69 415.63

87.69 415.63

87.69 415.63

87.69 415.63

87.58 415.63

87.58 415.63

87.69 415.63

87.69 415.63

87.69 415.63

87.69 415.63
87.69 415.63

87.58 415.63

87.69 415.63

87.58 415.63

87.58 415.63

87.69 415.63

87.69 415.63

87.69 415.63

87.69 415.63

87.69 415.63

87.69 415.63

87.69 415.63

87.69 415.63

87.58 415.63

87.58 415.63

87.69 415.63

87.69 415.63

87.69 415.63

87.58 415.63
87.58 415.63

87.69 415.63

87.69 415.63

87.69 415.63

87.69 415.63

87.69 415.63

87.69 415.63

87.69 415.63

87.69 415.63

87.69 415.63

87.69 415.63

87.69 415.63

87.69 415.63

87.69 415.63

87.69 415.63

87.69 415.63

87.69 415.63

87.69 415.63

87.69 415.63
87.69 415.63

87.69 415.63

87.69 415.63

87.69 415.63

87.69 415.63

87.69 415.63

87.69 415.63

87.69 415.63

87.69 415.63

87.69 415.63

87.69 415.63

87.69 415.63

87.58 415.63

87.69 415.63

87.69 415.63

87.58 415.63

87.69 415.63

87.69 415.63

87.69 415.63
87.58 415.63

87.58 415.63

87.69 415.63

87.69 415.63

87.69 415.63

87.69 415.63

86.94 415.63

86.94 415.63

87.69 415.63

86.94 415.63

86.94 415.63

86.94 415.63

86.94 415.63

87.05 415.63

86.94 415.63

87.05 415.63

87.05 415.63

87.05 415.63

86.94 415.63
87.05 415.63

87.05 415.63

86.94 415.63

86.94 415.63

87.05 415.63

86.94 415.63

86.94 415.63

87.05 415.63

87.05 415.63

86.94 415.63

86.94 415.63

86.94 415.63

87.05 415.63

87.05 415.63

87.05 415.63

87.05 415.63

86.94 415.63

87.05 415.63

87.05 415.63
87.05 415.63

87.05 415.63

86.94 415.63

87.05 415.63

87.05 415.63

87.05 415.63

87.05 415.63

87.05 415.63

87.05 415.63

87.05 415.63

87.05 415.63

87.05 415.63

87.05 415.63

87.05 415.63

87.05 415.63

87.05 415.63

87.05 415.63

87.05 415.63

87.05 415.63
87.05 415.63

87.05 415.63

87.05 415.63

87.05 415.63

87.05 415.63

87.05 415.63

87.05 415.63

87.05 415.63

87.05 415.63

87.05 415.63

87.05 415.63

87.05 415.63

87.05 415.63

87.05 415.63

87.05 415.63

87.05 415.63

87.05 415.63

87.05 415.63

87.05 415.63
87.05 415.63

87.05 415.63

87.05 415.63

87.05 415.63

87.05 415.63

87.05 415.63

87.05 415.63

87.05 415.63

87.05 415.63

87.05 415.63

87.05 415.63

87.05 415.63

87.05 415.63

87.05 415.63

87.05 415.63

87.05 415.63

87.05 415.63

87.05 415.63

87.05 415.63
87.05 415.63

87.05 415.63

87.05 415.63

87.05 415.63

87.05 415.63

87.05 415.63

87.05 415.63

87.05 415.63

87.05 415.63

87.05 415.63

87.05 415.63

87.05 415.63

87.05 415.63

87.05 415.63

87.05 415.63

87.05 415.63

87.05 415.63

86.4 415.63

87.05 415.63
87.05 415.63

86.4 415.63

86.4 415.63

87.05 415.63

86.4 415.63

86.4 415.63

87.05 415.63

86.4 415.63

86.4 415.63

87.05 415.63

86.51 415.63

86.4 415.63

87.05 415.63

86.4 415.63

87.05 415.63

86.4 415.63

86.4 415.63

86.4 415.63

86.4 415.63
86.4 415.63

86.4 415.63

86.4 415.63

86.4 415.63

86.4 415.63

86.4 415.63

86.4 415.63

86.4 415.63

86.4 415.63

86.51 415.63

86.4 415.63

86.51 415.63

86.4 415.63

86.4 415.63

86.4 415.63

86.4 415.63

86.4 415.63

86.4 415.63

86.4 415.63
86.4 415.63

86.4 415.63

86.4 415.63

86.4 415.63

86.4 415.63

86.4 415.63

86.4 415.63

86.4 415.63

86.4 415.63

86.4 415.63

86.4 415.63

86.4 415.63

86.51 415.63

86.51 415.63

86.4 415.63

86.4 415.63

86.4 415.63

86.4 415.63

86.51 415.63
86.51 415.63

86.51 415.63

86.4 415.63

86.51 415.63

86.51 415.63

86.4 415.63

86.4 415.63

86.51 415.63

86.4 415.63

86.4 415.63

86.4 415.63

86.4 415.63

86.4 415.63

86.4 415.63

86.4 415.63

86.4 415.63

86.4 415.63

86.4 415.63

86.4 415.63
86.4 415.63

86.4 415.63

86.4 415.63

86.4 415.63

86.4 415.63

86.4 415.63

86.4 415.63

86.4 415.63

86.4 415.63

86.4 415.63

86.4 415.63

86.4 415.63

86.4 415.63

86.4 415.63

86.4 415.63

86.4 415.63

86.51 415.63

86.51 415.63

86.4 415.63
86.4 415.63

86.4 415.63

86.4 415.63

86.4 415.63

86.4 415.63

86.4 415.63

86.4 415.63

86.4 415.63

86.4 415.63

86.4 415.63

86.51 415.63

86.4 415.63

86.51 415.63

86.51 415.63

86.4 415.63

85.97 415.63

85.97 415.63

85.97 415.63

85.86 415.63
85.97 415.63

85.97 415.63

85.86 415.63

85.97 415.63

85.86 415.63

85.97 415.63

85.97 415.63

85.97 415.63

85.86 415.63

85.97 415.63

85.97 415.63

85.86 415.63

85.97 415.63

85.86 415.63

85.86 415.63

85.97 415.63

85.97 415.63

85.86 415.63

85.97 415.63
85.86 415.63

85.86 415.63

85.97 415.63

85.97 415.63

85.97 415.63

85.97 415.63

85.97 415.63

85.86 415.63

85.86 415.63

85.86 415.63

85.97 415.63

85.86 415.63

85.86 415.63

85.97 415.63

85.97 415.63

85.97 415.63

85.86 415.63

85.86 415.63

85.86 415.63
85.97 415.63

85.97 415.63

85.86 415.63

85.86 415.63

85.86 415.63

85.86 415.63

85.86 415.63

85.97 415.63

85.86 415.63

85.97 415.63

85.97 415.63

85.97 415.63

85.97 415.63

85.86 415.63

85.97 415.63

85.86 415.63

85.97 415.63

85.97 415.63

85.97 415.63
85.97 415.63

85.97 415.63

85.97 415.63

85.97 415.63

85.86 415.63

85.97 415.63

85.97 415.63

85.97 415.63

85.86 415.63

85.97 415.63

85.97 415.63

85.97 415.63

85.97 415.63

85.97 415.63

85.97 415.63

85.97 415.63

85.97 415.63

85.86 415.63

85.97 415.63
85.97 415.63

85.86 415.63

85.97 415.63

85.86 415.63

85.86 415.63

85.97 415.63

85.97 415.63

85.86 415.63

85.97 415.63

85.97 415.63

85.97 415.63

85.97 415.63

85.97 415.63

85.97 415.63

85.97 415.63

85.97 415.63

85.97 415.63

85.97 415.63

85.86 415.63
85.97 415.63

85.97 415.63

85.86 415.63

85.86 415.63

85.97 415.63

85.86 415.63

85.97 415.63

85.97 415.63

85.86 415.63

85.97 415.63

85.86 415.63

85.86 415.63

85.97 415.63

85.97 415.63

85.97 415.63

85.97 415.63

85.97 415.63

85.86 415.63

85.97 415.63
85.86 415.63

85.97 415.63

85.97 415.63

85.97 415.63

85.97 415.63

85.86 415.63

85.32 415.63

85.32 415.63

85.32 415.63

85.21 415.63

85.86 415.63

85.97 415.63

85.32 415.63

85.32 415.63

85.32 415.63

85.32 415.63

85.32 415.63

85.32 415.63

85.32 415.63
85.97 415.63

85.97 415.63

85.32 415.63

85.21 415.63

85.21 415.63

85.32 415.63

85.32 415.63

85.21 415.63

85.21 415.63

85.32 415.63

85.32 415.63

85.32 415.63

85.21 415.63

85.32 415.63

85.21 415.63

85.97 415.63

85.86 415.63

85.32 415.63

85.32 415.63
85.21 415.63

85.32 415.63

85.32 415.63

85.32 415.63

85.21 415.63

85.32 415.63

85.32 415.63

85.32 415.63

85.32 415.63

85.32 415.63

85.32 415.63

85.21 415.63

85.32 415.63

85.32 415.63

85.32 415.63

85.21 415.63

85.32 415.63

85.21 415.63

85.32 415.63
85.21 415.63

85.32 415.63

85.21 415.63

85.32 415.63

85.21 415.63

85.32 415.63

85.32 415.63

85.32 415.63

85.32 415.63

85.32 415.63

85.32 415.63

85.32 415.63

85.32 415.63

85.21 415.63

85.21 415.63

85.21 415.63

85.32 415.63

85.32 415.63

85.32 415.63
85.32 415.63

85.21 415.63

85.32 415.63

85.32 415.63

85.32 415.63

85.32 415.63

85.32 415.63

85.32 415.63

85.32 415.63

85.32 415.63

85.32 415.63

85.32 415.63

85.21 415.63

85.21 415.63

85.32 415.63

85.32 415.63

85.21 415.63

85.32 415.63

85.32 415.63
85.21 415.63

85.21 415.63

85.21 415.63

85.32 415.63

85.32 415.63

85.32 415.63

85.32 415.63

85.21 415.63

85.32 415.63

85.32 415.63

85.32 415.63

85.32 415.63

85.32 415.63

85.32 415.63

85.32 415.63

85.32 415.63

85.21 415.63

85.32 415.63

85.32 415.63
85.32 415.63

85.21 415.63

85.32 415.63

85.32 415.63

85.32 415.63

85.32 415.63

85.32 415.63

85.32 415.63

85.32 415.63

85.32 415.63

85.32 415.63

85.32 415.63

85.32 415.63

85.32 415.63

85.32 415.63

85.32 415.63

85.21 415.63

85.32 415.63

85.21 415.63
85.32 415.63

85.32 415.63

85.21 415.63

85.32 415.63

85.32 415.63

85.32 415.63

85.32 415.63

85.32 415.63

85.32 415.63

85.32 415.63

85.32 415.63

85.21 415.63

85.21 415.63

85.32 415.63

85.21 415.63

85.32 415.63

85.21 415.63

85.21 415.63

85.32 415.63
85.32 415.63

85.32 415.63

85.32 415.63

85.32 415.63

85.32 415.63

85.32 415.63

85.21 415.63

85.21 415.63

85.21 415.63

85.32 415.63

85.32 415.63

84.57 415.63

84.68 415.63

85.32 415.63

85.32 415.63

84.57 415.63

85.32 415.63

85.32 415.63

85.21 415.63
85.32 415.63

85.32 415.63

84.68 415.63

84.68 415.63

84.68 415.63

84.68 415.63

84.68 415.63

84.57 415.63

84.68 415.63

84.68 415.63

84.68 415.63

84.68 415.63

84.68 415.63

84.68 415.63

84.68 415.63

84.57 415.63

84.68 415.63

84.68 415.63

84.68 415.63
84.68 415.63

84.68 415.63

84.68 415.63

84.68 415.63

84.68 415.63

84.68 415.63

84.68 415.63

84.57 415.63

84.68 415.63

84.68 415.63

84.68 415.63

84.68 415.63

84.68 415.63

84.68 415.63

84.68 415.63

84.68 415.63

84.57 415.63

84.57 415.63

84.68 415.63
84.68 415.63

84.68 415.63

84.68 415.63

84.68 415.63

84.68 415.63

84.68 415.63

84.68 415.63

84.68 415.63

84.68 415.63

84.68 415.63

84.68 415.63

84.68 415.63

84.57 415.63

84.68 415.63

84.68 415.63

84.68 415.63

84.57 415.63

84.68 415.63

84.68 415.63
84.68 415.63

84.68 415.63

84.68 415.63

84.68 415.63

84.68 415.63

84.68 415.63

84.68 415.63

84.57 415.63

84.57 415.63

84.68 415.63

84.57 415.63

84.57 415.63

84.68 415.63

84.68 415.63

84.68 415.63

84.68 415.63

84.68 415.63

84.57 415.63

84.68 415.63
84.57 415.63

84.68 415.63

84.68 415.63

84.68 415.63

84.68 415.63

84.68 415.63

84.68 415.63

84.68 415.63

84.68 415.63

84.57 415.63

84.68 415.63

84.68 415.63

84.68 415.63

84.68 415.63

84.68 415.63

84.68 415.63

84.68 415.63

84.68 415.63

84.57 415.63
84.68 415.63

84.57 415.63

84.68 415.63

84.68 415.63

84.57 415.63

84.57 415.63

84.68 415.63

84.68 415.63

84.68 415.63

84.68 415.63

84.68 415.63

84.68 415.63

84.68 415.63

84.68 415.63

84.68 415.63

84.68 415.63

84.68 415.63

84.68 415.63

84.57 415.63
84.68 415.63

84.68 415.63

84.57 415.63

84.68 415.63

84.68 415.63

84.68 415.63

84.57 415.63

84.68 415.63

84.68 415.63

84.68 415.63

84.68 415.63

84.68 415.63

84.68 415.63

84.68 415.63

84.68 415.63

84.68 415.63

84.57 415.63

84.68 415.63

84.68 415.63
84.68 415.63

84.57 415.63

84.68 415.63

84.68 415.63

84.68 415.63

84.68 415.63

84.68 415.63

84.68 415.63

84.68 415.63

84.68 415.63

84.68 415.63

84.68 415.63

84.68 415.63

84.68 415.63

84.68 415.63

84.68 415.63

84.68 415.63

84.68 415.63

84.68 415.63
84.68 415.63

84.68 415.63

84.57 415.63

84.57 415.63

84.68 415.63

84.68 415.63

84.68 415.63

84.68 415.63

84.68 415.63

84.68 415.63

84.68 415.63

84.68 415.63

84.68 415.63

84.68 415.63

84.68 415.63

84.68 415.63

84.68 415.63

84.68 415.63

84.57 415.63
84.68 415.63

84.68 415.63

84.68 415.63

84.68 415.63

84.68 415.63

84.68 415.63

84.68 415.63

84.68 415.63

84.68 415.63

84.68 415.63

84.57 415.63

84.68 415.63

84.68 415.63

84.68 415.63

84.57 415.63

84.03 415.63

84.68 415.63

83.92 415.63

84.57 415.63
84.03 415.63

84.03 415.63

84.03 415.63

84.03 415.63

84.03 415.63

83.92 415.63

84.03 415.63

84.03 415.63

84.03 415.63

84.03 415.63

84.03 415.63

84.03 415.63

84.03 415.63

84.03 415.63

84.03 415.63

84.03 415.63

84.03 415.63

84.03 415.63

84.03 415.63
84.03 415.63

83.92 415.63

84.03 415.63

84.03 415.63

84.03 415.63

84.03 415.63

84.03 415.63

84.03 415.63

84.03 415.63

84.03 415.63

84.03 415.63

84.03 415.63

83.92 415.63

84.03 415.63

84.03 415.63

84.03 415.63

84.03 415.63

84.03 415.63

84.03 415.63
84.03 415.63

84.03 415.63

84.03 415.63

84.03 415.63

84.03 415.63

84.03 415.63

84.03 415.63

84.03 415.63

84.03 415.63

84.03 415.63

83.92 415.63

84.03 415.63

84.03 415.63

84.03 415.63

84.03 415.63

84.03 415.63

83.92 415.63

84.03 415.63

84.03 415.63
84.03 415.63

84.03 415.63

84.03 415.63

84.03 415.63

84.03 415.63

84.03 415.63

84.03 415.63

84.03 415.63

84.03 415.63

84.03 415.63

84.03 415.63

84.03 415.63

84.03 415.63

84.03 415.63

83.92 415.63

84.03 415.63

84.03 415.63

84.03 415.63

84.03 415.63
83.92 415.63

84.03 415.63

84.03 415.63

84.03 415.63

84.03 415.63

84.03 415.63

84.03 415.63

84.03 415.63

84.03 415.63

84.03 415.63

84.03 415.63

84.03 415.63

84.03 415.63

84.03 415.63

84.03 415.63

84.03 415.63

84.03 415.63

83.92 415.63

84.03 415.63
84.03 415.63

83.92 415.63

84.03 415.63

84.03 415.63

84.03 415.63

84.03 415.63

84.03 415.63

84.03 415.63

84.03 415.63

83.92 415.63

84.03 415.63

84.03 415.63

84.03 415.63

84.03 415.63

84.03 415.63

84.03 415.63

84.03 415.63

84.03 415.63

84.03 415.63
84.03 415.63

84.03 415.63

84.03 415.63

84.03 415.63

84.03 415.63

83.92 415.63

83.92 415.63

84.03 415.63

84.03 415.63

84.03 415.63

84.03 415.63

83.92 415.63

83.92 415.63

83.92 415.63

84.03 415.63

84.03 415.63

84.03 415.63

84.03 415.63

84.03 415.63
84.03 415.63

84.03 415.63

83.38 415.63

84.03 415.63

84.03 415.63

84.03 415.63

84.03 415.63

84.03 415.63

84.03 415.63

84.03 415.63

84.03 415.63

84.03 415.63

84.03 415.63

84.03 415.63

84.03 415.63

84.03 415.63

84.03 415.63

84.03 415.63

84.03 415.63
84.03 415.63

83.38 415.63

84.03 415.63

83.38 415.63

84.03 415.63

83.28 415.63

83.38 415.63

84.03 415.63

84.03 415.63

84.03 415.63

84.03 415.63

84.03 415.63

84.03 415.63

84.03 415.63

84.03 415.63

84.03 415.63

83.38 415.63

83.38 415.63

83.38 415.63
84.03 415.63

83.38 415.63

83.38 415.63

83.38 415.63

83.38 415.63

83.38 415.63

83.92 415.63

83.38 415.63

83.28 415.63

83.38 415.63

83.38 415.63

83.38 415.63

83.38 415.63

83.38 415.63

83.38 415.63

83.38 415.63

83.38 415.63

83.38 415.63

83.38 415.63
83.38 415.63

83.38 415.63

83.38 415.63

83.38 415.63

83.38 415.63

83.38 415.63

83.38 415.63

83.38 415.63

83.38 415.63

83.38 415.63

83.38 415.63

83.38 415.63

83.38 415.63

84.03 415.63

83.38 415.63

83.38 415.63

83.38 415.63

83.38 415.63

83.38 415.63
83.28 415.63

83.38 415.63

83.38 415.63

83.38 415.63

83.38 415.63

83.38 415.63

83.38 415.63

83.38 415.63

83.38 415.63

83.38 415.63

83.38 415.63

83.38 415.63

83.38 415.63

83.38 415.63

83.38 415.63

83.38 415.63

83.38 415.63

83.38 415.63

83.38 415.63
83.38 415.63

83.38 415.63

83.38 415.63

83.38 415.63

83.38 415.63

83.38 415.63

83.38 415.63

83.38 415.63

83.38 415.63

83.38 415.63

83.38 415.63

83.38 415.63

83.38 415.63

83.38 415.63

83.38 415.63

83.38 415.63

83.38 415.63

83.38 415.63

83.38 415.63
83.38 415.63

83.38 415.63

83.38 415.63

83.38 415.63

83.38 415.63

83.38 415.63

83.38 415.63

83.38 415.63

83.38 415.63